<?xml version='1.0' encoding='UTF-8'?><gpx version="1.1" creator="JPX - https://github.com/jenetics/jpx" xmlns="http://www.topografix.com/GPX/1/1"><trk><trkseg><trkpt lat="39.4166088" lon="16.0147807"><ele>50.00000000000001</ele><time>2026-04-19T14:17:54.037Z</time></trkpt><trkpt lat="39.4165154" lon="16.0147168"><ele>50.0</ele><time>2026-04-19T14:17:57.133Z</time></trkpt><trkpt lat="39.4164423" lon="16.0147171"><ele>50.0</ele><time>2026-04-19T14:17:59.134Z</time></trkpt><trkpt lat="39.4163719" lon="16.0146779"><ele>50.0</ele><time>2026-04-19T14:18:01.133Z</time></trkpt><trkpt lat="39.4163076" lon="16.0145945"><ele>50.00000000000001</ele><time>2026-04-19T14:18:04.133Z</time></trkpt><trkpt lat="39.4162445" lon="16.0145324"><ele>50.0</ele><time>2026-04-19T14:18:06.133Z</time></trkpt><trkpt lat="39.416163" lon="16.0144773"><ele>49.42857142857143</ele><time>2026-04-19T14:18:08.134Z</time></trkpt><trkpt lat="39.4160927" lon="16.0144734"><ele>48.85714285714286</ele><time>2026-04-19T14:18:10.133Z</time></trkpt><trkpt lat="39.4160197" lon="16.0144621"><ele>48.28571428571429</ele><time>2026-04-19T14:18:12.133Z</time></trkpt><trkpt lat="39.4159495" lon="16.0144595"><ele>47.714285714285715</ele><time>2026-04-19T14:18:14.133Z</time></trkpt><trkpt lat="39.4158821" lon="16.014463"><ele>47.14285714285714</ele><time>2026-04-19T14:18:16.133Z</time></trkpt><trkpt lat="39.4158102" lon="16.0144741"><ele>46.57142857142858</ele><time>2026-04-19T14:18:18.134Z</time></trkpt><trkpt lat="39.415738" lon="16.0144827"><ele>46.0</ele><time>2026-04-19T14:18:20.133Z</time></trkpt><trkpt lat="39.4156706" lon="16.0145108"><ele>46.0</ele><time>2026-04-19T14:18:22.134Z</time></trkpt><trkpt lat="39.4156091" lon="16.0145516"><ele>46.0</ele><time>2026-04-19T14:18:24.133Z</time></trkpt><trkpt lat="39.415553" lon="16.0146033"><ele>46.0</ele><time>2026-04-19T14:18:26.134Z</time></trkpt><trkpt lat="39.4154991" lon="16.0146587"><ele>46.0</ele><time>2026-04-19T14:18:28.133Z</time></trkpt><trkpt lat="39.4154499" lon="16.0147207"><ele>46.0</ele><time>2026-04-19T14:18:30.134Z</time></trkpt><trkpt lat="39.4154056" lon="16.0147827"><ele>46.0</ele><time>2026-04-19T14:18:32.134Z</time></trkpt><trkpt lat="39.4153526" lon="16.0148395"><ele>46.0</ele><time>2026-04-19T14:18:34.133Z</time></trkpt><trkpt lat="39.4152942" lon="16.0148868"><ele>45.333333333333336</ele><time>2026-04-19T14:18:36.133Z</time></trkpt><trkpt lat="39.4152239" lon="16.0149406"><ele>44.66666666666667</ele><time>2026-04-19T14:18:39.134Z</time></trkpt><trkpt lat="39.4151488" lon="16.0149237"><ele>44.0</ele><time>2026-04-19T14:18:42.134Z</time></trkpt><trkpt lat="39.4150891" lon="16.0148856"><ele>43.333333333333336</ele><time>2026-04-19T14:18:44.133Z</time></trkpt><trkpt lat="39.4150321" lon="16.01484"><ele>42.666666666666664</ele><time>2026-04-19T14:18:46.133Z</time></trkpt><trkpt lat="39.4149666" lon="16.014791"><ele>42.0</ele><time>2026-04-19T14:18:48.134Z</time></trkpt><trkpt lat="39.414882" lon="16.014731"><ele>42.0</ele><time>2026-04-19T14:18:50.134Z</time></trkpt><trkpt lat="39.4147771" lon="16.014636"><ele>42.0</ele><time>2026-04-19T14:18:52.134Z</time></trkpt><trkpt lat="39.4146657" lon="16.0145541"><ele>42.0</ele><time>2026-04-19T14:18:54.133Z</time></trkpt><trkpt lat="39.4146085" lon="16.0144968"><ele>42.0</ele><time>2026-04-19T14:18:55.134Z</time></trkpt><trkpt lat="39.4145252" lon="16.0144186"><ele>42.0</ele><time>2026-04-19T14:18:57.133Z</time></trkpt><trkpt lat="39.4144503" lon="16.0143507"><ele>40.800000000000004</ele><time>2026-04-19T14:18:59.133Z</time></trkpt><trkpt lat="39.4143873" lon="16.0143078"><ele>39.6</ele><time>2026-04-19T14:19:01.133Z</time></trkpt><trkpt lat="39.4143023" lon="16.0143887"><ele>38.400000000000006</ele><time>2026-04-19T14:19:05.133Z</time></trkpt><trkpt lat="39.4142646" lon="16.0144902"><ele>37.2</ele><time>2026-04-19T14:19:06.134Z</time></trkpt><trkpt lat="39.4142273" lon="16.0146216"><ele>36.0</ele><time>2026-04-19T14:19:07.134Z</time></trkpt><trkpt lat="39.4141699" lon="16.0147663"><ele>36.0</ele><time>2026-04-19T14:19:08.134Z</time></trkpt><trkpt lat="39.4141099" lon="16.0148947"><ele>36.0</ele><time>2026-04-19T14:19:09.133Z</time></trkpt><trkpt lat="39.4140442" lon="16.0150015"><ele>36.0</ele><time>2026-04-19T14:19:10.133Z</time></trkpt><trkpt lat="39.4139935" lon="16.0150775"><ele>36.0</ele><time>2026-04-19T14:19:11.133Z</time></trkpt><trkpt lat="39.4139436" lon="16.0151373"><ele>36.0</ele><time>2026-04-19T14:19:12.134Z</time></trkpt><trkpt lat="39.4138603" lon="16.0151334"><ele>36.6</ele><time>2026-04-19T14:19:14.133Z</time></trkpt><trkpt lat="39.4137293" lon="16.0150742"><ele>37.2</ele><time>2026-04-19T14:19:16.134Z</time></trkpt><trkpt lat="39.4136435" lon="16.0150516"><ele>37.8</ele><time>2026-04-19T14:19:17.133Z</time></trkpt><trkpt lat="39.4135585" lon="16.0150323"><ele>38.4</ele><time>2026-04-19T14:19:18.133Z</time></trkpt><trkpt lat="39.4134687" lon="16.0150116"><ele>39.0</ele><time>2026-04-19T14:19:19.134Z</time></trkpt><trkpt lat="39.4133883" lon="16.0149947"><ele>37.833333333333336</ele><time>2026-04-19T14:19:20.133Z</time></trkpt><trkpt lat="39.4133188" lon="16.0149689"><ele>36.666666666666664</ele><time>2026-04-19T14:19:21.134Z</time></trkpt><trkpt lat="39.4132586" lon="16.0149201"><ele>35.5</ele><time>2026-04-19T14:19:22.133Z</time></trkpt><trkpt lat="39.4132124" lon="16.0148445"><ele>34.33333333333333</ele><time>2026-04-19T14:19:23.133Z</time></trkpt><trkpt lat="39.4131961" lon="16.0147415"><ele>33.166666666666664</ele><time>2026-04-19T14:19:24.134Z</time></trkpt><trkpt lat="39.4132005" lon="16.0146407"><ele>32.0</ele><time>2026-04-19T14:19:25.133Z</time></trkpt><trkpt lat="39.4132435" lon="16.0145519"><ele>32.0</ele><time>2026-04-19T14:19:26.133Z</time></trkpt><trkpt lat="39.413292" lon="16.0144894"><ele>32.0</ele><time>2026-04-19T14:19:27.133Z</time></trkpt><trkpt lat="39.4133608" lon="16.014438"><ele>32.0</ele><time>2026-04-19T14:19:29.133Z</time></trkpt><trkpt lat="39.4135079" lon="16.0143561"><ele>32.0</ele><time>2026-04-19T14:19:31.133Z</time></trkpt><trkpt lat="39.4136021" lon="16.0143044"><ele>32.0</ele><time>2026-04-19T14:19:32.133Z</time></trkpt><trkpt lat="39.4137078" lon="16.0142287"><ele>31.0</ele><time>2026-04-19T14:19:33.134Z</time></trkpt><trkpt lat="39.4139554" lon="16.0140688"><ele>30.0</ele><time>2026-04-19T14:19:34.134Z</time></trkpt><trkpt lat="39.4141587" lon="16.0139097"><ele>30.0</ele><time>2026-04-19T14:19:35.134Z</time></trkpt><trkpt lat="39.4143852" lon="16.0137423"><ele>30.0</ele><time>2026-04-19T14:19:36.134Z</time></trkpt><trkpt lat="39.4146335" lon="16.0135656"><ele>29.5</ele><time>2026-04-19T14:19:37.133Z</time></trkpt><trkpt lat="39.4148846" lon="16.0133879"><ele>29.0</ele><time>2026-04-19T14:19:38.133Z</time></trkpt><trkpt lat="39.4151466" lon="16.0132082"><ele>29.0</ele><time>2026-04-19T14:19:39.134Z</time></trkpt><trkpt lat="39.4154129" lon="16.0130328"><ele>29.0</ele><time>2026-04-19T14:19:40.134Z</time></trkpt><trkpt lat="39.4156569" lon="16.0128634"><ele>31.5</ele><time>2026-04-19T14:19:41.133Z</time></trkpt><trkpt lat="39.415878" lon="16.0126946"><ele>34.0</ele><time>2026-04-19T14:19:42.133Z</time></trkpt><trkpt lat="39.4160797" lon="16.0125199"><ele>30.5</ele><time>2026-04-19T14:19:43.134Z</time></trkpt><trkpt lat="39.4162766" lon="16.0123241"><ele>27.0</ele><time>2026-04-19T14:19:44.134Z</time></trkpt><trkpt lat="39.4164625" lon="16.0121207"><ele>27.0</ele><time>2026-04-19T14:19:45.133Z</time></trkpt><trkpt lat="39.416659" lon="16.0119199"><ele>27.0</ele><time>2026-04-19T14:19:46.134Z</time></trkpt><trkpt lat="39.4168544" lon="16.0117279"><ele>26.666666666666664</ele><time>2026-04-19T14:19:47.133Z</time></trkpt><trkpt lat="39.4170347" lon="16.0115546"><ele>26.333333333333332</ele><time>2026-04-19T14:19:48.133Z</time></trkpt><trkpt lat="39.4172118" lon="16.0113847"><ele>26.0</ele><time>2026-04-19T14:19:49.134Z</time></trkpt><trkpt lat="39.4173999" lon="16.0111977"><ele>26.0</ele><time>2026-04-19T14:19:50.133Z</time></trkpt><trkpt lat="39.4176139" lon="16.0109874"><ele>26.0</ele><time>2026-04-19T14:19:51.133Z</time></trkpt><trkpt lat="39.4178511" lon="16.0107542"><ele>22.0</ele><time>2026-04-19T14:19:52.134Z</time></trkpt><trkpt lat="39.418104" lon="16.0105091"><ele>18.0</ele><time>2026-04-19T14:19:53.134Z</time></trkpt><trkpt lat="39.4183606" lon="16.0102605"><ele>18.0</ele><time>2026-04-19T14:19:54.134Z</time></trkpt><trkpt lat="39.4186175" lon="16.010012"><ele>18.0</ele><time>2026-04-19T14:19:55.134Z</time></trkpt><trkpt lat="39.4188838" lon="16.0097476"><ele>14.0</ele><time>2026-04-19T14:19:56.133Z</time></trkpt><trkpt lat="39.4191522" lon="16.0094776"><ele>10.0</ele><time>2026-04-19T14:19:57.134Z</time></trkpt><trkpt lat="39.4194252" lon="16.0092073"><ele>9.0</ele><time>2026-04-19T14:19:58.134Z</time></trkpt><trkpt lat="39.4197069" lon="16.0089243"><ele>8.0</ele><time>2026-04-19T14:19:59.133Z</time></trkpt><trkpt lat="39.419989" lon="16.0086399"><ele>8.0</ele><time>2026-04-19T14:20:00.134Z</time></trkpt><trkpt lat="39.4202611" lon="16.0083677"><ele>8.0</ele><time>2026-04-19T14:20:01.134Z</time></trkpt><trkpt lat="39.4205358" lon="16.0080975"><ele>7.5</ele><time>2026-04-19T14:20:02.133Z</time></trkpt><trkpt lat="39.4208028" lon="16.0078284"><ele>7.0</ele><time>2026-04-19T14:20:03.133Z</time></trkpt><trkpt lat="39.4210658" lon="16.00757"><ele>7.0</ele><time>2026-04-19T14:20:04.134Z</time></trkpt><trkpt lat="39.4213152" lon="16.0073229"><ele>7.0</ele><time>2026-04-19T14:20:05.134Z</time></trkpt><trkpt lat="39.4215537" lon="16.0070961"><ele>7.5</ele><time>2026-04-19T14:20:06.133Z</time></trkpt><trkpt lat="39.4217813" lon="16.0068778"><ele>8.0</ele><time>2026-04-19T14:20:07.133Z</time></trkpt><trkpt lat="39.4220097" lon="16.006675"><ele>9.0</ele><time>2026-04-19T14:20:08.134Z</time></trkpt><trkpt lat="39.4222395" lon="16.0064877"><ele>10.0</ele><time>2026-04-19T14:20:09.134Z</time></trkpt><trkpt lat="39.4224777" lon="16.0063261"><ele>10.0</ele><time>2026-04-19T14:20:10.133Z</time></trkpt><trkpt lat="39.4227261" lon="16.0061738"><ele>10.0</ele><time>2026-04-19T14:20:11.134Z</time></trkpt><trkpt lat="39.422992" lon="16.0060181"><ele>10.0</ele><time>2026-04-19T14:20:12.134Z</time></trkpt><trkpt lat="39.4232785" lon="16.0058566"><ele>10.0</ele><time>2026-04-19T14:20:13.134Z</time></trkpt><trkpt lat="39.4235727" lon="16.0056896"><ele>10.5</ele><time>2026-04-19T14:20:14.134Z</time></trkpt><trkpt lat="39.423852" lon="16.0055373"><ele>11.0</ele><time>2026-04-19T14:20:15.134Z</time></trkpt><trkpt lat="39.42412" lon="16.0053937"><ele>11.0</ele><time>2026-04-19T14:20:16.133Z</time></trkpt><trkpt lat="39.4243894" lon="16.0052532"><ele>11.0</ele><time>2026-04-19T14:20:17.133Z</time></trkpt><trkpt lat="39.4246522" lon="16.0051141"><ele>10.0</ele><time>2026-04-19T14:20:18.134Z</time></trkpt><trkpt lat="39.4249197" lon="16.0049758"><ele>9.0</ele><time>2026-04-19T14:20:19.133Z</time></trkpt><trkpt lat="39.4252055" lon="16.0048431"><ele>9.5</ele><time>2026-04-19T14:20:20.134Z</time></trkpt><trkpt lat="39.4254991" lon="16.004726"><ele>10.0</ele><time>2026-04-19T14:20:21.133Z</time></trkpt><trkpt lat="39.4257836" lon="16.0046224"><ele>10.0</ele><time>2026-04-19T14:20:22.133Z</time></trkpt><trkpt lat="39.4260643" lon="16.0045163"><ele>10.0</ele><time>2026-04-19T14:20:23.134Z</time></trkpt><trkpt lat="39.4263499" lon="16.004407"><ele>10.0</ele><time>2026-04-19T14:20:24.134Z</time></trkpt><trkpt lat="39.4266408" lon="16.004293"><ele>10.0</ele><time>2026-04-19T14:20:25.134Z</time></trkpt><trkpt lat="39.4269327" lon="16.0041739"><ele>8.5</ele><time>2026-04-19T14:20:26.134Z</time></trkpt><trkpt lat="39.4272191" lon="16.0040569"><ele>7.0</ele><time>2026-04-19T14:20:27.134Z</time></trkpt><trkpt lat="39.4275123" lon="16.0039415"><ele>7.0</ele><time>2026-04-19T14:20:28.133Z</time></trkpt><trkpt lat="39.4278048" lon="16.0038275"><ele>7.0</ele><time>2026-04-19T14:20:29.134Z</time></trkpt><trkpt lat="39.4281151" lon="16.0037087"><ele>7.5</ele><time>2026-04-19T14:20:30.134Z</time></trkpt><trkpt lat="39.4284351" lon="16.0035888"><ele>8.0</ele><time>2026-04-19T14:20:31.134Z</time></trkpt><trkpt lat="39.4287413" lon="16.0034913"><ele>8.0</ele><time>2026-04-19T14:20:32.133Z</time></trkpt><trkpt lat="39.4290553" lon="16.0033998"><ele>8.0</ele><time>2026-04-19T14:20:33.133Z</time></trkpt><trkpt lat="39.4293802" lon="16.0033139"><ele>8.0</ele><time>2026-04-19T14:20:34.134Z</time></trkpt><trkpt lat="39.4297085" lon="16.0032305"><ele>8.0</ele><time>2026-04-19T14:20:35.133Z</time></trkpt><trkpt lat="39.4300268" lon="16.0031533"><ele>8.0</ele><time>2026-04-19T14:20:36.134Z</time></trkpt><trkpt lat="39.4303285" lon="16.0030672"><ele>8.0</ele><time>2026-04-19T14:20:37.133Z</time></trkpt><trkpt lat="39.4306105" lon="16.0029846"><ele>8.0</ele><time>2026-04-19T14:20:38.134Z</time></trkpt><trkpt lat="39.4308893" lon="16.0028784"><ele>8.0</ele><time>2026-04-19T14:20:39.134Z</time></trkpt><trkpt lat="39.4311558" lon="16.002745"><ele>7.0</ele><time>2026-04-19T14:20:40.133Z</time></trkpt><trkpt lat="39.4314411" lon="16.0025876"><ele>6.0</ele><time>2026-04-19T14:20:41.134Z</time></trkpt><trkpt lat="39.4317407" lon="16.0024118"><ele>6.0</ele><time>2026-04-19T14:20:42.134Z</time></trkpt><trkpt lat="39.4320478" lon="16.0022222"><ele>6.0</ele><time>2026-04-19T14:20:43.133Z</time></trkpt><trkpt lat="39.4323723" lon="16.0020474"><ele>6.5</ele><time>2026-04-19T14:20:44.134Z</time></trkpt><trkpt lat="39.4327047" lon="16.0018729"><ele>7.0</ele><time>2026-04-19T14:20:45.133Z</time></trkpt><trkpt lat="39.433049" lon="16.0016816"><ele>7.0</ele><time>2026-04-19T14:20:46.134Z</time></trkpt><trkpt lat="39.433395" lon="16.0014773"><ele>7.0</ele><time>2026-04-19T14:20:47.133Z</time></trkpt><trkpt lat="39.4337394" lon="16.0012599"><ele>7.0</ele><time>2026-04-19T14:20:48.133Z</time></trkpt><trkpt lat="39.4340703" lon="16.0010379"><ele>7.0</ele><time>2026-04-19T14:20:49.133Z</time></trkpt><trkpt lat="39.4343907" lon="16.0008223"><ele>7.5</ele><time>2026-04-19T14:20:50.133Z</time></trkpt><trkpt lat="39.4347096" lon="16.0006213"><ele>8.0</ele><time>2026-04-19T14:20:51.133Z</time></trkpt><trkpt lat="39.4350234" lon="16.0004453"><ele>8.0</ele><time>2026-04-19T14:20:52.133Z</time></trkpt><trkpt lat="39.4353396" lon="16.0002792"><ele>8.0</ele><time>2026-04-19T14:20:53.134Z</time></trkpt><trkpt lat="39.4356521" lon="16.0001198"><ele>8.5</ele><time>2026-04-19T14:20:54.133Z</time></trkpt><trkpt lat="39.4359706" lon="15.9999659"><ele>9.0</ele><time>2026-04-19T14:20:55.134Z</time></trkpt><trkpt lat="39.4362888" lon="15.9998134"><ele>9.0</ele><time>2026-04-19T14:20:56.134Z</time></trkpt><trkpt lat="39.4366037" lon="15.9996586"><ele>9.0</ele><time>2026-04-19T14:20:57.133Z</time></trkpt><trkpt lat="39.4369116" lon="15.9995109"><ele>8.0</ele><time>2026-04-19T14:20:58.133Z</time></trkpt><trkpt lat="39.4372182" lon="15.9993586"><ele>7.0</ele><time>2026-04-19T14:20:59.134Z</time></trkpt><trkpt lat="39.4375212" lon="15.9992081"><ele>7.0</ele><time>2026-04-19T14:21:00.134Z</time></trkpt><trkpt lat="39.437822" lon="15.9990633"><ele>7.0</ele><time>2026-04-19T14:21:01.133Z</time></trkpt><trkpt lat="39.4381204" lon="15.9989186"><ele>7.0</ele><time>2026-04-19T14:21:02.133Z</time></trkpt><trkpt lat="39.4384134" lon="15.9987759"><ele>7.0</ele><time>2026-04-19T14:21:03.134Z</time></trkpt><trkpt lat="39.438712" lon="15.9986355"><ele>6.5</ele><time>2026-04-19T14:21:04.133Z</time></trkpt><trkpt lat="39.4390027" lon="15.9984986"><ele>6.0</ele><time>2026-04-19T14:21:05.133Z</time></trkpt><trkpt lat="39.4392765" lon="15.9983795"><ele>6.5</ele><time>2026-04-19T14:21:06.133Z</time></trkpt><trkpt lat="39.4395435" lon="15.9982625"><ele>7.0</ele><time>2026-04-19T14:21:07.133Z</time></trkpt><trkpt lat="39.4398115" lon="15.9981434"><ele>6.0</ele><time>2026-04-19T14:21:08.133Z</time></trkpt><trkpt lat="39.4400671" lon="15.9980346"><ele>5.0</ele><time>2026-04-19T14:21:09.133Z</time></trkpt><trkpt lat="39.440303" lon="15.9979297"><ele>4.5</ele><time>2026-04-19T14:21:10.134Z</time></trkpt><trkpt lat="39.4405358" lon="15.9978284"><ele>4.0</ele><time>2026-04-19T14:21:11.134Z</time></trkpt><trkpt lat="39.440767" lon="15.9977268"><ele>4.0</ele><time>2026-04-19T14:21:12.133Z</time></trkpt><trkpt lat="39.4409941" lon="15.9976297"><ele>4.0</ele><time>2026-04-19T14:21:13.134Z</time></trkpt><trkpt lat="39.4412222" lon="15.9975328"><ele>5.0</ele><time>2026-04-19T14:21:14.134Z</time></trkpt><trkpt lat="39.4414421" lon="15.9974379"><ele>6.0</ele><time>2026-04-19T14:21:15.133Z</time></trkpt><trkpt lat="39.4416715" lon="15.997331"><ele>6.0</ele><time>2026-04-19T14:21:16.133Z</time></trkpt><trkpt lat="39.4419087" lon="15.9972164"><ele>6.0</ele><time>2026-04-19T14:21:17.134Z</time></trkpt><trkpt lat="39.4421396" lon="15.9970908"><ele>6.0</ele><time>2026-04-19T14:21:18.134Z</time></trkpt><trkpt lat="39.442356" lon="15.9969641"><ele>6.0</ele><time>2026-04-19T14:21:19.134Z</time></trkpt><trkpt lat="39.4425703" lon="15.9968309"><ele>6.0</ele><time>2026-04-19T14:21:20.133Z</time></trkpt><trkpt lat="39.442794" lon="15.9966904"><ele>6.0</ele><time>2026-04-19T14:21:21.133Z</time></trkpt><trkpt lat="39.4430284" lon="15.9965428"><ele>6.0</ele><time>2026-04-19T14:21:22.133Z</time></trkpt><trkpt lat="39.4432777" lon="15.9963958"><ele>6.0</ele><time>2026-04-19T14:21:23.134Z</time></trkpt><trkpt lat="39.4435357" lon="15.9962414"><ele>6.0</ele><time>2026-04-19T14:21:24.133Z</time></trkpt><trkpt lat="39.4437946" lon="15.9960765"><ele>6.0</ele><time>2026-04-19T14:21:25.134Z</time></trkpt><trkpt lat="39.4440496" lon="15.9959111"><ele>6.5</ele><time>2026-04-19T14:21:26.133Z</time></trkpt><trkpt lat="39.4442906" lon="15.9957581"><ele>7.0</ele><time>2026-04-19T14:21:27.134Z</time></trkpt><trkpt lat="39.444528" lon="15.9956316"><ele>8.0</ele><time>2026-04-19T14:21:28.134Z</time></trkpt><trkpt lat="39.4447534" lon="15.9955303"><ele>9.0</ele><time>2026-04-19T14:21:29.133Z</time></trkpt><trkpt lat="39.4449818" lon="15.9954446"><ele>9.0</ele><time>2026-04-19T14:21:30.133Z</time></trkpt><trkpt lat="39.4451989" lon="15.9953756"><ele>9.0</ele><time>2026-04-19T14:21:31.134Z</time></trkpt><trkpt lat="39.4454214" lon="15.9953011"><ele>8.666666666666666</ele><time>2026-04-19T14:21:32.133Z</time></trkpt><trkpt lat="39.4456421" lon="15.9952311"><ele>8.333333333333332</ele><time>2026-04-19T14:21:33.133Z</time></trkpt><trkpt lat="39.4458581" lon="15.9951638"><ele>8.0</ele><time>2026-04-19T14:21:34.134Z</time></trkpt><trkpt lat="39.4460857" lon="15.9950899"><ele>8.0</ele><time>2026-04-19T14:21:35.134Z</time></trkpt><trkpt lat="39.4463281" lon="15.9950058"><ele>8.0</ele><time>2026-04-19T14:21:36.133Z</time></trkpt><trkpt lat="39.4465874" lon="15.9949144"><ele>8.0</ele><time>2026-04-19T14:21:37.133Z</time></trkpt><trkpt lat="39.4468659" lon="15.9948224"><ele>8.0</ele><time>2026-04-19T14:21:38.134Z</time></trkpt><trkpt lat="39.4471552" lon="15.9947078"><ele>8.5</ele><time>2026-04-19T14:21:39.134Z</time></trkpt><trkpt lat="39.4474479" lon="15.9945718"><ele>9.0</ele><time>2026-04-19T14:21:40.134Z</time></trkpt><trkpt lat="39.4477388" lon="15.9944139"><ele>11.5</ele><time>2026-04-19T14:21:41.133Z</time></trkpt><trkpt lat="39.4480282" lon="15.99424"><ele>14.0</ele><time>2026-04-19T14:21:42.133Z</time></trkpt><trkpt lat="39.4483229" lon="15.9940628"><ele>14.0</ele><time>2026-04-19T14:21:43.133Z</time></trkpt><trkpt lat="39.448613" lon="15.9938871"><ele>14.0</ele><time>2026-04-19T14:21:44.134Z</time></trkpt><trkpt lat="39.4488976" lon="15.9937192"><ele>20.5</ele><time>2026-04-19T14:21:45.134Z</time></trkpt><trkpt lat="39.4491734" lon="15.9935617"><ele>27.0</ele><time>2026-04-19T14:21:46.133Z</time></trkpt><trkpt lat="39.4494465" lon="15.9933957"><ele>31.5</ele><time>2026-04-19T14:21:47.134Z</time></trkpt><trkpt lat="39.4497191" lon="15.9932286"><ele>36.0</ele><time>2026-04-19T14:21:48.134Z</time></trkpt><trkpt lat="39.4620333" lon="15.9857793"><ele>45.0</ele><time>2026-04-19T14:22:26.134Z</time></trkpt><trkpt lat="39.4623972" lon="15.9855622"><ele>54.0</ele><time>2026-04-19T14:22:27.126Z</time></trkpt><trkpt lat="39.4627488" lon="15.9852928"><ele>59.0</ele><time>2026-04-19T14:22:28.12Z</time></trkpt><trkpt lat="39.4631007" lon="15.9850299"><ele>64.0</ele><time>2026-04-19T14:22:29.122Z</time></trkpt><trkpt lat="39.4634663" lon="15.9847587"><ele>67.5</ele><time>2026-04-19T14:22:30.133Z</time></trkpt><trkpt lat="39.4638272" lon="15.9845016"><ele>71.0</ele><time>2026-04-19T14:22:31.126Z</time></trkpt><trkpt lat="39.4641896" lon="15.9842374"><ele>60.5</ele><time>2026-04-19T14:22:32.126Z</time></trkpt><trkpt lat="39.464554" lon="15.9839827"><ele>50.0</ele><time>2026-04-19T14:22:33.125Z</time></trkpt><trkpt lat="39.4649184" lon="15.9837189"><ele>50.0</ele><time>2026-04-19T14:22:34.126Z</time></trkpt><trkpt lat="39.4652827" lon="15.9834547"><ele>50.0</ele><time>2026-04-19T14:22:35.126Z</time></trkpt><trkpt lat="39.4656382" lon="15.983194"><ele>48.0</ele><time>2026-04-19T14:22:36.126Z</time></trkpt><trkpt lat="39.4659975" lon="15.98293"><ele>46.0</ele><time>2026-04-19T14:22:37.126Z</time></trkpt><trkpt lat="39.4663337" lon="15.9826726"><ele>40.5</ele><time>2026-04-19T14:22:38.126Z</time></trkpt><trkpt lat="39.4666726" lon="15.9824266"><ele>35.0</ele><time>2026-04-19T14:22:39.125Z</time></trkpt><trkpt lat="39.4670017" lon="15.9821943"><ele>49.0</ele><time>2026-04-19T14:22:40.126Z</time></trkpt><trkpt lat="39.4673243" lon="15.9819748"><ele>63.0</ele><time>2026-04-19T14:22:41.126Z</time></trkpt><trkpt lat="39.4676376" lon="15.9817676"><ele>67.5</ele><time>2026-04-19T14:22:42.125Z</time></trkpt><trkpt lat="39.4679359" lon="15.9815759"><ele>72.0</ele><time>2026-04-19T14:22:43.126Z</time></trkpt><trkpt lat="39.4682385" lon="15.9813866"><ele>72.0</ele><time>2026-04-19T14:22:44.126Z</time></trkpt><trkpt lat="39.468533" lon="15.9812072"><ele>72.0</ele><time>2026-04-19T14:22:45.126Z</time></trkpt><trkpt lat="39.4688269" lon="15.9810261"><ele>41.0</ele><time>2026-04-19T14:22:46.126Z</time></trkpt><trkpt lat="39.4715807" lon="15.9793253"><ele>37.0</ele><time>2026-04-19T14:22:57.142Z</time></trkpt><trkpt lat="39.471782" lon="15.9791606"><ele>33.0</ele><time>2026-04-19T14:22:58.12Z</time></trkpt><trkpt lat="39.4719764" lon="15.9790303"><ele>36.0</ele><time>2026-04-19T14:22:59.134Z</time></trkpt><trkpt lat="39.4721356" lon="15.9789065"><ele>39.0</ele><time>2026-04-19T14:23:00.15Z</time></trkpt><trkpt lat="39.4723053" lon="15.9787737"><ele>42.0</ele><time>2026-04-19T14:23:01.123Z</time></trkpt><trkpt lat="39.4724653" lon="15.978618"><ele>42.0</ele><time>2026-04-19T14:23:02.126Z</time></trkpt><trkpt lat="39.4726128" lon="15.9784553"><ele>42.0</ele><time>2026-04-19T14:23:03.126Z</time></trkpt><trkpt lat="39.4727504" lon="15.978294"><ele>42.0</ele><time>2026-04-19T14:23:04.127Z</time></trkpt><trkpt lat="39.4728827" lon="15.9781257"><ele>48.66666666666667</ele><time>2026-04-19T14:23:05.126Z</time></trkpt><trkpt lat="39.4730063" lon="15.9779424"><ele>55.333333333333336</ele><time>2026-04-19T14:23:06.127Z</time></trkpt><trkpt lat="39.4731197" lon="15.9777565"><ele>62.0</ele><time>2026-04-19T14:23:07.127Z</time></trkpt><trkpt lat="39.4732173" lon="15.9775581"><ele>58.5</ele><time>2026-04-19T14:23:08.126Z</time></trkpt><trkpt lat="39.4733048" lon="15.9773544"><ele>55.0</ele><time>2026-04-19T14:23:09.126Z</time></trkpt><trkpt lat="39.4745904" lon="15.9656448"><ele>50.0</ele><time>2026-04-19T14:23:42.039Z</time></trkpt><trkpt lat="39.4747866" lon="15.9651724"><ele>45.0</ele><time>2026-04-19T14:23:43.129Z</time></trkpt><trkpt lat="39.4749456" lon="15.9648573"><ele>45.0</ele><time>2026-04-19T14:23:44.123Z</time></trkpt><trkpt lat="39.4750917" lon="15.9645943"><ele>45.0</ele><time>2026-04-19T14:23:45.12Z</time></trkpt><trkpt lat="39.4752328" lon="15.9643333"><ele>41.0</ele><time>2026-04-19T14:23:46.126Z</time></trkpt><trkpt lat="39.4753656" lon="15.9640867"><ele>37.0</ele><time>2026-04-19T14:23:47.126Z</time></trkpt><trkpt lat="39.4754931" lon="15.9638714"><ele>33.0</ele><time>2026-04-19T14:23:48.126Z</time></trkpt><trkpt lat="39.4756245" lon="15.9636902"><ele>40.66666666666667</ele><time>2026-04-19T14:23:49.127Z</time></trkpt><trkpt lat="39.4757584" lon="15.9634914"><ele>48.333333333333336</ele><time>2026-04-19T14:23:50.127Z</time></trkpt><trkpt lat="39.4758936" lon="15.9632965"><ele>56.0</ele><time>2026-04-19T14:23:51.126Z</time></trkpt><trkpt lat="39.4765367" lon="15.9627912"><ele>56.66666666666667</ele><time>2026-04-19T14:23:55.126Z</time></trkpt><trkpt lat="39.4767116" lon="15.9626766"><ele>57.33333333333333</ele><time>2026-04-19T14:23:56.125Z</time></trkpt><trkpt lat="39.4768704" lon="15.9625996"><ele>58.0</ele><time>2026-04-19T14:23:57.124Z</time></trkpt><trkpt lat="39.4770225" lon="15.9625009"><ele>51.0</ele><time>2026-04-19T14:23:58.123Z</time></trkpt><trkpt lat="39.4771755" lon="15.9624154"><ele>44.0</ele><time>2026-04-19T14:23:59.122Z</time></trkpt><trkpt lat="39.4773601" lon="15.9623128"><ele>37.0</ele><time>2026-04-19T14:24:00.126Z</time></trkpt><trkpt lat="39.4775504" lon="15.962212"><ele>37.0</ele><time>2026-04-19T14:24:01.127Z</time></trkpt><trkpt lat="39.4777384" lon="15.9621127"><ele>37.0</ele><time>2026-04-19T14:24:02.126Z</time></trkpt><trkpt lat="39.4779081" lon="15.962024"><ele>37.0</ele><time>2026-04-19T14:24:03.127Z</time></trkpt><trkpt lat="39.4780565" lon="15.961945"><ele>41.0</ele><time>2026-04-19T14:24:04.126Z</time></trkpt><trkpt lat="39.478198" lon="15.961872"><ele>45.0</ele><time>2026-04-19T14:24:05.127Z</time></trkpt><trkpt lat="39.4783548" lon="15.9617907"><ele>49.0</ele><time>2026-04-19T14:24:06.126Z</time></trkpt><trkpt lat="39.4785053" lon="15.9617177"><ele>47.25</ele><time>2026-04-19T14:24:07.126Z</time></trkpt><trkpt lat="39.4786514" lon="15.9616517"><ele>45.5</ele><time>2026-04-19T14:24:08.127Z</time></trkpt><trkpt lat="39.478789" lon="15.9615911"><ele>43.75</ele><time>2026-04-19T14:24:09.126Z</time></trkpt><trkpt lat="39.4789182" lon="15.9615294"><ele>42.0</ele><time>2026-04-19T14:24:10.126Z</time></trkpt><trkpt lat="39.4790543" lon="15.9614663"><ele>42.0</ele><time>2026-04-19T14:24:11.126Z</time></trkpt><trkpt lat="39.4791781" lon="15.9614052"><ele>42.0</ele><time>2026-04-19T14:24:12.126Z</time></trkpt><trkpt lat="39.4792986" lon="15.961344"><ele>42.0</ele><time>2026-04-19T14:24:13.126Z</time></trkpt><trkpt lat="39.4794195" lon="15.961284"><ele>42.0</ele><time>2026-04-19T14:24:14.126Z</time></trkpt><trkpt lat="39.4795367" lon="15.961227"><ele>44.0</ele><time>2026-04-19T14:24:15.126Z</time></trkpt><trkpt lat="39.4796442" lon="15.9611713"><ele>46.0</ele><time>2026-04-19T14:24:16.127Z</time></trkpt><trkpt lat="39.4797546" lon="15.9611118"><ele>48.0</ele><time>2026-04-19T14:24:17.126Z</time></trkpt><trkpt lat="39.479866" lon="15.9610491"><ele>50.0</ele><time>2026-04-19T14:24:18.127Z</time></trkpt><trkpt lat="39.4799766" lon="15.9609804"><ele>50.0</ele><time>2026-04-19T14:24:19.127Z</time></trkpt><trkpt lat="39.4800882" lon="15.9609112"><ele>50.0</ele><time>2026-04-19T14:24:20.126Z</time></trkpt><trkpt lat="39.4801961" lon="15.9608393"><ele>50.0</ele><time>2026-04-19T14:24:21.127Z</time></trkpt><trkpt lat="39.480306" lon="15.9607678"><ele>50.0</ele><time>2026-04-19T14:24:22.126Z</time></trkpt><trkpt lat="39.4804172" lon="15.9606926"><ele>48.25</ele><time>2026-04-19T14:24:23.126Z</time></trkpt><trkpt lat="39.480531" lon="15.9606199"><ele>46.5</ele><time>2026-04-19T14:24:24.126Z</time></trkpt><trkpt lat="39.4806499" lon="15.9605411"><ele>44.75</ele><time>2026-04-19T14:24:25.126Z</time></trkpt><trkpt lat="39.4807639" lon="15.960462"><ele>43.0</ele><time>2026-04-19T14:24:26.126Z</time></trkpt><trkpt lat="39.4808755" lon="15.9603748"><ele>43.0</ele><time>2026-04-19T14:24:27.127Z</time></trkpt><trkpt lat="39.4809886" lon="15.9602921"><ele>43.0</ele><time>2026-04-19T14:24:28.127Z</time></trkpt><trkpt lat="39.4811092" lon="15.9602089"><ele>43.0</ele><time>2026-04-19T14:24:29.126Z</time></trkpt><trkpt lat="39.4812344" lon="15.9601274"><ele>43.0</ele><time>2026-04-19T14:24:30.127Z</time></trkpt><trkpt lat="39.4813581" lon="15.960042"><ele>39.25</ele><time>2026-04-19T14:24:31.127Z</time></trkpt><trkpt lat="39.4814807" lon="15.9599623"><ele>35.5</ele><time>2026-04-19T14:24:32.126Z</time></trkpt><trkpt lat="39.481607" lon="15.9598809"><ele>31.75</ele><time>2026-04-19T14:24:33.127Z</time></trkpt><trkpt lat="39.4817437" lon="15.9597893"><ele>28.0</ele><time>2026-04-19T14:24:34.126Z</time></trkpt><trkpt lat="39.4818906" lon="15.9596781"><ele>28.0</ele><time>2026-04-19T14:24:35.126Z</time></trkpt><trkpt lat="39.4820682" lon="15.9595517"><ele>28.0</ele><time>2026-04-19T14:24:36.126Z</time></trkpt><trkpt lat="39.4822674" lon="15.9594146"><ele>28.0</ele><time>2026-04-19T14:24:37.126Z</time></trkpt><trkpt lat="39.4824914" lon="15.9592593"><ele>23.0</ele><time>2026-04-19T14:24:38.127Z</time></trkpt><trkpt lat="39.4827264" lon="15.9590921"><ele>18.0</ele><time>2026-04-19T14:24:39.127Z</time></trkpt><trkpt lat="39.4829696" lon="15.9589217"><ele>18.0</ele><time>2026-04-19T14:24:40.126Z</time></trkpt><trkpt lat="39.4832308" lon="15.9587409"><ele>18.0</ele><time>2026-04-19T14:24:41.126Z</time></trkpt><trkpt lat="39.483513" lon="15.958543"><ele>15.0</ele><time>2026-04-19T14:24:42.127Z</time></trkpt><trkpt lat="39.4838045" lon="15.9583418"><ele>12.0</ele><time>2026-04-19T14:24:43.127Z</time></trkpt><trkpt lat="39.4840926" lon="15.9581522"><ele>12.0</ele><time>2026-04-19T14:24:44.126Z</time></trkpt><trkpt lat="39.484371" lon="15.9579802"><ele>12.0</ele><time>2026-04-19T14:24:45.127Z</time></trkpt><trkpt lat="39.4846334" lon="15.9578273"><ele>14.5</ele><time>2026-04-19T14:24:46.127Z</time></trkpt><trkpt lat="39.4848849" lon="15.9576774"><ele>17.0</ele><time>2026-04-19T14:24:47.126Z</time></trkpt><trkpt lat="39.4851436" lon="15.957542"><ele>19.0</ele><time>2026-04-19T14:24:48.127Z</time></trkpt><trkpt lat="39.485414" lon="15.9574147"><ele>21.0</ele><time>2026-04-19T14:24:49.126Z</time></trkpt><trkpt lat="39.4856904" lon="15.9572741"><ele>21.0</ele><time>2026-04-19T14:24:50.126Z</time></trkpt><trkpt lat="39.4859728" lon="15.9571051"><ele>21.0</ele><time>2026-04-19T14:24:51.127Z</time></trkpt><trkpt lat="39.4862528" lon="15.9569047"><ele>24.0</ele><time>2026-04-19T14:24:52.126Z</time></trkpt><trkpt lat="39.4865262" lon="15.956671"><ele>27.0</ele><time>2026-04-19T14:24:53.127Z</time></trkpt><trkpt lat="39.4867847" lon="15.9564177"><ele>27.0</ele><time>2026-04-19T14:24:54.126Z</time></trkpt><trkpt lat="39.4870288" lon="15.9561506"><ele>27.0</ele><time>2026-04-19T14:24:55.126Z</time></trkpt><trkpt lat="39.4872307" lon="15.9559025"><ele>29.0</ele><time>2026-04-19T14:24:56.127Z</time></trkpt><trkpt lat="39.4874216" lon="15.9556972"><ele>31.0</ele><time>2026-04-19T14:24:57.127Z</time></trkpt><trkpt lat="39.4876321" lon="15.9554912"><ele>31.0</ele><time>2026-04-19T14:24:58.126Z</time></trkpt><trkpt lat="39.4878509" lon="15.9553051"><ele>31.0</ele><time>2026-04-19T14:24:59.127Z</time></trkpt><trkpt lat="39.4880765" lon="15.9551349"><ele>28.0</ele><time>2026-04-19T14:25:00.127Z</time></trkpt><trkpt lat="39.488361" lon="15.9550066"><ele>25.0</ele><time>2026-04-19T14:25:01.127Z</time></trkpt><trkpt lat="39.4886596" lon="15.954891"><ele>33.0</ele><time>2026-04-19T14:25:02.126Z</time></trkpt><trkpt lat="39.4889638" lon="15.9547787"><ele>41.0</ele><time>2026-04-19T14:25:03.126Z</time></trkpt><trkpt lat="39.4892808" lon="15.9546601"><ele>50.0</ele><time>2026-04-19T14:25:04.127Z</time></trkpt><trkpt lat="39.4896" lon="15.9545387"><ele>59.0</ele><time>2026-04-19T14:25:05.127Z</time></trkpt><trkpt lat="39.4899244" lon="15.9544054"><ele>59.0</ele><time>2026-04-19T14:25:06.127Z</time></trkpt><trkpt lat="39.4902444" lon="15.9542738"><ele>59.0</ele><time>2026-04-19T14:25:07.127Z</time></trkpt><trkpt lat="39.4905741" lon="15.9541391"><ele>45.5</ele><time>2026-04-19T14:25:08.126Z</time></trkpt><trkpt lat="39.4909067" lon="15.9539997"><ele>32.0</ele><time>2026-04-19T14:25:09.127Z</time></trkpt><trkpt lat="39.4912405" lon="15.9538517"><ele>37.5</ele><time>2026-04-19T14:25:10.126Z</time></trkpt><trkpt lat="39.4915724" lon="15.9536976"><ele>43.0</ele><time>2026-04-19T14:25:11.126Z</time></trkpt><trkpt lat="39.4918975" lon="15.9535416"><ele>35.5</ele><time>2026-04-19T14:25:12.126Z</time></trkpt><trkpt lat="39.4922161" lon="15.9533811"><ele>28.0</ele><time>2026-04-19T14:25:13.127Z</time></trkpt><trkpt lat="39.4925366" lon="15.9532111"><ele>28.0</ele><time>2026-04-19T14:25:14.127Z</time></trkpt><trkpt lat="39.4928595" lon="15.9530573"><ele>28.0</ele><time>2026-04-19T14:25:15.127Z</time></trkpt><trkpt lat="39.4931865" lon="15.9529123"><ele>37.0</ele><time>2026-04-19T14:25:16.126Z</time></trkpt><trkpt lat="39.4935121" lon="15.9527723"><ele>46.0</ele><time>2026-04-19T14:25:17.126Z</time></trkpt><trkpt lat="39.4938353" lon="15.9526343"><ele>34.5</ele><time>2026-04-19T14:25:18.126Z</time></trkpt><trkpt lat="39.4941447" lon="15.9524972"><ele>23.0</ele><time>2026-04-19T14:25:19.127Z</time></trkpt><trkpt lat="39.4944464" lon="15.952363"><ele>30.5</ele><time>2026-04-19T14:25:20.126Z</time></trkpt><trkpt lat="39.4947372" lon="15.9522383"><ele>38.0</ele><time>2026-04-19T14:25:21.126Z</time></trkpt><trkpt lat="39.4950189" lon="15.9521199"><ele>38.0</ele><time>2026-04-19T14:25:22.126Z</time></trkpt><trkpt lat="39.4952959" lon="15.9519956"><ele>38.0</ele><time>2026-04-19T14:25:23.127Z</time></trkpt><trkpt lat="39.4955768" lon="15.9518533"><ele>26.0</ele><time>2026-04-19T14:25:24.126Z</time></trkpt><trkpt lat="39.4958569" lon="15.9516906"><ele>14.0</ele><time>2026-04-19T14:25:25.126Z</time></trkpt><trkpt lat="39.4961417" lon="15.9515249"><ele>15.5</ele><time>2026-04-19T14:25:26.127Z</time></trkpt><trkpt lat="39.4964236" lon="15.9513446"><ele>17.0</ele><time>2026-04-19T14:25:27.127Z</time></trkpt><trkpt lat="39.4967026" lon="15.9511646"><ele>17.0</ele><time>2026-04-19T14:25:28.126Z</time></trkpt><trkpt lat="39.4969806" lon="15.950998"><ele>17.0</ele><time>2026-04-19T14:25:29.126Z</time></trkpt><trkpt lat="39.4972699" lon="15.9508236"><ele>16.5</ele><time>2026-04-19T14:25:30.127Z</time></trkpt><trkpt lat="39.497558" lon="15.950639"><ele>16.0</ele><time>2026-04-19T14:25:31.126Z</time></trkpt><trkpt lat="39.4978554" lon="15.9504579"><ele>16.0</ele><time>2026-04-19T14:25:32.127Z</time></trkpt><trkpt lat="39.4981607" lon="15.9502735"><ele>16.0</ele><time>2026-04-19T14:25:33.127Z</time></trkpt><trkpt lat="39.4984663" lon="15.9500896"><ele>13.5</ele><time>2026-04-19T14:25:34.126Z</time></trkpt><trkpt lat="39.4987767" lon="15.9498988"><ele>11.0</ele><time>2026-04-19T14:25:35.126Z</time></trkpt><trkpt lat="39.4990868" lon="15.9497062"><ele>11.0</ele><time>2026-04-19T14:25:36.126Z</time></trkpt><trkpt lat="39.4994025" lon="15.9495091"><ele>11.0</ele><time>2026-04-19T14:25:37.126Z</time></trkpt><trkpt lat="39.4997201" lon="15.9493096"><ele>12.0</ele><time>2026-04-19T14:25:38.127Z</time></trkpt><trkpt lat="39.5000431" lon="15.9491119"><ele>13.0</ele><time>2026-04-19T14:25:39.127Z</time></trkpt><trkpt lat="39.5003608" lon="15.9489121"><ele>18.5</ele><time>2026-04-19T14:25:40.127Z</time></trkpt><trkpt lat="39.5006783" lon="15.9487098"><ele>24.0</ele><time>2026-04-19T14:25:41.126Z</time></trkpt><trkpt lat="39.5009949" lon="15.9485119"><ele>20.0</ele><time>2026-04-19T14:25:42.126Z</time></trkpt><trkpt lat="39.5013048" lon="15.9483153"><ele>16.0</ele><time>2026-04-19T14:25:43.127Z</time></trkpt><trkpt lat="39.5016101" lon="15.9481255"><ele>16.0</ele><time>2026-04-19T14:25:44.126Z</time></trkpt><trkpt lat="39.5019153" lon="15.9479383"><ele>16.0</ele><time>2026-04-19T14:25:45.126Z</time></trkpt><trkpt lat="39.5022099" lon="15.9477577"><ele>14.5</ele><time>2026-04-19T14:25:46.127Z</time></trkpt><trkpt lat="39.5025058" lon="15.9475669"><ele>13.0</ele><time>2026-04-19T14:25:47.127Z</time></trkpt><trkpt lat="39.5027943" lon="15.9473839"><ele>13.5</ele><time>2026-04-19T14:25:48.126Z</time></trkpt><trkpt lat="39.5030751" lon="15.9471952"><ele>14.0</ele><time>2026-04-19T14:25:49.127Z</time></trkpt><trkpt lat="39.5033518" lon="15.9470012"><ele>14.0</ele><time>2026-04-19T14:25:50.127Z</time></trkpt><trkpt lat="39.5036269" lon="15.9468078"><ele>14.0</ele><time>2026-04-19T14:25:51.127Z</time></trkpt><trkpt lat="39.5039064" lon="15.9466228"><ele>13.5</ele><time>2026-04-19T14:25:52.127Z</time></trkpt><trkpt lat="39.5041754" lon="15.946434"><ele>13.0</ele><time>2026-04-19T14:25:53.127Z</time></trkpt><trkpt lat="39.504443" lon="15.946248"><ele>12.5</ele><time>2026-04-19T14:25:54.127Z</time></trkpt><trkpt lat="39.5047124" lon="15.9460697"><ele>12.0</ele><time>2026-04-19T14:25:55.126Z</time></trkpt><trkpt lat="39.5049747" lon="15.9458904"><ele>11.0</ele><time>2026-04-19T14:25:56.126Z</time></trkpt><trkpt lat="39.5052407" lon="15.9457299"><ele>10.0</ele><time>2026-04-19T14:25:57.126Z</time></trkpt><trkpt lat="39.5054913" lon="15.9455959"><ele>10.0</ele><time>2026-04-19T14:25:58.126Z</time></trkpt><trkpt lat="39.5057342" lon="15.9454839"><ele>10.0</ele><time>2026-04-19T14:25:59.126Z</time></trkpt><trkpt lat="39.5059662" lon="15.9454021"><ele>10.0</ele><time>2026-04-19T14:26:00.126Z</time></trkpt><trkpt lat="39.506182" lon="15.9453381"><ele>10.0</ele><time>2026-04-19T14:26:01.126Z</time></trkpt><trkpt lat="39.5064144" lon="15.9452742"><ele>12.0</ele><time>2026-04-19T14:26:02.127Z</time></trkpt><trkpt lat="39.5066374" lon="15.9452482"><ele>14.0</ele><time>2026-04-19T14:26:03.127Z</time></trkpt><trkpt lat="39.506876" lon="15.9452078"><ele>15.0</ele><time>2026-04-19T14:26:04.126Z</time></trkpt><trkpt lat="39.5071167" lon="15.9451735"><ele>16.0</ele><time>2026-04-19T14:26:05.126Z</time></trkpt><trkpt lat="39.507355" lon="15.9451445"><ele>16.0</ele><time>2026-04-19T14:26:06.126Z</time></trkpt><trkpt lat="39.5075962" lon="15.9451125"><ele>16.0</ele><time>2026-04-19T14:26:07.126Z</time></trkpt><trkpt lat="39.5078376" lon="15.945084"><ele>17.5</ele><time>2026-04-19T14:26:08.126Z</time></trkpt><trkpt lat="39.5080833" lon="15.9450609"><ele>19.0</ele><time>2026-04-19T14:26:09.127Z</time></trkpt><trkpt lat="39.5083315" lon="15.945035"><ele>16.0</ele><time>2026-04-19T14:26:10.126Z</time></trkpt><trkpt lat="39.5086029" lon="15.945001"><ele>13.0</ele><time>2026-04-19T14:26:11.126Z</time></trkpt><trkpt lat="39.5088768" lon="15.9449705"><ele>13.0</ele><time>2026-04-19T14:26:12.126Z</time></trkpt><trkpt lat="39.5091419" lon="15.9449452"><ele>13.0</ele><time>2026-04-19T14:26:13.126Z</time></trkpt><trkpt lat="39.5094034" lon="15.944907"><ele>19.0</ele><time>2026-04-19T14:26:14.126Z</time></trkpt><trkpt lat="39.5096593" lon="15.9448554"><ele>25.0</ele><time>2026-04-19T14:26:15.126Z</time></trkpt><trkpt lat="39.5099153" lon="15.9447832"><ele>25.0</ele><time>2026-04-19T14:26:16.127Z</time></trkpt><trkpt lat="39.5101726" lon="15.9446867"><ele>25.0</ele><time>2026-04-19T14:26:17.126Z</time></trkpt><trkpt lat="39.5104255" lon="15.9445579"><ele>30.5</ele><time>2026-04-19T14:26:18.126Z</time></trkpt><trkpt lat="39.5106698" lon="15.9444032"><ele>36.0</ele><time>2026-04-19T14:26:19.127Z</time></trkpt><trkpt lat="39.5109055" lon="15.9442173"><ele>30.0</ele><time>2026-04-19T14:26:20.126Z</time></trkpt><trkpt lat="39.511129" lon="15.9440047"><ele>24.0</ele><time>2026-04-19T14:26:21.126Z</time></trkpt><trkpt lat="39.5113415" lon="15.9437734"><ele>24.0</ele><time>2026-04-19T14:26:22.127Z</time></trkpt><trkpt lat="39.5115433" lon="15.9435348"><ele>24.0</ele><time>2026-04-19T14:26:23.126Z</time></trkpt><trkpt lat="39.5117365" lon="15.9432944"><ele>23.0</ele><time>2026-04-19T14:26:24.127Z</time></trkpt><trkpt lat="39.5119235" lon="15.9430605"><ele>22.0</ele><time>2026-04-19T14:26:25.126Z</time></trkpt><trkpt lat="39.5121096" lon="15.942826"><ele>22.0</ele><time>2026-04-19T14:26:26.126Z</time></trkpt><trkpt lat="39.5122793" lon="15.9426139"><ele>22.0</ele><time>2026-04-19T14:26:27.126Z</time></trkpt><trkpt lat="39.5124489" lon="15.9424003"><ele>16.5</ele><time>2026-04-19T14:26:28.127Z</time></trkpt><trkpt lat="39.5126168" lon="15.9421931"><ele>11.0</ele><time>2026-04-19T14:26:29.127Z</time></trkpt><trkpt lat="39.5127781" lon="15.9419959"><ele>11.666666666666666</ele><time>2026-04-19T14:26:30.127Z</time></trkpt><trkpt lat="39.512941" lon="15.9418024"><ele>12.333333333333332</ele><time>2026-04-19T14:26:31.126Z</time></trkpt><trkpt lat="39.5131034" lon="15.9416056"><ele>13.0</ele><time>2026-04-19T14:26:32.126Z</time></trkpt><trkpt lat="39.5132706" lon="15.9414036"><ele>13.0</ele><time>2026-04-19T14:26:33.127Z</time></trkpt><trkpt lat="39.5134383" lon="15.9411931"><ele>13.0</ele><time>2026-04-19T14:26:34.127Z</time></trkpt><trkpt lat="39.5136052" lon="15.9409807"><ele>22.0</ele><time>2026-04-19T14:26:35.127Z</time></trkpt><trkpt lat="39.5137681" lon="15.9407725"><ele>31.0</ele><time>2026-04-19T14:26:36.127Z</time></trkpt><trkpt lat="39.5139297" lon="15.9405695"><ele>31.0</ele><time>2026-04-19T14:26:37.126Z</time></trkpt><trkpt lat="39.5140876" lon="15.9403735"><ele>31.0</ele><time>2026-04-19T14:26:38.127Z</time></trkpt><trkpt lat="39.5142289" lon="15.940162"><ele>31.0</ele><time>2026-04-19T14:26:39.127Z</time></trkpt><trkpt lat="39.5143618" lon="15.9399289"><ele>22.5</ele><time>2026-04-19T14:26:40.126Z</time></trkpt><trkpt lat="39.5144868" lon="15.9396737"><ele>14.0</ele><time>2026-04-19T14:26:41.126Z</time></trkpt><trkpt lat="39.5146013" lon="15.9394123"><ele>17.666666666666668</ele><time>2026-04-19T14:26:42.126Z</time></trkpt><trkpt lat="39.5147056" lon="15.939161"><ele>21.333333333333336</ele><time>2026-04-19T14:26:43.127Z</time></trkpt><trkpt lat="39.5148078" lon="15.938915"><ele>25.0</ele><time>2026-04-19T14:26:44.127Z</time></trkpt><trkpt lat="39.5149079" lon="15.9386781"><ele>25.0</ele><time>2026-04-19T14:26:45.126Z</time></trkpt><trkpt lat="39.515009" lon="15.9384466"><ele>25.0</ele><time>2026-04-19T14:26:46.126Z</time></trkpt><trkpt lat="39.515112" lon="15.9382185"><ele>25.0</ele><time>2026-04-19T14:26:47.127Z</time></trkpt><trkpt lat="39.51522" lon="15.9379985"><ele>23.0</ele><time>2026-04-19T14:26:48.127Z</time></trkpt><trkpt lat="39.5153414" lon="15.9377821"><ele>21.0</ele><time>2026-04-19T14:26:49.126Z</time></trkpt><trkpt lat="39.5154824" lon="15.9375681"><ele>19.0</ele><time>2026-04-19T14:26:50.126Z</time></trkpt><trkpt lat="39.5156403" lon="15.9373412"><ele>19.0</ele><time>2026-04-19T14:26:51.127Z</time></trkpt><trkpt lat="39.5158175" lon="15.9370951"><ele>19.0</ele><time>2026-04-19T14:26:52.126Z</time></trkpt><trkpt lat="39.5159948" lon="15.9368501"><ele>19.0</ele><time>2026-04-19T14:26:53.126Z</time></trkpt><trkpt lat="39.516166" lon="15.9366133"><ele>19.0</ele><time>2026-04-19T14:26:54.126Z</time></trkpt><trkpt lat="39.5163375" lon="15.9363809"><ele>19.0</ele><time>2026-04-19T14:26:55.127Z</time></trkpt><trkpt lat="39.5165005" lon="15.9361575"><ele>19.0</ele><time>2026-04-19T14:26:56.127Z</time></trkpt><trkpt lat="39.5166602" lon="15.93594"><ele>14.5</ele><time>2026-04-19T14:26:57.127Z</time></trkpt><trkpt lat="39.5168198" lon="15.9357201"><ele>10.0</ele><time>2026-04-19T14:26:58.126Z</time></trkpt><trkpt lat="39.5169803" lon="15.9355068"><ele>10.666666666666668</ele><time>2026-04-19T14:26:59.126Z</time></trkpt><trkpt lat="39.5171409" lon="15.9352934"><ele>11.333333333333334</ele><time>2026-04-19T14:27:00.126Z</time></trkpt><trkpt lat="39.5172965" lon="15.9350958"><ele>12.0</ele><time>2026-04-19T14:27:01.127Z</time></trkpt><trkpt lat="39.5174588" lon="15.9348957"><ele>12.0</ele><time>2026-04-19T14:27:02.126Z</time></trkpt><trkpt lat="39.5176363" lon="15.9347014"><ele>12.0</ele><time>2026-04-19T14:27:03.127Z</time></trkpt><trkpt lat="39.5178144" lon="15.9345185"><ele>12.0</ele><time>2026-04-19T14:27:04.127Z</time></trkpt><trkpt lat="39.5180107" lon="15.9343335"><ele>12.0</ele><time>2026-04-19T14:27:05.127Z</time></trkpt><trkpt lat="39.5182216" lon="15.9341403"><ele>12.0</ele><time>2026-04-19T14:27:06.126Z</time></trkpt><trkpt lat="39.5184507" lon="15.9339429"><ele>12.0</ele><time>2026-04-19T14:27:07.126Z</time></trkpt><trkpt lat="39.5186951" lon="15.9337385"><ele>12.0</ele><time>2026-04-19T14:27:08.126Z</time></trkpt><trkpt lat="39.5189479" lon="15.9335234"><ele>12.0</ele><time>2026-04-19T14:27:09.127Z</time></trkpt><trkpt lat="39.5192105" lon="15.9332931"><ele>12.0</ele><time>2026-04-19T14:27:10.127Z</time></trkpt><trkpt lat="39.5194772" lon="15.9330674"><ele>12.0</ele><time>2026-04-19T14:27:11.127Z</time></trkpt><trkpt lat="39.5197547" lon="15.9328646"><ele>12.0</ele><time>2026-04-19T14:27:12.126Z</time></trkpt><trkpt lat="39.5200287" lon="15.9326918"><ele>12.0</ele><time>2026-04-19T14:27:13.127Z</time></trkpt><trkpt lat="39.520307" lon="15.9325338"><ele>11.0</ele><time>2026-04-19T14:27:14.127Z</time></trkpt><trkpt lat="39.5205886" lon="15.9323858"><ele>10.0</ele><time>2026-04-19T14:27:15.127Z</time></trkpt><trkpt lat="39.5208803" lon="15.9322415"><ele>10.0</ele><time>2026-04-19T14:27:16.126Z</time></trkpt><trkpt lat="39.5211685" lon="15.9321014"><ele>10.0</ele><time>2026-04-19T14:27:17.126Z</time></trkpt><trkpt lat="39.5214382" lon="15.9319697"><ele>10.0</ele><time>2026-04-19T14:27:18.126Z</time></trkpt><trkpt lat="39.5216919" lon="15.9318456"><ele>10.0</ele><time>2026-04-19T14:27:19.126Z</time></trkpt><trkpt lat="39.5219369" lon="15.9317215"><ele>11.0</ele><time>2026-04-19T14:27:20.126Z</time></trkpt><trkpt lat="39.5221747" lon="15.9315947"><ele>12.0</ele><time>2026-04-19T14:27:21.126Z</time></trkpt><trkpt lat="39.5223906" lon="15.931479"><ele>12.0</ele><time>2026-04-19T14:27:22.126Z</time></trkpt><trkpt lat="39.5225988" lon="15.9313499"><ele>12.0</ele><time>2026-04-19T14:27:23.127Z</time></trkpt><trkpt lat="39.522809" lon="15.9311981"><ele>11.0</ele><time>2026-04-19T14:27:24.127Z</time></trkpt><trkpt lat="39.5230311" lon="15.9310236"><ele>10.0</ele><time>2026-04-19T14:27:25.127Z</time></trkpt><trkpt lat="39.5232712" lon="15.9308411"><ele>10.0</ele><time>2026-04-19T14:27:26.126Z</time></trkpt><trkpt lat="39.5235244" lon="15.9306536"><ele>10.0</ele><time>2026-04-19T14:27:27.126Z</time></trkpt><trkpt lat="39.5237853" lon="15.9304545"><ele>10.5</ele><time>2026-04-19T14:27:28.126Z</time></trkpt><trkpt lat="39.5240407" lon="15.9302402"><ele>11.0</ele><time>2026-04-19T14:27:29.126Z</time></trkpt><trkpt lat="39.524288" lon="15.9300265"><ele>11.0</ele><time>2026-04-19T14:27:30.126Z</time></trkpt><trkpt lat="39.5245312" lon="15.929816"><ele>11.0</ele><time>2026-04-19T14:27:31.126Z</time></trkpt><trkpt lat="39.5247734" lon="15.9296067"><ele>11.0</ele><time>2026-04-19T14:27:32.126Z</time></trkpt><trkpt lat="39.5250008" lon="15.9294051"><ele>11.0</ele><time>2026-04-19T14:27:33.126Z</time></trkpt><trkpt lat="39.5252226" lon="15.929209"><ele>11.0</ele><time>2026-04-19T14:27:34.126Z</time></trkpt><trkpt lat="39.5254289" lon="15.9290235"><ele>11.0</ele><time>2026-04-19T14:27:35.126Z</time></trkpt><trkpt lat="39.5256287" lon="15.9288493"><ele>11.0</ele><time>2026-04-19T14:27:36.127Z</time></trkpt><trkpt lat="39.5258268" lon="15.92868"><ele>11.0</ele><time>2026-04-19T14:27:37.127Z</time></trkpt><trkpt lat="39.5260138" lon="15.9285126"><ele>10.0</ele><time>2026-04-19T14:27:38.127Z</time></trkpt><trkpt lat="39.5261909" lon="15.9283563"><ele>9.0</ele><time>2026-04-19T14:27:39.127Z</time></trkpt><trkpt lat="39.526357" lon="15.9282139"><ele>8.0</ele><time>2026-04-19T14:27:40.126Z</time></trkpt><trkpt lat="39.5265151" lon="15.928077"><ele>10.0</ele><time>2026-04-19T14:27:41.127Z</time></trkpt><trkpt lat="39.5266574" lon="15.9279602"><ele>12.0</ele><time>2026-04-19T14:27:42.126Z</time></trkpt><trkpt lat="39.5267926" lon="15.9278432"><ele>14.0</ele><time>2026-04-19T14:27:43.126Z</time></trkpt><trkpt lat="39.52693" lon="15.9277238"><ele>14.333333333333334</ele><time>2026-04-19T14:27:44.127Z</time></trkpt><trkpt lat="39.5270625" lon="15.9276061"><ele>14.666666666666668</ele><time>2026-04-19T14:27:45.127Z</time></trkpt><trkpt lat="39.5271958" lon="15.9274926"><ele>15.0</ele><time>2026-04-19T14:27:46.127Z</time></trkpt><trkpt lat="39.5273227" lon="15.9273825"><ele>15.0</ele><time>2026-04-19T14:27:47.126Z</time></trkpt><trkpt lat="39.5274452" lon="15.9272757"><ele>15.0</ele><time>2026-04-19T14:27:48.126Z</time></trkpt><trkpt lat="39.5275705" lon="15.9271703"><ele>15.0</ele><time>2026-04-19T14:27:49.126Z</time></trkpt><trkpt lat="39.527687" lon="15.9270722"><ele>15.0</ele><time>2026-04-19T14:27:50.127Z</time></trkpt><trkpt lat="39.5278037" lon="15.9269762"><ele>16.75</ele><time>2026-04-19T14:27:51.127Z</time></trkpt><trkpt lat="39.5279212" lon="15.926879"><ele>18.5</ele><time>2026-04-19T14:27:52.126Z</time></trkpt><trkpt lat="39.52804" lon="15.9267801"><ele>20.25</ele><time>2026-04-19T14:27:53.126Z</time></trkpt><trkpt lat="39.5281568" lon="15.9266755"><ele>22.0</ele><time>2026-04-19T14:27:54.126Z</time></trkpt><trkpt lat="39.5282755" lon="15.9265648"><ele>22.0</ele><time>2026-04-19T14:27:55.126Z</time></trkpt><trkpt lat="39.5283922" lon="15.9264551"><ele>22.0</ele><time>2026-04-19T14:27:56.126Z</time></trkpt><trkpt lat="39.5285008" lon="15.9263524"><ele>22.0</ele><time>2026-04-19T14:27:57.126Z</time></trkpt><trkpt lat="39.5285995" lon="15.926253"><ele>22.0</ele><time>2026-04-19T14:27:58.126Z</time></trkpt><trkpt lat="39.5286958" lon="15.9261572"><ele>26.5</ele><time>2026-04-19T14:27:59.126Z</time></trkpt><trkpt lat="39.5287815" lon="15.926064"><ele>31.0</ele><time>2026-04-19T14:28:00.126Z</time></trkpt><trkpt lat="39.5288692" lon="15.9259613"><ele>35.5</ele><time>2026-04-19T14:28:01.127Z</time></trkpt><trkpt lat="39.5289528" lon="15.9258477"><ele>40.0</ele><time>2026-04-19T14:28:02.127Z</time></trkpt><trkpt lat="39.5290331" lon="15.9257299"><ele>40.0</ele><time>2026-04-19T14:28:03.127Z</time></trkpt><trkpt lat="39.5291051" lon="15.9256167"><ele>40.0</ele><time>2026-04-19T14:28:04.127Z</time></trkpt><trkpt lat="39.5291788" lon="15.9254982"><ele>40.0</ele><time>2026-04-19T14:28:05.126Z</time></trkpt><trkpt lat="39.5292544" lon="15.9253677"><ele>40.0</ele><time>2026-04-19T14:28:06.127Z</time></trkpt><trkpt lat="39.5293264" lon="15.9252322"><ele>40.0</ele><time>2026-04-19T14:28:07.126Z</time></trkpt><trkpt lat="39.5293895" lon="15.9250998"><ele>40.0</ele><time>2026-04-19T14:28:08.126Z</time></trkpt><trkpt lat="39.5294532" lon="15.9249469"><ele>40.0</ele><time>2026-04-19T14:28:09.126Z</time></trkpt><trkpt lat="39.5295109" lon="15.9247844"><ele>40.0</ele><time>2026-04-19T14:28:10.127Z</time></trkpt><trkpt lat="39.5295631" lon="15.9246278"><ele>44.333333333333336</ele><time>2026-04-19T14:28:11.127Z</time></trkpt><trkpt lat="39.5296147" lon="15.9244543"><ele>48.66666666666667</ele><time>2026-04-19T14:28:12.127Z</time></trkpt><trkpt lat="39.5296624" lon="15.9242782"><ele>53.0</ele><time>2026-04-19T14:28:13.127Z</time></trkpt><trkpt lat="39.5297164" lon="15.9240745"><ele>53.0</ele><time>2026-04-19T14:28:14.127Z</time></trkpt><trkpt lat="39.5297734" lon="15.9238755"><ele>53.0</ele><time>2026-04-19T14:28:15.126Z</time></trkpt><trkpt lat="39.5298266" lon="15.9236919"><ele>53.0</ele><time>2026-04-19T14:28:16.127Z</time></trkpt><trkpt lat="39.5298837" lon="15.9234918"><ele>49.66666666666667</ele><time>2026-04-19T14:28:17.127Z</time></trkpt><trkpt lat="39.5299527" lon="15.9232459"><ele>46.333333333333336</ele><time>2026-04-19T14:28:18.126Z</time></trkpt><trkpt lat="39.5300461" lon="15.9229793"><ele>43.0</ele><time>2026-04-19T14:28:19.126Z</time></trkpt><trkpt lat="39.5301505" lon="15.9226992"><ele>36.5</ele><time>2026-04-19T14:28:20.127Z</time></trkpt><trkpt lat="39.5302622" lon="15.922414"><ele>30.0</ele><time>2026-04-19T14:28:21.126Z</time></trkpt><trkpt lat="39.5303721" lon="15.9221452"><ele>45.0</ele><time>2026-04-19T14:28:22.127Z</time></trkpt><trkpt lat="39.5305043" lon="15.9218609"><ele>60.0</ele><time>2026-04-19T14:28:23.127Z</time></trkpt><trkpt lat="39.5306533" lon="15.9215679"><ele>60.0</ele><time>2026-04-19T14:28:24.126Z</time></trkpt><trkpt lat="39.5308129" lon="15.9212778"><ele>60.0</ele><time>2026-04-19T14:28:25.126Z</time></trkpt><trkpt lat="39.5309681" lon="15.9209853"><ele>59.5</ele><time>2026-04-19T14:28:26.127Z</time></trkpt><trkpt lat="39.5311272" lon="15.9206951"><ele>59.0</ele><time>2026-04-19T14:28:27.127Z</time></trkpt><trkpt lat="39.5312848" lon="15.9204049"><ele>73.0</ele><time>2026-04-19T14:28:28.127Z</time></trkpt><trkpt lat="39.5319157" lon="15.9192841"><ele>68.5</ele><time>2026-04-19T14:28:32.121Z</time></trkpt><trkpt lat="39.5320678" lon="15.9190376"><ele>64.0</ele><time>2026-04-19T14:28:33.119Z</time></trkpt><trkpt lat="39.5322267" lon="15.9187976"><ele>64.0</ele><time>2026-04-19T14:28:34.125Z</time></trkpt><trkpt lat="39.5323736" lon="15.9185318"><ele>64.0</ele><time>2026-04-19T14:28:35.139Z</time></trkpt><trkpt lat="39.5325119" lon="15.9182869"><ele>51.5</ele><time>2026-04-19T14:28:36.131Z</time></trkpt><trkpt lat="39.5326426" lon="15.9180503"><ele>39.0</ele><time>2026-04-19T14:28:37.123Z</time></trkpt><trkpt lat="39.5327787" lon="15.9178106"><ele>33.5</ele><time>2026-04-19T14:28:38.124Z</time></trkpt><trkpt lat="39.5329184" lon="15.9175528"><ele>28.0</ele><time>2026-04-19T14:28:39.123Z</time></trkpt><trkpt lat="39.5330687" lon="15.9172694"><ele>28.0</ele><time>2026-04-19T14:28:40.123Z</time></trkpt><trkpt lat="39.5332402" lon="15.9169687"><ele>28.0</ele><time>2026-04-19T14:28:41.124Z</time></trkpt><trkpt lat="39.5334036" lon="15.916683"><ele>33.0</ele><time>2026-04-19T14:28:42.124Z</time></trkpt><trkpt lat="39.5335599" lon="15.9164196"><ele>38.0</ele><time>2026-04-19T14:28:43.124Z</time></trkpt><trkpt lat="39.5337077" lon="15.9161737"><ele>57.0</ele><time>2026-04-19T14:28:44.124Z</time></trkpt><trkpt lat="39.5338557" lon="15.9159341"><ele>76.0</ele><time>2026-04-19T14:28:45.123Z</time></trkpt><trkpt lat="39.5340127" lon="15.9157044"><ele>76.0</ele><time>2026-04-19T14:28:46.124Z</time></trkpt><trkpt lat="39.5341809" lon="15.9154838"><ele>76.0</ele><time>2026-04-19T14:28:47.123Z</time></trkpt><trkpt lat="39.5343658" lon="15.9152802"><ele>79.5</ele><time>2026-04-19T14:28:48.123Z</time></trkpt><trkpt lat="39.534573" lon="15.9150866"><ele>83.0</ele><time>2026-04-19T14:28:49.124Z</time></trkpt><trkpt lat="39.534808" lon="15.9149009"><ele>83.0</ele><time>2026-04-19T14:28:50.123Z</time></trkpt><trkpt lat="39.5350612" lon="15.9147188"><ele>83.0</ele><time>2026-04-19T14:28:51.124Z</time></trkpt><trkpt lat="39.5353162" lon="15.9145345"><ele>84.0</ele><time>2026-04-19T14:28:52.123Z</time></trkpt><trkpt lat="39.5355588" lon="15.9143355"><ele>85.0</ele><time>2026-04-19T14:28:53.124Z</time></trkpt><trkpt lat="39.5357869" lon="15.9141189"><ele>85.0</ele><time>2026-04-19T14:28:54.123Z</time></trkpt><trkpt lat="39.5359884" lon="15.9138838"><ele>85.0</ele><time>2026-04-19T14:28:55.123Z</time></trkpt><trkpt lat="39.5361731" lon="15.9136119"><ele>93.0</ele><time>2026-04-19T14:28:56.124Z</time></trkpt><trkpt lat="39.536351" lon="15.9133072"><ele>101.0</ele><time>2026-04-19T14:28:57.124Z</time></trkpt><trkpt lat="39.5365123" lon="15.9129977"><ele>101.0</ele><time>2026-04-19T14:28:58.124Z</time></trkpt><trkpt lat="39.5366565" lon="15.9127048"><ele>101.0</ele><time>2026-04-19T14:28:59.124Z</time></trkpt><trkpt lat="39.5367835" lon="15.9124267"><ele>93.0</ele><time>2026-04-19T14:29:00.123Z</time></trkpt><trkpt lat="39.5369095" lon="15.9121667"><ele>85.0</ele><time>2026-04-19T14:29:01.124Z</time></trkpt><trkpt lat="39.5370329" lon="15.9119129"><ele>91.33333333333333</ele><time>2026-04-19T14:29:02.124Z</time></trkpt><trkpt lat="39.5371511" lon="15.9116646"><ele>97.66666666666666</ele><time>2026-04-19T14:29:03.124Z</time></trkpt><trkpt lat="39.5372566" lon="15.9114185"><ele>104.0</ele><time>2026-04-19T14:29:04.124Z</time></trkpt><trkpt lat="39.5373479" lon="15.911176"><ele>104.0</ele><time>2026-04-19T14:29:05.124Z</time></trkpt><trkpt lat="39.5374184" lon="15.9109463"><ele>104.0</ele><time>2026-04-19T14:29:06.123Z</time></trkpt><trkpt lat="39.5374883" lon="15.9107175"><ele>104.0</ele><time>2026-04-19T14:29:07.123Z</time></trkpt><trkpt lat="39.5375565" lon="15.9104948"><ele>103.0</ele><time>2026-04-19T14:29:08.124Z</time></trkpt><trkpt lat="39.5376232" lon="15.910271"><ele>102.0</ele><time>2026-04-19T14:29:09.124Z</time></trkpt><trkpt lat="39.5376948" lon="15.9100287"><ele>101.0</ele><time>2026-04-19T14:29:10.123Z</time></trkpt><trkpt lat="39.5377733" lon="15.9097649"><ele>98.33333333333333</ele><time>2026-04-19T14:29:11.123Z</time></trkpt><trkpt lat="39.5378502" lon="15.9095163"><ele>95.66666666666666</ele><time>2026-04-19T14:29:12.123Z</time></trkpt><trkpt lat="39.5379259" lon="15.9092694"><ele>93.0</ele><time>2026-04-19T14:29:13.124Z</time></trkpt><trkpt lat="39.5380002" lon="15.909018"><ele>99.66666666666666</ele><time>2026-04-19T14:29:14.124Z</time></trkpt><trkpt lat="39.53808" lon="15.9087651"><ele>106.33333333333333</ele><time>2026-04-19T14:29:15.124Z</time></trkpt><trkpt lat="39.5381625" lon="15.9084928"><ele>113.0</ele><time>2026-04-19T14:29:16.123Z</time></trkpt><trkpt lat="39.5382525" lon="15.9081932"><ele>112.0</ele><time>2026-04-19T14:29:17.123Z</time></trkpt><trkpt lat="39.5383557" lon="15.9078781"><ele>111.0</ele><time>2026-04-19T14:29:18.123Z</time></trkpt><trkpt lat="39.53847" lon="15.9075439"><ele>111.0</ele><time>2026-04-19T14:29:19.124Z</time></trkpt><trkpt lat="39.5385808" lon="15.9071973"><ele>111.0</ele><time>2026-04-19T14:29:20.123Z</time></trkpt><trkpt lat="39.5386793" lon="15.906855"><ele>124.0</ele><time>2026-04-19T14:29:21.124Z</time></trkpt><trkpt lat="39.538749" lon="15.9065083"><ele>137.0</ele><time>2026-04-19T14:29:22.123Z</time></trkpt><trkpt lat="39.5387932" lon="15.9061435"><ele>137.5</ele><time>2026-04-19T14:29:23.123Z</time></trkpt><trkpt lat="39.5388115" lon="15.9057568"><ele>138.0</ele><time>2026-04-19T14:29:24.123Z</time></trkpt><trkpt lat="39.5388231" lon="15.9053525"><ele>135.5</ele><time>2026-04-19T14:29:25.124Z</time></trkpt><trkpt lat="39.5388299" lon="15.904965"><ele>133.0</ele><time>2026-04-19T14:29:26.124Z</time></trkpt><trkpt lat="39.5388358" lon="15.9046115"><ele>133.0</ele><time>2026-04-19T14:29:27.123Z</time></trkpt><trkpt lat="39.5388365" lon="15.9043104"><ele>133.0</ele><time>2026-04-19T14:29:28.124Z</time></trkpt><trkpt lat="39.5388362" lon="15.9040568"><ele>133.0</ele><time>2026-04-19T14:29:29.124Z</time></trkpt><trkpt lat="39.5388357" lon="15.9038249"><ele>134.33333333333334</ele><time>2026-04-19T14:29:30.123Z</time></trkpt><trkpt lat="39.5388327" lon="15.9036021"><ele>135.66666666666666</ele><time>2026-04-19T14:29:31.123Z</time></trkpt><trkpt lat="39.5388278" lon="15.9033795"><ele>137.0</ele><time>2026-04-19T14:29:32.123Z</time></trkpt><trkpt lat="39.5388246" lon="15.9031488"><ele>134.33333333333331</ele><time>2026-04-19T14:29:33.123Z</time></trkpt><trkpt lat="39.5388221" lon="15.902906"><ele>131.66666666666666</ele><time>2026-04-19T14:29:34.124Z</time></trkpt><trkpt lat="39.5388124" lon="15.9026464"><ele>129.0</ele><time>2026-04-19T14:29:35.124Z</time></trkpt><trkpt lat="39.5388054" lon="15.9023724"><ele>126.0</ele><time>2026-04-19T14:29:36.123Z</time></trkpt><trkpt lat="39.5388002" lon="15.9020974"><ele>123.0</ele><time>2026-04-19T14:29:37.123Z</time></trkpt><trkpt lat="39.5388015" lon="15.9018119"><ele>120.0</ele><time>2026-04-19T14:29:38.123Z</time></trkpt><trkpt lat="39.5388175" lon="15.901517"><ele>120.0</ele><time>2026-04-19T14:29:39.123Z</time></trkpt><trkpt lat="39.5388565" lon="15.9012069"><ele>120.0</ele><time>2026-04-19T14:29:40.123Z</time></trkpt><trkpt lat="39.5388989" lon="15.9008801"><ele>120.0</ele><time>2026-04-19T14:29:41.123Z</time></trkpt><trkpt lat="39.5389792" lon="15.9004986"><ele>120.0</ele><time>2026-04-19T14:29:42.124Z</time></trkpt><trkpt lat="39.5390494" lon="15.9001499"><ele>115.5</ele><time>2026-04-19T14:29:43.124Z</time></trkpt><trkpt lat="39.5391115" lon="15.8997962"><ele>111.0</ele><time>2026-04-19T14:29:44.123Z</time></trkpt><trkpt lat="39.5391655" lon="15.8994526"><ele>107.0</ele><time>2026-04-19T14:29:45.123Z</time></trkpt><trkpt lat="39.539205" lon="15.8991037"><ele>103.0</ele><time>2026-04-19T14:29:46.124Z</time></trkpt><trkpt lat="39.5392413" lon="15.8987614"><ele>103.0</ele><time>2026-04-19T14:29:47.123Z</time></trkpt><trkpt lat="39.5392755" lon="15.8984364"><ele>103.0</ele><time>2026-04-19T14:29:48.124Z</time></trkpt><trkpt lat="39.53931" lon="15.8981178"><ele>98.0</ele><time>2026-04-19T14:29:49.124Z</time></trkpt><trkpt lat="39.5393484" lon="15.8978031"><ele>93.0</ele><time>2026-04-19T14:29:50.124Z</time></trkpt><trkpt lat="39.5393825" lon="15.8975077"><ele>89.0</ele><time>2026-04-19T14:29:51.124Z</time></trkpt><trkpt lat="39.5394179" lon="15.8972205"><ele>85.0</ele><time>2026-04-19T14:29:52.124Z</time></trkpt><trkpt lat="39.5394618" lon="15.8969431"><ele>81.0</ele><time>2026-04-19T14:29:53.123Z</time></trkpt><trkpt lat="39.5395148" lon="15.896657"><ele>100.0</ele><time>2026-04-19T14:29:54.124Z</time></trkpt><trkpt lat="39.5395871" lon="15.8963826"><ele>119.0</ele><time>2026-04-19T14:29:55.123Z</time></trkpt><trkpt lat="39.539678" lon="15.8961105"><ele>113.5</ele><time>2026-04-19T14:29:56.123Z</time></trkpt><trkpt lat="39.539782" lon="15.895846"><ele>108.0</ele><time>2026-04-19T14:29:57.124Z</time></trkpt><trkpt lat="39.5399032" lon="15.8955968"><ele>108.0</ele><time>2026-04-19T14:29:58.123Z</time></trkpt><trkpt lat="39.5400407" lon="15.8953558"><ele>108.0</ele><time>2026-04-19T14:29:59.123Z</time></trkpt><trkpt lat="39.540195" lon="15.8951259"><ele>107.5</ele><time>2026-04-19T14:30:00.124Z</time></trkpt><trkpt lat="39.5403678" lon="15.8949112"><ele>107.0</ele><time>2026-04-19T14:30:01.124Z</time></trkpt><trkpt lat="39.5405734" lon="15.8947056"><ele>107.0</ele><time>2026-04-19T14:30:02.124Z</time></trkpt><trkpt lat="39.5407996" lon="15.8945088"><ele>107.0</ele><time>2026-04-19T14:30:03.123Z</time></trkpt><trkpt lat="39.5410292" lon="15.894316"><ele>101.0</ele><time>2026-04-19T14:30:04.123Z</time></trkpt><trkpt lat="39.5412533" lon="15.8941166"><ele>95.0</ele><time>2026-04-19T14:30:05.123Z</time></trkpt><trkpt lat="39.5414715" lon="15.8939001"><ele>95.0</ele><time>2026-04-19T14:30:06.124Z</time></trkpt><trkpt lat="39.5416773" lon="15.8936554"><ele>95.0</ele><time>2026-04-19T14:30:07.123Z</time></trkpt><trkpt lat="39.5418738" lon="15.8933775"><ele>72.0</ele><time>2026-04-19T14:30:08.123Z</time></trkpt><trkpt lat="39.5420644" lon="15.893068"><ele>49.0</ele><time>2026-04-19T14:30:09.124Z</time></trkpt><trkpt lat="39.542258" lon="15.8927396"><ele>48.5</ele><time>2026-04-19T14:30:10.124Z</time></trkpt><trkpt lat="39.5424524" lon="15.8924092"><ele>48.0</ele><time>2026-04-19T14:30:11.123Z</time></trkpt><trkpt lat="39.5426409" lon="15.8920823"><ele>48.0</ele><time>2026-04-19T14:30:12.123Z</time></trkpt><trkpt lat="39.5428293" lon="15.8917603"><ele>48.0</ele><time>2026-04-19T14:30:13.124Z</time></trkpt><trkpt lat="39.5430186" lon="15.8914387"><ele>62.0</ele><time>2026-04-19T14:30:14.123Z</time></trkpt><trkpt lat="39.5432072" lon="15.891126"><ele>76.0</ele><time>2026-04-19T14:30:15.124Z</time></trkpt><trkpt lat="39.5433932" lon="15.8908158"><ele>76.0</ele><time>2026-04-19T14:30:16.124Z</time></trkpt><trkpt lat="39.5435824" lon="15.8905027"><ele>76.0</ele><time>2026-04-19T14:30:17.124Z</time></trkpt><trkpt lat="39.5437678" lon="15.8901888"><ele>76.5</ele><time>2026-04-19T14:30:18.123Z</time></trkpt><trkpt lat="39.5439502" lon="15.8898714"><ele>77.0</ele><time>2026-04-19T14:30:19.123Z</time></trkpt><trkpt lat="39.5441306" lon="15.8895314"><ele>69.0</ele><time>2026-04-19T14:30:20.124Z</time></trkpt><trkpt lat="39.5442903" lon="15.8891679"><ele>61.0</ele><time>2026-04-19T14:30:21.124Z</time></trkpt><trkpt lat="39.5444324" lon="15.8887756"><ele>56.0</ele><time>2026-04-19T14:30:22.123Z</time></trkpt><trkpt lat="39.5445424" lon="15.8883838"><ele>51.0</ele><time>2026-04-19T14:30:23.124Z</time></trkpt><trkpt lat="39.5446266" lon="15.8880005"><ele>61.0</ele><time>2026-04-19T14:30:24.123Z</time></trkpt><trkpt lat="39.5447017" lon="15.8876342"><ele>71.0</ele><time>2026-04-19T14:30:25.124Z</time></trkpt><trkpt lat="39.5447817" lon="15.88728"><ele>71.0</ele><time>2026-04-19T14:30:26.123Z</time></trkpt><trkpt lat="39.5448787" lon="15.8869417"><ele>71.0</ele><time>2026-04-19T14:30:27.124Z</time></trkpt><trkpt lat="39.544995" lon="15.8866265"><ele>68.5</ele><time>2026-04-19T14:30:28.123Z</time></trkpt><trkpt lat="39.5451344" lon="15.8863251"><ele>66.0</ele><time>2026-04-19T14:30:29.123Z</time></trkpt><trkpt lat="39.5452885" lon="15.886032"><ele>83.0</ele><time>2026-04-19T14:30:30.124Z</time></trkpt><trkpt lat="39.5454476" lon="15.8857439"><ele>100.0</ele><time>2026-04-19T14:30:31.124Z</time></trkpt><trkpt lat="39.545605" lon="15.8854537"><ele>74.0</ele><time>2026-04-19T14:30:32.123Z</time></trkpt><trkpt lat="39.5464965" lon="15.8839295"><ele>74.0</ele><time>2026-04-19T14:30:38.134Z</time></trkpt><trkpt lat="39.5466727" lon="15.8837155"><ele>74.0</ele><time>2026-04-19T14:30:39.123Z</time></trkpt><trkpt lat="39.5468621" lon="15.883514"><ele>77.0</ele><time>2026-04-19T14:30:40.135Z</time></trkpt><trkpt lat="39.547059" lon="15.8833391"><ele>80.0</ele><time>2026-04-19T14:30:41.125Z</time></trkpt><trkpt lat="39.5472577" lon="15.8831739"><ele>80.0</ele><time>2026-04-19T14:30:42.125Z</time></trkpt><trkpt lat="39.5474775" lon="15.8830286"><ele>80.0</ele><time>2026-04-19T14:30:43.12Z</time></trkpt><trkpt lat="39.5477263" lon="15.882873"><ele>74.5</ele><time>2026-04-19T14:30:44.12Z</time></trkpt><trkpt lat="39.5479746" lon="15.8827179"><ele>69.0</ele><time>2026-04-19T14:30:45.12Z</time></trkpt><trkpt lat="39.5482405" lon="15.8825468"><ele>69.0</ele><time>2026-04-19T14:30:46.12Z</time></trkpt><trkpt lat="39.5484839" lon="15.8823965"><ele>69.0</ele><time>2026-04-19T14:30:47.12Z</time></trkpt><trkpt lat="39.5487086" lon="15.8822493"><ele>75.5</ele><time>2026-04-19T14:30:48.12Z</time></trkpt><trkpt lat="39.5489251" lon="15.8821128"><ele>82.0</ele><time>2026-04-19T14:30:49.12Z</time></trkpt><trkpt lat="39.5491321" lon="15.8819837"><ele>82.0</ele><time>2026-04-19T14:30:50.12Z</time></trkpt><trkpt lat="39.5493263" lon="15.8818686"><ele>82.0</ele><time>2026-04-19T14:30:51.119Z</time></trkpt><trkpt lat="39.5495126" lon="15.8817497"><ele>82.0</ele><time>2026-04-19T14:30:52.12Z</time></trkpt><trkpt lat="39.5496867" lon="15.881645"><ele>78.33333333333333</ele><time>2026-04-19T14:30:53.119Z</time></trkpt><trkpt lat="39.5498578" lon="15.8815438"><ele>74.66666666666667</ele><time>2026-04-19T14:30:54.12Z</time></trkpt><trkpt lat="39.5500294" lon="15.8814595"><ele>71.0</ele><time>2026-04-19T14:30:55.119Z</time></trkpt><trkpt lat="39.5502027" lon="15.8813957"><ele>74.33333333333334</ele><time>2026-04-19T14:30:56.12Z</time></trkpt><trkpt lat="39.5503773" lon="15.8813448"><ele>77.66666666666667</ele><time>2026-04-19T14:30:57.12Z</time></trkpt><trkpt lat="39.5505468" lon="15.8813029"><ele>81.0</ele><time>2026-04-19T14:30:58.12Z</time></trkpt><trkpt lat="39.5507127" lon="15.8812744"><ele>81.0</ele><time>2026-04-19T14:30:59.119Z</time></trkpt><trkpt lat="39.5508817" lon="15.8812582"><ele>81.0</ele><time>2026-04-19T14:31:00.119Z</time></trkpt><trkpt lat="39.5510533" lon="15.8812567"><ele>81.0</ele><time>2026-04-19T14:31:01.12Z</time></trkpt><trkpt lat="39.5512204" lon="15.881258"><ele>84.0</ele><time>2026-04-19T14:31:02.119Z</time></trkpt><trkpt lat="39.5513881" lon="15.8812616"><ele>87.0</ele><time>2026-04-19T14:31:03.12Z</time></trkpt><trkpt lat="39.5515473" lon="15.8812585"><ele>90.0</ele><time>2026-04-19T14:31:04.12Z</time></trkpt><trkpt lat="39.5517007" lon="15.8812604"><ele>90.0</ele><time>2026-04-19T14:31:05.119Z</time></trkpt><trkpt lat="39.5518562" lon="15.8812638"><ele>90.0</ele><time>2026-04-19T14:31:06.12Z</time></trkpt><trkpt lat="39.5520111" lon="15.881269"><ele>90.0</ele><time>2026-04-19T14:31:07.119Z</time></trkpt><trkpt lat="39.5521626" lon="15.881274"><ele>89.25</ele><time>2026-04-19T14:31:08.12Z</time></trkpt><trkpt lat="39.5523108" lon="15.8812757"><ele>88.5</ele><time>2026-04-19T14:31:09.12Z</time></trkpt><trkpt lat="39.5524542" lon="15.8812769"><ele>87.75</ele><time>2026-04-19T14:31:10.12Z</time></trkpt><trkpt lat="39.5525993" lon="15.8812782"><ele>87.0</ele><time>2026-04-19T14:31:11.12Z</time></trkpt><trkpt lat="39.5527527" lon="15.8812747"><ele>85.66666666666667</ele><time>2026-04-19T14:31:12.119Z</time></trkpt><trkpt lat="39.5529095" lon="15.8812679"><ele>84.33333333333334</ele><time>2026-04-19T14:31:13.12Z</time></trkpt><trkpt lat="39.5530655" lon="15.8812475"><ele>83.0</ele><time>2026-04-19T14:31:14.12Z</time></trkpt><trkpt lat="39.5532261" lon="15.8812109"><ele>83.0</ele><time>2026-04-19T14:31:15.12Z</time></trkpt><trkpt lat="39.5533867" lon="15.8811599"><ele>83.0</ele><time>2026-04-19T14:31:16.119Z</time></trkpt><trkpt lat="39.5535431" lon="15.8811038"><ele>83.0</ele><time>2026-04-19T14:31:17.119Z</time></trkpt><trkpt lat="39.5537024" lon="15.8810384"><ele>79.33333333333334</ele><time>2026-04-19T14:31:18.119Z</time></trkpt><trkpt lat="39.553857" lon="15.8809675"><ele>75.66666666666667</ele><time>2026-04-19T14:31:19.119Z</time></trkpt><trkpt lat="39.5540117" lon="15.8808917"><ele>72.0</ele><time>2026-04-19T14:31:20.12Z</time></trkpt><trkpt lat="39.5541646" lon="15.8808067"><ele>72.0</ele><time>2026-04-19T14:31:21.12Z</time></trkpt><trkpt lat="39.5543146" lon="15.8807209"><ele>72.0</ele><time>2026-04-19T14:31:22.12Z</time></trkpt><trkpt lat="39.5544652" lon="15.8806283"><ele>72.0</ele><time>2026-04-19T14:31:23.119Z</time></trkpt><trkpt lat="39.5546066" lon="15.8805292"><ele>73.33333333333333</ele><time>2026-04-19T14:31:24.119Z</time></trkpt><trkpt lat="39.5547466" lon="15.8804172"><ele>74.66666666666666</ele><time>2026-04-19T14:31:25.119Z</time></trkpt><trkpt lat="39.5548787" lon="15.8802948"><ele>76.0</ele><time>2026-04-19T14:31:26.12Z</time></trkpt><trkpt lat="39.5550106" lon="15.8801679"><ele>76.33333333333333</ele><time>2026-04-19T14:31:27.119Z</time></trkpt><trkpt lat="39.5551358" lon="15.8800393"><ele>76.66666666666667</ele><time>2026-04-19T14:31:28.119Z</time></trkpt><trkpt lat="39.5552586" lon="15.8799112"><ele>77.0</ele><time>2026-04-19T14:31:29.119Z</time></trkpt><trkpt lat="39.555378" lon="15.8797822"><ele>77.0</ele><time>2026-04-19T14:31:30.119Z</time></trkpt><trkpt lat="39.5554999" lon="15.8796544"><ele>77.0</ele><time>2026-04-19T14:31:31.119Z</time></trkpt><trkpt lat="39.5556255" lon="15.8795178"><ele>77.0</ele><time>2026-04-19T14:31:32.119Z</time></trkpt><trkpt lat="39.5557506" lon="15.879381"><ele>65.0</ele><time>2026-04-19T14:31:33.119Z</time></trkpt><trkpt lat="39.5570286" lon="15.8780783"><ele>64.0</ele><time>2026-04-19T14:31:43.124Z</time></trkpt><trkpt lat="39.557155" lon="15.8780058"><ele>63.0</ele><time>2026-04-19T14:31:44.127Z</time></trkpt><trkpt lat="39.557335" lon="15.8778795"><ele>62.0</ele><time>2026-04-19T14:31:45.127Z</time></trkpt><trkpt lat="39.5574757" lon="15.8778087"><ele>62.0</ele><time>2026-04-19T14:31:46.124Z</time></trkpt><trkpt lat="39.5576254" lon="15.8777329"><ele>62.0</ele><time>2026-04-19T14:31:47.133Z</time></trkpt><trkpt lat="39.5577795" lon="15.8776733"><ele>62.0</ele><time>2026-04-19T14:31:48.129Z</time></trkpt><trkpt lat="39.5579372" lon="15.877621"><ele>57.66666666666667</ele><time>2026-04-19T14:31:49.13Z</time></trkpt><trkpt lat="39.5581021" lon="15.8775492"><ele>53.33333333333333</ele><time>2026-04-19T14:31:50.13Z</time></trkpt><trkpt lat="39.5582693" lon="15.8774995"><ele>49.0</ele><time>2026-04-19T14:31:51.129Z</time></trkpt><trkpt lat="39.5584376" lon="15.877436"><ele>49.0</ele><time>2026-04-19T14:31:52.13Z</time></trkpt><trkpt lat="39.5586053" lon="15.8773636"><ele>49.0</ele><time>2026-04-19T14:31:53.13Z</time></trkpt><trkpt lat="39.5587753" lon="15.8772975"><ele>49.0</ele><time>2026-04-19T14:31:54.129Z</time></trkpt><trkpt lat="39.5589498" lon="15.8772345"><ele>48.666666666666664</ele><time>2026-04-19T14:31:55.13Z</time></trkpt><trkpt lat="39.5591443" lon="15.8771563"><ele>48.33333333333333</ele><time>2026-04-19T14:31:56.13Z</time></trkpt><trkpt lat="39.5593676" lon="15.8770629"><ele>48.0</ele><time>2026-04-19T14:31:57.13Z</time></trkpt><trkpt lat="39.5596166" lon="15.8769721"><ele>49.0</ele><time>2026-04-19T14:31:58.129Z</time></trkpt><trkpt lat="39.5598961" lon="15.8768832"><ele>50.0</ele><time>2026-04-19T14:31:59.129Z</time></trkpt><trkpt lat="39.5601737" lon="15.8767927"><ele>45.0</ele><time>2026-04-19T14:32:00.13Z</time></trkpt><trkpt lat="39.5604532" lon="15.8767047"><ele>40.0</ele><time>2026-04-19T14:32:01.129Z</time></trkpt><trkpt lat="39.5607336" lon="15.8766064"><ele>40.0</ele><time>2026-04-19T14:32:02.129Z</time></trkpt><trkpt lat="39.5610123" lon="15.8765061"><ele>40.0</ele><time>2026-04-19T14:32:03.129Z</time></trkpt><trkpt lat="39.5612913" lon="15.8764053"><ele>38.5</ele><time>2026-04-19T14:32:04.129Z</time></trkpt><trkpt lat="39.5615747" lon="15.8763021"><ele>37.0</ele><time>2026-04-19T14:32:05.13Z</time></trkpt><trkpt lat="39.5618523" lon="15.8761985"><ele>40.5</ele><time>2026-04-19T14:32:06.129Z</time></trkpt><trkpt lat="39.5621276" lon="15.8760962"><ele>44.0</ele><time>2026-04-19T14:32:07.129Z</time></trkpt><trkpt lat="39.5624021" lon="15.8759974"><ele>44.0</ele><time>2026-04-19T14:32:08.129Z</time></trkpt><trkpt lat="39.5626725" lon="15.8758969"><ele>44.0</ele><time>2026-04-19T14:32:09.129Z</time></trkpt><trkpt lat="39.5629402" lon="15.8758007"><ele>44.0</ele><time>2026-04-19T14:32:10.13Z</time></trkpt><trkpt lat="39.5632085" lon="15.8757085"><ele>44.0</ele><time>2026-04-19T14:32:11.129Z</time></trkpt><trkpt lat="39.5634766" lon="15.8756216"><ele>46.0</ele><time>2026-04-19T14:32:12.129Z</time></trkpt><trkpt lat="39.563747" lon="15.8755463"><ele>48.0</ele><time>2026-04-19T14:32:13.129Z</time></trkpt><trkpt lat="39.5640162" lon="15.8754736"><ele>48.0</ele><time>2026-04-19T14:32:14.129Z</time></trkpt><trkpt lat="39.5642822" lon="15.8754016"><ele>48.0</ele><time>2026-04-19T14:32:15.13Z</time></trkpt><trkpt lat="39.5645541" lon="15.8753338"><ele>50.0</ele><time>2026-04-19T14:32:16.129Z</time></trkpt><trkpt lat="39.5648224" lon="15.8752619"><ele>52.0</ele><time>2026-04-19T14:32:17.13Z</time></trkpt><trkpt lat="39.5650906" lon="15.8751878"><ele>52.0</ele><time>2026-04-19T14:32:18.129Z</time></trkpt><trkpt lat="39.5653546" lon="15.8751162"><ele>52.0</ele><time>2026-04-19T14:32:19.129Z</time></trkpt><trkpt lat="39.5656275" lon="15.8750466"><ele>45.5</ele><time>2026-04-19T14:32:20.13Z</time></trkpt><trkpt lat="39.5658999" lon="15.8749637"><ele>39.0</ele><time>2026-04-19T14:32:21.13Z</time></trkpt><trkpt lat="39.5661584" lon="15.8748774"><ele>40.5</ele><time>2026-04-19T14:32:22.13Z</time></trkpt><trkpt lat="39.5664101" lon="15.8747709"><ele>42.0</ele><time>2026-04-19T14:32:23.129Z</time></trkpt><trkpt lat="39.5666505" lon="15.8746337"><ele>42.0</ele><time>2026-04-19T14:32:24.129Z</time></trkpt><trkpt lat="39.5668778" lon="15.8744613"><ele>42.0</ele><time>2026-04-19T14:32:25.13Z</time></trkpt><trkpt lat="39.5670911" lon="15.8742838"><ele>33.0</ele><time>2026-04-19T14:32:26.129Z</time></trkpt><trkpt lat="39.567285" lon="15.8741023"><ele>24.0</ele><time>2026-04-19T14:32:27.129Z</time></trkpt><trkpt lat="39.5674794" lon="15.8739338"><ele>24.0</ele><time>2026-04-19T14:32:28.13Z</time></trkpt><trkpt lat="39.5676523" lon="15.8737765"><ele>24.0</ele><time>2026-04-19T14:32:29.13Z</time></trkpt><trkpt lat="39.5678132" lon="15.8736401"><ele>24.0</ele><time>2026-04-19T14:32:30.129Z</time></trkpt><trkpt lat="39.5679709" lon="15.873526"><ele>25.666666666666664</ele><time>2026-04-19T14:32:31.129Z</time></trkpt><trkpt lat="39.5681299" lon="15.8734337"><ele>27.333333333333332</ele><time>2026-04-19T14:32:32.13Z</time></trkpt><trkpt lat="39.5682902" lon="15.8733576"><ele>29.0</ele><time>2026-04-19T14:32:33.129Z</time></trkpt><trkpt lat="39.5684504" lon="15.8732916"><ele>29.0</ele><time>2026-04-19T14:32:34.129Z</time></trkpt><trkpt lat="39.5686106" lon="15.8732303"><ele>29.0</ele><time>2026-04-19T14:32:35.13Z</time></trkpt><trkpt lat="39.5687722" lon="15.8731735"><ele>29.0</ele><time>2026-04-19T14:32:36.13Z</time></trkpt><trkpt lat="39.568923" lon="15.8731204"><ele>29.25</ele><time>2026-04-19T14:32:37.129Z</time></trkpt><trkpt lat="39.5690616" lon="15.8730772"><ele>29.5</ele><time>2026-04-19T14:32:38.13Z</time></trkpt><trkpt lat="39.5691817" lon="15.873047"><ele>29.75</ele><time>2026-04-19T14:32:39.13Z</time></trkpt><trkpt lat="39.5692828" lon="15.8730194"><ele>30.0</ele><time>2026-04-19T14:32:40.13Z</time></trkpt><trkpt lat="39.5693667" lon="15.8729967"><ele>30.0</ele><time>2026-04-19T14:32:41.13Z</time></trkpt><trkpt lat="39.5694404" lon="15.8729742"><ele>30.0</ele><time>2026-04-19T14:32:42.129Z</time></trkpt><trkpt lat="39.5695054" lon="15.8729549"><ele>30.0</ele><time>2026-04-19T14:32:43.129Z</time></trkpt><trkpt lat="39.5695782" lon="15.8729349"><ele>30.0</ele><time>2026-04-19T14:32:45.13Z</time></trkpt><trkpt lat="39.5697267" lon="15.8728926"><ele>30.0</ele><time>2026-04-19T14:33:57.129Z</time></trkpt><trkpt lat="39.5698608" lon="15.8728386"><ele>30.666666666666664</ele><time>2026-04-19T14:33:58.13Z</time></trkpt><trkpt lat="39.5700082" lon="15.8727841"><ele>31.333333333333332</ele><time>2026-04-19T14:33:59.129Z</time></trkpt><trkpt lat="39.5702103" lon="15.8726988"><ele>32.0</ele><time>2026-04-19T14:34:00.13Z</time></trkpt><trkpt lat="39.5704266" lon="15.8726119"><ele>29.0</ele><time>2026-04-19T14:34:01.13Z</time></trkpt><trkpt lat="39.5706671" lon="15.8725227"><ele>26.0</ele><time>2026-04-19T14:34:02.13Z</time></trkpt><trkpt lat="39.5709222" lon="15.8724352"><ele>26.0</ele><time>2026-04-19T14:34:03.129Z</time></trkpt><trkpt lat="39.5711861" lon="15.8723463"><ele>26.0</ele><time>2026-04-19T14:34:04.129Z</time></trkpt><trkpt lat="39.5714542" lon="15.8722552"><ele>26.5</ele><time>2026-04-19T14:34:05.13Z</time></trkpt><trkpt lat="39.5717294" lon="15.872159"><ele>27.0</ele><time>2026-04-19T14:34:06.13Z</time></trkpt><trkpt lat="39.5720234" lon="15.8720631"><ele>27.0</ele><time>2026-04-19T14:34:07.129Z</time></trkpt><trkpt lat="39.5722949" lon="15.8719727"><ele>27.0</ele><time>2026-04-19T14:34:08.13Z</time></trkpt><trkpt lat="39.5725606" lon="15.8718801"><ele>27.0</ele><time>2026-04-19T14:34:09.129Z</time></trkpt><trkpt lat="39.5728198" lon="15.8717877"><ele>27.0</ele><time>2026-04-19T14:34:10.129Z</time></trkpt><trkpt lat="39.573067" lon="15.8717052"><ele>27.0</ele><time>2026-04-19T14:34:11.13Z</time></trkpt><trkpt lat="39.5733033" lon="15.8716235"><ele>27.0</ele><time>2026-04-19T14:34:12.129Z</time></trkpt><trkpt lat="39.5735309" lon="15.8715432"><ele>26.5</ele><time>2026-04-19T14:34:13.13Z</time></trkpt><trkpt lat="39.5737596" lon="15.8714655"><ele>26.0</ele><time>2026-04-19T14:34:14.129Z</time></trkpt><trkpt lat="39.5739968" lon="15.871399"><ele>26.0</ele><time>2026-04-19T14:34:15.13Z</time></trkpt><trkpt lat="39.5742375" lon="15.8713215"><ele>26.0</ele><time>2026-04-19T14:34:16.129Z</time></trkpt><trkpt lat="39.5744811" lon="15.8712381"><ele>27.5</ele><time>2026-04-19T14:34:17.129Z</time></trkpt><trkpt lat="39.5747271" lon="15.8711499"><ele>29.0</ele><time>2026-04-19T14:34:18.13Z</time></trkpt><trkpt lat="39.5749788" lon="15.8710592"><ele>29.0</ele><time>2026-04-19T14:34:19.129Z</time></trkpt><trkpt lat="39.5752374" lon="15.8709674"><ele>29.0</ele><time>2026-04-19T14:34:20.13Z</time></trkpt><trkpt lat="39.575512" lon="15.8708672"><ele>29.0</ele><time>2026-04-19T14:34:21.13Z</time></trkpt><trkpt lat="39.5758003" lon="15.8707551"><ele>29.0</ele><time>2026-04-19T14:34:22.13Z</time></trkpt><trkpt lat="39.5760953" lon="15.8706286"><ele>31.5</ele><time>2026-04-19T14:34:23.13Z</time></trkpt><trkpt lat="39.5763805" lon="15.8704972"><ele>34.0</ele><time>2026-04-19T14:34:24.13Z</time></trkpt><trkpt lat="39.5766411" lon="15.8703724"><ele>34.0</ele><time>2026-04-19T14:34:25.129Z</time></trkpt><trkpt lat="39.5768865" lon="15.8702508"><ele>34.0</ele><time>2026-04-19T14:34:26.13Z</time></trkpt><trkpt lat="39.5771127" lon="15.8701395"><ele>31.0</ele><time>2026-04-19T14:34:27.129Z</time></trkpt><trkpt lat="39.5773236" lon="15.8700377"><ele>28.0</ele><time>2026-04-19T14:34:28.129Z</time></trkpt><trkpt lat="39.5775241" lon="15.8699427"><ele>25.0</ele><time>2026-04-19T14:34:29.13Z</time></trkpt><trkpt lat="39.5777183" lon="15.8698561"><ele>29.0</ele><time>2026-04-19T14:34:30.13Z</time></trkpt><trkpt lat="39.5779164" lon="15.8697779"><ele>33.0</ele><time>2026-04-19T14:34:31.13Z</time></trkpt><trkpt lat="39.5781151" lon="15.8697134"><ele>37.0</ele><time>2026-04-19T14:34:32.129Z</time></trkpt><trkpt lat="39.5783194" lon="15.8696594"><ele>37.0</ele><time>2026-04-19T14:34:33.13Z</time></trkpt><trkpt lat="39.5785306" lon="15.8696152"><ele>37.0</ele><time>2026-04-19T14:34:34.129Z</time></trkpt><trkpt lat="39.5787463" lon="15.8695783"><ele>37.0</ele><time>2026-04-19T14:34:35.13Z</time></trkpt><trkpt lat="39.5789663" lon="15.869561"><ele>39.5</ele><time>2026-04-19T14:34:36.129Z</time></trkpt><trkpt lat="39.5791898" lon="15.8695563"><ele>42.0</ele><time>2026-04-19T14:34:37.13Z</time></trkpt><trkpt lat="39.5794183" lon="15.8695624"><ele>41.0</ele><time>2026-04-19T14:34:38.129Z</time></trkpt><trkpt lat="39.5796457" lon="15.8695686"><ele>40.0</ele><time>2026-04-19T14:34:39.13Z</time></trkpt><trkpt lat="39.5798765" lon="15.8695767"><ele>40.0</ele><time>2026-04-19T14:34:40.129Z</time></trkpt><trkpt lat="39.5801067" lon="15.8695847"><ele>40.0</ele><time>2026-04-19T14:34:41.13Z</time></trkpt><trkpt lat="39.5803382" lon="15.869595"><ele>39.5</ele><time>2026-04-19T14:34:42.129Z</time></trkpt><trkpt lat="39.5805692" lon="15.8696073"><ele>39.0</ele><time>2026-04-19T14:34:43.129Z</time></trkpt><trkpt lat="39.580802" lon="15.8696178"><ele>39.0</ele><time>2026-04-19T14:34:44.129Z</time></trkpt><trkpt lat="39.5810352" lon="15.8696328"><ele>39.0</ele><time>2026-04-19T14:34:45.13Z</time></trkpt><trkpt lat="39.5812723" lon="15.8696478"><ele>38.5</ele><time>2026-04-19T14:34:46.129Z</time></trkpt><trkpt lat="39.5815091" lon="15.8696664"><ele>38.0</ele><time>2026-04-19T14:34:47.129Z</time></trkpt><trkpt lat="39.5817467" lon="15.8696888"><ele>38.0</ele><time>2026-04-19T14:34:48.13Z</time></trkpt><trkpt lat="39.5819864" lon="15.8697126"><ele>38.0</ele><time>2026-04-19T14:34:49.13Z</time></trkpt><trkpt lat="39.5822278" lon="15.8697348"><ele>38.5</ele><time>2026-04-19T14:34:50.13Z</time></trkpt><trkpt lat="39.5824704" lon="15.8697578"><ele>39.0</ele><time>2026-04-19T14:34:51.129Z</time></trkpt><trkpt lat="39.5827149" lon="15.8697851"><ele>40.0</ele><time>2026-04-19T14:34:52.13Z</time></trkpt><trkpt lat="39.5829608" lon="15.8698217"><ele>41.0</ele><time>2026-04-19T14:34:53.129Z</time></trkpt><trkpt lat="39.5832003" lon="15.8698706"><ele>41.0</ele><time>2026-04-19T14:34:54.129Z</time></trkpt><trkpt lat="39.5834371" lon="15.8699312"><ele>41.0</ele><time>2026-04-19T14:34:55.13Z</time></trkpt><trkpt lat="39.5836725" lon="15.8699975"><ele>38.5</ele><time>2026-04-19T14:34:56.129Z</time></trkpt><trkpt lat="39.5839045" lon="15.8700655"><ele>36.0</ele><time>2026-04-19T14:34:57.13Z</time></trkpt><trkpt lat="39.5841348" lon="15.8701323"><ele>45.0</ele><time>2026-04-19T14:34:58.129Z</time></trkpt><trkpt lat="39.584359" lon="15.8701959"><ele>54.0</ele><time>2026-04-19T14:34:59.129Z</time></trkpt><trkpt lat="39.5845808" lon="15.8702588"><ele>54.0</ele><time>2026-04-19T14:35:00.13Z</time></trkpt><trkpt lat="39.5848026" lon="15.870317"><ele>54.0</ele><time>2026-04-19T14:35:01.129Z</time></trkpt><trkpt lat="39.5850243" lon="15.8703768"><ele>54.0</ele><time>2026-04-19T14:35:02.129Z</time></trkpt><trkpt lat="39.5852542" lon="15.8704286"><ele>54.0</ele><time>2026-04-19T14:35:03.129Z</time></trkpt><trkpt lat="39.5854838" lon="15.8704666"><ele>42.5</ele><time>2026-04-19T14:35:04.13Z</time></trkpt><trkpt lat="39.5857189" lon="15.870492"><ele>31.0</ele><time>2026-04-19T14:35:05.13Z</time></trkpt><trkpt lat="39.5859551" lon="15.8705009"><ele>29.5</ele><time>2026-04-19T14:35:06.129Z</time></trkpt><trkpt lat="39.5861982" lon="15.8704926"><ele>28.0</ele><time>2026-04-19T14:35:07.13Z</time></trkpt><trkpt lat="39.5864418" lon="15.8704661"><ele>28.0</ele><time>2026-04-19T14:35:08.129Z</time></trkpt><trkpt lat="39.5866802" lon="15.8704263"><ele>28.0</ele><time>2026-04-19T14:35:09.129Z</time></trkpt><trkpt lat="39.5869225" lon="15.8703691"><ele>28.5</ele><time>2026-04-19T14:35:10.13Z</time></trkpt><trkpt lat="39.587166" lon="15.8702888"><ele>29.0</ele><time>2026-04-19T14:35:11.13Z</time></trkpt><trkpt lat="39.5874152" lon="15.8701862"><ele>32.0</ele><time>2026-04-19T14:35:12.129Z</time></trkpt><trkpt lat="39.5876805" lon="15.870053"><ele>35.0</ele><time>2026-04-19T14:35:13.13Z</time></trkpt><trkpt lat="39.5879507" lon="15.8699023"><ele>36.0</ele><time>2026-04-19T14:35:14.129Z</time></trkpt><trkpt lat="39.5882212" lon="15.8697382"><ele>37.0</ele><time>2026-04-19T14:35:15.13Z</time></trkpt><trkpt lat="39.5884873" lon="15.8695709"><ele>38.0</ele><time>2026-04-19T14:35:16.13Z</time></trkpt><trkpt lat="39.5887466" lon="15.869407"><ele>39.0</ele><time>2026-04-19T14:35:17.129Z</time></trkpt><trkpt lat="39.5890018" lon="15.8692423"><ele>39.0</ele><time>2026-04-19T14:35:18.129Z</time></trkpt><trkpt lat="39.5892487" lon="15.8690825"><ele>39.0</ele><time>2026-04-19T14:35:19.129Z</time></trkpt><trkpt lat="39.5894934" lon="15.8689302"><ele>43.0</ele><time>2026-04-19T14:35:20.13Z</time></trkpt><trkpt lat="39.5897339" lon="15.8687829"><ele>47.0</ele><time>2026-04-19T14:35:21.13Z</time></trkpt><trkpt lat="39.5899745" lon="15.8686491"><ele>47.0</ele><time>2026-04-19T14:35:22.129Z</time></trkpt><trkpt lat="39.5902198" lon="15.8685324"><ele>47.0</ele><time>2026-04-19T14:35:23.13Z</time></trkpt><trkpt lat="39.5904651" lon="15.868437"><ele>44.0</ele><time>2026-04-19T14:35:24.129Z</time></trkpt><trkpt lat="39.5907098" lon="15.8683573"><ele>41.0</ele><time>2026-04-19T14:35:25.129Z</time></trkpt><trkpt lat="39.5909518" lon="15.868286"><ele>42.0</ele><time>2026-04-19T14:35:26.13Z</time></trkpt><trkpt lat="39.5911901" lon="15.8682177"><ele>43.0</ele><time>2026-04-19T14:35:27.13Z</time></trkpt><trkpt lat="39.5914239" lon="15.8681513"><ele>43.0</ele><time>2026-04-19T14:35:28.13Z</time></trkpt><trkpt lat="39.5916539" lon="15.8680822"><ele>43.0</ele><time>2026-04-19T14:35:29.13Z</time></trkpt><trkpt lat="39.5918812" lon="15.8680052"><ele>47.5</ele><time>2026-04-19T14:35:30.13Z</time></trkpt><trkpt lat="39.5921083" lon="15.8679127"><ele>52.0</ele><time>2026-04-19T14:35:31.129Z</time></trkpt><trkpt lat="39.5923317" lon="15.8678018"><ele>52.0</ele><time>2026-04-19T14:35:32.129Z</time></trkpt><trkpt lat="39.5925527" lon="15.8676707"><ele>52.0</ele><time>2026-04-19T14:35:33.129Z</time></trkpt><trkpt lat="39.592761" lon="15.8675204"><ele>51.0</ele><time>2026-04-19T14:35:34.129Z</time></trkpt><trkpt lat="39.5929505" lon="15.8673499"><ele>50.0</ele><time>2026-04-19T14:35:35.129Z</time></trkpt><trkpt lat="39.5931294" lon="15.8671569"><ele>50.0</ele><time>2026-04-19T14:35:36.129Z</time></trkpt><trkpt lat="39.5933018" lon="15.8669427"><ele>50.0</ele><time>2026-04-19T14:35:37.13Z</time></trkpt><trkpt lat="39.5934682" lon="15.8667088"><ele>50.0</ele><time>2026-04-19T14:35:38.129Z</time></trkpt><trkpt lat="39.5936254" lon="15.8664616"><ele>50.0</ele><time>2026-04-19T14:35:39.13Z</time></trkpt><trkpt lat="39.5937755" lon="15.8662097"><ele>50.0</ele><time>2026-04-19T14:35:40.13Z</time></trkpt><trkpt lat="39.5939243" lon="15.8659567"><ele>50.0</ele><time>2026-04-19T14:35:41.129Z</time></trkpt><trkpt lat="39.5940696" lon="15.8657125"><ele>45.0</ele><time>2026-04-19T14:35:42.129Z</time></trkpt><trkpt lat="39.5942143" lon="15.8654736"><ele>40.0</ele><time>2026-04-19T14:35:43.13Z</time></trkpt><trkpt lat="39.5943624" lon="15.8652446"><ele>43.0</ele><time>2026-04-19T14:35:44.129Z</time></trkpt><trkpt lat="39.5945207" lon="15.8650302"><ele>46.0</ele><time>2026-04-19T14:35:45.13Z</time></trkpt><trkpt lat="39.5946918" lon="15.8648309"><ele>46.0</ele><time>2026-04-19T14:35:46.13Z</time></trkpt><trkpt lat="39.5948763" lon="15.8646495"><ele>46.0</ele><time>2026-04-19T14:35:47.129Z</time></trkpt><trkpt lat="39.5950691" lon="15.8644758"><ele>46.0</ele><time>2026-04-19T14:35:48.129Z</time></trkpt><trkpt lat="39.5952645" lon="15.8643102"><ele>46.0</ele><time>2026-04-19T14:35:49.129Z</time></trkpt><trkpt lat="39.5954529" lon="15.8641499"><ele>46.333333333333336</ele><time>2026-04-19T14:35:50.13Z</time></trkpt><trkpt lat="39.5956369" lon="15.8639981"><ele>46.666666666666664</ele><time>2026-04-19T14:35:51.13Z</time></trkpt><trkpt lat="39.5958243" lon="15.8638549"><ele>47.0</ele><time>2026-04-19T14:35:52.129Z</time></trkpt><trkpt lat="39.5960162" lon="15.8637278"><ele>46.0</ele><time>2026-04-19T14:35:53.13Z</time></trkpt><trkpt lat="39.5962156" lon="15.8636254"><ele>45.0</ele><time>2026-04-19T14:35:54.129Z</time></trkpt><trkpt lat="39.5964274" lon="15.8635413"><ele>44.0</ele><time>2026-04-19T14:35:55.13Z</time></trkpt><trkpt lat="39.5966551" lon="15.8634788"><ele>35.5</ele><time>2026-04-19T14:35:56.13Z</time></trkpt><trkpt lat="39.5968934" lon="15.8634257"><ele>27.0</ele><time>2026-04-19T14:35:57.13Z</time></trkpt><trkpt lat="39.5971358" lon="15.8633781"><ele>27.0</ele><time>2026-04-19T14:35:58.129Z</time></trkpt><trkpt lat="39.5973781" lon="15.8633323"><ele>27.0</ele><time>2026-04-19T14:35:59.129Z</time></trkpt><trkpt lat="39.5976132" lon="15.8632899"><ele>27.666666666666664</ele><time>2026-04-19T14:36:00.129Z</time></trkpt><trkpt lat="39.5978381" lon="15.8632496"><ele>28.333333333333332</ele><time>2026-04-19T14:36:01.129Z</time></trkpt><trkpt lat="39.5980508" lon="15.8632125"><ele>29.0</ele><time>2026-04-19T14:36:02.13Z</time></trkpt><trkpt lat="39.5982507" lon="15.8631777"><ele>29.0</ele><time>2026-04-19T14:36:03.13Z</time></trkpt><trkpt lat="39.5984396" lon="15.8631434"><ele>29.0</ele><time>2026-04-19T14:36:04.13Z</time></trkpt><trkpt lat="39.5986152" lon="15.8631121"><ele>29.0</ele><time>2026-04-19T14:36:05.129Z</time></trkpt><trkpt lat="39.5987797" lon="15.8630832"><ele>29.5</ele><time>2026-04-19T14:36:06.129Z</time></trkpt><trkpt lat="39.5989342" lon="15.8630556"><ele>30.0</ele><time>2026-04-19T14:36:07.13Z</time></trkpt><trkpt lat="39.5990793" lon="15.8630294"><ele>30.5</ele><time>2026-04-19T14:36:08.13Z</time></trkpt><trkpt lat="39.5992219" lon="15.8630025"><ele>31.0</ele><time>2026-04-19T14:36:09.129Z</time></trkpt><trkpt lat="39.5993681" lon="15.8629717"><ele>32.0</ele><time>2026-04-19T14:36:10.129Z</time></trkpt><trkpt lat="39.5995137" lon="15.8629376"><ele>33.0</ele><time>2026-04-19T14:36:11.129Z</time></trkpt><trkpt lat="39.5996639" lon="15.8629005"><ele>34.0</ele><time>2026-04-19T14:36:12.13Z</time></trkpt><trkpt lat="39.5998148" lon="15.8628657"><ele>34.0</ele><time>2026-04-19T14:36:13.13Z</time></trkpt><trkpt lat="39.5999686" lon="15.8628318"><ele>34.0</ele><time>2026-04-19T14:36:14.129Z</time></trkpt><trkpt lat="39.6001234" lon="15.8627974"><ele>34.0</ele><time>2026-04-19T14:36:15.13Z</time></trkpt><trkpt lat="39.600277" lon="15.8627618"><ele>32.66666666666667</ele><time>2026-04-19T14:36:16.129Z</time></trkpt><trkpt lat="39.6004311" lon="15.862724"><ele>31.333333333333336</ele><time>2026-04-19T14:36:17.129Z</time></trkpt><trkpt lat="39.600584" lon="15.8626882"><ele>30.0</ele><time>2026-04-19T14:36:18.129Z</time></trkpt><trkpt lat="39.6007382" lon="15.8626524"><ele>30.0</ele><time>2026-04-19T14:36:19.129Z</time></trkpt><trkpt lat="39.6008903" lon="15.8626168"><ele>30.0</ele><time>2026-04-19T14:36:20.129Z</time></trkpt><trkpt lat="39.6010418" lon="15.8625843"><ele>30.0</ele><time>2026-04-19T14:36:21.13Z</time></trkpt><trkpt lat="39.6011984" lon="15.8625493"><ele>33.0</ele><time>2026-04-19T14:36:22.129Z</time></trkpt><trkpt lat="39.6013538" lon="15.8625071"><ele>36.0</ele><time>2026-04-19T14:36:23.129Z</time></trkpt><trkpt lat="39.6015156" lon="15.8624656"><ele>39.0</ele><time>2026-04-19T14:36:24.13Z</time></trkpt><trkpt lat="39.6016769" lon="15.8624261"><ele>39.0</ele><time>2026-04-19T14:36:25.129Z</time></trkpt><trkpt lat="39.6018408" lon="15.8623885"><ele>39.0</ele><time>2026-04-19T14:36:26.129Z</time></trkpt><trkpt lat="39.602007" lon="15.8623477"><ele>39.0</ele><time>2026-04-19T14:36:27.13Z</time></trkpt><trkpt lat="39.6021748" lon="15.8623093"><ele>41.333333333333336</ele><time>2026-04-19T14:36:28.13Z</time></trkpt><trkpt lat="39.6023413" lon="15.8622724"><ele>43.66666666666667</ele><time>2026-04-19T14:36:29.129Z</time></trkpt><trkpt lat="39.6025132" lon="15.8622434"><ele>46.0</ele><time>2026-04-19T14:36:30.13Z</time></trkpt><trkpt lat="39.602679" lon="15.8622087"><ele>48.333333333333336</ele><time>2026-04-19T14:36:31.13Z</time></trkpt><trkpt lat="39.6028508" lon="15.8621774"><ele>50.66666666666667</ele><time>2026-04-19T14:36:32.13Z</time></trkpt><trkpt lat="39.6030232" lon="15.8621461"><ele>53.0</ele><time>2026-04-19T14:36:33.129Z</time></trkpt><trkpt lat="39.6031975" lon="15.8621116"><ele>53.0</ele><time>2026-04-19T14:36:34.129Z</time></trkpt><trkpt lat="39.6033687" lon="15.8620783"><ele>53.0</ele><time>2026-04-19T14:36:35.129Z</time></trkpt><trkpt lat="39.6035473" lon="15.8620416"><ele>53.0</ele><time>2026-04-19T14:36:36.129Z</time></trkpt><trkpt lat="39.6037211" lon="15.8620051"><ele>55.333333333333336</ele><time>2026-04-19T14:36:37.13Z</time></trkpt><trkpt lat="39.6038992" lon="15.861968"><ele>57.66666666666667</ele><time>2026-04-19T14:36:38.129Z</time></trkpt><trkpt lat="39.6040803" lon="15.8619341"><ele>60.0</ele><time>2026-04-19T14:36:39.129Z</time></trkpt><trkpt lat="39.6042611" lon="15.8619009"><ele>60.0</ele><time>2026-04-19T14:36:40.13Z</time></trkpt><trkpt lat="39.6044411" lon="15.8618657"><ele>60.0</ele><time>2026-04-19T14:36:41.129Z</time></trkpt><trkpt lat="39.6046244" lon="15.8618295"><ele>60.0</ele><time>2026-04-19T14:36:42.13Z</time></trkpt><trkpt lat="39.604804" lon="15.8617933"><ele>55.333333333333336</ele><time>2026-04-19T14:36:43.13Z</time></trkpt><trkpt lat="39.6049892" lon="15.8617568"><ele>50.66666666666667</ele><time>2026-04-19T14:36:44.13Z</time></trkpt><trkpt lat="39.6051732" lon="15.8617194"><ele>46.0</ele><time>2026-04-19T14:36:45.129Z</time></trkpt><trkpt lat="39.6053552" lon="15.8616881"><ele>40.66666666666667</ele><time>2026-04-19T14:36:46.129Z</time></trkpt><trkpt lat="39.6055375" lon="15.8616513"><ele>35.333333333333336</ele><time>2026-04-19T14:36:47.13Z</time></trkpt><trkpt lat="39.6057196" lon="15.8616228"><ele>30.0</ele><time>2026-04-19T14:36:48.129Z</time></trkpt><trkpt lat="39.6058983" lon="15.8615856"><ele>30.0</ele><time>2026-04-19T14:36:49.129Z</time></trkpt><trkpt lat="39.6060787" lon="15.8615442"><ele>30.0</ele><time>2026-04-19T14:36:50.129Z</time></trkpt><trkpt lat="39.6062558" lon="15.8615102"><ele>30.0</ele><time>2026-04-19T14:36:51.129Z</time></trkpt><trkpt lat="39.6064383" lon="15.8614725"><ele>31.333333333333336</ele><time>2026-04-19T14:36:52.129Z</time></trkpt><trkpt lat="39.6066182" lon="15.8614373"><ele>32.66666666666667</ele><time>2026-04-19T14:36:53.13Z</time></trkpt><trkpt lat="39.6067936" lon="15.8614026"><ele>34.0</ele><time>2026-04-19T14:36:54.13Z</time></trkpt><trkpt lat="39.6069699" lon="15.8613654"><ele>38.333333333333336</ele><time>2026-04-19T14:36:55.129Z</time></trkpt><trkpt lat="39.6071469" lon="15.861325"><ele>42.666666666666664</ele><time>2026-04-19T14:36:56.13Z</time></trkpt><trkpt lat="39.6073242" lon="15.8612861"><ele>47.0</ele><time>2026-04-19T14:36:57.129Z</time></trkpt><trkpt lat="39.6075019" lon="15.8612498"><ele>47.0</ele><time>2026-04-19T14:36:58.13Z</time></trkpt><trkpt lat="39.6076723" lon="15.8612099"><ele>47.0</ele><time>2026-04-19T14:36:59.13Z</time></trkpt><trkpt lat="39.6078365" lon="15.8611735"><ele>47.0</ele><time>2026-04-19T14:37:00.13Z</time></trkpt><trkpt lat="39.6079989" lon="15.8611372"><ele>49.25</ele><time>2026-04-19T14:37:01.129Z</time></trkpt><trkpt lat="39.6081564" lon="15.8611058"><ele>51.5</ele><time>2026-04-19T14:37:02.13Z</time></trkpt><trkpt lat="39.6083037" lon="15.8610807"><ele>53.75</ele><time>2026-04-19T14:37:03.129Z</time></trkpt><trkpt lat="39.6084418" lon="15.8610558"><ele>56.0</ele><time>2026-04-19T14:37:04.129Z</time></trkpt><trkpt lat="39.6085744" lon="15.8610328"><ele>58.0</ele><time>2026-04-19T14:37:05.13Z</time></trkpt><trkpt lat="39.6087126" lon="15.8610035"><ele>60.0</ele><time>2026-04-19T14:37:06.129Z</time></trkpt><trkpt lat="39.6088524" lon="15.8609807"><ele>62.0</ele><time>2026-04-19T14:37:07.13Z</time></trkpt><trkpt lat="39.6089995" lon="15.8609461"><ele>64.0</ele><time>2026-04-19T14:37:08.129Z</time></trkpt><trkpt lat="39.609149" lon="15.8609159"><ele>64.0</ele><time>2026-04-19T14:37:09.129Z</time></trkpt><trkpt lat="39.6092983" lon="15.8608868"><ele>64.0</ele><time>2026-04-19T14:37:10.13Z</time></trkpt><trkpt lat="39.6094484" lon="15.8608543"><ele>64.0</ele><time>2026-04-19T14:37:11.129Z</time></trkpt><trkpt lat="39.6095989" lon="15.8608237"><ele>64.0</ele><time>2026-04-19T14:37:12.13Z</time></trkpt><trkpt lat="39.6097531" lon="15.8607949"><ele>64.0</ele><time>2026-04-19T14:37:13.129Z</time></trkpt><trkpt lat="39.6099039" lon="15.8607686"><ele>64.0</ele><time>2026-04-19T14:37:14.129Z</time></trkpt><trkpt lat="39.6100484" lon="15.8607358"><ele>64.0</ele><time>2026-04-19T14:37:15.13Z</time></trkpt><trkpt lat="39.610197" lon="15.8607053"><ele>64.0</ele><time>2026-04-19T14:37:16.13Z</time></trkpt><trkpt lat="39.610345" lon="15.8606712"><ele>64.0</ele><time>2026-04-19T14:37:17.129Z</time></trkpt><trkpt lat="39.6104947" lon="15.8606368"><ele>62.666666666666664</ele><time>2026-04-19T14:37:18.13Z</time></trkpt><trkpt lat="39.6106475" lon="15.8606093"><ele>61.33333333333333</ele><time>2026-04-19T14:37:19.129Z</time></trkpt><trkpt lat="39.6108013" lon="15.8605803"><ele>60.0</ele><time>2026-04-19T14:37:20.13Z</time></trkpt><trkpt lat="39.6109567" lon="15.860552"><ele>60.0</ele><time>2026-04-19T14:37:21.129Z</time></trkpt><trkpt lat="39.611116" lon="15.8605193"><ele>60.0</ele><time>2026-04-19T14:37:22.129Z</time></trkpt><trkpt lat="39.6112775" lon="15.8604883"><ele>60.0</ele><time>2026-04-19T14:37:23.129Z</time></trkpt><trkpt lat="39.6114431" lon="15.8604563"><ele>55.0</ele><time>2026-04-19T14:37:24.13Z</time></trkpt><trkpt lat="39.6116104" lon="15.860426"><ele>50.0</ele><time>2026-04-19T14:37:25.13Z</time></trkpt><trkpt lat="39.6117811" lon="15.8603925"><ele>45.0</ele><time>2026-04-19T14:37:26.13Z</time></trkpt><trkpt lat="39.6119535" lon="15.8603588"><ele>45.0</ele><time>2026-04-19T14:37:27.13Z</time></trkpt><trkpt lat="39.6121285" lon="15.8603235"><ele>45.0</ele><time>2026-04-19T14:37:28.129Z</time></trkpt><trkpt lat="39.6123046" lon="15.8602889"><ele>45.0</ele><time>2026-04-19T14:37:29.129Z</time></trkpt><trkpt lat="39.6124796" lon="15.860252"><ele>45.0</ele><time>2026-04-19T14:37:30.129Z</time></trkpt><trkpt lat="39.6126524" lon="15.8602151"><ele>45.0</ele><time>2026-04-19T14:37:31.129Z</time></trkpt><trkpt lat="39.612822" lon="15.8601787"><ele>45.0</ele><time>2026-04-19T14:37:32.129Z</time></trkpt><trkpt lat="39.6129923" lon="15.8601431"><ele>52.0</ele><time>2026-04-19T14:37:33.129Z</time></trkpt><trkpt lat="39.6131568" lon="15.860111"><ele>59.0</ele><time>2026-04-19T14:37:34.13Z</time></trkpt><trkpt lat="39.6133125" lon="15.8600845"><ele>66.0</ele><time>2026-04-19T14:37:35.129Z</time></trkpt><trkpt lat="39.6134629" lon="15.8600561"><ele>66.0</ele><time>2026-04-19T14:37:36.129Z</time></trkpt><trkpt lat="39.6136078" lon="15.8600306"><ele>66.0</ele><time>2026-04-19T14:37:37.13Z</time></trkpt><trkpt lat="39.6137507" lon="15.8600003"><ele>66.0</ele><time>2026-04-19T14:37:38.129Z</time></trkpt><trkpt lat="39.6138923" lon="15.8599711"><ele>66.0</ele><time>2026-04-19T14:37:39.129Z</time></trkpt><trkpt lat="39.6140323" lon="15.8599307"><ele>68.75</ele><time>2026-04-19T14:37:40.13Z</time></trkpt><trkpt lat="39.6141705" lon="15.8598806"><ele>71.5</ele><time>2026-04-19T14:37:41.13Z</time></trkpt><trkpt lat="39.6143126" lon="15.8598177"><ele>74.25</ele><time>2026-04-19T14:37:42.13Z</time></trkpt><trkpt lat="39.6144472" lon="15.8597437"><ele>77.0</ele><time>2026-04-19T14:37:43.129Z</time></trkpt><trkpt lat="39.6145816" lon="15.8596653"><ele>78.75</ele><time>2026-04-19T14:37:44.129Z</time></trkpt><trkpt lat="39.6147117" lon="15.8595843"><ele>80.5</ele><time>2026-04-19T14:37:45.13Z</time></trkpt><trkpt lat="39.6148313" lon="15.8595051"><ele>82.25</ele><time>2026-04-19T14:37:46.129Z</time></trkpt><trkpt lat="39.614957" lon="15.8594214"><ele>84.0</ele><time>2026-04-19T14:37:47.129Z</time></trkpt><trkpt lat="39.6150785" lon="15.8593306"><ele>83.25</ele><time>2026-04-19T14:37:48.13Z</time></trkpt><trkpt lat="39.6152081" lon="15.8592421"><ele>82.5</ele><time>2026-04-19T14:37:49.13Z</time></trkpt><trkpt lat="39.6153317" lon="15.8591605"><ele>81.75</ele><time>2026-04-19T14:37:50.129Z</time></trkpt><trkpt lat="39.6154617" lon="15.8590809"><ele>81.0</ele><time>2026-04-19T14:37:51.13Z</time></trkpt><trkpt lat="39.6155885" lon="15.8590008"><ele>81.0</ele><time>2026-04-19T14:37:52.129Z</time></trkpt><trkpt lat="39.6157132" lon="15.8589171"><ele>81.0</ele><time>2026-04-19T14:37:53.13Z</time></trkpt><trkpt lat="39.6158388" lon="15.85883"><ele>81.0</ele><time>2026-04-19T14:37:54.13Z</time></trkpt><trkpt lat="39.6159584" lon="15.8587471"><ele>81.0</ele><time>2026-04-19T14:37:55.13Z</time></trkpt><trkpt lat="39.61608" lon="15.8586686"><ele>82.0</ele><time>2026-04-19T14:37:56.13Z</time></trkpt><trkpt lat="39.6162118" lon="15.8585837"><ele>83.0</ele><time>2026-04-19T14:37:57.13Z</time></trkpt><trkpt lat="39.6163411" lon="15.8585021"><ele>84.0</ele><time>2026-04-19T14:37:58.13Z</time></trkpt><trkpt lat="39.6164763" lon="15.8584117"><ele>85.0</ele><time>2026-04-19T14:37:59.13Z</time></trkpt><trkpt lat="39.6165985" lon="15.8583358"><ele>83.0</ele><time>2026-04-19T14:38:00.129Z</time></trkpt><trkpt lat="39.6167174" lon="15.8582681"><ele>81.0</ele><time>2026-04-19T14:38:01.129Z</time></trkpt><trkpt lat="39.616843" lon="15.8581954"><ele>79.0</ele><time>2026-04-19T14:38:02.129Z</time></trkpt><trkpt lat="39.6169656" lon="15.8581355"><ele>77.0</ele><time>2026-04-19T14:38:03.13Z</time></trkpt><trkpt lat="39.6170876" lon="15.8580722"><ele>76.8</ele><time>2026-04-19T14:38:04.13Z</time></trkpt><trkpt lat="39.6171899" lon="15.8580304"><ele>76.6</ele><time>2026-04-19T14:38:05.13Z</time></trkpt><trkpt lat="39.6172822" lon="15.8579877"><ele>76.39999999999999</ele><time>2026-04-19T14:38:06.129Z</time></trkpt><trkpt lat="39.6173719" lon="15.8579524"><ele>76.2</ele><time>2026-04-19T14:38:07.13Z</time></trkpt><trkpt lat="39.6174663" lon="15.857931"><ele>76.0</ele><time>2026-04-19T14:38:08.13Z</time></trkpt><trkpt lat="39.6175561" lon="15.8579301"><ele>76.0</ele><time>2026-04-19T14:38:09.129Z</time></trkpt><trkpt lat="39.6176404" lon="15.8579433"><ele>76.0</ele><time>2026-04-19T14:38:10.13Z</time></trkpt><trkpt lat="39.6177366" lon="15.8580213"><ele>76.0</ele><time>2026-04-19T14:38:11.129Z</time></trkpt><trkpt lat="39.6178208" lon="15.8580791"><ele>76.0</ele><time>2026-04-19T14:38:12.13Z</time></trkpt><trkpt lat="39.6179095" lon="15.8581534"><ele>76.0</ele><time>2026-04-19T14:38:13.129Z</time></trkpt><trkpt lat="39.617961" lon="15.8582029"><ele>76.16666666666666</ele><time>2026-04-19T14:38:14.13Z</time></trkpt><trkpt lat="39.6180306" lon="15.8582682"><ele>76.33333333333333</ele><time>2026-04-19T14:38:16.13Z</time></trkpt><trkpt lat="39.6180932" lon="15.8583231"><ele>76.5</ele><time>2026-04-19T14:38:19.129Z</time></trkpt><trkpt lat="39.6181741" lon="15.8583322"><ele>76.66666666666667</ele><time>2026-04-19T14:38:21.13Z</time></trkpt><trkpt lat="39.6182603" lon="15.8582775"><ele>76.83333333333334</ele><time>2026-04-19T14:38:23.13Z</time></trkpt><trkpt lat="39.61834" lon="15.8581821"><ele>77.0</ele><time>2026-04-19T14:38:25.129Z</time></trkpt><trkpt lat="39.6184111" lon="15.8580564"><ele>77.0</ele><time>2026-04-19T14:38:27.129Z</time></trkpt><trkpt lat="39.6184667" lon="15.8579343"><ele>77.0</ele><time>2026-04-19T14:38:29.129Z</time></trkpt><trkpt lat="39.6185485" lon="15.857864"><ele>77.0</ele><time>2026-04-19T14:38:31.129Z</time></trkpt><trkpt lat="39.6186607" lon="15.8578948"><ele>77.0</ele><time>2026-04-19T14:38:33.129Z</time></trkpt><trkpt lat="39.6187267" lon="15.8579193"><ele>77.0</ele><time>2026-04-19T14:38:34.129Z</time></trkpt><trkpt lat="39.6187927" lon="15.8579498"><ele>76.4</ele><time>2026-04-19T14:38:35.13Z</time></trkpt><trkpt lat="39.6188725" lon="15.8580103"><ele>75.80000000000001</ele><time>2026-04-19T14:38:37.13Z</time></trkpt><trkpt lat="39.6189207" lon="15.8580637"><ele>75.2</ele><time>2026-04-19T14:38:41.129Z</time></trkpt><trkpt lat="39.6188761" lon="15.8579674"><ele>74.60000000000001</ele><time>2026-04-19T14:38:58.129Z</time></trkpt><trkpt lat="39.6187788" lon="15.857905"><ele>74.0</ele><time>2026-04-19T14:39:00.129Z</time></trkpt><trkpt lat="39.6186914" lon="15.8578421"><ele>74.60000000000001</ele><time>2026-04-19T14:39:02.13Z</time></trkpt><trkpt lat="39.6186204" lon="15.8577736"><ele>75.2</ele><time>2026-04-19T14:39:04.13Z</time></trkpt><trkpt lat="39.6185803" lon="15.8576979"><ele>75.80000000000001</ele><time>2026-04-19T14:39:06.129Z</time></trkpt><trkpt lat="39.6185754" lon="15.8575831"><ele>76.4</ele><time>2026-04-19T14:39:08.13Z</time></trkpt><trkpt lat="39.6186162" lon="15.8574331"><ele>77.0</ele><time>2026-04-19T14:39:10.13Z</time></trkpt><trkpt lat="39.618645" lon="15.8573033"><ele>75.0</ele><time>2026-04-19T14:39:12.13Z</time></trkpt><trkpt lat="39.6186723" lon="15.8571939"><ele>73.0</ele><time>2026-04-19T14:39:14.129Z</time></trkpt><trkpt lat="39.6187122" lon="15.8570655"><ele>71.0</ele><time>2026-04-19T14:39:16.129Z</time></trkpt><trkpt lat="39.6187354" lon="15.8569831"><ele>69.0</ele><time>2026-04-19T14:39:17.13Z</time></trkpt><trkpt lat="39.6187672" lon="15.8568907"><ele>67.0</ele><time>2026-04-19T14:39:18.129Z</time></trkpt><trkpt lat="39.6188022" lon="15.8567969"><ele>65.0</ele><time>2026-04-19T14:39:19.129Z</time></trkpt><trkpt lat="39.6188429" lon="15.8567022"><ele>64.8</ele><time>2026-04-19T14:39:20.129Z</time></trkpt><trkpt lat="39.6188889" lon="15.8566159"><ele>64.6</ele><time>2026-04-19T14:39:21.13Z</time></trkpt><trkpt lat="39.6189367" lon="15.8565388"><ele>64.4</ele><time>2026-04-19T14:39:22.129Z</time></trkpt><trkpt lat="39.6189802" lon="15.8564727"><ele>64.2</ele><time>2026-04-19T14:39:23.129Z</time></trkpt><trkpt lat="39.6190636" lon="15.8563589"><ele>64.0</ele><time>2026-04-19T14:39:25.13Z</time></trkpt><trkpt lat="39.6191437" lon="15.8562385"><ele>64.0</ele><time>2026-04-19T14:39:27.129Z</time></trkpt><trkpt lat="39.6192184" lon="15.8561187"><ele>64.0</ele><time>2026-04-19T14:39:29.13Z</time></trkpt><trkpt lat="39.6192964" lon="15.8560039"><ele>64.0</ele><time>2026-04-19T14:39:31.129Z</time></trkpt><trkpt lat="39.6193729" lon="15.8558888"><ele>64.0</ele><time>2026-04-19T14:39:33.13Z</time></trkpt><trkpt lat="39.6194488" lon="15.8557828"><ele>63.0</ele><time>2026-04-19T14:39:35.129Z</time></trkpt><trkpt lat="39.6195211" lon="15.8556706"><ele>62.00000000000001</ele><time>2026-04-19T14:39:37.129Z</time></trkpt><trkpt lat="39.6195869" lon="15.855564"><ele>61.00000000000001</ele><time>2026-04-19T14:39:39.13Z</time></trkpt><trkpt lat="39.6196564" lon="15.8554658"><ele>60.0</ele><time>2026-04-19T14:39:41.13Z</time></trkpt><trkpt lat="39.6197294" lon="15.8553614"><ele>59.0</ele><time>2026-04-19T14:39:43.129Z</time></trkpt><trkpt lat="39.6197985" lon="15.8552793"><ele>59.00000000000001</ele><time>2026-04-19T14:39:45.129Z</time></trkpt><trkpt lat="39.6198569" lon="15.8552036"><ele>59.0</ele><time>2026-04-19T14:39:47.129Z</time></trkpt><trkpt lat="39.6198981" lon="15.8551214"><ele>59.0</ele><time>2026-04-19T14:39:49.13Z</time></trkpt><trkpt lat="39.6199489" lon="15.855039"><ele>59.0</ele><time>2026-04-19T14:39:51.129Z</time></trkpt><trkpt lat="39.6200002" lon="15.8549527"><ele>59.00000000000001</ele><time>2026-04-19T14:39:53.13Z</time></trkpt><trkpt lat="39.6200494" lon="15.8548597"><ele>59.0</ele><time>2026-04-19T14:39:55.129Z</time></trkpt><trkpt lat="39.6201056" lon="15.8547723"><ele>58.400000000000006</ele><time>2026-04-19T14:39:57.13Z</time></trkpt><trkpt lat="39.6201613" lon="15.8546921"><ele>57.800000000000004</ele><time>2026-04-19T14:39:59.13Z</time></trkpt><trkpt lat="39.6202145" lon="15.854613"><ele>57.199999999999996</ele><time>2026-04-19T14:40:01.13Z</time></trkpt><trkpt lat="39.6202808" lon="15.8545428"><ele>56.599999999999994</ele><time>2026-04-19T14:40:03.129Z</time></trkpt><trkpt lat="39.6203589" lon="15.8544413"><ele>56.0</ele><time>2026-04-19T14:40:05.13Z</time></trkpt><trkpt lat="39.6204455" lon="15.8543348"><ele>54.4</ele><time>2026-04-19T14:40:07.13Z</time></trkpt><trkpt lat="39.6204944" lon="15.8542754"><ele>52.8</ele><time>2026-04-19T14:40:08.129Z</time></trkpt><trkpt lat="39.6205677" lon="15.8541746"><ele>51.199999999999996</ele><time>2026-04-19T14:40:10.13Z</time></trkpt><trkpt lat="39.6206398" lon="15.8540778"><ele>49.599999999999994</ele><time>2026-04-19T14:40:12.129Z</time></trkpt><trkpt lat="39.6207162" lon="15.8539841"><ele>48.0</ele><time>2026-04-19T14:40:14.13Z</time></trkpt><trkpt lat="39.6207923" lon="15.8538811"><ele>48.0</ele><time>2026-04-19T14:40:16.13Z</time></trkpt><trkpt lat="39.6208688" lon="15.8537687"><ele>48.0</ele><time>2026-04-19T14:40:18.13Z</time></trkpt><trkpt lat="39.6209285" lon="15.8536195"><ele>48.0</ele><time>2026-04-19T14:40:20.129Z</time></trkpt><trkpt lat="39.6209504" lon="15.8535358"><ele>48.0</ele><time>2026-04-19T14:40:21.13Z</time></trkpt><trkpt lat="39.620987" lon="15.8533803"><ele>48.0</ele><time>2026-04-19T14:40:23.129Z</time></trkpt><trkpt lat="39.6210079" lon="15.853293"><ele>46.71428571428571</ele><time>2026-04-19T14:40:24.129Z</time></trkpt><trkpt lat="39.6210283" lon="15.8532137"><ele>45.42857142857143</ele><time>2026-04-19T14:40:25.13Z</time></trkpt><trkpt lat="39.6210549" lon="15.853138"><ele>44.14285714285714</ele><time>2026-04-19T14:40:26.13Z</time></trkpt><trkpt lat="39.6210912" lon="15.8530657"><ele>42.857142857142854</ele><time>2026-04-19T14:40:27.129Z</time></trkpt><trkpt lat="39.6211915" lon="15.8530208"><ele>41.57142857142857</ele><time>2026-04-19T14:40:29.129Z</time></trkpt><trkpt lat="39.6212551" lon="15.8530259"><ele>40.285714285714285</ele><time>2026-04-19T14:40:30.129Z</time></trkpt><trkpt lat="39.6213211" lon="15.8530373"><ele>39.0</ele><time>2026-04-19T14:40:31.129Z</time></trkpt><trkpt lat="39.6213876" lon="15.853045"><ele>37.4</ele><time>2026-04-19T14:40:32.129Z</time></trkpt><trkpt lat="39.6215047" lon="15.853045"><ele>35.8</ele><time>2026-04-19T14:40:34.13Z</time></trkpt><trkpt lat="39.6215661" lon="15.8530231"><ele>34.2</ele><time>2026-04-19T14:40:35.129Z</time></trkpt><trkpt lat="39.6216486" lon="15.8529222"><ele>32.6</ele><time>2026-04-19T14:40:37.129Z</time></trkpt><trkpt lat="39.6216675" lon="15.8527732"><ele>31.0</ele><time>2026-04-19T14:40:39.13Z</time></trkpt><trkpt lat="39.6216016" lon="15.8526375"><ele>31.000000000000004</ele><time>2026-04-19T14:40:41.13Z</time></trkpt><trkpt lat="39.6215399" lon="15.8525902"><ele>31.0</ele><time>2026-04-19T14:40:42.129Z</time></trkpt><trkpt lat="39.6214686" lon="15.8525777"><ele>31.0</ele><time>2026-04-19T14:40:43.13Z</time></trkpt><trkpt lat="39.6213979" lon="15.8525931"><ele>31.0</ele><time>2026-04-19T14:40:44.129Z</time></trkpt><trkpt lat="39.6213271" lon="15.8526225"><ele>31.000000000000004</ele><time>2026-04-19T14:40:45.129Z</time></trkpt><trkpt lat="39.6212506" lon="15.8526579"><ele>31.0</ele><time>2026-04-19T14:40:46.13Z</time></trkpt><trkpt lat="39.6211746" lon="15.8526907"><ele>32.333333333333336</ele><time>2026-04-19T14:40:47.129Z</time></trkpt><trkpt lat="39.6211014" lon="15.8527321"><ele>33.66666666666667</ele><time>2026-04-19T14:40:48.129Z</time></trkpt><trkpt lat="39.621037" lon="15.8527838"><ele>35.0</ele><time>2026-04-19T14:40:49.13Z</time></trkpt><trkpt lat="39.6209854" lon="15.8528456"><ele>36.333333333333336</ele><time>2026-04-19T14:40:50.13Z</time></trkpt><trkpt lat="39.6209446" lon="15.8529136"><ele>37.666666666666664</ele><time>2026-04-19T14:40:51.13Z</time></trkpt><trkpt lat="39.6208735" lon="15.8530233"><ele>39.0</ele><time>2026-04-19T14:40:53.129Z</time></trkpt><trkpt lat="39.620798" lon="15.8530641"><ele>39.0</ele><time>2026-04-19T14:40:55.13Z</time></trkpt><trkpt lat="39.6207095" lon="15.853018"><ele>39.0</ele><time>2026-04-19T14:40:57.129Z</time></trkpt><trkpt lat="39.6206864" lon="15.8529298"><ele>39.0</ele><time>2026-04-19T14:40:58.13Z</time></trkpt><trkpt lat="39.6206501" lon="15.8528505"><ele>39.0</ele><time>2026-04-19T14:40:59.13Z</time></trkpt><trkpt lat="39.620548" lon="15.8527592"><ele>39.0</ele><time>2026-04-19T14:41:01.129Z</time></trkpt><trkpt lat="39.6204645" lon="15.8527322"><ele>39.0</ele><time>2026-04-19T14:41:02.129Z</time></trkpt><trkpt lat="39.6203755" lon="15.8527045"><ele>40.0</ele><time>2026-04-19T14:41:03.13Z</time></trkpt><trkpt lat="39.6202811" lon="15.8526896"><ele>41.0</ele><time>2026-04-19T14:41:04.129Z</time></trkpt><trkpt lat="39.6201948" lon="15.8526723"><ele>42.0</ele><time>2026-04-19T14:41:05.13Z</time></trkpt><trkpt lat="39.6201118" lon="15.8526618"><ele>43.0</ele><time>2026-04-19T14:41:06.13Z</time></trkpt><trkpt lat="39.6200334" lon="15.8526635"><ele>44.0</ele><time>2026-04-19T14:41:07.129Z</time></trkpt><trkpt lat="39.6199657" lon="15.8526717"><ele>45.0</ele><time>2026-04-19T14:41:08.129Z</time></trkpt><trkpt lat="39.6198453" lon="15.8526613"><ele>40.5</ele><time>2026-04-19T14:41:10.13Z</time></trkpt><trkpt lat="39.6198014" lon="15.8525766"><ele>36.0</ele><time>2026-04-19T14:41:12.129Z</time></trkpt><trkpt lat="39.6198519" lon="15.8525227"><ele>31.5</ele><time>2026-04-19T14:41:14.129Z</time></trkpt><trkpt lat="39.6199149" lon="15.8525398"><ele>27.0</ele><time>2026-04-19T14:41:15.13Z</time></trkpt><trkpt lat="39.6200074" lon="15.8525665"><ele>22.5</ele><time>2026-04-19T14:41:16.129Z</time></trkpt><trkpt lat="39.6201048" lon="15.8525837"><ele>18.0</ele><time>2026-04-19T14:41:17.13Z</time></trkpt><trkpt lat="39.6201941" lon="15.8525907"><ele>18.0</ele><time>2026-04-19T14:41:18.129Z</time></trkpt><trkpt lat="39.6202826" lon="15.8525818"><ele>18.0</ele><time>2026-04-19T14:41:19.129Z</time></trkpt><trkpt lat="39.6203575" lon="15.8525529"><ele>18.0</ele><time>2026-04-19T14:41:20.13Z</time></trkpt><trkpt lat="39.6204313" lon="15.852515"><ele>18.0</ele><time>2026-04-19T14:41:21.129Z</time></trkpt><trkpt lat="39.6204869" lon="15.8524663"><ele>18.0</ele><time>2026-04-19T14:41:22.13Z</time></trkpt><trkpt lat="39.6205802" lon="15.8523793"><ele>18.0</ele><time>2026-04-19T14:41:24.129Z</time></trkpt><trkpt lat="39.6206555" lon="15.8522989"><ele>18.42857142857143</ele><time>2026-04-19T14:41:26.129Z</time></trkpt><trkpt lat="39.6207089" lon="15.852228"><ele>18.857142857142858</ele><time>2026-04-19T14:41:30.129Z</time></trkpt><trkpt lat="39.6207647" lon="15.8521718"><ele>19.285714285714285</ele><time>2026-04-19T14:41:35.129Z</time></trkpt><trkpt lat="39.6208202" lon="15.8521181"><ele>19.714285714285715</ele><time>2026-04-19T14:41:41.13Z</time></trkpt><trkpt lat="39.6208907" lon="15.8520675"><ele>20.142857142857142</ele><time>2026-04-19T14:41:44.129Z</time></trkpt><trkpt lat="39.6209439" lon="15.8520137"><ele>20.571428571428573</ele><time>2026-04-19T14:41:46.129Z</time></trkpt><trkpt lat="39.6210002" lon="15.851951"><ele>21.0</ele><time>2026-04-19T14:41:48.13Z</time></trkpt><trkpt lat="39.6210803" lon="15.8518723"><ele>19.666666666666668</ele><time>2026-04-19T14:41:50.13Z</time></trkpt><trkpt lat="39.6211548" lon="15.8517862"><ele>18.333333333333332</ele><time>2026-04-19T14:41:52.13Z</time></trkpt><trkpt lat="39.6212162" lon="15.8517255"><ele>17.0</ele><time>2026-04-19T14:41:54.129Z</time></trkpt><trkpt lat="39.6212647" lon="15.8516534"><ele>15.666666666666666</ele><time>2026-04-19T14:41:56.129Z</time></trkpt><trkpt lat="39.6213304" lon="15.8515755"><ele>14.333333333333332</ele><time>2026-04-19T14:41:58.13Z</time></trkpt><trkpt lat="39.6213875" lon="15.8515028"><ele>13.0</ele><time>2026-04-19T14:42:00.13Z</time></trkpt><trkpt lat="39.6214525" lon="15.8514403"><ele>12.999999999999998</ele><time>2026-04-19T14:42:02.13Z</time></trkpt><trkpt lat="39.6215072" lon="15.8513915"><ele>13.0</ele><time>2026-04-19T14:42:04.129Z</time></trkpt><trkpt lat="39.6215687" lon="15.8513386"><ele>13.0</ele><time>2026-04-19T14:42:06.13Z</time></trkpt><trkpt lat="39.6216288" lon="15.8512633"><ele>13.0</ele><time>2026-04-19T14:42:09.129Z</time></trkpt><trkpt lat="39.6216796" lon="15.8512134"><ele>12.999999999999998</ele><time>2026-04-19T14:42:12.129Z</time></trkpt><trkpt lat="39.6217404" lon="15.8511685"><ele>13.0</ele><time>2026-04-19T14:42:15.129Z</time></trkpt><trkpt lat="39.6218206" lon="15.8511083"><ele>12.999999999999998</ele><time>2026-04-19T14:42:18.13Z</time></trkpt><trkpt lat="39.6218709" lon="15.8510473"><ele>13.0</ele><time>2026-04-19T14:42:20.129Z</time></trkpt><trkpt lat="39.6219143" lon="15.8509491"><ele>13.0</ele><time>2026-04-19T14:42:23.129Z</time></trkpt><trkpt lat="39.6219217" lon="15.8508589"><ele>13.0</ele><time>2026-04-19T14:42:26.129Z</time></trkpt><trkpt lat="39.6219929" lon="15.8507379"><ele>12.999999999999998</ele><time>2026-04-19T14:42:29.13Z</time></trkpt><trkpt lat="39.6220672" lon="15.8506523"><ele>13.0</ele><time>2026-04-19T14:42:31.13Z</time></trkpt><trkpt lat="39.622145" lon="15.8505398"><ele>12.4</ele><time>2026-04-19T14:42:33.13Z</time></trkpt><trkpt lat="39.6222285" lon="15.8504091"><ele>11.8</ele><time>2026-04-19T14:42:35.129Z</time></trkpt><trkpt lat="39.622275" lon="15.8503438"><ele>11.2</ele><time>2026-04-19T14:42:36.129Z</time></trkpt><trkpt lat="39.6223193" lon="15.8502855"><ele>10.6</ele><time>2026-04-19T14:42:37.13Z</time></trkpt><trkpt lat="39.622403" lon="15.8501835"><ele>10.0</ele><time>2026-04-19T14:42:39.129Z</time></trkpt><trkpt lat="39.6224719" lon="15.8500963"><ele>10.0</ele><time>2026-04-19T14:42:41.129Z</time></trkpt><trkpt lat="39.6225517" lon="15.8499733"><ele>10.0</ele><time>2026-04-19T14:42:43.129Z</time></trkpt><trkpt lat="39.6225951" lon="15.8499119"><ele>10.0</ele><time>2026-04-19T14:42:44.13Z</time></trkpt><trkpt lat="39.6226782" lon="15.8497989"><ele>10.0</ele><time>2026-04-19T14:42:46.129Z</time></trkpt><trkpt lat="39.6227246" lon="15.8497372"><ele>10.0</ele><time>2026-04-19T14:42:47.129Z</time></trkpt><trkpt lat="39.6227712" lon="15.8496766"><ele>10.0</ele><time>2026-04-19T14:42:48.13Z</time></trkpt><trkpt lat="39.6228206" lon="15.8496188"><ele>11.0</ele><time>2026-04-19T14:42:49.129Z</time></trkpt><trkpt lat="39.6229063" lon="15.8495191"><ele>12.0</ele><time>2026-04-19T14:42:51.129Z</time></trkpt><trkpt lat="39.6229962" lon="15.8494281"><ele>13.0</ele><time>2026-04-19T14:42:53.13Z</time></trkpt><trkpt lat="39.6230954" lon="15.8493327"><ele>14.0</ele><time>2026-04-19T14:42:55.13Z</time></trkpt><trkpt lat="39.6232017" lon="15.8492487"><ele>14.0</ele><time>2026-04-19T14:42:57.129Z</time></trkpt><trkpt lat="39.6233037" lon="15.8491686"><ele>14.0</ele><time>2026-04-19T14:42:59.13Z</time></trkpt><trkpt lat="39.6234051" lon="15.8490915"><ele>14.0</ele><time>2026-04-19T14:43:01.13Z</time></trkpt><trkpt lat="39.6235018" lon="15.8490172"><ele>14.0</ele><time>2026-04-19T14:43:03.13Z</time></trkpt><trkpt lat="39.6235983" lon="15.8489512"><ele>16.0</ele><time>2026-04-19T14:43:05.129Z</time></trkpt><trkpt lat="39.6236977" lon="15.8488887"><ele>18.0</ele><time>2026-04-19T14:43:07.129Z</time></trkpt><trkpt lat="39.6237591" lon="15.8488428"><ele>20.0</ele><time>2026-04-19T14:43:09.13Z</time></trkpt><trkpt lat="39.6238278" lon="15.8487613"><ele>22.0</ele><time>2026-04-19T14:43:57.129Z</time></trkpt><trkpt lat="39.62388" lon="15.848707"><ele>24.0</ele><time>2026-04-19T14:43:58.129Z</time></trkpt><trkpt lat="39.6240214" lon="15.8485645"><ele>21.75</ele><time>2026-04-19T14:43:59.13Z</time></trkpt><trkpt lat="39.6241369" lon="15.8484493"><ele>19.5</ele><time>2026-04-19T14:44:00.13Z</time></trkpt><trkpt lat="39.6242449" lon="15.8483552"><ele>17.25</ele><time>2026-04-19T14:44:01.13Z</time></trkpt><trkpt lat="39.6243358" lon="15.8482691"><ele>15.0</ele><time>2026-04-19T14:44:02.129Z</time></trkpt><trkpt lat="39.6244351" lon="15.8481799"><ele>16.25</ele><time>2026-04-19T14:44:03.129Z</time></trkpt><trkpt lat="39.6245339" lon="15.8481057"><ele>17.5</ele><time>2026-04-19T14:44:04.129Z</time></trkpt><trkpt lat="39.6246271" lon="15.8480369"><ele>18.75</ele><time>2026-04-19T14:44:05.13Z</time></trkpt><trkpt lat="39.6247259" lon="15.8479644"><ele>20.0</ele><time>2026-04-19T14:44:06.129Z</time></trkpt><trkpt lat="39.6248397" lon="15.8479102"><ele>20.0</ele><time>2026-04-19T14:44:07.129Z</time></trkpt><trkpt lat="39.6249348" lon="15.8478858"><ele>20.0</ele><time>2026-04-19T14:44:08.13Z</time></trkpt><trkpt lat="39.625034" lon="15.8478792"><ele>20.0</ele><time>2026-04-19T14:44:09.13Z</time></trkpt><trkpt lat="39.6251347" lon="15.8478086"><ele>20.0</ele><time>2026-04-19T14:44:10.13Z</time></trkpt><trkpt lat="39.625224" lon="15.847732"><ele>20.0</ele><time>2026-04-19T14:44:11.13Z</time></trkpt><trkpt lat="39.625319" lon="15.8476422"><ele>19.8</ele><time>2026-04-19T14:44:12.129Z</time></trkpt><trkpt lat="39.6254093" lon="15.847548"><ele>19.6</ele><time>2026-04-19T14:44:13.129Z</time></trkpt><trkpt lat="39.6254875" lon="15.8474589"><ele>19.4</ele><time>2026-04-19T14:44:14.13Z</time></trkpt><trkpt lat="39.6255626" lon="15.8473765"><ele>19.2</ele><time>2026-04-19T14:44:15.129Z</time></trkpt><trkpt lat="39.6256392" lon="15.8472846"><ele>19.0</ele><time>2026-04-19T14:44:16.129Z</time></trkpt><trkpt lat="39.6257143" lon="15.8471961"><ele>19.0</ele><time>2026-04-19T14:44:17.129Z</time></trkpt><trkpt lat="39.6257842" lon="15.8471226"><ele>19.0</ele><time>2026-04-19T14:44:18.129Z</time></trkpt><trkpt lat="39.6258563" lon="15.847055"><ele>19.0</ele><time>2026-04-19T14:44:19.129Z</time></trkpt><trkpt lat="39.6259324" lon="15.846993"><ele>19.0</ele><time>2026-04-19T14:44:20.13Z</time></trkpt><trkpt lat="39.6260086" lon="15.8469585"><ele>19.0</ele><time>2026-04-19T14:44:21.129Z</time></trkpt><trkpt lat="39.6260827" lon="15.8469263"><ele>19.0</ele><time>2026-04-19T14:44:22.129Z</time></trkpt><trkpt lat="39.6261484" lon="15.8469246"><ele>19.6</ele><time>2026-04-19T14:44:23.129Z</time></trkpt><trkpt lat="39.6262921" lon="15.8469154"><ele>20.2</ele><time>2026-04-19T14:44:25.129Z</time></trkpt><trkpt lat="39.6263675" lon="15.8469143"><ele>20.8</ele><time>2026-04-19T14:44:26.129Z</time></trkpt><trkpt lat="39.6264491" lon="15.8469089"><ele>21.400000000000002</ele><time>2026-04-19T14:44:27.13Z</time></trkpt><trkpt lat="39.6265281" lon="15.8469108"><ele>22.0</ele><time>2026-04-19T14:44:28.129Z</time></trkpt><trkpt lat="39.6266114" lon="15.8469107"><ele>22.0</ele><time>2026-04-19T14:44:29.129Z</time></trkpt><trkpt lat="39.6266973" lon="15.8469161"><ele>22.0</ele><time>2026-04-19T14:44:30.13Z</time></trkpt><trkpt lat="39.6267862" lon="15.8469115"><ele>22.0</ele><time>2026-04-19T14:44:31.13Z</time></trkpt><trkpt lat="39.6268721" lon="15.8469061"><ele>22.0</ele><time>2026-04-19T14:44:32.129Z</time></trkpt><trkpt lat="39.626946" lon="15.8468997"><ele>22.0</ele><time>2026-04-19T14:44:33.13Z</time></trkpt><trkpt lat="39.6270115" lon="15.8468869"><ele>22.0</ele><time>2026-04-19T14:44:34.129Z</time></trkpt><trkpt lat="39.627086" lon="15.8468571"><ele>21.5</ele><time>2026-04-19T14:44:35.13Z</time></trkpt><trkpt lat="39.6271509" lon="15.8468198"><ele>21.0</ele><time>2026-04-19T14:44:36.13Z</time></trkpt><trkpt lat="39.6272105" lon="15.8467725"><ele>20.5</ele><time>2026-04-19T14:44:37.129Z</time></trkpt><trkpt lat="39.6272669" lon="15.8466411"><ele>20.0</ele><time>2026-04-19T14:44:39.129Z</time></trkpt><trkpt lat="39.6272982" lon="15.84656"><ele>19.5</ele><time>2026-04-19T14:44:40.129Z</time></trkpt><trkpt lat="39.6273299" lon="15.8464801"><ele>19.0</ele><time>2026-04-19T14:44:41.13Z</time></trkpt><trkpt lat="39.6273686" lon="15.8463763"><ele>18.0</ele><time>2026-04-19T14:44:42.129Z</time></trkpt><trkpt lat="39.6274098" lon="15.846248"><ele>17.0</ele><time>2026-04-19T14:44:43.129Z</time></trkpt><trkpt lat="39.6274646" lon="15.8460802"><ele>16.0</ele><time>2026-04-19T14:44:44.13Z</time></trkpt><trkpt lat="39.6275149" lon="15.8459299"><ele>15.0</ele><time>2026-04-19T14:44:45.13Z</time></trkpt><trkpt lat="39.6275738" lon="15.845796"><ele>15.0</ele><time>2026-04-19T14:44:46.129Z</time></trkpt><trkpt lat="39.6276365" lon="15.8456897"><ele>15.0</ele><time>2026-04-19T14:44:47.13Z</time></trkpt><trkpt lat="39.6277117" lon="15.8456086"><ele>15.0</ele><time>2026-04-19T14:44:48.129Z</time></trkpt><trkpt lat="39.627806" lon="15.8455272"><ele>15.0</ele><time>2026-04-19T14:44:49.129Z</time></trkpt><trkpt lat="39.627908" lon="15.8454503"><ele>15.0</ele><time>2026-04-19T14:44:50.129Z</time></trkpt><trkpt lat="39.6280041" lon="15.8453843"><ele>14.6</ele><time>2026-04-19T14:44:51.129Z</time></trkpt><trkpt lat="39.6280939" lon="15.8453298"><ele>14.2</ele><time>2026-04-19T14:44:52.129Z</time></trkpt><trkpt lat="39.6281829" lon="15.8452769"><ele>13.8</ele><time>2026-04-19T14:44:53.129Z</time></trkpt><trkpt lat="39.6282778" lon="15.845218"><ele>13.4</ele><time>2026-04-19T14:44:54.13Z</time></trkpt><trkpt lat="39.6283727" lon="15.8451587"><ele>13.0</ele><time>2026-04-19T14:44:55.13Z</time></trkpt><trkpt lat="39.6284582" lon="15.8451161"><ele>12.999999999999998</ele><time>2026-04-19T14:44:56.129Z</time></trkpt><trkpt lat="39.6285391" lon="15.8450749"><ele>13.0</ele><time>2026-04-19T14:44:57.129Z</time></trkpt><trkpt lat="39.6286165" lon="15.845035"><ele>13.0</ele><time>2026-04-19T14:44:58.13Z</time></trkpt><trkpt lat="39.6286929" lon="15.8449992"><ele>13.0</ele><time>2026-04-19T14:44:59.13Z</time></trkpt><trkpt lat="39.6287698" lon="15.8449717"><ele>12.999999999999998</ele><time>2026-04-19T14:45:00.129Z</time></trkpt><trkpt lat="39.6288431" lon="15.8449434"><ele>13.0</ele><time>2026-04-19T14:45:01.129Z</time></trkpt><trkpt lat="39.628916" lon="15.8449293"><ele>12.666666666666666</ele><time>2026-04-19T14:45:02.129Z</time></trkpt><trkpt lat="39.6289926" lon="15.844908"><ele>12.333333333333332</ele><time>2026-04-19T14:45:03.129Z</time></trkpt><trkpt lat="39.6290694" lon="15.844894"><ele>12.0</ele><time>2026-04-19T14:45:04.129Z</time></trkpt><trkpt lat="39.6291485" lon="15.844878"><ele>11.666666666666666</ele><time>2026-04-19T14:45:05.13Z</time></trkpt><trkpt lat="39.6292286" lon="15.8448654"><ele>11.333333333333332</ele><time>2026-04-19T14:45:06.129Z</time></trkpt><trkpt lat="39.6293107" lon="15.8448484"><ele>11.0</ele><time>2026-04-19T14:45:07.129Z</time></trkpt><trkpt lat="39.6293982" lon="15.844831"><ele>11.4</ele><time>2026-04-19T14:45:08.129Z</time></trkpt><trkpt lat="39.6294789" lon="15.8448122"><ele>11.8</ele><time>2026-04-19T14:45:09.129Z</time></trkpt><trkpt lat="39.6295688" lon="15.8447975"><ele>12.200000000000001</ele><time>2026-04-19T14:45:10.13Z</time></trkpt><trkpt lat="39.6296623" lon="15.844781"><ele>12.600000000000001</ele><time>2026-04-19T14:45:11.129Z</time></trkpt><trkpt lat="39.6297613" lon="15.8447648"><ele>13.0</ele><time>2026-04-19T14:45:12.129Z</time></trkpt><trkpt lat="39.6298514" lon="15.8447489"><ele>13.0</ele><time>2026-04-19T14:45:13.129Z</time></trkpt><trkpt lat="39.6299425" lon="15.8447334"><ele>13.0</ele><time>2026-04-19T14:45:14.13Z</time></trkpt><trkpt lat="39.6300375" lon="15.8447121"><ele>13.0</ele><time>2026-04-19T14:45:15.13Z</time></trkpt><trkpt lat="39.6301352" lon="15.8446895"><ele>13.0</ele><time>2026-04-19T14:45:16.13Z</time></trkpt><trkpt lat="39.6302311" lon="15.8446739"><ele>13.0</ele><time>2026-04-19T14:45:17.129Z</time></trkpt><trkpt lat="39.6303251" lon="15.8446563"><ele>12.666666666666666</ele><time>2026-04-19T14:45:18.13Z</time></trkpt><trkpt lat="39.6304094" lon="15.8446418"><ele>12.333333333333332</ele><time>2026-04-19T14:45:19.13Z</time></trkpt><trkpt lat="39.6304795" lon="15.8446276"><ele>12.0</ele><time>2026-04-19T14:45:20.129Z</time></trkpt><trkpt lat="39.6305868" lon="15.844625"><ele>11.666666666666666</ele><time>2026-04-19T14:45:22.13Z</time></trkpt><trkpt lat="39.630666" lon="15.844682"><ele>11.333333333333332</ele><time>2026-04-19T14:45:24.13Z</time></trkpt><trkpt lat="39.6306936" lon="15.8447621"><ele>11.0</ele><time>2026-04-19T14:45:26.129Z</time></trkpt><trkpt lat="39.6306923" lon="15.8448571"><ele>11.0</ele><time>2026-04-19T14:45:29.129Z</time></trkpt><trkpt lat="39.63076" lon="15.8449281"><ele>11.0</ele><time>2026-04-19T14:45:40.129Z</time></trkpt><trkpt lat="39.6308285" lon="15.8448873"><ele>11.0</ele><time>2026-04-19T14:45:41.129Z</time></trkpt><trkpt lat="39.6308897" lon="15.8448343"><ele>11.0</ele><time>2026-04-19T14:45:42.13Z</time></trkpt><trkpt lat="39.630961" lon="15.8447664"><ele>11.0</ele><time>2026-04-19T14:45:43.129Z</time></trkpt><trkpt lat="39.6310264" lon="15.844703"><ele>11.0</ele><time>2026-04-19T14:45:44.13Z</time></trkpt><trkpt lat="39.6310858" lon="15.8446519"><ele>10.833333333333332</ele><time>2026-04-19T14:45:45.129Z</time></trkpt><trkpt lat="39.6311455" lon="15.8446082"><ele>10.666666666666666</ele><time>2026-04-19T14:45:46.13Z</time></trkpt><trkpt lat="39.6312104" lon="15.8445603"><ele>10.5</ele><time>2026-04-19T14:45:47.129Z</time></trkpt><trkpt lat="39.6312855" lon="15.8445086"><ele>10.333333333333334</ele><time>2026-04-19T14:45:48.13Z</time></trkpt><trkpt lat="39.631372" lon="15.8444582"><ele>10.166666666666668</ele><time>2026-04-19T14:45:49.13Z</time></trkpt><trkpt lat="39.6314566" lon="15.844409"><ele>10.0</ele><time>2026-04-19T14:45:50.129Z</time></trkpt><trkpt lat="39.6315403" lon="15.8443606"><ele>10.0</ele><time>2026-04-19T14:45:51.13Z</time></trkpt><trkpt lat="39.631615" lon="15.8443212"><ele>10.0</ele><time>2026-04-19T14:45:52.129Z</time></trkpt><trkpt lat="39.6316979" lon="15.8442782"><ele>10.0</ele><time>2026-04-19T14:45:53.13Z</time></trkpt><trkpt lat="39.6317941" lon="15.8442294"><ele>10.0</ele><time>2026-04-19T14:45:54.129Z</time></trkpt><trkpt lat="39.6318963" lon="15.8441808"><ele>10.0</ele><time>2026-04-19T14:45:55.13Z</time></trkpt><trkpt lat="39.632" lon="15.8441353"><ele>9.8</ele><time>2026-04-19T14:45:56.13Z</time></trkpt><trkpt lat="39.632099" lon="15.8440935"><ele>9.6</ele><time>2026-04-19T14:45:57.129Z</time></trkpt><trkpt lat="39.6322054" lon="15.8440456"><ele>9.4</ele><time>2026-04-19T14:45:58.13Z</time></trkpt><trkpt lat="39.6323143" lon="15.8440009"><ele>9.2</ele><time>2026-04-19T14:45:59.13Z</time></trkpt><trkpt lat="39.6324242" lon="15.8439582"><ele>9.0</ele><time>2026-04-19T14:46:00.129Z</time></trkpt><trkpt lat="39.6325378" lon="15.8439145"><ele>9.0</ele><time>2026-04-19T14:46:01.13Z</time></trkpt><trkpt lat="39.6326562" lon="15.8438788"><ele>9.0</ele><time>2026-04-19T14:46:02.13Z</time></trkpt><trkpt lat="39.6327756" lon="15.8438414"><ele>9.0</ele><time>2026-04-19T14:46:03.13Z</time></trkpt><trkpt lat="39.6329023" lon="15.8438078"><ele>9.0</ele><time>2026-04-19T14:46:04.129Z</time></trkpt><trkpt lat="39.6330359" lon="15.8437705"><ele>9.0</ele><time>2026-04-19T14:46:05.129Z</time></trkpt><trkpt lat="39.6332077" lon="15.843716"><ele>9.0</ele><time>2026-04-19T14:46:06.13Z</time></trkpt><trkpt lat="39.6333792" lon="15.8436561"><ele>9.0</ele><time>2026-04-19T14:46:07.129Z</time></trkpt><trkpt lat="39.6336203" lon="15.8435909"><ele>9.0</ele><time>2026-04-19T14:46:08.13Z</time></trkpt><trkpt lat="39.6338382" lon="15.843531"><ele>9.0</ele><time>2026-04-19T14:46:09.129Z</time></trkpt><trkpt lat="39.6340399" lon="15.843479"><ele>9.0</ele><time>2026-04-19T14:46:10.13Z</time></trkpt><trkpt lat="39.6342295" lon="15.8434316"><ele>9.0</ele><time>2026-04-19T14:46:11.129Z</time></trkpt><trkpt lat="39.6344079" lon="15.843381"><ele>9.0</ele><time>2026-04-19T14:46:12.129Z</time></trkpt><trkpt lat="39.6345862" lon="15.843334"><ele>9.0</ele><time>2026-04-19T14:46:13.13Z</time></trkpt><trkpt lat="39.6347598" lon="15.843286"><ele>9.0</ele><time>2026-04-19T14:46:14.13Z</time></trkpt><trkpt lat="39.6349311" lon="15.843242"><ele>9.0</ele><time>2026-04-19T14:46:15.129Z</time></trkpt><trkpt lat="39.6350871" lon="15.8431959"><ele>9.0</ele><time>2026-04-19T14:46:16.129Z</time></trkpt><trkpt lat="39.6352379" lon="15.8431509"><ele>9.5</ele><time>2026-04-19T14:46:17.129Z</time></trkpt><trkpt lat="39.6353733" lon="15.8431083"><ele>10.0</ele><time>2026-04-19T14:46:18.13Z</time></trkpt><trkpt lat="39.6354939" lon="15.8430781"><ele>10.5</ele><time>2026-04-19T14:46:19.13Z</time></trkpt><trkpt lat="39.6356358" lon="15.843036"><ele>11.0</ele><time>2026-04-19T14:46:20.13Z</time></trkpt><trkpt lat="39.6357859" lon="15.8429863"><ele>11.0</ele><time>2026-04-19T14:46:21.13Z</time></trkpt><trkpt lat="39.6359663" lon="15.8429367"><ele>11.0</ele><time>2026-04-19T14:46:22.13Z</time></trkpt><trkpt lat="39.636167" lon="15.8428923"><ele>11.0</ele><time>2026-04-19T14:46:23.129Z</time></trkpt><trkpt lat="39.6363836" lon="15.8428427"><ele>11.333333333333332</ele><time>2026-04-19T14:46:24.13Z</time></trkpt><trkpt lat="39.6365778" lon="15.8427916"><ele>11.666666666666666</ele><time>2026-04-19T14:46:25.13Z</time></trkpt><trkpt lat="39.6367571" lon="15.8427387"><ele>12.0</ele><time>2026-04-19T14:46:26.13Z</time></trkpt><trkpt lat="39.6369212" lon="15.8426972"><ele>12.25</ele><time>2026-04-19T14:46:27.129Z</time></trkpt><trkpt lat="39.6370726" lon="15.8426625"><ele>12.5</ele><time>2026-04-19T14:46:28.13Z</time></trkpt><trkpt lat="39.6372163" lon="15.8426374"><ele>12.75</ele><time>2026-04-19T14:46:29.129Z</time></trkpt><trkpt lat="39.637355" lon="15.8426115"><ele>13.0</ele><time>2026-04-19T14:46:30.129Z</time></trkpt><trkpt lat="39.6374917" lon="15.8425961"><ele>12.666666666666666</ele><time>2026-04-19T14:46:31.13Z</time></trkpt><trkpt lat="39.6376332" lon="15.842575"><ele>12.333333333333332</ele><time>2026-04-19T14:46:32.13Z</time></trkpt><trkpt lat="39.6377811" lon="15.8425539"><ele>12.0</ele><time>2026-04-19T14:46:33.13Z</time></trkpt><trkpt lat="39.6379704" lon="15.8425247"><ele>12.0</ele><time>2026-04-19T14:46:34.13Z</time></trkpt><trkpt lat="39.6381625" lon="15.8425068"><ele>12.0</ele><time>2026-04-19T14:46:35.129Z</time></trkpt><trkpt lat="39.6383752" lon="15.8424779"><ele>12.0</ele><time>2026-04-19T14:46:36.13Z</time></trkpt><trkpt lat="39.63861" lon="15.8424395"><ele>12.0</ele><time>2026-04-19T14:46:37.129Z</time></trkpt><trkpt lat="39.6388473" lon="15.8423855"><ele>12.0</ele><time>2026-04-19T14:46:38.13Z</time></trkpt><trkpt lat="39.6390817" lon="15.8423197"><ele>12.0</ele><time>2026-04-19T14:46:39.129Z</time></trkpt><trkpt lat="39.639319" lon="15.8422306"><ele>12.0</ele><time>2026-04-19T14:46:40.13Z</time></trkpt><trkpt lat="39.6395622" lon="15.8421328"><ele>12.0</ele><time>2026-04-19T14:46:41.129Z</time></trkpt><trkpt lat="39.6398086" lon="15.8420248"><ele>12.0</ele><time>2026-04-19T14:46:42.129Z</time></trkpt><trkpt lat="39.6400418" lon="15.8419155"><ele>12.0</ele><time>2026-04-19T14:46:43.13Z</time></trkpt><trkpt lat="39.6402645" lon="15.8418168"><ele>12.0</ele><time>2026-04-19T14:46:44.129Z</time></trkpt><trkpt lat="39.6404872" lon="15.8417164"><ele>11.0</ele><time>2026-04-19T14:46:45.129Z</time></trkpt><trkpt lat="39.6407059" lon="15.8416085"><ele>10.0</ele><time>2026-04-19T14:46:46.13Z</time></trkpt><trkpt lat="39.6409189" lon="15.8415031"><ele>10.0</ele><time>2026-04-19T14:46:47.13Z</time></trkpt><trkpt lat="39.6411114" lon="15.8414075"><ele>10.0</ele><time>2026-04-19T14:46:48.13Z</time></trkpt><trkpt lat="39.6413016" lon="15.8413135"><ele>10.0</ele><time>2026-04-19T14:46:49.13Z</time></trkpt><trkpt lat="39.6414769" lon="15.8412288"><ele>11.0</ele><time>2026-04-19T14:46:50.13Z</time></trkpt><trkpt lat="39.6416468" lon="15.8411502"><ele>12.0</ele><time>2026-04-19T14:46:51.129Z</time></trkpt><trkpt lat="39.641815" lon="15.8410699"><ele>13.0</ele><time>2026-04-19T14:46:52.13Z</time></trkpt><trkpt lat="39.6419723" lon="15.8409968"><ele>13.25</ele><time>2026-04-19T14:46:53.13Z</time></trkpt><trkpt lat="39.6421214" lon="15.8409305"><ele>13.5</ele><time>2026-04-19T14:46:54.129Z</time></trkpt><trkpt lat="39.6422553" lon="15.8408665"><ele>13.75</ele><time>2026-04-19T14:46:55.129Z</time></trkpt><trkpt lat="39.6423887" lon="15.8408024"><ele>14.0</ele><time>2026-04-19T14:46:56.13Z</time></trkpt><trkpt lat="39.6424938" lon="15.8407514"><ele>14.0</ele><time>2026-04-19T14:46:57.129Z</time></trkpt><trkpt lat="39.642619" lon="15.8406941"><ele>14.0</ele><time>2026-04-19T14:46:58.129Z</time></trkpt><trkpt lat="39.6427538" lon="15.8406321"><ele>14.0</ele><time>2026-04-19T14:46:59.129Z</time></trkpt><trkpt lat="39.6429036" lon="15.8405673"><ele>14.0</ele><time>2026-04-19T14:47:00.13Z</time></trkpt><trkpt lat="39.6430516" lon="15.8405033"><ele>14.5</ele><time>2026-04-19T14:47:01.13Z</time></trkpt><trkpt lat="39.6431957" lon="15.8404503"><ele>15.0</ele><time>2026-04-19T14:47:02.13Z</time></trkpt><trkpt lat="39.6433356" lon="15.8404001"><ele>15.5</ele><time>2026-04-19T14:47:03.13Z</time></trkpt><trkpt lat="39.6434812" lon="15.840346"><ele>16.0</ele><time>2026-04-19T14:47:04.13Z</time></trkpt><trkpt lat="39.6436337" lon="15.840292"><ele>16.333333333333332</ele><time>2026-04-19T14:47:05.129Z</time></trkpt><trkpt lat="39.6437724" lon="15.8402521"><ele>16.666666666666668</ele><time>2026-04-19T14:47:06.13Z</time></trkpt><trkpt lat="39.6439215" lon="15.840216"><ele>17.0</ele><time>2026-04-19T14:47:07.129Z</time></trkpt><trkpt lat="39.6440848" lon="15.8401865"><ele>17.0</ele><time>2026-04-19T14:47:08.129Z</time></trkpt><trkpt lat="39.6442559" lon="15.8401613"><ele>17.0</ele><time>2026-04-19T14:47:09.129Z</time></trkpt><trkpt lat="39.6444486" lon="15.8401291"><ele>17.0</ele><time>2026-04-19T14:47:10.13Z</time></trkpt><trkpt lat="39.6446729" lon="15.8400984"><ele>14.5</ele><time>2026-04-19T14:47:11.129Z</time></trkpt><trkpt lat="39.6449065" lon="15.8400746"><ele>12.0</ele><time>2026-04-19T14:47:12.129Z</time></trkpt><trkpt lat="39.6451955" lon="15.8400415"><ele>11.5</ele><time>2026-04-19T14:47:13.129Z</time></trkpt><trkpt lat="39.6454843" lon="15.8400122"><ele>11.0</ele><time>2026-04-19T14:47:14.13Z</time></trkpt><trkpt lat="39.6457668" lon="15.8399905"><ele>11.0</ele><time>2026-04-19T14:47:15.129Z</time></trkpt><trkpt lat="39.6460581" lon="15.8399661"><ele>11.0</ele><time>2026-04-19T14:47:16.13Z</time></trkpt><trkpt lat="39.6463481" lon="15.8399487"><ele>13.0</ele><time>2026-04-19T14:47:17.129Z</time></trkpt><trkpt lat="39.6466272" lon="15.8399395"><ele>15.0</ele><time>2026-04-19T14:47:18.13Z</time></trkpt><trkpt lat="39.6468997" lon="15.8399494"><ele>13.0</ele><time>2026-04-19T14:47:19.129Z</time></trkpt><trkpt lat="39.6471681" lon="15.8399573"><ele>11.0</ele><time>2026-04-19T14:47:20.129Z</time></trkpt><trkpt lat="39.6474331" lon="15.8399635"><ele>11.0</ele><time>2026-04-19T14:47:21.13Z</time></trkpt><trkpt lat="39.6476946" lon="15.8399657"><ele>11.0</ele><time>2026-04-19T14:47:22.129Z</time></trkpt><trkpt lat="39.6479522" lon="15.8399661"><ele>11.5</ele><time>2026-04-19T14:47:23.13Z</time></trkpt><trkpt lat="39.6482088" lon="15.8399677"><ele>12.0</ele><time>2026-04-19T14:47:24.129Z</time></trkpt><trkpt lat="39.6484636" lon="15.8399691"><ele>12.0</ele><time>2026-04-19T14:47:25.13Z</time></trkpt><trkpt lat="39.6487168" lon="15.8399753"><ele>12.0</ele><time>2026-04-19T14:47:26.129Z</time></trkpt><trkpt lat="39.6489676" lon="15.8399809"><ele>12.0</ele><time>2026-04-19T14:47:27.129Z</time></trkpt><trkpt lat="39.6492186" lon="15.8399843"><ele>12.0</ele><time>2026-04-19T14:47:28.13Z</time></trkpt><trkpt lat="39.6494701" lon="15.8399861"><ele>13.0</ele><time>2026-04-19T14:47:29.129Z</time></trkpt><trkpt lat="39.6497085" lon="15.8399831"><ele>14.0</ele><time>2026-04-19T14:47:30.129Z</time></trkpt><trkpt lat="39.6499441" lon="15.8399805"><ele>14.0</ele><time>2026-04-19T14:47:31.129Z</time></trkpt><trkpt lat="39.6501778" lon="15.8399758"><ele>14.0</ele><time>2026-04-19T14:47:32.129Z</time></trkpt><trkpt lat="39.6504096" lon="15.8399727"><ele>14.0</ele><time>2026-04-19T14:47:33.13Z</time></trkpt><trkpt lat="39.6506372" lon="15.8399681"><ele>14.0</ele><time>2026-04-19T14:47:34.129Z</time></trkpt><trkpt lat="39.6508681" lon="15.8399464"><ele>14.0</ele><time>2026-04-19T14:47:35.13Z</time></trkpt><trkpt lat="39.6510984" lon="15.8399079"><ele>14.0</ele><time>2026-04-19T14:47:36.13Z</time></trkpt><trkpt lat="39.651331" lon="15.8398558"><ele>17.0</ele><time>2026-04-19T14:47:37.129Z</time></trkpt><trkpt lat="39.6515639" lon="15.8397869"><ele>20.0</ele><time>2026-04-19T14:47:38.13Z</time></trkpt><trkpt lat="39.651793" lon="15.8396978"><ele>21.0</ele><time>2026-04-19T14:47:39.129Z</time></trkpt><trkpt lat="39.6520282" lon="15.8395865"><ele>22.0</ele><time>2026-04-19T14:47:40.129Z</time></trkpt><trkpt lat="39.6522692" lon="15.8394566"><ele>22.0</ele><time>2026-04-19T14:47:41.129Z</time></trkpt><trkpt lat="39.6525026" lon="15.8393063"><ele>22.0</ele><time>2026-04-19T14:47:42.129Z</time></trkpt><trkpt lat="39.6527269" lon="15.839132"><ele>19.0</ele><time>2026-04-19T14:47:43.129Z</time></trkpt><trkpt lat="39.6529399" lon="15.838942"><ele>16.0</ele><time>2026-04-19T14:47:44.129Z</time></trkpt><trkpt lat="39.6531488" lon="15.8387419"><ele>16.0</ele><time>2026-04-19T14:47:45.129Z</time></trkpt><trkpt lat="39.6533569" lon="15.8385397"><ele>16.0</ele><time>2026-04-19T14:47:46.129Z</time></trkpt><trkpt lat="39.6535588" lon="15.8383376"><ele>17.5</ele><time>2026-04-19T14:47:47.13Z</time></trkpt><trkpt lat="39.6537578" lon="15.8381413"><ele>19.0</ele><time>2026-04-19T14:47:48.129Z</time></trkpt><trkpt lat="39.6539525" lon="15.8379498"><ele>19.0</ele><time>2026-04-19T14:47:49.13Z</time></trkpt><trkpt lat="39.6541493" lon="15.8377479"><ele>19.0</ele><time>2026-04-19T14:47:50.129Z</time></trkpt><trkpt lat="39.6543332" lon="15.8375628"><ele>22.5</ele><time>2026-04-19T14:47:51.129Z</time></trkpt><trkpt lat="39.6545194" lon="15.8373746"><ele>26.0</ele><time>2026-04-19T14:47:52.13Z</time></trkpt><trkpt lat="39.6547072" lon="15.8371966"><ele>26.0</ele><time>2026-04-19T14:47:53.129Z</time></trkpt><trkpt lat="39.6548952" lon="15.8370254"><ele>26.0</ele><time>2026-04-19T14:47:54.129Z</time></trkpt><trkpt lat="39.6550847" lon="15.8368749"><ele>24.333333333333332</ele><time>2026-04-19T14:47:55.13Z</time></trkpt><trkpt lat="39.6552795" lon="15.8367397"><ele>22.666666666666664</ele><time>2026-04-19T14:47:56.13Z</time></trkpt><trkpt lat="39.6554733" lon="15.8366218"><ele>21.0</ele><time>2026-04-19T14:47:57.129Z</time></trkpt><trkpt lat="39.6556732" lon="15.8365177"><ele>21.0</ele><time>2026-04-19T14:47:58.129Z</time></trkpt><trkpt lat="39.6558704" lon="15.8364178"><ele>21.0</ele><time>2026-04-19T14:47:59.129Z</time></trkpt><trkpt lat="39.6560705" lon="15.8363255"><ele>21.0</ele><time>2026-04-19T14:48:00.129Z</time></trkpt><trkpt lat="39.6562814" lon="15.836234"><ele>23.333333333333336</ele><time>2026-04-19T14:48:01.13Z</time></trkpt><trkpt lat="39.6564749" lon="15.8361579"><ele>25.666666666666668</ele><time>2026-04-19T14:48:02.13Z</time></trkpt><trkpt lat="39.6566559" lon="15.8360858"><ele>28.0</ele><time>2026-04-19T14:48:03.129Z</time></trkpt><trkpt lat="39.6568363" lon="15.836028"><ele>29.0</ele><time>2026-04-19T14:48:04.13Z</time></trkpt><trkpt lat="39.6570279" lon="15.8359868"><ele>30.0</ele><time>2026-04-19T14:48:05.129Z</time></trkpt><trkpt lat="39.6572413" lon="15.8359583"><ele>31.0</ele><time>2026-04-19T14:48:06.129Z</time></trkpt><trkpt lat="39.6574727" lon="15.8359597"><ele>31.0</ele><time>2026-04-19T14:48:07.129Z</time></trkpt><trkpt lat="39.6577091" lon="15.8359722"><ele>31.0</ele><time>2026-04-19T14:48:08.129Z</time></trkpt><trkpt lat="39.6579577" lon="15.8359876"><ele>27.0</ele><time>2026-04-19T14:48:09.129Z</time></trkpt><trkpt lat="39.6582044" lon="15.8359971"><ele>23.0</ele><time>2026-04-19T14:48:10.129Z</time></trkpt><trkpt lat="39.6584343" lon="15.8360026"><ele>21.0</ele><time>2026-04-19T14:48:11.129Z</time></trkpt><trkpt lat="39.658642" lon="15.8360105"><ele>19.0</ele><time>2026-04-19T14:48:12.13Z</time></trkpt><trkpt lat="39.6588418" lon="15.8360221"><ele>17.0</ele><time>2026-04-19T14:48:13.13Z</time></trkpt><trkpt lat="39.6590314" lon="15.8360322"><ele>17.0</ele><time>2026-04-19T14:48:14.129Z</time></trkpt><trkpt lat="39.6592229" lon="15.8360368"><ele>17.0</ele><time>2026-04-19T14:48:15.129Z</time></trkpt><trkpt lat="39.6594099" lon="15.836045"><ele>17.0</ele><time>2026-04-19T14:48:16.13Z</time></trkpt><trkpt lat="39.6595969" lon="15.8360572"><ele>16.333333333333336</ele><time>2026-04-19T14:48:17.13Z</time></trkpt><trkpt lat="39.6597805" lon="15.8360671"><ele>15.666666666666668</ele><time>2026-04-19T14:48:18.129Z</time></trkpt><trkpt lat="39.6599696" lon="15.8360726"><ele>15.0</ele><time>2026-04-19T14:48:19.129Z</time></trkpt><trkpt lat="39.6601578" lon="15.8360758"><ele>17.0</ele><time>2026-04-19T14:48:20.13Z</time></trkpt><trkpt lat="39.6603435" lon="15.8360873"><ele>19.0</ele><time>2026-04-19T14:48:21.129Z</time></trkpt><trkpt lat="39.6605281" lon="15.836096"><ele>21.0</ele><time>2026-04-19T14:48:22.13Z</time></trkpt><trkpt lat="39.6607003" lon="15.8360992"><ele>21.0</ele><time>2026-04-19T14:48:23.13Z</time></trkpt><trkpt lat="39.6608536" lon="15.8361078"><ele>21.0</ele><time>2026-04-19T14:48:24.13Z</time></trkpt><trkpt lat="39.6609786" lon="15.8361167"><ele>21.0</ele><time>2026-04-19T14:48:25.13Z</time></trkpt><trkpt lat="39.6610878" lon="15.8361235"><ele>21.0</ele><time>2026-04-19T14:48:26.129Z</time></trkpt><trkpt lat="39.6611756" lon="15.8361277"><ele>22.0</ele><time>2026-04-19T14:48:27.129Z</time></trkpt><trkpt lat="39.6612382" lon="15.8361397"><ele>23.0</ele><time>2026-04-19T14:48:28.13Z</time></trkpt><trkpt lat="39.6613382" lon="15.8361453"><ele>24.0</ele><time>2026-04-19T14:48:30.129Z</time></trkpt><trkpt lat="39.6614393" lon="15.8361518"><ele>25.0</ele><time>2026-04-19T14:48:32.13Z</time></trkpt><trkpt lat="39.6615135" lon="15.8361518"><ele>26.0</ele><time>2026-04-19T14:48:33.129Z</time></trkpt><trkpt lat="39.6616051" lon="15.8361511"><ele>27.0</ele><time>2026-04-19T14:48:34.129Z</time></trkpt><trkpt lat="39.6617121" lon="15.8361496"><ele>27.0</ele><time>2026-04-19T14:48:35.13Z</time></trkpt><trkpt lat="39.6618323" lon="15.8361531"><ele>27.0</ele><time>2026-04-19T14:48:36.13Z</time></trkpt><trkpt lat="39.6619715" lon="15.8361545"><ele>27.0</ele><time>2026-04-19T14:48:37.129Z</time></trkpt><trkpt lat="39.66213" lon="15.836154"><ele>27.0</ele><time>2026-04-19T14:48:38.13Z</time></trkpt><trkpt lat="39.6622961" lon="15.8361479"><ele>24.666666666666668</ele><time>2026-04-19T14:48:39.13Z</time></trkpt><trkpt lat="39.6624647" lon="15.8361306"><ele>22.333333333333336</ele><time>2026-04-19T14:48:40.13Z</time></trkpt><trkpt lat="39.6626388" lon="15.8360886"><ele>20.0</ele><time>2026-04-19T14:48:41.13Z</time></trkpt><trkpt lat="39.6628135" lon="15.8360359"><ele>19.0</ele><time>2026-04-19T14:48:42.129Z</time></trkpt><trkpt lat="39.6629995" lon="15.8359646"><ele>18.0</ele><time>2026-04-19T14:48:43.129Z</time></trkpt><trkpt lat="39.6631874" lon="15.8358769"><ele>17.0</ele><time>2026-04-19T14:48:44.129Z</time></trkpt><trkpt lat="39.6633703" lon="15.8357789"><ele>17.0</ele><time>2026-04-19T14:48:45.129Z</time></trkpt><trkpt lat="39.6635432" lon="15.8356629"><ele>17.0</ele><time>2026-04-19T14:48:46.129Z</time></trkpt><trkpt lat="39.6637197" lon="15.8355291"><ele>17.0</ele><time>2026-04-19T14:48:47.129Z</time></trkpt><trkpt lat="39.6639076" lon="15.8353808"><ele>16.666666666666668</ele><time>2026-04-19T14:48:48.13Z</time></trkpt><trkpt lat="39.6640963" lon="15.8352292"><ele>16.333333333333332</ele><time>2026-04-19T14:48:49.13Z</time></trkpt><trkpt lat="39.6642866" lon="15.8350745"><ele>16.0</ele><time>2026-04-19T14:48:50.129Z</time></trkpt><trkpt lat="39.6644788" lon="15.834915"><ele>16.0</ele><time>2026-04-19T14:48:51.13Z</time></trkpt><trkpt lat="39.6646699" lon="15.8347587"><ele>16.0</ele><time>2026-04-19T14:48:52.129Z</time></trkpt><trkpt lat="39.6648586" lon="15.8346003"><ele>16.0</ele><time>2026-04-19T14:48:53.129Z</time></trkpt><trkpt lat="39.6650481" lon="15.834445"><ele>16.0</ele><time>2026-04-19T14:48:54.13Z</time></trkpt><trkpt lat="39.6652424" lon="15.8342922"><ele>20.666666666666664</ele><time>2026-04-19T14:48:55.129Z</time></trkpt><trkpt lat="39.6654309" lon="15.8341473"><ele>25.333333333333332</ele><time>2026-04-19T14:48:56.13Z</time></trkpt><trkpt lat="39.665619" lon="15.8340046"><ele>30.0</ele><time>2026-04-19T14:48:57.13Z</time></trkpt><trkpt lat="39.665812" lon="15.8338786"><ele>30.0</ele><time>2026-04-19T14:48:58.129Z</time></trkpt><trkpt lat="39.6660086" lon="15.8337667"><ele>30.0</ele><time>2026-04-19T14:48:59.129Z</time></trkpt><trkpt lat="39.6662157" lon="15.8336698"><ele>30.0</ele><time>2026-04-19T14:49:00.129Z</time></trkpt><trkpt lat="39.666443" lon="15.8335877"><ele>28.0</ele><time>2026-04-19T14:49:01.13Z</time></trkpt><trkpt lat="39.6666709" lon="15.8335106"><ele>26.0</ele><time>2026-04-19T14:49:02.129Z</time></trkpt><trkpt lat="39.666907" lon="15.833437"><ele>27.5</ele><time>2026-04-19T14:49:03.129Z</time></trkpt><trkpt lat="39.6671546" lon="15.8333661"><ele>29.0</ele><time>2026-04-19T14:49:04.129Z</time></trkpt><trkpt lat="39.6674048" lon="15.8332975"><ele>29.0</ele><time>2026-04-19T14:49:05.129Z</time></trkpt><trkpt lat="39.6676591" lon="15.8332237"><ele>29.0</ele><time>2026-04-19T14:49:06.13Z</time></trkpt><trkpt lat="39.6679117" lon="15.8331507"><ele>28.5</ele><time>2026-04-19T14:49:07.129Z</time></trkpt><trkpt lat="39.6681642" lon="15.8330808"><ele>28.0</ele><time>2026-04-19T14:49:08.13Z</time></trkpt><trkpt lat="39.6684128" lon="15.8330055"><ele>34.0</ele><time>2026-04-19T14:49:09.129Z</time></trkpt><trkpt lat="39.6686507" lon="15.8329156"><ele>40.0</ele><time>2026-04-19T14:49:10.129Z</time></trkpt><trkpt lat="39.6688787" lon="15.8328024"><ele>40.0</ele><time>2026-04-19T14:49:11.129Z</time></trkpt><trkpt lat="39.6690973" lon="15.8326646"><ele>40.0</ele><time>2026-04-19T14:49:12.13Z</time></trkpt><trkpt lat="39.6693057" lon="15.8325057"><ele>37.0</ele><time>2026-04-19T14:49:13.129Z</time></trkpt><trkpt lat="39.6695084" lon="15.832331"><ele>34.0</ele><time>2026-04-19T14:49:14.13Z</time></trkpt><trkpt lat="39.6697053" lon="15.8321433"><ele>34.0</ele><time>2026-04-19T14:49:15.129Z</time></trkpt><trkpt lat="39.6699031" lon="15.8319531"><ele>34.0</ele><time>2026-04-19T14:49:16.13Z</time></trkpt><trkpt lat="39.6700977" lon="15.8317634"><ele>34.0</ele><time>2026-04-19T14:49:17.13Z</time></trkpt><trkpt lat="39.6702918" lon="15.8315775"><ele>34.0</ele><time>2026-04-19T14:49:18.129Z</time></trkpt><trkpt lat="39.6704896" lon="15.8313903"><ele>34.0</ele><time>2026-04-19T14:49:19.13Z</time></trkpt><trkpt lat="39.6706881" lon="15.8312067"><ele>34.0</ele><time>2026-04-19T14:49:20.129Z</time></trkpt><trkpt lat="39.6708881" lon="15.8310181"><ele>37.0</ele><time>2026-04-19T14:49:21.13Z</time></trkpt><trkpt lat="39.6710883" lon="15.8308242"><ele>40.0</ele><time>2026-04-19T14:49:22.13Z</time></trkpt><trkpt lat="39.6712876" lon="15.8306343"><ele>40.0</ele><time>2026-04-19T14:49:23.129Z</time></trkpt><trkpt lat="39.6714854" lon="15.8304469"><ele>40.0</ele><time>2026-04-19T14:49:24.13Z</time></trkpt><trkpt lat="39.6716837" lon="15.8302734"><ele>40.0</ele><time>2026-04-19T14:49:25.129Z</time></trkpt><trkpt lat="39.6718891" lon="15.8301201"><ele>40.0</ele><time>2026-04-19T14:49:26.129Z</time></trkpt><trkpt lat="39.6721051" lon="15.8299811"><ele>40.0</ele><time>2026-04-19T14:49:27.13Z</time></trkpt><trkpt lat="39.6723303" lon="15.8298612"><ele>40.0</ele><time>2026-04-19T14:49:28.13Z</time></trkpt><trkpt lat="39.6725678" lon="15.8297606"><ele>38.5</ele><time>2026-04-19T14:49:29.13Z</time></trkpt><trkpt lat="39.6728085" lon="15.8296647"><ele>37.0</ele><time>2026-04-19T14:49:30.129Z</time></trkpt><trkpt lat="39.6730567" lon="15.8295789"><ele>37.0</ele><time>2026-04-19T14:49:31.13Z</time></trkpt><trkpt lat="39.6733052" lon="15.8294924"><ele>37.0</ele><time>2026-04-19T14:49:32.129Z</time></trkpt><trkpt lat="39.6735472" lon="15.8293917"><ele>35.0</ele><time>2026-04-19T14:49:33.129Z</time></trkpt><trkpt lat="39.6737849" lon="15.829261"><ele>33.0</ele><time>2026-04-19T14:49:34.129Z</time></trkpt><trkpt lat="39.674011" lon="15.8290997"><ele>33.0</ele><time>2026-04-19T14:49:35.13Z</time></trkpt><trkpt lat="39.67423" lon="15.8289081"><ele>33.0</ele><time>2026-04-19T14:49:36.129Z</time></trkpt><trkpt lat="39.6744314" lon="15.8286969"><ele>33.5</ele><time>2026-04-19T14:49:37.13Z</time></trkpt><trkpt lat="39.6746172" lon="15.8284621"><ele>34.0</ele><time>2026-04-19T14:49:38.129Z</time></trkpt><trkpt lat="39.674795" lon="15.828218"><ele>34.0</ele><time>2026-04-19T14:49:39.13Z</time></trkpt><trkpt lat="39.6749659" lon="15.8279695"><ele>34.0</ele><time>2026-04-19T14:49:40.13Z</time></trkpt><trkpt lat="39.6751394" lon="15.8277162"><ele>34.0</ele><time>2026-04-19T14:49:41.129Z</time></trkpt><trkpt lat="39.6753131" lon="15.8274694"><ele>34.0</ele><time>2026-04-19T14:49:42.13Z</time></trkpt><trkpt lat="39.6754895" lon="15.8272242"><ele>34.0</ele><time>2026-04-19T14:49:43.13Z</time></trkpt><trkpt lat="39.6756665" lon="15.8269748"><ele>34.0</ele><time>2026-04-19T14:49:44.13Z</time></trkpt><trkpt lat="39.6758415" lon="15.8267218"><ele>30.5</ele><time>2026-04-19T14:49:45.13Z</time></trkpt><trkpt lat="39.6760204" lon="15.8264652"><ele>27.0</ele><time>2026-04-19T14:49:46.13Z</time></trkpt><trkpt lat="39.6761927" lon="15.8262138"><ele>25.5</ele><time>2026-04-19T14:49:47.129Z</time></trkpt><trkpt lat="39.6763709" lon="15.8259603"><ele>24.0</ele><time>2026-04-19T14:49:48.129Z</time></trkpt><trkpt lat="39.6765448" lon="15.8257102"><ele>24.0</ele><time>2026-04-19T14:49:49.129Z</time></trkpt><trkpt lat="39.6767189" lon="15.8254607"><ele>24.0</ele><time>2026-04-19T14:49:50.129Z</time></trkpt><trkpt lat="39.6768943" lon="15.825213"><ele>25.5</ele><time>2026-04-19T14:49:51.129Z</time></trkpt><trkpt lat="39.6770553" lon="15.824978"><ele>27.0</ele><time>2026-04-19T14:49:52.13Z</time></trkpt><trkpt lat="39.6772104" lon="15.8247561"><ele>27.0</ele><time>2026-04-19T14:49:53.129Z</time></trkpt><trkpt lat="39.6773639" lon="15.8245338"><ele>27.0</ele><time>2026-04-19T14:49:54.13Z</time></trkpt><trkpt lat="39.6775146" lon="15.8243187"><ele>26.666666666666664</ele><time>2026-04-19T14:49:55.129Z</time></trkpt><trkpt lat="39.6776626" lon="15.824113"><ele>26.333333333333332</ele><time>2026-04-19T14:49:56.13Z</time></trkpt><trkpt lat="39.677811" lon="15.8239102"><ele>26.0</ele><time>2026-04-19T14:49:57.129Z</time></trkpt><trkpt lat="39.6779652" lon="15.823719"><ele>26.0</ele><time>2026-04-19T14:49:58.129Z</time></trkpt><trkpt lat="39.6781274" lon="15.8235378"><ele>26.0</ele><time>2026-04-19T14:49:59.13Z</time></trkpt><trkpt lat="39.678298" lon="15.8233573"><ele>26.0</ele><time>2026-04-19T14:50:00.13Z</time></trkpt><trkpt lat="39.6784782" lon="15.8231898"><ele>24.5</ele><time>2026-04-19T14:50:01.13Z</time></trkpt><trkpt lat="39.6786619" lon="15.8230188"><ele>23.0</ele><time>2026-04-19T14:50:02.13Z</time></trkpt><trkpt lat="39.6788511" lon="15.8228446"><ele>23.0</ele><time>2026-04-19T14:50:03.13Z</time></trkpt><trkpt lat="39.6790431" lon="15.8226679"><ele>23.0</ele><time>2026-04-19T14:50:04.13Z</time></trkpt><trkpt lat="39.6792337" lon="15.8224908"><ele>23.0</ele><time>2026-04-19T14:50:05.129Z</time></trkpt><trkpt lat="39.6794194" lon="15.8223158"><ele>23.0</ele><time>2026-04-19T14:50:06.129Z</time></trkpt><trkpt lat="39.6796107" lon="15.8221361"><ele>23.0</ele><time>2026-04-19T14:50:07.13Z</time></trkpt><trkpt lat="39.679803" lon="15.8219548"><ele>23.0</ele><time>2026-04-19T14:50:08.13Z</time></trkpt><trkpt lat="39.6799916" lon="15.8217737"><ele>23.0</ele><time>2026-04-19T14:50:09.129Z</time></trkpt><trkpt lat="39.6801806" lon="15.8216003"><ele>23.0</ele><time>2026-04-19T14:50:10.129Z</time></trkpt><trkpt lat="39.680367" lon="15.8214335"><ele>33.0</ele><time>2026-04-19T14:50:11.13Z</time></trkpt><trkpt lat="39.68056" lon="15.8212735"><ele>43.0</ele><time>2026-04-19T14:50:12.13Z</time></trkpt><trkpt lat="39.6807578" lon="15.8211258"><ele>43.0</ele><time>2026-04-19T14:50:13.129Z</time></trkpt><trkpt lat="39.6809629" lon="15.8209983"><ele>43.0</ele><time>2026-04-19T14:50:14.129Z</time></trkpt><trkpt lat="39.6811808" lon="15.8208767"><ele>37.5</ele><time>2026-04-19T14:50:15.13Z</time></trkpt><trkpt lat="39.6814003" lon="15.820789"><ele>32.0</ele><time>2026-04-19T14:50:16.13Z</time></trkpt><trkpt lat="39.6816251" lon="15.8206982"><ele>32.0</ele><time>2026-04-19T14:50:17.13Z</time></trkpt><trkpt lat="39.6818589" lon="15.8206252"><ele>32.0</ele><time>2026-04-19T14:50:18.13Z</time></trkpt><trkpt lat="39.6820965" lon="15.8205534"><ele>30.5</ele><time>2026-04-19T14:50:19.129Z</time></trkpt><trkpt lat="39.6823398" lon="15.8204775"><ele>29.0</ele><time>2026-04-19T14:50:20.129Z</time></trkpt><trkpt lat="39.6825765" lon="15.8204026"><ele>29.0</ele><time>2026-04-19T14:50:21.129Z</time></trkpt><trkpt lat="39.6828132" lon="15.8203226"><ele>29.0</ele><time>2026-04-19T14:50:22.129Z</time></trkpt><trkpt lat="39.6830505" lon="15.8202465"><ele>29.0</ele><time>2026-04-19T14:50:23.129Z</time></trkpt><trkpt lat="39.68329" lon="15.8201689"><ele>29.0</ele><time>2026-04-19T14:50:24.129Z</time></trkpt><trkpt lat="39.6835267" lon="15.8200896"><ele>24.5</ele><time>2026-04-19T14:50:25.129Z</time></trkpt><trkpt lat="39.6837599" lon="15.8200132"><ele>20.0</ele><time>2026-04-19T14:50:26.129Z</time></trkpt><trkpt lat="39.6839932" lon="15.8199366"><ele>20.0</ele><time>2026-04-19T14:50:27.13Z</time></trkpt><trkpt lat="39.6842238" lon="15.8198609"><ele>20.0</ele><time>2026-04-19T14:50:28.129Z</time></trkpt><trkpt lat="39.6844546" lon="15.819788"><ele>21.5</ele><time>2026-04-19T14:50:29.129Z</time></trkpt><trkpt lat="39.6846815" lon="15.8197125"><ele>23.0</ele><time>2026-04-19T14:50:30.129Z</time></trkpt><trkpt lat="39.6849125" lon="15.8196384"><ele>23.0</ele><time>2026-04-19T14:50:31.13Z</time></trkpt><trkpt lat="39.6851388" lon="15.8195649"><ele>23.0</ele><time>2026-04-19T14:50:32.129Z</time></trkpt><trkpt lat="39.6853648" lon="15.8194917"><ele>24.5</ele><time>2026-04-19T14:50:33.13Z</time></trkpt><trkpt lat="39.6855885" lon="15.8194164"><ele>26.0</ele><time>2026-04-19T14:50:34.129Z</time></trkpt><trkpt lat="39.6858118" lon="15.8193409"><ele>23.0</ele><time>2026-04-19T14:50:35.129Z</time></trkpt><trkpt lat="39.686033" lon="15.8192688"><ele>20.0</ele><time>2026-04-19T14:50:36.129Z</time></trkpt><trkpt lat="39.6862516" lon="15.8191877"><ele>20.0</ele><time>2026-04-19T14:50:37.129Z</time></trkpt><trkpt lat="39.6864522" lon="15.819115"><ele>20.0</ele><time>2026-04-19T14:50:38.129Z</time></trkpt><trkpt lat="39.6866496" lon="15.8190406"><ele>20.0</ele><time>2026-04-19T14:50:39.13Z</time></trkpt><trkpt lat="39.6868415" lon="15.8189658"><ele>20.0</ele><time>2026-04-19T14:50:40.129Z</time></trkpt><trkpt lat="39.6870306" lon="15.818891"><ele>20.0</ele><time>2026-04-19T14:50:41.129Z</time></trkpt><trkpt lat="39.6872202" lon="15.8188185"><ele>20.0</ele><time>2026-04-19T14:50:42.129Z</time></trkpt><trkpt lat="39.6873992" lon="15.8187522"><ele>20.0</ele><time>2026-04-19T14:50:43.129Z</time></trkpt><trkpt lat="39.6875593" lon="15.818687"><ele>20.0</ele><time>2026-04-19T14:50:44.13Z</time></trkpt><trkpt lat="39.6877111" lon="15.8186296"><ele>20.0</ele><time>2026-04-19T14:50:45.129Z</time></trkpt><trkpt lat="39.6878484" lon="15.8185797"><ele>20.75</ele><time>2026-04-19T14:50:46.13Z</time></trkpt><trkpt lat="39.6879797" lon="15.8185341"><ele>21.5</ele><time>2026-04-19T14:50:47.129Z</time></trkpt><trkpt lat="39.6881033" lon="15.8184881"><ele>22.25</ele><time>2026-04-19T14:50:48.13Z</time></trkpt><trkpt lat="39.6882182" lon="15.8184447"><ele>23.0</ele><time>2026-04-19T14:50:49.13Z</time></trkpt><trkpt lat="39.6883259" lon="15.8184007"><ele>22.0</ele><time>2026-04-19T14:50:50.13Z</time></trkpt><trkpt lat="39.6884315" lon="15.8183539"><ele>21.0</ele><time>2026-04-19T14:50:51.129Z</time></trkpt><trkpt lat="39.6885354" lon="15.8183141"><ele>20.0</ele><time>2026-04-19T14:50:52.13Z</time></trkpt><trkpt lat="39.6886387" lon="15.818271"><ele>19.0</ele><time>2026-04-19T14:50:53.13Z</time></trkpt><trkpt lat="39.6887441" lon="15.8182301"><ele>18.0</ele><time>2026-04-19T14:50:54.129Z</time></trkpt><trkpt lat="39.6888517" lon="15.8181895"><ele>18.0</ele><time>2026-04-19T14:50:55.13Z</time></trkpt><trkpt lat="39.6889628" lon="15.8181462"><ele>18.0</ele><time>2026-04-19T14:50:56.129Z</time></trkpt><trkpt lat="39.6890755" lon="15.8181015"><ele>18.0</ele><time>2026-04-19T14:50:57.13Z</time></trkpt><trkpt lat="39.6891793" lon="15.8180596"><ele>18.0</ele><time>2026-04-19T14:50:58.13Z</time></trkpt><trkpt lat="39.6892743" lon="15.8180243"><ele>18.0</ele><time>2026-04-19T14:50:59.13Z</time></trkpt><trkpt lat="39.6893602" lon="15.8179921"><ele>18.833333333333332</ele><time>2026-04-19T14:51:00.129Z</time></trkpt><trkpt lat="39.6894427" lon="15.8179671"><ele>19.666666666666668</ele><time>2026-04-19T14:51:01.13Z</time></trkpt><trkpt lat="39.6895206" lon="15.8179588"><ele>20.5</ele><time>2026-04-19T14:51:02.13Z</time></trkpt><trkpt lat="39.6895922" lon="15.8179562"><ele>21.333333333333336</ele><time>2026-04-19T14:51:03.129Z</time></trkpt><trkpt lat="39.6896625" lon="15.8179359"><ele>22.166666666666668</ele><time>2026-04-19T14:51:04.129Z</time></trkpt><trkpt lat="39.6897285" lon="15.8178899"><ele>23.0</ele><time>2026-04-19T14:51:05.13Z</time></trkpt><trkpt lat="39.6897955" lon="15.817841"><ele>23.0</ele><time>2026-04-19T14:51:06.129Z</time></trkpt><trkpt lat="39.6898718" lon="15.8177939"><ele>23.0</ele><time>2026-04-19T14:51:07.13Z</time></trkpt><trkpt lat="39.6899547" lon="15.817755"><ele>23.0</ele><time>2026-04-19T14:51:08.129Z</time></trkpt><trkpt lat="39.6900485" lon="15.8177171"><ele>23.0</ele><time>2026-04-19T14:51:09.129Z</time></trkpt><trkpt lat="39.6901512" lon="15.8176778"><ele>23.0</ele><time>2026-04-19T14:51:10.13Z</time></trkpt><trkpt lat="39.6902641" lon="15.8176358"><ele>21.25</ele><time>2026-04-19T14:51:11.129Z</time></trkpt><trkpt lat="39.6903824" lon="15.8175913"><ele>19.5</ele><time>2026-04-19T14:51:12.13Z</time></trkpt><trkpt lat="39.6905035" lon="15.8175484"><ele>17.75</ele><time>2026-04-19T14:51:13.129Z</time></trkpt><trkpt lat="39.6906298" lon="15.8174988"><ele>16.0</ele><time>2026-04-19T14:51:14.129Z</time></trkpt><trkpt lat="39.6907551" lon="15.8174431"><ele>16.0</ele><time>2026-04-19T14:51:15.13Z</time></trkpt><trkpt lat="39.6908786" lon="15.8173946"><ele>16.0</ele><time>2026-04-19T14:51:16.129Z</time></trkpt><trkpt lat="39.6909975" lon="15.8173484"><ele>16.0</ele><time>2026-04-19T14:51:17.129Z</time></trkpt><trkpt lat="39.6911168" lon="15.8172989"><ele>16.0</ele><time>2026-04-19T14:51:18.129Z</time></trkpt><trkpt lat="39.6912362" lon="15.8172499"><ele>16.25</ele><time>2026-04-19T14:51:19.129Z</time></trkpt><trkpt lat="39.6913599" lon="15.817198"><ele>16.5</ele><time>2026-04-19T14:51:20.13Z</time></trkpt><trkpt lat="39.6914835" lon="15.8171452"><ele>16.75</ele><time>2026-04-19T14:51:21.13Z</time></trkpt><trkpt lat="39.691604" lon="15.8170994"><ele>17.0</ele><time>2026-04-19T14:51:22.13Z</time></trkpt><trkpt lat="39.6917175" lon="15.8170571"><ele>17.0</ele><time>2026-04-19T14:51:23.13Z</time></trkpt><trkpt lat="39.6918333" lon="15.817013"><ele>17.0</ele><time>2026-04-19T14:51:24.13Z</time></trkpt><trkpt lat="39.6919522" lon="15.8169636"><ele>17.0</ele><time>2026-04-19T14:51:25.129Z</time></trkpt><trkpt lat="39.6920808" lon="15.8169169"><ele>17.0</ele><time>2026-04-19T14:51:26.129Z</time></trkpt><trkpt lat="39.6922018" lon="15.816866"><ele>15.75</ele><time>2026-04-19T14:51:27.13Z</time></trkpt><trkpt lat="39.6923153" lon="15.816817"><ele>14.5</ele><time>2026-04-19T14:51:28.13Z</time></trkpt><trkpt lat="39.6924324" lon="15.8167685"><ele>13.25</ele><time>2026-04-19T14:51:29.129Z</time></trkpt><trkpt lat="39.6925561" lon="15.8167193"><ele>12.0</ele><time>2026-04-19T14:51:30.129Z</time></trkpt><trkpt lat="39.6926808" lon="15.8166702"><ele>13.0</ele><time>2026-04-19T14:51:31.129Z</time></trkpt><trkpt lat="39.6928095" lon="15.8166226"><ele>14.0</ele><time>2026-04-19T14:51:32.129Z</time></trkpt><trkpt lat="39.6929397" lon="15.8165713"><ele>15.0</ele><time>2026-04-19T14:51:33.129Z</time></trkpt><trkpt lat="39.6930684" lon="15.8165195"><ele>16.0</ele><time>2026-04-19T14:51:34.13Z</time></trkpt><trkpt lat="39.6931953" lon="15.8164718"><ele>16.0</ele><time>2026-04-19T14:51:35.13Z</time></trkpt><trkpt lat="39.6933166" lon="15.8164234"><ele>16.0</ele><time>2026-04-19T14:51:36.129Z</time></trkpt><trkpt lat="39.6934368" lon="15.8163761"><ele>16.0</ele><time>2026-04-19T14:51:37.129Z</time></trkpt><trkpt lat="39.6935574" lon="15.8163257"><ele>16.0</ele><time>2026-04-19T14:51:38.13Z</time></trkpt><trkpt lat="39.6936749" lon="15.8162803"><ele>16.0</ele><time>2026-04-19T14:51:39.129Z</time></trkpt><trkpt lat="39.6937937" lon="15.816236"><ele>16.0</ele><time>2026-04-19T14:51:40.129Z</time></trkpt><trkpt lat="39.6939101" lon="15.8161868"><ele>16.0</ele><time>2026-04-19T14:51:41.129Z</time></trkpt><trkpt lat="39.6940255" lon="15.8161406"><ele>16.0</ele><time>2026-04-19T14:51:42.129Z</time></trkpt><trkpt lat="39.6941397" lon="15.8160971"><ele>16.0</ele><time>2026-04-19T14:51:43.13Z</time></trkpt><trkpt lat="39.6942434" lon="15.8160511"><ele>16.0</ele><time>2026-04-19T14:51:44.13Z</time></trkpt><trkpt lat="39.6943435" lon="15.8160073"><ele>16.0</ele><time>2026-04-19T14:51:45.13Z</time></trkpt><trkpt lat="39.6944505" lon="15.8159631"><ele>16.0</ele><time>2026-04-19T14:51:46.129Z</time></trkpt><trkpt lat="39.6945614" lon="15.8159192"><ele>16.0</ele><time>2026-04-19T14:51:47.129Z</time></trkpt><trkpt lat="39.6946813" lon="15.8158736"><ele>16.5</ele><time>2026-04-19T14:51:48.13Z</time></trkpt><trkpt lat="39.6948166" lon="15.8158241"><ele>17.0</ele><time>2026-04-19T14:51:49.129Z</time></trkpt><trkpt lat="39.6949602" lon="15.8157707"><ele>17.5</ele><time>2026-04-19T14:51:50.129Z</time></trkpt><trkpt lat="39.6951028" lon="15.815714"><ele>18.0</ele><time>2026-04-19T14:51:51.13Z</time></trkpt><trkpt lat="39.6952444" lon="15.8156541"><ele>20.333333333333336</ele><time>2026-04-19T14:51:52.13Z</time></trkpt><trkpt lat="39.6954028" lon="15.8155826"><ele>22.666666666666668</ele><time>2026-04-19T14:51:53.129Z</time></trkpt><trkpt lat="39.6955808" lon="15.8155009"><ele>25.0</ele><time>2026-04-19T14:51:54.129Z</time></trkpt><trkpt lat="39.6957805" lon="15.8154174"><ele>25.0</ele><time>2026-04-19T14:51:55.129Z</time></trkpt><trkpt lat="39.6960085" lon="15.8153305"><ele>25.0</ele><time>2026-04-19T14:51:56.13Z</time></trkpt><trkpt lat="39.6962502" lon="15.8152348"><ele>19.0</ele><time>2026-04-19T14:51:57.129Z</time></trkpt><trkpt lat="39.6965007" lon="15.815141"><ele>13.0</ele><time>2026-04-19T14:51:58.13Z</time></trkpt><trkpt lat="39.6967501" lon="15.8150478"><ele>14.5</ele><time>2026-04-19T14:51:59.13Z</time></trkpt><trkpt lat="39.6969889" lon="15.8149594"><ele>16.0</ele><time>2026-04-19T14:52:00.129Z</time></trkpt><trkpt lat="39.6972344" lon="15.8148589"><ele>16.0</ele><time>2026-04-19T14:52:01.129Z</time></trkpt><trkpt lat="39.6974909" lon="15.8147482"><ele>16.0</ele><time>2026-04-19T14:52:02.13Z</time></trkpt><trkpt lat="39.6977494" lon="15.8146535"><ele>16.5</ele><time>2026-04-19T14:52:03.129Z</time></trkpt><trkpt lat="39.6980061" lon="15.8145614"><ele>17.0</ele><time>2026-04-19T14:52:04.129Z</time></trkpt><trkpt lat="39.6982538" lon="15.8144746"><ele>17.0</ele><time>2026-04-19T14:52:05.13Z</time></trkpt><trkpt lat="39.6984896" lon="15.8143887"><ele>17.0</ele><time>2026-04-19T14:52:06.13Z</time></trkpt><trkpt lat="39.6987201" lon="15.8143019"><ele>15.0</ele><time>2026-04-19T14:52:07.129Z</time></trkpt><trkpt lat="39.6989512" lon="15.8142245"><ele>13.0</ele><time>2026-04-19T14:52:08.129Z</time></trkpt><trkpt lat="39.6991828" lon="15.8141672"><ele>13.5</ele><time>2026-04-19T14:52:09.13Z</time></trkpt><trkpt lat="39.6994182" lon="15.8141209"><ele>14.0</ele><time>2026-04-19T14:52:10.13Z</time></trkpt><trkpt lat="39.6996614" lon="15.8140784"><ele>14.0</ele><time>2026-04-19T14:52:11.13Z</time></trkpt><trkpt lat="39.6999062" lon="15.8140536"><ele>14.0</ele><time>2026-04-19T14:52:12.129Z</time></trkpt><trkpt lat="39.7001567" lon="15.8140403"><ele>15.5</ele><time>2026-04-19T14:52:13.129Z</time></trkpt><trkpt lat="39.7004121" lon="15.8140394"><ele>17.0</ele><time>2026-04-19T14:52:14.13Z</time></trkpt><trkpt lat="39.7006676" lon="15.8140451"><ele>17.0</ele><time>2026-04-19T14:52:15.13Z</time></trkpt><trkpt lat="39.700927" lon="15.8140567"><ele>17.0</ele><time>2026-04-19T14:52:16.13Z</time></trkpt><trkpt lat="39.7011906" lon="15.8140651"><ele>18.5</ele><time>2026-04-19T14:52:17.13Z</time></trkpt><trkpt lat="39.701457" lon="15.8140707"><ele>20.0</ele><time>2026-04-19T14:52:18.13Z</time></trkpt><trkpt lat="39.7017202" lon="15.8140755"><ele>18.0</ele><time>2026-04-19T14:52:19.13Z</time></trkpt><trkpt lat="39.7019816" lon="15.8140822"><ele>16.0</ele><time>2026-04-19T14:52:20.13Z</time></trkpt><trkpt lat="39.702232" lon="15.8140875"><ele>16.0</ele><time>2026-04-19T14:52:21.129Z</time></trkpt><trkpt lat="39.7024809" lon="15.8140922"><ele>16.0</ele><time>2026-04-19T14:52:22.129Z</time></trkpt><trkpt lat="39.7027313" lon="15.8141026"><ele>15.0</ele><time>2026-04-19T14:52:23.13Z</time></trkpt><trkpt lat="39.7029774" lon="15.8141085"><ele>14.0</ele><time>2026-04-19T14:52:24.129Z</time></trkpt><trkpt lat="39.7032179" lon="15.8141149"><ele>14.0</ele><time>2026-04-19T14:52:25.129Z</time></trkpt><trkpt lat="39.7034547" lon="15.8141254"><ele>14.0</ele><time>2026-04-19T14:52:26.129Z</time></trkpt><trkpt lat="39.7036916" lon="15.8141343"><ele>14.0</ele><time>2026-04-19T14:52:27.13Z</time></trkpt><trkpt lat="39.7039266" lon="15.8141445"><ele>14.0</ele><time>2026-04-19T14:52:28.13Z</time></trkpt><trkpt lat="39.7041722" lon="15.8141505"><ele>14.0</ele><time>2026-04-19T14:52:29.129Z</time></trkpt><trkpt lat="39.7044202" lon="15.8141534"><ele>14.0</ele><time>2026-04-19T14:52:30.129Z</time></trkpt><trkpt lat="39.7046694" lon="15.8141568"><ele>14.0</ele><time>2026-04-19T14:52:31.13Z</time></trkpt><trkpt lat="39.7049242" lon="15.8141588"><ele>14.0</ele><time>2026-04-19T14:52:32.13Z</time></trkpt><trkpt lat="39.7051759" lon="15.8141559"><ele>15.0</ele><time>2026-04-19T14:52:33.13Z</time></trkpt><trkpt lat="39.7054308" lon="15.8141459"><ele>16.0</ele><time>2026-04-19T14:52:34.13Z</time></trkpt><trkpt lat="39.7056928" lon="15.8141196"><ele>16.0</ele><time>2026-04-19T14:52:35.129Z</time></trkpt><trkpt lat="39.7059512" lon="15.8140953"><ele>16.0</ele><time>2026-04-19T14:52:36.129Z</time></trkpt><trkpt lat="39.706209" lon="15.8140663"><ele>14.0</ele><time>2026-04-19T14:52:37.129Z</time></trkpt><trkpt lat="39.7064662" lon="15.814035"><ele>12.0</ele><time>2026-04-19T14:52:38.129Z</time></trkpt><trkpt lat="39.706724" lon="15.8140019"><ele>12.0</ele><time>2026-04-19T14:52:39.129Z</time></trkpt><trkpt lat="39.7069732" lon="15.8139721"><ele>12.0</ele><time>2026-04-19T14:52:40.13Z</time></trkpt><trkpt lat="39.7072128" lon="15.8139393"><ele>12.0</ele><time>2026-04-19T14:52:41.129Z</time></trkpt><trkpt lat="39.7074476" lon="15.8139097"><ele>12.0</ele><time>2026-04-19T14:52:42.129Z</time></trkpt><trkpt lat="39.7076718" lon="15.8138831"><ele>12.333333333333332</ele><time>2026-04-19T14:52:43.13Z</time></trkpt><trkpt lat="39.7078924" lon="15.813858"><ele>12.666666666666666</ele><time>2026-04-19T14:52:44.129Z</time></trkpt><trkpt lat="39.7081103" lon="15.8138337"><ele>13.0</ele><time>2026-04-19T14:52:45.129Z</time></trkpt><trkpt lat="39.7083221" lon="15.8138148"><ele>13.0</ele><time>2026-04-19T14:52:46.13Z</time></trkpt><trkpt lat="39.7085281" lon="15.8137941"><ele>13.0</ele><time>2026-04-19T14:52:47.129Z</time></trkpt><trkpt lat="39.7087231" lon="15.813774"><ele>13.0</ele><time>2026-04-19T14:52:48.129Z</time></trkpt><trkpt lat="39.7089054" lon="15.8137475"><ele>15.0</ele><time>2026-04-19T14:52:49.129Z</time></trkpt><trkpt lat="39.7090833" lon="15.8137304"><ele>17.0</ele><time>2026-04-19T14:52:50.129Z</time></trkpt><trkpt lat="39.7092613" lon="15.813707"><ele>19.0</ele><time>2026-04-19T14:52:51.129Z</time></trkpt><trkpt lat="39.7094363" lon="15.8136863"><ele>24.333333333333332</ele><time>2026-04-19T14:52:52.13Z</time></trkpt><trkpt lat="39.7096108" lon="15.8136638"><ele>29.666666666666664</ele><time>2026-04-19T14:52:53.129Z</time></trkpt><trkpt lat="39.7097862" lon="15.8136385"><ele>35.0</ele><time>2026-04-19T14:52:54.13Z</time></trkpt><trkpt lat="39.709961" lon="15.8136052"><ele>35.0</ele><time>2026-04-19T14:52:55.129Z</time></trkpt><trkpt lat="39.7101391" lon="15.8135616"><ele>35.0</ele><time>2026-04-19T14:52:56.129Z</time></trkpt><trkpt lat="39.7103068" lon="15.8135036"><ele>35.0</ele><time>2026-04-19T14:52:57.129Z</time></trkpt><trkpt lat="39.7104659" lon="15.813447"><ele>32.666666666666664</ele><time>2026-04-19T14:52:58.13Z</time></trkpt><trkpt lat="39.7106196" lon="15.8133896"><ele>30.333333333333336</ele><time>2026-04-19T14:52:59.129Z</time></trkpt><trkpt lat="39.7107637" lon="15.8133317"><ele>28.0</ele><time>2026-04-19T14:53:00.129Z</time></trkpt><trkpt lat="39.7108961" lon="15.8132737"><ele>28.0</ele><time>2026-04-19T14:53:01.129Z</time></trkpt><trkpt lat="39.7110212" lon="15.8132201"><ele>28.0</ele><time>2026-04-19T14:53:02.13Z</time></trkpt><trkpt lat="39.7111491" lon="15.8131669"><ele>28.0</ele><time>2026-04-19T14:53:03.13Z</time></trkpt><trkpt lat="39.711271" lon="15.8131076"><ele>28.0</ele><time>2026-04-19T14:53:04.13Z</time></trkpt><trkpt lat="39.7113927" lon="15.8130363"><ele>29.75</ele><time>2026-04-19T14:53:05.129Z</time></trkpt><trkpt lat="39.7115087" lon="15.8129564"><ele>31.5</ele><time>2026-04-19T14:53:06.129Z</time></trkpt><trkpt lat="39.7116262" lon="15.8128711"><ele>33.25</ele><time>2026-04-19T14:53:07.129Z</time></trkpt><trkpt lat="39.7117323" lon="15.8127827"><ele>35.0</ele><time>2026-04-19T14:53:08.129Z</time></trkpt><trkpt lat="39.7118284" lon="15.8127039"><ele>34.4</ele><time>2026-04-19T14:53:09.129Z</time></trkpt><trkpt lat="39.7119101" lon="15.8126208"><ele>33.8</ele><time>2026-04-19T14:53:10.129Z</time></trkpt><trkpt lat="39.7119891" lon="15.8125515"><ele>33.2</ele><time>2026-04-19T14:53:11.129Z</time></trkpt><trkpt lat="39.7120533" lon="15.8124872"><ele>32.6</ele><time>2026-04-19T14:53:12.13Z</time></trkpt><trkpt lat="39.7121073" lon="15.8124273"><ele>32.0</ele><time>2026-04-19T14:53:13.13Z</time></trkpt><trkpt lat="39.712205" lon="15.8123171"><ele>32.0</ele><time>2026-04-19T14:53:15.129Z</time></trkpt><trkpt lat="39.7122671" lon="15.8122593"><ele>32.0</ele><time>2026-04-19T14:53:16.129Z</time></trkpt><trkpt lat="39.7123343" lon="15.8121955"><ele>32.0</ele><time>2026-04-19T14:53:17.13Z</time></trkpt><trkpt lat="39.7124075" lon="15.8121257"><ele>32.0</ele><time>2026-04-19T14:53:18.129Z</time></trkpt><trkpt lat="39.7124916" lon="15.8120575"><ele>32.0</ele><time>2026-04-19T14:53:19.129Z</time></trkpt><trkpt lat="39.7125902" lon="15.812005"><ele>32.0</ele><time>2026-04-19T14:53:20.13Z</time></trkpt><trkpt lat="39.7127054" lon="15.8119642"><ele>32.0</ele><time>2026-04-19T14:53:21.129Z</time></trkpt><trkpt lat="39.7128272" lon="15.8119272"><ele>32.0</ele><time>2026-04-19T14:53:22.129Z</time></trkpt><trkpt lat="39.7129511" lon="15.8118968"><ele>32.0</ele><time>2026-04-19T14:53:23.129Z</time></trkpt><trkpt lat="39.71308" lon="15.8118698"><ele>32.0</ele><time>2026-04-19T14:53:24.13Z</time></trkpt><trkpt lat="39.7132274" lon="15.8118398"><ele>32.0</ele><time>2026-04-19T14:53:25.13Z</time></trkpt><trkpt lat="39.7133482" lon="15.8118224"><ele>32.0</ele><time>2026-04-19T14:53:26.129Z</time></trkpt><trkpt lat="39.7134805" lon="15.8117991"><ele>32.0</ele><time>2026-04-19T14:53:27.13Z</time></trkpt><trkpt lat="39.7136283" lon="15.811776"><ele>33.0</ele><time>2026-04-19T14:53:28.13Z</time></trkpt><trkpt lat="39.7137552" lon="15.811755"><ele>34.0</ele><time>2026-04-19T14:53:29.13Z</time></trkpt><trkpt lat="39.7139199" lon="15.8117181"><ele>35.0</ele><time>2026-04-19T14:53:30.13Z</time></trkpt><trkpt lat="39.7140821" lon="15.8116802"><ele>35.0</ele><time>2026-04-19T14:53:31.13Z</time></trkpt><trkpt lat="39.7142398" lon="15.8116492"><ele>35.0</ele><time>2026-04-19T14:53:32.129Z</time></trkpt><trkpt lat="39.7144011" lon="15.8116129"><ele>35.0</ele><time>2026-04-19T14:53:33.129Z</time></trkpt><trkpt lat="39.7145632" lon="15.8115845"><ele>35.666666666666664</ele><time>2026-04-19T14:53:34.129Z</time></trkpt><trkpt lat="39.71473" lon="15.8115579"><ele>36.333333333333336</ele><time>2026-04-19T14:53:35.129Z</time></trkpt><trkpt lat="39.7148859" lon="15.8115351"><ele>37.0</ele><time>2026-04-19T14:53:36.129Z</time></trkpt><trkpt lat="39.7150484" lon="15.8115177"><ele>37.0</ele><time>2026-04-19T14:53:37.13Z</time></trkpt><trkpt lat="39.7152084" lon="15.8115049"><ele>37.0</ele><time>2026-04-19T14:53:38.13Z</time></trkpt><trkpt lat="39.7153726" lon="15.8114956"><ele>37.0</ele><time>2026-04-19T14:53:39.129Z</time></trkpt><trkpt lat="39.7155363" lon="15.8114921"><ele>36.333333333333336</ele><time>2026-04-19T14:53:40.129Z</time></trkpt><trkpt lat="39.7157026" lon="15.8114978"><ele>35.666666666666664</ele><time>2026-04-19T14:53:41.129Z</time></trkpt><trkpt lat="39.7158696" lon="15.8115021"><ele>35.0</ele><time>2026-04-19T14:53:42.129Z</time></trkpt><trkpt lat="39.7160363" lon="15.8115145"><ele>33.0</ele><time>2026-04-19T14:53:43.129Z</time></trkpt><trkpt lat="39.7161966" lon="15.8115314"><ele>31.0</ele><time>2026-04-19T14:53:44.129Z</time></trkpt><trkpt lat="39.7163504" lon="15.8115567"><ele>29.0</ele><time>2026-04-19T14:53:45.129Z</time></trkpt><trkpt lat="39.716499" lon="15.8115775"><ele>29.0</ele><time>2026-04-19T14:53:46.129Z</time></trkpt><trkpt lat="39.7166377" lon="15.8115985"><ele>29.0</ele><time>2026-04-19T14:53:47.13Z</time></trkpt><trkpt lat="39.7167721" lon="15.8116235"><ele>29.0</ele><time>2026-04-19T14:53:48.13Z</time></trkpt><trkpt lat="39.7169065" lon="15.8116495"><ele>29.0</ele><time>2026-04-19T14:53:49.129Z</time></trkpt><trkpt lat="39.7170323" lon="15.8116698"><ele>27.4</ele><time>2026-04-19T14:53:50.129Z</time></trkpt><trkpt lat="39.7171473" lon="15.8116914"><ele>25.799999999999997</ele><time>2026-04-19T14:53:51.13Z</time></trkpt><trkpt lat="39.7172585" lon="15.8117106"><ele>24.200000000000003</ele><time>2026-04-19T14:53:52.13Z</time></trkpt><trkpt lat="39.7173597" lon="15.8117297"><ele>22.6</ele><time>2026-04-19T14:53:53.129Z</time></trkpt><trkpt lat="39.7174546" lon="15.8117496"><ele>21.0</ele><time>2026-04-19T14:53:54.129Z</time></trkpt><trkpt lat="39.7175291" lon="15.8117809"><ele>21.0</ele><time>2026-04-19T14:53:55.13Z</time></trkpt><trkpt lat="39.7175961" lon="15.811818"><ele>21.0</ele><time>2026-04-19T14:53:56.129Z</time></trkpt><trkpt lat="39.7176606" lon="15.8118791"><ele>21.0</ele><time>2026-04-19T14:53:57.129Z</time></trkpt><trkpt lat="39.7177085" lon="15.8119669"><ele>21.0</ele><time>2026-04-19T14:53:58.129Z</time></trkpt><trkpt lat="39.717746" lon="15.8120686"><ele>21.0</ele><time>2026-04-19T14:53:59.129Z</time></trkpt><trkpt lat="39.7177825" lon="15.8121796"><ele>21.0</ele><time>2026-04-19T14:54:00.129Z</time></trkpt><trkpt lat="39.7178087" lon="15.812295"><ele>18.6</ele><time>2026-04-19T14:54:01.13Z</time></trkpt><trkpt lat="39.7178316" lon="15.8124254"><ele>16.200000000000003</ele><time>2026-04-19T14:54:02.129Z</time></trkpt><trkpt lat="39.7178172" lon="15.812563"><ele>13.8</ele><time>2026-04-19T14:54:03.13Z</time></trkpt><trkpt lat="39.7177916" lon="15.8126918"><ele>11.4</ele><time>2026-04-19T14:54:04.13Z</time></trkpt><trkpt lat="39.7177672" lon="15.8128313"><ele>9.0</ele><time>2026-04-19T14:54:05.129Z</time></trkpt><trkpt lat="39.7177421" lon="15.8129721"><ele>9.0</ele><time>2026-04-19T14:54:06.13Z</time></trkpt><trkpt lat="39.7177315" lon="15.8131107"><ele>9.0</ele><time>2026-04-19T14:54:07.13Z</time></trkpt><trkpt lat="39.7177458" lon="15.8132513"><ele>9.0</ele><time>2026-04-19T14:54:08.129Z</time></trkpt><trkpt lat="39.7177873" lon="15.8133885"><ele>9.0</ele><time>2026-04-19T14:54:09.13Z</time></trkpt><trkpt lat="39.7178344" lon="15.8135282"><ele>9.0</ele><time>2026-04-19T14:54:10.129Z</time></trkpt><trkpt lat="39.717882" lon="15.8136689"><ele>10.2</ele><time>2026-04-19T14:54:11.13Z</time></trkpt><trkpt lat="39.7179189" lon="15.8138143"><ele>11.4</ele><time>2026-04-19T14:54:12.129Z</time></trkpt><trkpt lat="39.7179366" lon="15.8139461"><ele>12.6</ele><time>2026-04-19T14:54:13.13Z</time></trkpt><trkpt lat="39.7179241" lon="15.8140812"><ele>13.8</ele><time>2026-04-19T14:54:14.13Z</time></trkpt><trkpt lat="39.7178955" lon="15.8142078"><ele>15.0</ele><time>2026-04-19T14:54:15.129Z</time></trkpt><trkpt lat="39.7178521" lon="15.8143095"><ele>16.833333333333332</ele><time>2026-04-19T14:54:16.129Z</time></trkpt><trkpt lat="39.7177941" lon="15.8144183"><ele>18.666666666666664</ele><time>2026-04-19T14:54:18.13Z</time></trkpt><trkpt lat="39.7177885" lon="15.8145037"><ele>20.5</ele><time>2026-04-19T14:54:20.13Z</time></trkpt><trkpt lat="39.7178139" lon="15.8146016"><ele>22.333333333333332</ele><time>2026-04-19T14:54:22.13Z</time></trkpt><trkpt lat="39.717848" lon="15.8147308"><ele>24.166666666666664</ele><time>2026-04-19T14:54:24.13Z</time></trkpt><trkpt lat="39.7178885" lon="15.8148146"><ele>26.0</ele><time>2026-04-19T14:54:25.129Z</time></trkpt><trkpt lat="39.7179695" lon="15.8148978"><ele>26.0</ele><time>2026-04-19T14:54:26.13Z</time></trkpt><trkpt lat="39.7180422" lon="15.8149782"><ele>26.0</ele><time>2026-04-19T14:54:27.129Z</time></trkpt><trkpt lat="39.7181203" lon="15.8150639"><ele>26.0</ele><time>2026-04-19T14:54:28.13Z</time></trkpt><trkpt lat="39.7181897" lon="15.8151449"><ele>26.0</ele><time>2026-04-19T14:54:29.129Z</time></trkpt><trkpt lat="39.7182592" lon="15.8152201"><ele>26.0</ele><time>2026-04-19T14:54:30.13Z</time></trkpt><trkpt lat="39.7183275" lon="15.815305"><ele>24.8</ele><time>2026-04-19T14:54:31.129Z</time></trkpt><trkpt lat="39.7183903" lon="15.8154016"><ele>23.6</ele><time>2026-04-19T14:54:32.13Z</time></trkpt><trkpt lat="39.718455" lon="15.8155063"><ele>22.4</ele><time>2026-04-19T14:54:33.129Z</time></trkpt><trkpt lat="39.7185223" lon="15.8156172"><ele>21.2</ele><time>2026-04-19T14:54:34.13Z</time></trkpt><trkpt lat="39.7185907" lon="15.8157376"><ele>20.0</ele><time>2026-04-19T14:54:35.129Z</time></trkpt><trkpt lat="39.7186657" lon="15.815861"><ele>20.0</ele><time>2026-04-19T14:54:36.129Z</time></trkpt><trkpt lat="39.7187428" lon="15.8159853"><ele>20.0</ele><time>2026-04-19T14:54:37.129Z</time></trkpt><trkpt lat="39.7188196" lon="15.8161129"><ele>20.0</ele><time>2026-04-19T14:54:38.13Z</time></trkpt><trkpt lat="39.7188942" lon="15.8162352"><ele>20.0</ele><time>2026-04-19T14:54:39.13Z</time></trkpt><trkpt lat="39.7189741" lon="15.8163654"><ele>23.2</ele><time>2026-04-19T14:54:40.129Z</time></trkpt><trkpt lat="39.7190418" lon="15.8164865"><ele>26.4</ele><time>2026-04-19T14:54:41.13Z</time></trkpt><trkpt lat="39.7191138" lon="15.8166028"><ele>29.6</ele><time>2026-04-19T14:54:42.13Z</time></trkpt><trkpt lat="39.7191918" lon="15.8167063"><ele>32.8</ele><time>2026-04-19T14:54:43.129Z</time></trkpt><trkpt lat="39.7192745" lon="15.8167961"><ele>36.0</ele><time>2026-04-19T14:54:44.13Z</time></trkpt><trkpt lat="39.7193762" lon="15.8168593"><ele>36.0</ele><time>2026-04-19T14:54:45.129Z</time></trkpt><trkpt lat="39.719482" lon="15.8168967"><ele>36.0</ele><time>2026-04-19T14:54:46.13Z</time></trkpt><trkpt lat="39.7195923" lon="15.8169168"><ele>36.0</ele><time>2026-04-19T14:54:47.13Z</time></trkpt><trkpt lat="39.7196953" lon="15.8169231"><ele>36.0</ele><time>2026-04-19T14:54:48.13Z</time></trkpt><trkpt lat="39.7197902" lon="15.8169284"><ele>36.0</ele><time>2026-04-19T14:54:49.129Z</time></trkpt><trkpt lat="39.7198797" lon="15.8169326"><ele>36.0</ele><time>2026-04-19T14:54:50.129Z</time></trkpt><trkpt lat="39.7199584" lon="15.8169487"><ele>36.0</ele><time>2026-04-19T14:54:51.129Z</time></trkpt><trkpt lat="39.7200405" lon="15.8170003"><ele>36.0</ele><time>2026-04-19T14:54:52.13Z</time></trkpt><trkpt lat="39.7201113" lon="15.8170816"><ele>36.0</ele><time>2026-04-19T14:54:53.129Z</time></trkpt><trkpt lat="39.720198" lon="15.8172186"><ele>36.0</ele><time>2026-04-19T14:54:54.129Z</time></trkpt><trkpt lat="39.720282" lon="15.817349"><ele>34.0</ele><time>2026-04-19T14:54:55.13Z</time></trkpt><trkpt lat="39.7203605" lon="15.8174769"><ele>32.0</ele><time>2026-04-19T14:54:56.13Z</time></trkpt><trkpt lat="39.7204334" lon="15.8175917"><ele>30.0</ele><time>2026-04-19T14:54:57.129Z</time></trkpt><trkpt lat="39.7205083" lon="15.8177108"><ele>28.0</ele><time>2026-04-19T14:54:58.13Z</time></trkpt><trkpt lat="39.7205875" lon="15.8178345"><ele>28.0</ele><time>2026-04-19T14:54:59.13Z</time></trkpt><trkpt lat="39.7206652" lon="15.817971"><ele>28.0</ele><time>2026-04-19T14:55:00.129Z</time></trkpt><trkpt lat="39.720733" lon="15.8180965"><ele>28.0</ele><time>2026-04-19T14:55:01.129Z</time></trkpt><trkpt lat="39.7207958" lon="15.81823"><ele>28.0</ele><time>2026-04-19T14:55:02.13Z</time></trkpt><trkpt lat="39.7208555" lon="15.8183616"><ele>28.799999999999997</ele><time>2026-04-19T14:55:03.13Z</time></trkpt><trkpt lat="39.7209106" lon="15.8184943"><ele>29.599999999999998</ele><time>2026-04-19T14:55:04.13Z</time></trkpt><trkpt lat="39.7209572" lon="15.818617"><ele>30.400000000000002</ele><time>2026-04-19T14:55:05.13Z</time></trkpt><trkpt lat="39.7209901" lon="15.8187388"><ele>31.200000000000003</ele><time>2026-04-19T14:55:06.13Z</time></trkpt><trkpt lat="39.7210193" lon="15.8188711"><ele>32.0</ele><time>2026-04-19T14:55:07.13Z</time></trkpt><trkpt lat="39.7210356" lon="15.8190131"><ele>32.0</ele><time>2026-04-19T14:55:08.129Z</time></trkpt><trkpt lat="39.7210522" lon="15.8191393"><ele>32.0</ele><time>2026-04-19T14:55:09.129Z</time></trkpt><trkpt lat="39.7210931" lon="15.8192671"><ele>32.0</ele><time>2026-04-19T14:55:10.13Z</time></trkpt><trkpt lat="39.7211731" lon="15.8193641"><ele>32.0</ele><time>2026-04-19T14:55:11.13Z</time></trkpt><trkpt lat="39.7212746" lon="15.8194364"><ele>32.0</ele><time>2026-04-19T14:55:12.129Z</time></trkpt><trkpt lat="39.7213736" lon="15.8195065"><ele>29.8</ele><time>2026-04-19T14:55:13.129Z</time></trkpt><trkpt lat="39.7214616" lon="15.819573"><ele>27.6</ele><time>2026-04-19T14:55:14.129Z</time></trkpt><trkpt lat="39.721544" lon="15.8196361"><ele>25.400000000000002</ele><time>2026-04-19T14:55:15.13Z</time></trkpt><trkpt lat="39.7216127" lon="15.8196911"><ele>23.200000000000003</ele><time>2026-04-19T14:55:16.129Z</time></trkpt><trkpt lat="39.7216741" lon="15.8197721"><ele>21.0</ele><time>2026-04-19T14:55:17.13Z</time></trkpt><trkpt lat="39.7216992" lon="15.8198816"><ele>21.0</ele><time>2026-04-19T14:55:18.13Z</time></trkpt><trkpt lat="39.7217153" lon="15.8200124"><ele>21.0</ele><time>2026-04-19T14:55:19.13Z</time></trkpt><trkpt lat="39.7217383" lon="15.8201633"><ele>21.0</ele><time>2026-04-19T14:55:20.13Z</time></trkpt><trkpt lat="39.721749" lon="15.8203148"><ele>21.0</ele><time>2026-04-19T14:55:21.129Z</time></trkpt><trkpt lat="39.7217634" lon="15.8204685"><ele>19.833333333333332</ele><time>2026-04-19T14:55:22.129Z</time></trkpt><trkpt lat="39.7217768" lon="15.8206049"><ele>18.666666666666668</ele><time>2026-04-19T14:55:23.13Z</time></trkpt><trkpt lat="39.7217971" lon="15.8207261"><ele>17.5</ele><time>2026-04-19T14:55:24.129Z</time></trkpt><trkpt lat="39.7218219" lon="15.8208222"><ele>16.333333333333336</ele><time>2026-04-19T14:55:25.13Z</time></trkpt><trkpt lat="39.7218654" lon="15.8209022"><ele>15.166666666666668</ele><time>2026-04-19T14:55:26.13Z</time></trkpt><trkpt lat="39.7219291" lon="15.8209594"><ele>14.0</ele><time>2026-04-19T14:55:27.129Z</time></trkpt><trkpt lat="39.7220066" lon="15.8209801"><ele>14.0</ele><time>2026-04-19T14:55:28.13Z</time></trkpt><trkpt lat="39.7221031" lon="15.8209624"><ele>14.0</ele><time>2026-04-19T14:55:29.129Z</time></trkpt><trkpt lat="39.7222107" lon="15.8209261"><ele>14.0</ele><time>2026-04-19T14:55:30.129Z</time></trkpt><trkpt lat="39.7223267" lon="15.820878"><ele>14.0</ele><time>2026-04-19T14:55:31.13Z</time></trkpt><trkpt lat="39.7224555" lon="15.8208239"><ele>14.0</ele><time>2026-04-19T14:55:32.13Z</time></trkpt><trkpt lat="39.7225834" lon="15.8207606"><ele>14.0</ele><time>2026-04-19T14:55:33.13Z</time></trkpt><trkpt lat="39.7227144" lon="15.8207006"><ele>14.0</ele><time>2026-04-19T14:55:34.129Z</time></trkpt><trkpt lat="39.7228341" lon="15.8206516"><ele>14.0</ele><time>2026-04-19T14:55:35.129Z</time></trkpt><trkpt lat="39.7229499" lon="15.8206039"><ele>15.0</ele><time>2026-04-19T14:55:36.13Z</time></trkpt><trkpt lat="39.7230633" lon="15.8205559"><ele>16.0</ele><time>2026-04-19T14:55:37.129Z</time></trkpt><trkpt lat="39.7231729" lon="15.8205026"><ele>17.0</ele><time>2026-04-19T14:55:38.13Z</time></trkpt><trkpt lat="39.7232865" lon="15.8204707"><ele>18.0</ele><time>2026-04-19T14:55:39.13Z</time></trkpt><trkpt lat="39.7234054" lon="15.8204577"><ele>18.0</ele><time>2026-04-19T14:55:40.13Z</time></trkpt><trkpt lat="39.7235238" lon="15.8204669"><ele>18.0</ele><time>2026-04-19T14:55:41.13Z</time></trkpt><trkpt lat="39.7236503" lon="15.8204658"><ele>18.0</ele><time>2026-04-19T14:55:42.13Z</time></trkpt><trkpt lat="39.7237777" lon="15.8204478"><ele>18.0</ele><time>2026-04-19T14:55:43.129Z</time></trkpt><trkpt lat="39.723905" lon="15.8204145"><ele>21.0</ele><time>2026-04-19T14:55:44.129Z</time></trkpt><trkpt lat="39.7240389" lon="15.8203831"><ele>24.0</ele><time>2026-04-19T14:55:45.129Z</time></trkpt><trkpt lat="39.7241564" lon="15.8203634"><ele>27.0</ele><time>2026-04-19T14:55:46.13Z</time></trkpt><trkpt lat="39.7242735" lon="15.8203395"><ele>30.0</ele><time>2026-04-19T14:55:47.13Z</time></trkpt><trkpt lat="39.7243909" lon="15.8203212"><ele>31.75</ele><time>2026-04-19T14:55:48.129Z</time></trkpt><trkpt lat="39.7245013" lon="15.8203039"><ele>33.5</ele><time>2026-04-19T14:55:49.129Z</time></trkpt><trkpt lat="39.7246146" lon="15.8202792"><ele>35.25</ele><time>2026-04-19T14:55:50.129Z</time></trkpt><trkpt lat="39.7247307" lon="15.820251"><ele>37.0</ele><time>2026-04-19T14:55:51.13Z</time></trkpt><trkpt lat="39.7248494" lon="15.8202201"><ele>37.0</ele><time>2026-04-19T14:55:52.13Z</time></trkpt><trkpt lat="39.7249616" lon="15.8201878"><ele>37.0</ele><time>2026-04-19T14:55:53.129Z</time></trkpt><trkpt lat="39.7250738" lon="15.8201676"><ele>37.0</ele><time>2026-04-19T14:55:54.129Z</time></trkpt><trkpt lat="39.7251936" lon="15.8201698"><ele>37.0</ele><time>2026-04-19T14:55:55.13Z</time></trkpt><trkpt lat="39.7253143" lon="15.8201999"><ele>37.0</ele><time>2026-04-19T14:55:56.13Z</time></trkpt><trkpt lat="39.7254343" lon="15.8202272"><ele>37.0</ele><time>2026-04-19T14:55:57.13Z</time></trkpt><trkpt lat="39.7255545" lon="15.8202299"><ele>37.0</ele><time>2026-04-19T14:55:58.129Z</time></trkpt><trkpt lat="39.7256767" lon="15.8202114"><ele>37.0</ele><time>2026-04-19T14:55:59.13Z</time></trkpt><trkpt lat="39.7258" lon="15.820174"><ele>33.25</ele><time>2026-04-19T14:56:00.13Z</time></trkpt><trkpt lat="39.725926" lon="15.8201232"><ele>29.5</ele><time>2026-04-19T14:56:01.129Z</time></trkpt><trkpt lat="39.7260357" lon="15.8200794"><ele>25.75</ele><time>2026-04-19T14:56:02.13Z</time></trkpt><trkpt lat="39.7261368" lon="15.8200406"><ele>22.0</ele><time>2026-04-19T14:56:03.129Z</time></trkpt><trkpt lat="39.726237" lon="15.820004"><ele>21.8</ele><time>2026-04-19T14:56:04.129Z</time></trkpt><trkpt lat="39.7263409" lon="15.8199719"><ele>21.6</ele><time>2026-04-19T14:56:05.129Z</time></trkpt><trkpt lat="39.7264511" lon="15.8199468"><ele>21.400000000000002</ele><time>2026-04-19T14:56:06.13Z</time></trkpt><trkpt lat="39.7265677" lon="15.8199392"><ele>21.200000000000003</ele><time>2026-04-19T14:56:07.129Z</time></trkpt><trkpt lat="39.7266799" lon="15.8199415"><ele>21.0</ele><time>2026-04-19T14:56:08.13Z</time></trkpt><trkpt lat="39.7267821" lon="15.8199641"><ele>21.0</ele><time>2026-04-19T14:56:09.13Z</time></trkpt><trkpt lat="39.7268795" lon="15.8200114"><ele>21.0</ele><time>2026-04-19T14:56:10.13Z</time></trkpt><trkpt lat="39.726952" lon="15.8200972"><ele>21.0</ele><time>2026-04-19T14:56:11.129Z</time></trkpt><trkpt lat="39.7270327" lon="15.8201894"><ele>21.0</ele><time>2026-04-19T14:56:12.13Z</time></trkpt><trkpt lat="39.7271212" lon="15.8202445"><ele>21.0</ele><time>2026-04-19T14:56:13.13Z</time></trkpt><trkpt lat="39.7272152" lon="15.8202739"><ele>20.6</ele><time>2026-04-19T14:56:14.13Z</time></trkpt><trkpt lat="39.7273068" lon="15.8202501"><ele>20.200000000000003</ele><time>2026-04-19T14:56:15.13Z</time></trkpt><trkpt lat="39.7273817" lon="15.8202017"><ele>19.799999999999997</ele><time>2026-04-19T14:56:16.13Z</time></trkpt><trkpt lat="39.7274459" lon="15.8201117"><ele>19.4</ele><time>2026-04-19T14:56:17.129Z</time></trkpt><trkpt lat="39.7274982" lon="15.8199826"><ele>19.0</ele><time>2026-04-19T14:56:18.129Z</time></trkpt><trkpt lat="39.7275293" lon="15.8198508"><ele>19.0</ele><time>2026-04-19T14:56:19.13Z</time></trkpt><trkpt lat="39.7275578" lon="15.8197306"><ele>19.0</ele><time>2026-04-19T14:56:20.129Z</time></trkpt><trkpt lat="39.727599" lon="15.8196218"><ele>19.0</ele><time>2026-04-19T14:56:21.129Z</time></trkpt><trkpt lat="39.7276632" lon="15.8195363"><ele>19.0</ele><time>2026-04-19T14:56:22.129Z</time></trkpt><trkpt lat="39.7277485" lon="15.8194862"><ele>19.0</ele><time>2026-04-19T14:56:23.13Z</time></trkpt><trkpt lat="39.7278527" lon="15.8194532"><ele>18.5</ele><time>2026-04-19T14:56:24.13Z</time></trkpt><trkpt lat="39.7279698" lon="15.8194217"><ele>18.0</ele><time>2026-04-19T14:56:25.13Z</time></trkpt><trkpt lat="39.7281048" lon="15.8193866"><ele>17.5</ele><time>2026-04-19T14:56:26.13Z</time></trkpt><trkpt lat="39.7282543" lon="15.8193523"><ele>17.0</ele><time>2026-04-19T14:56:27.13Z</time></trkpt><trkpt lat="39.7284165" lon="15.8193141"><ele>17.333333333333336</ele><time>2026-04-19T14:56:28.129Z</time></trkpt><trkpt lat="39.7285858" lon="15.8192719"><ele>17.666666666666668</ele><time>2026-04-19T14:56:29.129Z</time></trkpt><trkpt lat="39.7287491" lon="15.8192286"><ele>18.0</ele><time>2026-04-19T14:56:30.13Z</time></trkpt><trkpt lat="39.7289031" lon="15.819191"><ele>18.0</ele><time>2026-04-19T14:56:31.13Z</time></trkpt><trkpt lat="39.7290511" lon="15.819158"><ele>18.0</ele><time>2026-04-19T14:56:32.129Z</time></trkpt><trkpt lat="39.7291902" lon="15.819125"><ele>18.0</ele><time>2026-04-19T14:56:33.129Z</time></trkpt><trkpt lat="39.7293231" lon="15.8190943"><ele>18.0</ele><time>2026-04-19T14:56:34.13Z</time></trkpt><trkpt lat="39.7294518" lon="15.8190642"><ele>18.5</ele><time>2026-04-19T14:56:35.129Z</time></trkpt><trkpt lat="39.7295724" lon="15.8190392"><ele>19.0</ele><time>2026-04-19T14:56:36.129Z</time></trkpt><trkpt lat="39.7296862" lon="15.8190277"><ele>19.5</ele><time>2026-04-19T14:56:37.13Z</time></trkpt><trkpt lat="39.7298017" lon="15.8190439"><ele>20.0</ele><time>2026-04-19T14:56:38.129Z</time></trkpt><trkpt lat="39.7299108" lon="15.8191108"><ele>20.0</ele><time>2026-04-19T14:56:39.13Z</time></trkpt><trkpt lat="39.7300168" lon="15.8192088"><ele>20.0</ele><time>2026-04-19T14:56:40.129Z</time></trkpt><trkpt lat="39.7301146" lon="15.8193425"><ele>20.0</ele><time>2026-04-19T14:56:41.13Z</time></trkpt><trkpt lat="39.7302148" lon="15.8194787"><ele>20.0</ele><time>2026-04-19T14:56:42.13Z</time></trkpt><trkpt lat="39.7303151" lon="15.8196133"><ele>21.0</ele><time>2026-04-19T14:56:43.13Z</time></trkpt><trkpt lat="39.7304259" lon="15.8197357"><ele>22.0</ele><time>2026-04-19T14:56:44.129Z</time></trkpt><trkpt lat="39.7305564" lon="15.8198395"><ele>23.0</ele><time>2026-04-19T14:56:45.13Z</time></trkpt><trkpt lat="39.7307002" lon="15.8199238"><ele>23.0</ele><time>2026-04-19T14:56:46.129Z</time></trkpt><trkpt lat="39.7308392" lon="15.8200141"><ele>23.0</ele><time>2026-04-19T14:56:47.13Z</time></trkpt><trkpt lat="39.7309706" lon="15.8201293"><ele>23.0</ele><time>2026-04-19T14:56:48.13Z</time></trkpt><trkpt lat="39.7310824" lon="15.8202449"><ele>24.75</ele><time>2026-04-19T14:56:49.129Z</time></trkpt><trkpt lat="39.7311994" lon="15.8203413"><ele>26.5</ele><time>2026-04-19T14:56:50.129Z</time></trkpt><trkpt lat="39.7313307" lon="15.8204166"><ele>28.25</ele><time>2026-04-19T14:56:51.129Z</time></trkpt><trkpt lat="39.7314637" lon="15.8204628"><ele>30.0</ele><time>2026-04-19T14:56:52.129Z</time></trkpt><trkpt lat="39.7315929" lon="15.8205043"><ele>30.0</ele><time>2026-04-19T14:56:53.13Z</time></trkpt><trkpt lat="39.7317082" lon="15.8205767"><ele>30.0</ele><time>2026-04-19T14:56:54.129Z</time></trkpt><trkpt lat="39.7318116" lon="15.8206761"><ele>30.0</ele><time>2026-04-19T14:56:55.129Z</time></trkpt><trkpt lat="39.7319038" lon="15.8207881"><ele>30.0</ele><time>2026-04-19T14:56:56.129Z</time></trkpt><trkpt lat="39.7319963" lon="15.8209018"><ele>30.75</ele><time>2026-04-19T14:56:57.129Z</time></trkpt><trkpt lat="39.7320949" lon="15.8210099"><ele>31.5</ele><time>2026-04-19T14:56:58.129Z</time></trkpt><trkpt lat="39.7321975" lon="15.8211166"><ele>32.25</ele><time>2026-04-19T14:56:59.129Z</time></trkpt><trkpt lat="39.7322972" lon="15.8212213"><ele>33.0</ele><time>2026-04-19T14:57:00.129Z</time></trkpt><trkpt lat="39.7323894" lon="15.821333"><ele>33.0</ele><time>2026-04-19T14:57:01.13Z</time></trkpt><trkpt lat="39.7324735" lon="15.8214536"><ele>33.0</ele><time>2026-04-19T14:57:02.13Z</time></trkpt><trkpt lat="39.7325667" lon="15.8215746"><ele>33.0</ele><time>2026-04-19T14:57:03.129Z</time></trkpt><trkpt lat="39.7326697" lon="15.821691"><ele>33.0</ele><time>2026-04-19T14:57:04.13Z</time></trkpt><trkpt lat="39.7327887" lon="15.8217947"><ele>33.25</ele><time>2026-04-19T14:57:05.129Z</time></trkpt><trkpt lat="39.7329123" lon="15.8218821"><ele>33.5</ele><time>2026-04-19T14:57:06.13Z</time></trkpt><trkpt lat="39.7330376" lon="15.8219521"><ele>33.75</ele><time>2026-04-19T14:57:07.129Z</time></trkpt><trkpt lat="39.7331641" lon="15.8220344"><ele>34.0</ele><time>2026-04-19T14:57:08.129Z</time></trkpt><trkpt lat="39.7332835" lon="15.822118"><ele>34.0</ele><time>2026-04-19T14:57:09.13Z</time></trkpt><trkpt lat="39.7333999" lon="15.822197"><ele>34.0</ele><time>2026-04-19T14:57:10.13Z</time></trkpt><trkpt lat="39.7335144" lon="15.8222749"><ele>34.0</ele><time>2026-04-19T14:57:11.129Z</time></trkpt><trkpt lat="39.7336265" lon="15.8223419"><ele>34.0</ele><time>2026-04-19T14:57:12.13Z</time></trkpt><trkpt lat="39.7337242" lon="15.8224228"><ele>34.0</ele><time>2026-04-19T14:57:13.13Z</time></trkpt><trkpt lat="39.7338072" lon="15.8225238"><ele>34.0</ele><time>2026-04-19T14:57:14.129Z</time></trkpt><trkpt lat="39.7338648" lon="15.8226481"><ele>34.0</ele><time>2026-04-19T14:57:15.13Z</time></trkpt><trkpt lat="39.7339037" lon="15.8227827"><ele>34.0</ele><time>2026-04-19T14:57:16.13Z</time></trkpt><trkpt lat="39.7339285" lon="15.8229247"><ele>34.0</ele><time>2026-04-19T14:57:17.129Z</time></trkpt><trkpt lat="39.733949" lon="15.823075"><ele>34.0</ele><time>2026-04-19T14:57:18.13Z</time></trkpt><trkpt lat="39.7339507" lon="15.8232096"><ele>34.0</ele><time>2026-04-19T14:57:19.13Z</time></trkpt><trkpt lat="39.7339583" lon="15.8233471"><ele>34.0</ele><time>2026-04-19T14:57:20.129Z</time></trkpt><trkpt lat="39.7339519" lon="15.8234907"><ele>34.0</ele><time>2026-04-19T14:57:21.13Z</time></trkpt><trkpt lat="39.7339359" lon="15.8236305"><ele>34.0</ele><time>2026-04-19T14:57:22.13Z</time></trkpt><trkpt lat="39.733919" lon="15.823778"><ele>33.8</ele><time>2026-04-19T14:57:23.129Z</time></trkpt><trkpt lat="39.733891" lon="15.8239257"><ele>33.599999999999994</ele><time>2026-04-19T14:57:24.129Z</time></trkpt><trkpt lat="39.7338509" lon="15.8240704"><ele>33.4</ele><time>2026-04-19T14:57:25.13Z</time></trkpt><trkpt lat="39.7338095" lon="15.8241882"><ele>33.199999999999996</ele><time>2026-04-19T14:57:26.13Z</time></trkpt><trkpt lat="39.7337721" lon="15.8242924"><ele>33.0</ele><time>2026-04-19T14:57:27.129Z</time></trkpt><trkpt lat="39.7337358" lon="15.8243806"><ele>33.5</ele><time>2026-04-19T14:57:28.129Z</time></trkpt><trkpt lat="39.7337042" lon="15.8244626"><ele>34.0</ele><time>2026-04-19T14:57:29.129Z</time></trkpt><trkpt lat="39.7336623" lon="15.8245957"><ele>34.5</ele><time>2026-04-19T14:57:31.129Z</time></trkpt><trkpt lat="39.7336391" lon="15.8246767"><ele>35.0</ele><time>2026-04-19T14:57:34.129Z</time></trkpt><trkpt lat="39.7336538" lon="15.8247623"><ele>35.5</ele><time>2026-04-19T14:57:36.129Z</time></trkpt><trkpt lat="39.7336746" lon="15.8248521"><ele>36.0</ele><time>2026-04-19T14:57:37.129Z</time></trkpt><trkpt lat="39.7337247" lon="15.8249356"><ele>36.0</ele><time>2026-04-19T14:57:38.13Z</time></trkpt><trkpt lat="39.7337893" lon="15.8250048"><ele>36.0</ele><time>2026-04-19T14:57:39.129Z</time></trkpt><trkpt lat="39.7338507" lon="15.8250624"><ele>36.0</ele><time>2026-04-19T14:57:40.129Z</time></trkpt><trkpt lat="39.7339504" lon="15.8251477"><ele>36.0</ele><time>2026-04-19T14:57:42.129Z</time></trkpt><trkpt lat="39.7340073" lon="15.8251828"><ele>36.0</ele><time>2026-04-19T14:57:43.129Z</time></trkpt><trkpt lat="39.7340629" lon="15.8252292"><ele>36.0</ele><time>2026-04-19T14:57:44.129Z</time></trkpt><trkpt lat="39.7341218" lon="15.8252752"><ele>36.57142857142858</ele><time>2026-04-19T14:57:45.129Z</time></trkpt><trkpt lat="39.7341753" lon="15.8253185"><ele>37.142857142857146</ele><time>2026-04-19T14:57:46.129Z</time></trkpt><trkpt lat="39.7342308" lon="15.8253572"><ele>37.714285714285715</ele><time>2026-04-19T14:57:47.13Z</time></trkpt><trkpt lat="39.7343" lon="15.82535"><ele>38.28571428571429</ele><time>2026-04-19T14:57:48.13Z</time></trkpt><trkpt lat="39.7343644" lon="15.8253258"><ele>38.85714285714286</ele><time>2026-04-19T14:57:49.129Z</time></trkpt><trkpt lat="39.7344332" lon="15.8252819"><ele>39.42857142857143</ele><time>2026-04-19T14:57:50.13Z</time></trkpt><trkpt lat="39.7345249" lon="15.8252067"><ele>40.0</ele><time>2026-04-19T14:57:51.13Z</time></trkpt><trkpt lat="39.7346245" lon="15.825112"><ele>40.6</ele><time>2026-04-19T14:57:52.13Z</time></trkpt><trkpt lat="39.73472" lon="15.825025"><ele>41.2</ele><time>2026-04-19T14:57:53.129Z</time></trkpt><trkpt lat="39.7348117" lon="15.8249544"><ele>41.8</ele><time>2026-04-19T14:57:54.129Z</time></trkpt><trkpt lat="39.7348913" lon="15.8249156"><ele>42.4</ele><time>2026-04-19T14:57:55.13Z</time></trkpt><trkpt lat="39.7349774" lon="15.8249047"><ele>43.0</ele><time>2026-04-19T14:57:56.129Z</time></trkpt><trkpt lat="39.7350642" lon="15.8249118"><ele>43.0</ele><time>2026-04-19T14:57:57.129Z</time></trkpt><trkpt lat="39.7351571" lon="15.8249502"><ele>43.0</ele><time>2026-04-19T14:57:58.129Z</time></trkpt><trkpt lat="39.7352497" lon="15.8249908"><ele>43.0</ele><time>2026-04-19T14:57:59.13Z</time></trkpt><trkpt lat="39.7353548" lon="15.825063"><ele>43.0</ele><time>2026-04-19T14:58:00.129Z</time></trkpt><trkpt lat="39.7354524" lon="15.8251334"><ele>43.0</ele><time>2026-04-19T14:58:01.13Z</time></trkpt><trkpt lat="39.7355441" lon="15.8252033"><ele>44.0</ele><time>2026-04-19T14:58:02.13Z</time></trkpt><trkpt lat="39.735617" lon="15.8252901"><ele>45.0</ele><time>2026-04-19T14:58:03.13Z</time></trkpt><trkpt lat="39.7356734" lon="15.8253903"><ele>46.0</ele><time>2026-04-19T14:58:04.13Z</time></trkpt><trkpt lat="39.7357093" lon="15.825508"><ele>47.0</ele><time>2026-04-19T14:58:05.129Z</time></trkpt><trkpt lat="39.7357147" lon="15.8256396"><ele>48.0</ele><time>2026-04-19T14:58:06.129Z</time></trkpt><trkpt lat="39.7356995" lon="15.8257745"><ele>48.0</ele><time>2026-04-19T14:58:07.129Z</time></trkpt><trkpt lat="39.7356756" lon="15.8259248"><ele>48.0</ele><time>2026-04-19T14:58:08.129Z</time></trkpt><trkpt lat="39.7356454" lon="15.8260846"><ele>48.0</ele><time>2026-04-19T14:58:09.129Z</time></trkpt><trkpt lat="39.7356156" lon="15.8262522"><ele>48.0</ele><time>2026-04-19T14:58:10.13Z</time></trkpt><trkpt lat="39.7355873" lon="15.8264082"><ele>49.0</ele><time>2026-04-19T14:58:11.129Z</time></trkpt><trkpt lat="39.735564" lon="15.8265722"><ele>50.0</ele><time>2026-04-19T14:58:12.129Z</time></trkpt><trkpt lat="39.735557" lon="15.826734"><ele>51.0</ele><time>2026-04-19T14:58:13.129Z</time></trkpt><trkpt lat="39.7355542" lon="15.8269015"><ele>52.0</ele><time>2026-04-19T14:58:14.129Z</time></trkpt><trkpt lat="39.7355597" lon="15.8270672"><ele>53.25</ele><time>2026-04-19T14:58:15.129Z</time></trkpt><trkpt lat="39.7355783" lon="15.8272281"><ele>54.5</ele><time>2026-04-19T14:58:16.13Z</time></trkpt><trkpt lat="39.735604" lon="15.8273852"><ele>55.75</ele><time>2026-04-19T14:58:17.129Z</time></trkpt><trkpt lat="39.7356499" lon="15.8275384"><ele>57.0</ele><time>2026-04-19T14:58:18.13Z</time></trkpt><trkpt lat="39.7357178" lon="15.8276781"><ele>58.25</ele><time>2026-04-19T14:58:19.13Z</time></trkpt><trkpt lat="39.7358056" lon="15.8277995"><ele>59.5</ele><time>2026-04-19T14:58:20.13Z</time></trkpt><trkpt lat="39.7359024" lon="15.8279196"><ele>60.75</ele><time>2026-04-19T14:58:21.129Z</time></trkpt><trkpt lat="39.7359982" lon="15.8280313"><ele>62.0</ele><time>2026-04-19T14:58:22.13Z</time></trkpt><trkpt lat="39.7360996" lon="15.8281352"><ele>62.0</ele><time>2026-04-19T14:58:23.13Z</time></trkpt><trkpt lat="39.73621" lon="15.8282137"><ele>62.0</ele><time>2026-04-19T14:58:24.129Z</time></trkpt><trkpt lat="39.7363297" lon="15.8282731"><ele>62.0</ele><time>2026-04-19T14:58:25.13Z</time></trkpt><trkpt lat="39.7364473" lon="15.8283208"><ele>62.0</ele><time>2026-04-19T14:58:26.129Z</time></trkpt><trkpt lat="39.7365604" lon="15.828367"><ele>62.0</ele><time>2026-04-19T14:58:27.129Z</time></trkpt><trkpt lat="39.7366719" lon="15.8284268"><ele>62.0</ele><time>2026-04-19T14:58:28.129Z</time></trkpt><trkpt lat="39.7367761" lon="15.828508"><ele>62.0</ele><time>2026-04-19T14:58:29.129Z</time></trkpt><trkpt lat="39.7368723" lon="15.8286047"><ele>62.0</ele><time>2026-04-19T14:58:30.129Z</time></trkpt><trkpt lat="39.7369679" lon="15.8287137"><ele>63.25</ele><time>2026-04-19T14:58:31.13Z</time></trkpt><trkpt lat="39.7370644" lon="15.8288289"><ele>64.5</ele><time>2026-04-19T14:58:32.129Z</time></trkpt><trkpt lat="39.73716" lon="15.82895"><ele>65.75</ele><time>2026-04-19T14:58:33.129Z</time></trkpt><trkpt lat="39.7372552" lon="15.8290777"><ele>67.0</ele><time>2026-04-19T14:58:34.13Z</time></trkpt><trkpt lat="39.7373563" lon="15.829201"><ele>67.75</ele><time>2026-04-19T14:58:35.13Z</time></trkpt><trkpt lat="39.7374658" lon="15.8293244"><ele>68.5</ele><time>2026-04-19T14:58:36.13Z</time></trkpt><trkpt lat="39.7375906" lon="15.8294303"><ele>69.25</ele><time>2026-04-19T14:58:37.13Z</time></trkpt><trkpt lat="39.7377243" lon="15.8295289"><ele>70.0</ele><time>2026-04-19T14:58:38.129Z</time></trkpt><trkpt lat="39.7378616" lon="15.8296248"><ele>70.0</ele><time>2026-04-19T14:58:39.129Z</time></trkpt><trkpt lat="39.7380011" lon="15.8297238"><ele>70.0</ele><time>2026-04-19T14:58:40.13Z</time></trkpt><trkpt lat="39.7381467" lon="15.8298225"><ele>70.0</ele><time>2026-04-19T14:58:41.129Z</time></trkpt><trkpt lat="39.7382958" lon="15.8299217"><ele>70.0</ele><time>2026-04-19T14:58:42.129Z</time></trkpt><trkpt lat="39.7384477" lon="15.8300247"><ele>70.0</ele><time>2026-04-19T14:58:43.129Z</time></trkpt><trkpt lat="39.7385987" lon="15.8301336"><ele>70.0</ele><time>2026-04-19T14:58:44.129Z</time></trkpt><trkpt lat="39.738741" lon="15.8302395"><ele>72.0</ele><time>2026-04-19T14:58:45.13Z</time></trkpt><trkpt lat="39.7388776" lon="15.8303381"><ele>74.0</ele><time>2026-04-19T14:58:46.129Z</time></trkpt><trkpt lat="39.7390079" lon="15.8304378"><ele>76.0</ele><time>2026-04-19T14:58:47.129Z</time></trkpt><trkpt lat="39.7391331" lon="15.8305556"><ele>76.0</ele><time>2026-04-19T14:58:48.129Z</time></trkpt><trkpt lat="39.739254" lon="15.830681"><ele>76.0</ele><time>2026-04-19T14:58:49.13Z</time></trkpt><trkpt lat="39.7393695" lon="15.8308067"><ele>76.0</ele><time>2026-04-19T14:58:50.13Z</time></trkpt><trkpt lat="39.7394847" lon="15.8309285"><ele>77.0</ele><time>2026-04-19T14:58:51.13Z</time></trkpt><trkpt lat="39.7396012" lon="15.8310305"><ele>78.0</ele><time>2026-04-19T14:58:52.129Z</time></trkpt><trkpt lat="39.7397136" lon="15.8310988"><ele>79.0</ele><time>2026-04-19T14:58:53.13Z</time></trkpt><trkpt lat="39.739836" lon="15.8311438"><ele>80.0</ele><time>2026-04-19T14:58:54.129Z</time></trkpt><trkpt lat="39.739967" lon="15.8311603"><ele>80.0</ele><time>2026-04-19T14:58:55.129Z</time></trkpt><trkpt lat="39.7400966" lon="15.8311706"><ele>80.0</ele><time>2026-04-19T14:58:56.13Z</time></trkpt><trkpt lat="39.7402297" lon="15.8311858"><ele>80.0</ele><time>2026-04-19T14:58:57.13Z</time></trkpt><trkpt lat="39.7403627" lon="15.831214"><ele>80.0</ele><time>2026-04-19T14:58:58.129Z</time></trkpt><trkpt lat="39.7404883" lon="15.831248"><ele>80.25</ele><time>2026-04-19T14:58:59.13Z</time></trkpt><trkpt lat="39.7406102" lon="15.8312981"><ele>80.5</ele><time>2026-04-19T14:59:00.129Z</time></trkpt><trkpt lat="39.7407257" lon="15.8313686"><ele>80.75</ele><time>2026-04-19T14:59:01.129Z</time></trkpt><trkpt lat="39.7408344" lon="15.8314593"><ele>81.0</ele><time>2026-04-19T14:59:02.13Z</time></trkpt><trkpt lat="39.7409487" lon="15.8315564"><ele>81.0</ele><time>2026-04-19T14:59:03.129Z</time></trkpt><trkpt lat="39.7410611" lon="15.8316652"><ele>81.0</ele><time>2026-04-19T14:59:04.129Z</time></trkpt><trkpt lat="39.7411757" lon="15.8317738"><ele>81.0</ele><time>2026-04-19T14:59:05.129Z</time></trkpt><trkpt lat="39.7412984" lon="15.8318951"><ele>81.0</ele><time>2026-04-19T14:59:06.129Z</time></trkpt><trkpt lat="39.7414215" lon="15.8320156"><ele>82.33333333333333</ele><time>2026-04-19T14:59:07.129Z</time></trkpt><trkpt lat="39.7415477" lon="15.8321414"><ele>83.66666666666666</ele><time>2026-04-19T14:59:08.129Z</time></trkpt><trkpt lat="39.7416719" lon="15.8322682"><ele>85.0</ele><time>2026-04-19T14:59:09.13Z</time></trkpt><trkpt lat="39.7418056" lon="15.8323987"><ele>84.66666666666666</ele><time>2026-04-19T14:59:10.129Z</time></trkpt><trkpt lat="39.7419389" lon="15.8325319"><ele>84.33333333333333</ele><time>2026-04-19T14:59:11.13Z</time></trkpt><trkpt lat="39.7420579" lon="15.8326659"><ele>84.0</ele><time>2026-04-19T14:59:12.13Z</time></trkpt><trkpt lat="39.7421639" lon="15.8327989"><ele>85.75</ele><time>2026-04-19T14:59:13.129Z</time></trkpt><trkpt lat="39.7422672" lon="15.832931"><ele>87.5</ele><time>2026-04-19T14:59:14.129Z</time></trkpt><trkpt lat="39.7423655" lon="15.8330512"><ele>89.25</ele><time>2026-04-19T14:59:15.13Z</time></trkpt><trkpt lat="39.7424724" lon="15.8331621"><ele>91.0</ele><time>2026-04-19T14:59:16.13Z</time></trkpt><trkpt lat="39.7425818" lon="15.8332441"><ele>91.0</ele><time>2026-04-19T14:59:17.13Z</time></trkpt><trkpt lat="39.7427053" lon="15.8333114"><ele>91.0</ele><time>2026-04-19T14:59:18.13Z</time></trkpt><trkpt lat="39.7428218" lon="15.8333745"><ele>91.0</ele><time>2026-04-19T14:59:19.129Z</time></trkpt><trkpt lat="39.742935" lon="15.8334388"><ele>91.0</ele><time>2026-04-19T14:59:20.129Z</time></trkpt><trkpt lat="39.7430446" lon="15.8335178"><ele>91.5</ele><time>2026-04-19T14:59:21.13Z</time></trkpt><trkpt lat="39.7431467" lon="15.8336269"><ele>92.0</ele><time>2026-04-19T14:59:22.129Z</time></trkpt><trkpt lat="39.743235" lon="15.8337668"><ele>92.5</ele><time>2026-04-19T14:59:23.129Z</time></trkpt><trkpt lat="39.7433262" lon="15.8339244"><ele>93.0</ele><time>2026-04-19T14:59:24.129Z</time></trkpt><trkpt lat="39.7434389" lon="15.8340737"><ele>92.66666666666667</ele><time>2026-04-19T14:59:25.13Z</time></trkpt><trkpt lat="39.7435612" lon="15.8342145"><ele>92.33333333333334</ele><time>2026-04-19T14:59:26.129Z</time></trkpt><trkpt lat="39.7436856" lon="15.834351"><ele>92.0</ele><time>2026-04-19T14:59:27.129Z</time></trkpt><trkpt lat="39.7438159" lon="15.8344794"><ele>95.33333333333334</ele><time>2026-04-19T14:59:28.129Z</time></trkpt><trkpt lat="39.7439606" lon="15.8345913"><ele>98.66666666666667</ele><time>2026-04-19T14:59:29.129Z</time></trkpt><trkpt lat="39.7441134" lon="15.8346774"><ele>102.0</ele><time>2026-04-19T14:59:30.129Z</time></trkpt><trkpt lat="39.744271" lon="15.8347525"><ele>101.66666666666666</ele><time>2026-04-19T14:59:31.129Z</time></trkpt><trkpt lat="39.7444275" lon="15.8348214"><ele>101.33333333333333</ele><time>2026-04-19T14:59:32.129Z</time></trkpt><trkpt lat="39.7445845" lon="15.8348851"><ele>101.0</ele><time>2026-04-19T14:59:33.129Z</time></trkpt><trkpt lat="39.7447473" lon="15.8349222"><ele>101.0</ele><time>2026-04-19T14:59:34.13Z</time></trkpt><trkpt lat="39.7449113" lon="15.8349384"><ele>101.0</ele><time>2026-04-19T14:59:35.129Z</time></trkpt><trkpt lat="39.7450728" lon="15.8349656"><ele>101.0</ele><time>2026-04-19T14:59:36.129Z</time></trkpt><trkpt lat="39.7452299" lon="15.8350146"><ele>100.0</ele><time>2026-04-19T14:59:37.13Z</time></trkpt><trkpt lat="39.7453853" lon="15.8350823"><ele>99.0</ele><time>2026-04-19T14:59:38.129Z</time></trkpt><trkpt lat="39.7455321" lon="15.8351546"><ele>98.0</ele><time>2026-04-19T14:59:39.13Z</time></trkpt><trkpt lat="39.7456749" lon="15.83522"><ele>101.75</ele><time>2026-04-19T14:59:40.13Z</time></trkpt><trkpt lat="39.7458124" lon="15.835273"><ele>105.5</ele><time>2026-04-19T14:59:41.13Z</time></trkpt><trkpt lat="39.7459358" lon="15.8353083"><ele>109.25</ele><time>2026-04-19T14:59:42.13Z</time></trkpt><trkpt lat="39.7460537" lon="15.8353263"><ele>113.0</ele><time>2026-04-19T14:59:43.129Z</time></trkpt><trkpt lat="39.7461774" lon="15.8353402"><ele>114.75</ele><time>2026-04-19T14:59:44.129Z</time></trkpt><trkpt lat="39.7463155" lon="15.835345"><ele>116.5</ele><time>2026-04-19T14:59:45.129Z</time></trkpt><trkpt lat="39.7464406" lon="15.8353319"><ele>118.25</ele><time>2026-04-19T14:59:46.13Z</time></trkpt><trkpt lat="39.7465694" lon="15.8352965"><ele>120.0</ele><time>2026-04-19T14:59:47.13Z</time></trkpt><trkpt lat="39.7466973" lon="15.8352385"><ele>120.0</ele><time>2026-04-19T14:59:48.129Z</time></trkpt><trkpt lat="39.7468209" lon="15.835166"><ele>120.0</ele><time>2026-04-19T14:59:49.13Z</time></trkpt><trkpt lat="39.7469379" lon="15.8350934"><ele>120.0</ele><time>2026-04-19T14:59:50.129Z</time></trkpt><trkpt lat="39.7470465" lon="15.8350197"><ele>120.0</ele><time>2026-04-19T14:59:51.129Z</time></trkpt><trkpt lat="39.7471385" lon="15.8349688"><ele>116.8</ele><time>2026-04-19T14:59:52.13Z</time></trkpt><trkpt lat="39.7472222" lon="15.8349368"><ele>113.6</ele><time>2026-04-19T14:59:53.129Z</time></trkpt><trkpt lat="39.7472945" lon="15.8349463"><ele>110.4</ele><time>2026-04-19T14:59:54.129Z</time></trkpt><trkpt lat="39.7473745" lon="15.8349769"><ele>107.2</ele><time>2026-04-19T14:59:55.129Z</time></trkpt><trkpt lat="39.7474592" lon="15.8350264"><ele>104.0</ele><time>2026-04-19T14:59:56.129Z</time></trkpt><trkpt lat="39.7475638" lon="15.8351241"><ele>104.0</ele><time>2026-04-19T14:59:57.13Z</time></trkpt><trkpt lat="39.747641" lon="15.8352226"><ele>104.0</ele><time>2026-04-19T14:59:58.13Z</time></trkpt><trkpt lat="39.7477126" lon="15.8353148"><ele>104.0</ele><time>2026-04-19T14:59:59.13Z</time></trkpt><trkpt lat="39.7477643" lon="15.8354092"><ele>104.0</ele><time>2026-04-19T15:00:00.129Z</time></trkpt><trkpt lat="39.7478322" lon="15.8355097"><ele>104.0</ele><time>2026-04-19T15:00:01.129Z</time></trkpt><trkpt lat="39.7479012" lon="15.8356127"><ele>104.0</ele><time>2026-04-19T15:00:02.13Z</time></trkpt><trkpt lat="39.7479778" lon="15.8357173"><ele>104.0</ele><time>2026-04-19T15:00:03.13Z</time></trkpt><trkpt lat="39.7480588" lon="15.835834"><ele>104.0</ele><time>2026-04-19T15:00:04.13Z</time></trkpt><trkpt lat="39.7481419" lon="15.8359444"><ele>104.0</ele><time>2026-04-19T15:00:05.13Z</time></trkpt><trkpt lat="39.7482251" lon="15.8360501"><ele>104.0</ele><time>2026-04-19T15:00:06.129Z</time></trkpt><trkpt lat="39.7482999" lon="15.83615"><ele>104.0</ele><time>2026-04-19T15:00:07.13Z</time></trkpt><trkpt lat="39.7483779" lon="15.8362406"><ele>104.0</ele><time>2026-04-19T15:00:08.129Z</time></trkpt><trkpt lat="39.7484578" lon="15.8363181"><ele>104.0</ele><time>2026-04-19T15:00:09.129Z</time></trkpt><trkpt lat="39.7485376" lon="15.8363886"><ele>104.0</ele><time>2026-04-19T15:00:10.13Z</time></trkpt><trkpt lat="39.7486278" lon="15.836442"><ele>104.0</ele><time>2026-04-19T15:00:11.129Z</time></trkpt><trkpt lat="39.7487169" lon="15.8364794"><ele>104.0</ele><time>2026-04-19T15:00:12.129Z</time></trkpt><trkpt lat="39.7488189" lon="15.8364968"><ele>104.0</ele><time>2026-04-19T15:00:13.129Z</time></trkpt><trkpt lat="39.7489206" lon="15.8365096"><ele>104.0</ele><time>2026-04-19T15:00:14.129Z</time></trkpt><trkpt lat="39.7490221" lon="15.8364925"><ele>104.0</ele><time>2026-04-19T15:00:15.129Z</time></trkpt><trkpt lat="39.7491292" lon="15.8364691"><ele>104.0</ele><time>2026-04-19T15:00:16.13Z</time></trkpt><trkpt lat="39.7492262" lon="15.8364483"><ele>104.0</ele><time>2026-04-19T15:00:17.129Z</time></trkpt><trkpt lat="39.7493141" lon="15.8364321"><ele>104.0</ele><time>2026-04-19T15:00:18.129Z</time></trkpt><trkpt lat="39.7494045" lon="15.8364257"><ele>104.0</ele><time>2026-04-19T15:00:19.129Z</time></trkpt><trkpt lat="39.7495038" lon="15.8364805"><ele>104.0</ele><time>2026-04-19T15:00:20.13Z</time></trkpt><trkpt lat="39.7495667" lon="15.8365296"><ele>103.49999999999999</ele><time>2026-04-19T15:00:21.13Z</time></trkpt><trkpt lat="39.7496209" lon="15.8366035"><ele>103.0</ele><time>2026-04-19T15:00:22.13Z</time></trkpt><trkpt lat="39.7496572" lon="15.8366818"><ele>102.5</ele><time>2026-04-19T15:00:23.13Z</time></trkpt><trkpt lat="39.7496818" lon="15.8367647"><ele>102.0</ele><time>2026-04-19T15:00:24.129Z</time></trkpt><trkpt lat="39.7496754" lon="15.8369384"><ele>101.49999999999999</ele><time>2026-04-19T15:00:26.129Z</time></trkpt><trkpt lat="39.7496617" lon="15.8370452"><ele>101.0</ele><time>2026-04-19T15:00:27.129Z</time></trkpt><trkpt lat="39.7496791" lon="15.8371423"><ele>100.99999999999999</ele><time>2026-04-19T15:00:28.13Z</time></trkpt><trkpt lat="39.7497185" lon="15.8372244"><ele>101.0</ele><time>2026-04-19T15:00:29.13Z</time></trkpt><trkpt lat="39.749773" lon="15.837291"><ele>101.0</ele><time>2026-04-19T15:00:30.129Z</time></trkpt><trkpt lat="39.7498504" lon="15.8373376"><ele>101.0</ele><time>2026-04-19T15:00:31.13Z</time></trkpt><trkpt lat="39.7499396" lon="15.8373535"><ele>100.99999999999999</ele><time>2026-04-19T15:00:32.13Z</time></trkpt><trkpt lat="39.7500418" lon="15.8373551"><ele>101.0</ele><time>2026-04-19T15:00:33.13Z</time></trkpt><trkpt lat="39.7501407" lon="15.8373461"><ele>99.83333333333333</ele><time>2026-04-19T15:00:34.13Z</time></trkpt><trkpt lat="39.7502361" lon="15.8373471"><ele>98.66666666666666</ele><time>2026-04-19T15:00:35.13Z</time></trkpt><trkpt lat="39.7503241" lon="15.8373609"><ele>97.5</ele><time>2026-04-19T15:00:36.13Z</time></trkpt><trkpt lat="39.7504054" lon="15.8373954"><ele>96.33333333333333</ele><time>2026-04-19T15:00:37.13Z</time></trkpt><trkpt lat="39.7504751" lon="15.8374358"><ele>95.16666666666666</ele><time>2026-04-19T15:00:38.13Z</time></trkpt><trkpt lat="39.7505401" lon="15.8374732"><ele>94.0</ele><time>2026-04-19T15:00:39.13Z</time></trkpt><trkpt lat="39.7506063" lon="15.8375068"><ele>94.0</ele><time>2026-04-19T15:00:40.13Z</time></trkpt><trkpt lat="39.7507073" lon="15.83755"><ele>94.0</ele><time>2026-04-19T15:00:42.129Z</time></trkpt><trkpt lat="39.7507873" lon="15.8375854"><ele>94.0</ele><time>2026-04-19T15:00:44.13Z</time></trkpt><trkpt lat="39.750899" lon="15.8376393"><ele>94.0</ele><time>2026-04-19T15:00:46.13Z</time></trkpt><trkpt lat="39.7510207" lon="15.8377129"><ele>94.0</ele><time>2026-04-19T15:00:48.129Z</time></trkpt><trkpt lat="39.751078" lon="15.837754"><ele>95.0</ele><time>2026-04-19T15:00:49.13Z</time></trkpt><trkpt lat="39.7511635" lon="15.8378075"><ele>96.0</ele><time>2026-04-19T15:00:51.129Z</time></trkpt><trkpt lat="39.7512501" lon="15.8378712"><ele>97.0</ele><time>2026-04-19T15:00:53.13Z</time></trkpt><trkpt lat="39.7513137" lon="15.8379298"><ele>98.0</ele><time>2026-04-19T15:00:55.129Z</time></trkpt><trkpt lat="39.7513686" lon="15.837978"><ele>99.0</ele><time>2026-04-19T15:00:57.13Z</time></trkpt><trkpt lat="39.7514536" lon="15.8380756"><ele>99.0</ele><time>2026-04-19T15:00:59.129Z</time></trkpt><trkpt lat="39.7514988" lon="15.8381615"><ele>99.0</ele><time>2026-04-19T15:01:01.129Z</time></trkpt><trkpt lat="39.7515376" lon="15.8382303"><ele>99.0</ele><time>2026-04-19T15:01:04.13Z</time></trkpt><trkpt lat="39.7515614" lon="15.8381415"><ele>99.0</ele><time>2026-04-19T15:01:38.129Z</time></trkpt><trkpt lat="39.7514823" lon="15.838077"><ele>99.0</ele><time>2026-04-19T15:01:39.129Z</time></trkpt><trkpt lat="39.7514043" lon="15.8379875"><ele>99.0</ele><time>2026-04-19T15:01:40.129Z</time></trkpt><trkpt lat="39.7513537" lon="15.837935"><ele>99.0</ele><time>2026-04-19T15:01:41.129Z</time></trkpt><trkpt lat="39.7512992" lon="15.8378862"><ele>99.0</ele><time>2026-04-19T15:01:42.129Z</time></trkpt><trkpt lat="39.7511991" lon="15.837816"><ele>99.0</ele><time>2026-04-19T15:01:44.13Z</time></trkpt><trkpt lat="39.7511186" lon="15.8377566"><ele>99.0</ele><time>2026-04-19T15:01:46.129Z</time></trkpt><trkpt lat="39.7510598" lon="15.8377138"><ele>99.0</ele><time>2026-04-19T15:01:48.129Z</time></trkpt><trkpt lat="39.7510115" lon="15.8376611"><ele>99.0</ele><time>2026-04-19T15:01:50.129Z</time></trkpt><trkpt lat="39.7509822" lon="15.8375726"><ele>98.16666666666667</ele><time>2026-04-19T15:01:53.129Z</time></trkpt><trkpt lat="39.7510173" lon="15.8374828"><ele>97.33333333333333</ele><time>2026-04-19T15:01:56.129Z</time></trkpt><trkpt lat="39.7510757" lon="15.837421"><ele>96.5</ele><time>2026-04-19T15:01:58.13Z</time></trkpt><trkpt lat="39.7511815" lon="15.8373231"><ele>95.66666666666666</ele><time>2026-04-19T15:02:00.129Z</time></trkpt><trkpt lat="39.7512429" lon="15.8372703"><ele>94.83333333333333</ele><time>2026-04-19T15:02:01.13Z</time></trkpt><trkpt lat="39.751308" lon="15.8372166"><ele>94.0</ele><time>2026-04-19T15:02:02.129Z</time></trkpt><trkpt lat="39.7513789" lon="15.8371678"><ele>93.5</ele><time>2026-04-19T15:02:03.13Z</time></trkpt><trkpt lat="39.7514535" lon="15.8371336"><ele>93.0</ele><time>2026-04-19T15:02:04.129Z</time></trkpt><trkpt lat="39.7515365" lon="15.837124"><ele>92.5</ele><time>2026-04-19T15:02:05.129Z</time></trkpt><trkpt lat="39.7516197" lon="15.8371369"><ele>92.0</ele><time>2026-04-19T15:02:06.13Z</time></trkpt><trkpt lat="39.7516944" lon="15.837175"><ele>91.5</ele><time>2026-04-19T15:02:07.13Z</time></trkpt><trkpt lat="39.7517612" lon="15.8372311"><ele>91.0</ele><time>2026-04-19T15:02:08.13Z</time></trkpt><trkpt lat="39.751835" lon="15.8373075"><ele>89.4</ele><time>2026-04-19T15:02:09.129Z</time></trkpt><trkpt lat="39.7519011" lon="15.8373972"><ele>87.8</ele><time>2026-04-19T15:02:10.13Z</time></trkpt><trkpt lat="39.7519694" lon="15.8374929"><ele>86.2</ele><time>2026-04-19T15:02:11.13Z</time></trkpt><trkpt lat="39.7520444" lon="15.8375899"><ele>84.60000000000001</ele><time>2026-04-19T15:02:12.129Z</time></trkpt><trkpt lat="39.7521267" lon="15.8376828"><ele>83.0</ele><time>2026-04-19T15:02:13.129Z</time></trkpt><trkpt lat="39.7522111" lon="15.8377729"><ele>83.0</ele><time>2026-04-19T15:02:14.13Z</time></trkpt><trkpt lat="39.7522896" lon="15.8378585"><ele>83.0</ele><time>2026-04-19T15:02:15.129Z</time></trkpt><trkpt lat="39.752358" lon="15.8379463"><ele>83.0</ele><time>2026-04-19T15:02:16.13Z</time></trkpt><trkpt lat="39.7524252" lon="15.8380431"><ele>83.0</ele><time>2026-04-19T15:02:17.129Z</time></trkpt><trkpt lat="39.7524964" lon="15.8381603"><ele>83.0</ele><time>2026-04-19T15:02:18.129Z</time></trkpt><trkpt lat="39.7525764" lon="15.8383124"><ele>86.0</ele><time>2026-04-19T15:02:19.13Z</time></trkpt><trkpt lat="39.75266" lon="15.8384883"><ele>89.0</ele><time>2026-04-19T15:02:20.129Z</time></trkpt><trkpt lat="39.7527366" lon="15.8386543"><ele>92.0</ele><time>2026-04-19T15:02:21.129Z</time></trkpt><trkpt lat="39.752803" lon="15.8388092"><ele>95.0</ele><time>2026-04-19T15:02:22.129Z</time></trkpt><trkpt lat="39.7528664" lon="15.8389478"><ele>91.6</ele><time>2026-04-19T15:02:23.13Z</time></trkpt><trkpt lat="39.7529213" lon="15.8390757"><ele>88.2</ele><time>2026-04-19T15:02:24.13Z</time></trkpt><trkpt lat="39.7529725" lon="15.8391887"><ele>84.8</ele><time>2026-04-19T15:02:25.13Z</time></trkpt><trkpt lat="39.7530317" lon="15.8392853"><ele>81.4</ele><time>2026-04-19T15:02:26.129Z</time></trkpt><trkpt lat="39.7531155" lon="15.8393628"><ele>78.0</ele><time>2026-04-19T15:02:27.129Z</time></trkpt><trkpt lat="39.7532105" lon="15.8393986"><ele>78.0</ele><time>2026-04-19T15:02:28.129Z</time></trkpt><trkpt lat="39.7532951" lon="15.8394247"><ele>78.0</ele><time>2026-04-19T15:02:29.13Z</time></trkpt><trkpt lat="39.7533757" lon="15.8394488"><ele>78.0</ele><time>2026-04-19T15:02:30.13Z</time></trkpt><trkpt lat="39.7534495" lon="15.8394841"><ele>78.0</ele><time>2026-04-19T15:02:31.13Z</time></trkpt><trkpt lat="39.7535161" lon="15.8395505"><ele>78.0</ele><time>2026-04-19T15:02:32.129Z</time></trkpt><trkpt lat="39.7535718" lon="15.8396506"><ele>78.0</ele><time>2026-04-19T15:02:33.129Z</time></trkpt><trkpt lat="39.7536298" lon="15.8397938"><ele>74.0</ele><time>2026-04-19T15:02:34.13Z</time></trkpt><trkpt lat="39.7536713" lon="15.8399238"><ele>70.0</ele><time>2026-04-19T15:02:35.13Z</time></trkpt><trkpt lat="39.7537152" lon="15.8400411"><ele>66.0</ele><time>2026-04-19T15:02:36.13Z</time></trkpt><trkpt lat="39.7537874" lon="15.8401598"><ele>62.0</ele><time>2026-04-19T15:02:37.129Z</time></trkpt><trkpt lat="39.7538704" lon="15.8402658"><ele>58.0</ele><time>2026-04-19T15:02:38.129Z</time></trkpt><trkpt lat="39.7539538" lon="15.8403624"><ele>57.99999999999999</ele><time>2026-04-19T15:02:39.129Z</time></trkpt><trkpt lat="39.7540259" lon="15.8404552"><ele>58.0</ele><time>2026-04-19T15:02:40.129Z</time></trkpt><trkpt lat="39.7540853" lon="15.8405441"><ele>58.0</ele><time>2026-04-19T15:02:41.13Z</time></trkpt><trkpt lat="39.7541324" lon="15.8406399"><ele>58.0</ele><time>2026-04-19T15:02:42.129Z</time></trkpt><trkpt lat="39.7541559" lon="15.8407401"><ele>57.99999999999999</ele><time>2026-04-19T15:02:43.129Z</time></trkpt><trkpt lat="39.7541607" lon="15.8408517"><ele>58.0</ele><time>2026-04-19T15:02:44.129Z</time></trkpt><trkpt lat="39.7541693" lon="15.840986"><ele>58.0</ele><time>2026-04-19T15:02:45.13Z</time></trkpt><trkpt lat="39.7541752" lon="15.8411194"><ele>58.0</ele><time>2026-04-19T15:02:46.13Z</time></trkpt><trkpt lat="39.7541818" lon="15.8412462"><ele>58.0</ele><time>2026-04-19T15:02:47.129Z</time></trkpt><trkpt lat="39.7541819" lon="15.8413669"><ele>58.0</ele><time>2026-04-19T15:02:48.129Z</time></trkpt><trkpt lat="39.7541859" lon="15.8414892"><ele>58.0</ele><time>2026-04-19T15:02:49.13Z</time></trkpt><trkpt lat="39.754188" lon="15.8416065"><ele>57.99999999999999</ele><time>2026-04-19T15:02:50.13Z</time></trkpt><trkpt lat="39.7541904" lon="15.8417351"><ele>58.0</ele><time>2026-04-19T15:02:51.129Z</time></trkpt><trkpt lat="39.7541875" lon="15.8418598"><ele>58.0</ele><time>2026-04-19T15:02:52.13Z</time></trkpt><trkpt lat="39.7541888" lon="15.8419656"><ele>58.0</ele><time>2026-04-19T15:02:53.129Z</time></trkpt><trkpt lat="39.7542025" lon="15.8420655"><ele>57.99999999999999</ele><time>2026-04-19T15:02:54.13Z</time></trkpt><trkpt lat="39.7542409" lon="15.8421409"><ele>58.0</ele><time>2026-04-19T15:02:55.129Z</time></trkpt><trkpt lat="39.7543484" lon="15.8421986"><ele>56.83333333333333</ele><time>2026-04-19T15:02:57.129Z</time></trkpt><trkpt lat="39.7544578" lon="15.8422101"><ele>55.666666666666664</ele><time>2026-04-19T15:02:59.129Z</time></trkpt><trkpt lat="39.7545751" lon="15.8422178"><ele>54.5</ele><time>2026-04-19T15:03:01.13Z</time></trkpt><trkpt lat="39.7546393" lon="15.842224"><ele>53.33333333333333</ele><time>2026-04-19T15:03:02.13Z</time></trkpt><trkpt lat="39.7547054" lon="15.842235"><ele>52.166666666666664</ele><time>2026-04-19T15:03:03.129Z</time></trkpt><trkpt lat="39.7547746" lon="15.8422562"><ele>51.0</ele><time>2026-04-19T15:03:04.13Z</time></trkpt><trkpt lat="39.7548471" lon="15.8422705"><ele>51.0</ele><time>2026-04-19T15:03:05.129Z</time></trkpt><trkpt lat="39.7549161" lon="15.8422734"><ele>51.0</ele><time>2026-04-19T15:03:06.13Z</time></trkpt><trkpt lat="39.7549954" lon="15.8422804"><ele>51.0</ele><time>2026-04-19T15:03:07.129Z</time></trkpt><trkpt lat="39.7550698" lon="15.8422887"><ele>51.0</ele><time>2026-04-19T15:03:08.129Z</time></trkpt><trkpt lat="39.7551454" lon="15.8423136"><ele>51.0</ele><time>2026-04-19T15:03:09.129Z</time></trkpt><trkpt lat="39.7552211" lon="15.8423683"><ele>51.0</ele><time>2026-04-19T15:03:10.129Z</time></trkpt><trkpt lat="39.7552932" lon="15.8424396"><ele>50.599999999999994</ele><time>2026-04-19T15:03:11.13Z</time></trkpt><trkpt lat="39.7553641" lon="15.8425192"><ele>50.2</ele><time>2026-04-19T15:03:12.129Z</time></trkpt><trkpt lat="39.7554393" lon="15.8426038"><ele>49.8</ele><time>2026-04-19T15:03:13.13Z</time></trkpt><trkpt lat="39.7555138" lon="15.8426957"><ele>49.400000000000006</ele><time>2026-04-19T15:03:14.13Z</time></trkpt><trkpt lat="39.7555886" lon="15.8427866"><ele>49.0</ele><time>2026-04-19T15:03:15.129Z</time></trkpt><trkpt lat="39.7556635" lon="15.842871"><ele>50.83333333333333</ele><time>2026-04-19T15:03:16.129Z</time></trkpt><trkpt lat="39.7557318" lon="15.8429545"><ele>52.666666666666664</ele><time>2026-04-19T15:03:17.129Z</time></trkpt><trkpt lat="39.7557935" lon="15.8430334"><ele>54.5</ele><time>2026-04-19T15:03:18.13Z</time></trkpt><trkpt lat="39.7558572" lon="15.8431093"><ele>56.33333333333333</ele><time>2026-04-19T15:03:19.129Z</time></trkpt><trkpt lat="39.7559121" lon="15.8431737"><ele>58.166666666666664</ele><time>2026-04-19T15:03:20.129Z</time></trkpt><trkpt lat="39.755968" lon="15.8432223"><ele>60.0</ele><time>2026-04-19T15:03:21.129Z</time></trkpt><trkpt lat="39.7560223" lon="15.8432641"><ele>61.0</ele><time>2026-04-19T15:03:22.129Z</time></trkpt><trkpt lat="39.756137" lon="15.8432919"><ele>62.0</ele><time>2026-04-19T15:03:24.13Z</time></trkpt><trkpt lat="39.7562059" lon="15.8432759"><ele>63.0</ele><time>2026-04-19T15:03:25.129Z</time></trkpt><trkpt lat="39.7562803" lon="15.8432481"><ele>64.0</ele><time>2026-04-19T15:03:26.129Z</time></trkpt><trkpt lat="39.7563623" lon="15.8432078"><ele>65.0</ele><time>2026-04-19T15:03:27.129Z</time></trkpt><trkpt lat="39.7564567" lon="15.8431686"><ele>65.0</ele><time>2026-04-19T15:03:28.129Z</time></trkpt><trkpt lat="39.7565523" lon="15.8431253"><ele>65.0</ele><time>2026-04-19T15:03:29.13Z</time></trkpt><trkpt lat="39.7566509" lon="15.8430813"><ele>65.0</ele><time>2026-04-19T15:03:30.129Z</time></trkpt><trkpt lat="39.7567536" lon="15.8430325"><ele>65.0</ele><time>2026-04-19T15:03:31.129Z</time></trkpt><trkpt lat="39.756851" lon="15.8429744"><ele>65.0</ele><time>2026-04-19T15:03:32.129Z</time></trkpt><trkpt lat="39.7569472" lon="15.8429152"><ele>68.75</ele><time>2026-04-19T15:03:33.13Z</time></trkpt><trkpt lat="39.7570438" lon="15.8428422"><ele>72.5</ele><time>2026-04-19T15:03:34.129Z</time></trkpt><trkpt lat="39.7571326" lon="15.8427513"><ele>76.25</ele><time>2026-04-19T15:03:35.129Z</time></trkpt><trkpt lat="39.7572096" lon="15.8426382"><ele>80.0</ele><time>2026-04-19T15:03:36.129Z</time></trkpt><trkpt lat="39.7572635" lon="15.8425059"><ele>80.0</ele><time>2026-04-19T15:03:37.129Z</time></trkpt><trkpt lat="39.7573076" lon="15.8423624"><ele>80.0</ele><time>2026-04-19T15:03:38.129Z</time></trkpt><trkpt lat="39.7573459" lon="15.8422274"><ele>80.0</ele><time>2026-04-19T15:03:39.13Z</time></trkpt><trkpt lat="39.757407" lon="15.8420978"><ele>80.0</ele><time>2026-04-19T15:03:40.129Z</time></trkpt><trkpt lat="39.7574819" lon="15.8419944"><ele>80.0</ele><time>2026-04-19T15:03:41.129Z</time></trkpt><trkpt lat="39.7575568" lon="15.841894"><ele>80.0</ele><time>2026-04-19T15:03:42.129Z</time></trkpt><trkpt lat="39.7575995" lon="15.8417705"><ele>80.0</ele><time>2026-04-19T15:03:43.129Z</time></trkpt><trkpt lat="39.7576152" lon="15.841635"><ele>80.0</ele><time>2026-04-19T15:03:44.13Z</time></trkpt><trkpt lat="39.7576074" lon="15.8414997"><ele>80.0</ele><time>2026-04-19T15:03:45.129Z</time></trkpt><trkpt lat="39.75753" lon="15.8413982"><ele>79.5</ele><time>2026-04-19T15:03:46.13Z</time></trkpt><trkpt lat="39.7574579" lon="15.841323"><ele>79.0</ele><time>2026-04-19T15:03:47.13Z</time></trkpt><trkpt lat="39.7574006" lon="15.8412519"><ele>78.5</ele><time>2026-04-19T15:03:48.13Z</time></trkpt><trkpt lat="39.7573656" lon="15.8411568"><ele>78.0</ele><time>2026-04-19T15:03:49.13Z</time></trkpt><trkpt lat="39.7573567" lon="15.8410449"><ele>77.5</ele><time>2026-04-19T15:03:50.13Z</time></trkpt><trkpt lat="39.7573795" lon="15.840932"><ele>77.0</ele><time>2026-04-19T15:03:51.13Z</time></trkpt><trkpt lat="39.757436" lon="15.8408235"><ele>77.0</ele><time>2026-04-19T15:03:52.13Z</time></trkpt><trkpt lat="39.7575035" lon="15.8407242"><ele>77.0</ele><time>2026-04-19T15:03:53.13Z</time></trkpt><trkpt lat="39.757552" lon="15.8406196"><ele>77.0</ele><time>2026-04-19T15:03:54.13Z</time></trkpt><trkpt lat="39.7575696" lon="15.8404991"><ele>77.0</ele><time>2026-04-19T15:03:55.13Z</time></trkpt><trkpt lat="39.7575482" lon="15.8403756"><ele>77.0</ele><time>2026-04-19T15:03:56.129Z</time></trkpt><trkpt lat="39.7575397" lon="15.840252"><ele>76.4</ele><time>2026-04-19T15:03:57.129Z</time></trkpt><trkpt lat="39.7575674" lon="15.8401183"><ele>75.80000000000001</ele><time>2026-04-19T15:03:58.129Z</time></trkpt><trkpt lat="39.757596" lon="15.8399887"><ele>75.2</ele><time>2026-04-19T15:03:59.129Z</time></trkpt><trkpt lat="39.7576365" lon="15.8398602"><ele>74.60000000000001</ele><time>2026-04-19T15:04:00.13Z</time></trkpt><trkpt lat="39.7576974" lon="15.839754"><ele>74.0</ele><time>2026-04-19T15:04:01.13Z</time></trkpt><trkpt lat="39.7577714" lon="15.8396736"><ele>76.2</ele><time>2026-04-19T15:04:02.13Z</time></trkpt><trkpt lat="39.7578562" lon="15.8396113"><ele>78.4</ele><time>2026-04-19T15:04:03.13Z</time></trkpt><trkpt lat="39.7579481" lon="15.8395724"><ele>80.6</ele><time>2026-04-19T15:04:04.129Z</time></trkpt><trkpt lat="39.7580412" lon="15.8395702"><ele>82.8</ele><time>2026-04-19T15:04:05.13Z</time></trkpt><trkpt lat="39.7581302" lon="15.8395991"><ele>85.0</ele><time>2026-04-19T15:04:06.129Z</time></trkpt><trkpt lat="39.7581995" lon="15.8396618"><ele>85.0</ele><time>2026-04-19T15:04:07.129Z</time></trkpt><trkpt lat="39.7582596" lon="15.8397356"><ele>85.0</ele><time>2026-04-19T15:04:08.129Z</time></trkpt><trkpt lat="39.7583115" lon="15.8398164"><ele>85.0</ele><time>2026-04-19T15:04:09.129Z</time></trkpt><trkpt lat="39.7583669" lon="15.8398981"><ele>85.0</ele><time>2026-04-19T15:04:10.129Z</time></trkpt><trkpt lat="39.7584302" lon="15.8399839"><ele>85.0</ele><time>2026-04-19T15:04:11.13Z</time></trkpt><trkpt lat="39.7584901" lon="15.8400761"><ele>85.0</ele><time>2026-04-19T15:04:12.13Z</time></trkpt><trkpt lat="39.7585514" lon="15.8401803"><ele>84.4</ele><time>2026-04-19T15:04:13.129Z</time></trkpt><trkpt lat="39.7586098" lon="15.8402925"><ele>83.8</ele><time>2026-04-19T15:04:14.13Z</time></trkpt><trkpt lat="39.7586641" lon="15.8404066"><ele>83.19999999999999</ele><time>2026-04-19T15:04:15.13Z</time></trkpt><trkpt lat="39.7587099" lon="15.8405188"><ele>82.6</ele><time>2026-04-19T15:04:16.129Z</time></trkpt><trkpt lat="39.7587473" lon="15.8406277"><ele>82.0</ele><time>2026-04-19T15:04:17.129Z</time></trkpt><trkpt lat="39.7587698" lon="15.8407448"><ele>82.0</ele><time>2026-04-19T15:04:18.129Z</time></trkpt><trkpt lat="39.7587675" lon="15.8408595"><ele>82.0</ele><time>2026-04-19T15:04:19.129Z</time></trkpt><trkpt lat="39.7587543" lon="15.8409574"><ele>82.0</ele><time>2026-04-19T15:04:20.129Z</time></trkpt><trkpt lat="39.7587617" lon="15.8410607"><ele>82.0</ele><time>2026-04-19T15:04:21.13Z</time></trkpt><trkpt lat="39.7588256" lon="15.8411931"><ele>82.0</ele><time>2026-04-19T15:04:23.129Z</time></trkpt><trkpt lat="39.7588852" lon="15.8412409"><ele>82.0</ele><time>2026-04-19T15:04:24.13Z</time></trkpt><trkpt lat="39.7589572" lon="15.8412804"><ele>83.0</ele><time>2026-04-19T15:04:25.129Z</time></trkpt><trkpt lat="39.7590343" lon="15.8413198"><ele>84.0</ele><time>2026-04-19T15:04:26.129Z</time></trkpt><trkpt lat="39.7591165" lon="15.8413464"><ele>85.0</ele><time>2026-04-19T15:04:27.13Z</time></trkpt><trkpt lat="39.7592054" lon="15.8413484"><ele>86.0</ele><time>2026-04-19T15:04:28.129Z</time></trkpt><trkpt lat="39.7592906" lon="15.8413268"><ele>87.0</ele><time>2026-04-19T15:04:29.129Z</time></trkpt><trkpt lat="39.7593786" lon="15.8412939"><ele>88.0</ele><time>2026-04-19T15:04:30.13Z</time></trkpt><trkpt lat="39.7594533" lon="15.8412524"><ele>89.16666666666666</ele><time>2026-04-19T15:04:31.129Z</time></trkpt><trkpt lat="39.7595138" lon="15.8412007"><ele>90.33333333333333</ele><time>2026-04-19T15:04:32.129Z</time></trkpt><trkpt lat="39.7595442" lon="15.8411252"><ele>91.5</ele><time>2026-04-19T15:04:33.129Z</time></trkpt><trkpt lat="39.7595493" lon="15.8410249"><ele>92.66666666666667</ele><time>2026-04-19T15:04:34.129Z</time></trkpt><trkpt lat="39.7595268" lon="15.8409195"><ele>93.83333333333334</ele><time>2026-04-19T15:04:35.129Z</time></trkpt><trkpt lat="39.759483" lon="15.8408125"><ele>95.0</ele><time>2026-04-19T15:04:36.13Z</time></trkpt><trkpt lat="39.7594316" lon="15.8407073"><ele>95.0</ele><time>2026-04-19T15:04:37.13Z</time></trkpt><trkpt lat="39.7594075" lon="15.8405905"><ele>95.0</ele><time>2026-04-19T15:04:38.129Z</time></trkpt><trkpt lat="39.7594123" lon="15.8404661"><ele>95.0</ele><time>2026-04-19T15:04:39.13Z</time></trkpt><trkpt lat="39.7594372" lon="15.8403339"><ele>95.0</ele><time>2026-04-19T15:04:40.13Z</time></trkpt><trkpt lat="39.7594637" lon="15.8402035"><ele>95.0</ele><time>2026-04-19T15:04:41.129Z</time></trkpt><trkpt lat="39.7594971" lon="15.8400779"><ele>94.4</ele><time>2026-04-19T15:04:42.13Z</time></trkpt><trkpt lat="39.7595404" lon="15.8399682"><ele>93.8</ele><time>2026-04-19T15:04:43.129Z</time></trkpt><trkpt lat="39.7595866" lon="15.839863"><ele>93.19999999999999</ele><time>2026-04-19T15:04:44.129Z</time></trkpt><trkpt lat="39.7596232" lon="15.8397486"><ele>92.6</ele><time>2026-04-19T15:04:45.13Z</time></trkpt><trkpt lat="39.7596492" lon="15.839619"><ele>92.0</ele><time>2026-04-19T15:04:46.13Z</time></trkpt><trkpt lat="39.7596703" lon="15.8394905"><ele>92.0</ele><time>2026-04-19T15:04:47.13Z</time></trkpt><trkpt lat="39.759687" lon="15.839364"><ele>92.0</ele><time>2026-04-19T15:04:48.129Z</time></trkpt><trkpt lat="39.7597047" lon="15.8392424"><ele>92.0</ele><time>2026-04-19T15:04:49.13Z</time></trkpt><trkpt lat="39.7597225" lon="15.8391316"><ele>92.0</ele><time>2026-04-19T15:04:50.129Z</time></trkpt><trkpt lat="39.7597392" lon="15.839034"><ele>92.0</ele><time>2026-04-19T15:04:51.13Z</time></trkpt><trkpt lat="39.759755" lon="15.8389469"><ele>92.0</ele><time>2026-04-19T15:04:52.129Z</time></trkpt><trkpt lat="39.7597866" lon="15.8388275"><ele>91.16666666666667</ele><time>2026-04-19T15:04:54.13Z</time></trkpt><trkpt lat="39.7598432" lon="15.838756"><ele>90.33333333333334</ele><time>2026-04-19T15:04:57.13Z</time></trkpt><trkpt lat="39.7599147" lon="15.8386966"><ele>89.5</ele><time>2026-04-19T15:04:59.129Z</time></trkpt><trkpt lat="39.7599349" lon="15.8386085"><ele>88.66666666666667</ele><time>2026-04-19T15:05:01.129Z</time></trkpt><trkpt lat="39.7599009" lon="15.8384669"><ele>87.83333333333333</ele><time>2026-04-19T15:05:03.129Z</time></trkpt><trkpt lat="39.759868" lon="15.83838"><ele>87.0</ele><time>2026-04-19T15:05:04.13Z</time></trkpt><trkpt lat="39.7598311" lon="15.8382848"><ele>86.5</ele><time>2026-04-19T15:05:05.13Z</time></trkpt><trkpt lat="39.7597914" lon="15.8381873"><ele>86.0</ele><time>2026-04-19T15:05:06.129Z</time></trkpt><trkpt lat="39.7597446" lon="15.8380885"><ele>85.5</ele><time>2026-04-19T15:05:07.129Z</time></trkpt><trkpt lat="39.7596967" lon="15.8379938"><ele>85.0</ele><time>2026-04-19T15:05:08.129Z</time></trkpt><trkpt lat="39.7596501" lon="15.8378975"><ele>84.5</ele><time>2026-04-19T15:05:09.129Z</time></trkpt><trkpt lat="39.7596018" lon="15.8377861"><ele>84.0</ele><time>2026-04-19T15:05:10.129Z</time></trkpt><trkpt lat="39.7595612" lon="15.8376604"><ele>83.0</ele><time>2026-04-19T15:05:11.13Z</time></trkpt><trkpt lat="39.7595333" lon="15.8375258"><ele>82.0</ele><time>2026-04-19T15:05:12.13Z</time></trkpt><trkpt lat="39.759521" lon="15.8373859"><ele>81.0</ele><time>2026-04-19T15:05:13.129Z</time></trkpt><trkpt lat="39.7595171" lon="15.8372292"><ele>80.0</ele><time>2026-04-19T15:05:14.129Z</time></trkpt><trkpt lat="39.7595147" lon="15.8370623"><ele>80.0</ele><time>2026-04-19T15:05:15.129Z</time></trkpt><trkpt lat="39.7595174" lon="15.8368914"><ele>80.0</ele><time>2026-04-19T15:05:16.13Z</time></trkpt><trkpt lat="39.7595238" lon="15.83673"><ele>80.0</ele><time>2026-04-19T15:05:17.13Z</time></trkpt><trkpt lat="39.7595322" lon="15.8365769"><ele>80.0</ele><time>2026-04-19T15:05:18.129Z</time></trkpt><trkpt lat="39.7595565" lon="15.8364385"><ele>79.2</ele><time>2026-04-19T15:05:19.13Z</time></trkpt><trkpt lat="39.7596093" lon="15.8363155"><ele>78.4</ele><time>2026-04-19T15:05:20.129Z</time></trkpt><trkpt lat="39.7596808" lon="15.8362077"><ele>77.6</ele><time>2026-04-19T15:05:21.13Z</time></trkpt><trkpt lat="39.7597684" lon="15.8361193"><ele>76.8</ele><time>2026-04-19T15:05:22.129Z</time></trkpt><trkpt lat="39.7598705" lon="15.8360535"><ele>76.0</ele><time>2026-04-19T15:05:23.129Z</time></trkpt><trkpt lat="39.7599906" lon="15.8360139"><ele>76.0</ele><time>2026-04-19T15:05:24.13Z</time></trkpt><trkpt lat="39.7601202" lon="15.8360073"><ele>76.0</ele><time>2026-04-19T15:05:25.129Z</time></trkpt><trkpt lat="39.7602495" lon="15.8359928"><ele>76.0</ele><time>2026-04-19T15:05:26.129Z</time></trkpt><trkpt lat="39.7603752" lon="15.8359357"><ele>76.0</ele><time>2026-04-19T15:05:27.129Z</time></trkpt><trkpt lat="39.7604804" lon="15.8358427"><ele>75.0</ele><time>2026-04-19T15:05:28.129Z</time></trkpt><trkpt lat="39.7605585" lon="15.8356981"><ele>74.0</ele><time>2026-04-19T15:05:29.13Z</time></trkpt><trkpt lat="39.7606239" lon="15.8355291"><ele>73.0</ele><time>2026-04-19T15:05:30.129Z</time></trkpt><trkpt lat="39.7606769" lon="15.8353591"><ele>72.0</ele><time>2026-04-19T15:05:31.129Z</time></trkpt><trkpt lat="39.7607376" lon="15.8352134"><ele>73.0</ele><time>2026-04-19T15:05:32.13Z</time></trkpt><trkpt lat="39.7608217" lon="15.8350866"><ele>74.0</ele><time>2026-04-19T15:05:33.129Z</time></trkpt><trkpt lat="39.7609313" lon="15.8349806"><ele>75.0</ele><time>2026-04-19T15:05:34.129Z</time></trkpt><trkpt lat="39.7610555" lon="15.8348851"><ele>76.0</ele><time>2026-04-19T15:05:35.129Z</time></trkpt><trkpt lat="39.7611761" lon="15.8347548"><ele>73.33333333333333</ele><time>2026-04-19T15:05:36.13Z</time></trkpt><trkpt lat="39.7612845" lon="15.834605"><ele>70.66666666666667</ele><time>2026-04-19T15:05:37.129Z</time></trkpt><trkpt lat="39.7614002" lon="15.8344515"><ele>68.0</ele><time>2026-04-19T15:05:38.129Z</time></trkpt><trkpt lat="39.7615329" lon="15.834318"><ele>68.0</ele><time>2026-04-19T15:05:39.129Z</time></trkpt><trkpt lat="39.7616744" lon="15.8341959"><ele>68.0</ele><time>2026-04-19T15:05:40.129Z</time></trkpt><trkpt lat="39.7618172" lon="15.8340801"><ele>68.0</ele><time>2026-04-19T15:05:41.13Z</time></trkpt><trkpt lat="39.7619596" lon="15.8339669"><ele>68.0</ele><time>2026-04-19T15:05:42.13Z</time></trkpt><trkpt lat="39.7620995" lon="15.8338599"><ele>68.0</ele><time>2026-04-19T15:05:43.13Z</time></trkpt><trkpt lat="39.7622434" lon="15.8337548"><ele>68.0</ele><time>2026-04-19T15:05:44.13Z</time></trkpt><trkpt lat="39.7623853" lon="15.8336473"><ele>68.0</ele><time>2026-04-19T15:05:45.13Z</time></trkpt><trkpt lat="39.7625293" lon="15.8335396"><ele>68.0</ele><time>2026-04-19T15:05:46.13Z</time></trkpt><trkpt lat="39.7626662" lon="15.8334371"><ele>68.0</ele><time>2026-04-19T15:05:47.129Z</time></trkpt><trkpt lat="39.7628044" lon="15.8333459"><ele>71.0</ele><time>2026-04-19T15:05:48.13Z</time></trkpt><trkpt lat="39.7629532" lon="15.833265"><ele>74.0</ele><time>2026-04-19T15:05:49.129Z</time></trkpt><trkpt lat="39.7631024" lon="15.833194"><ele>77.0</ele><time>2026-04-19T15:05:50.13Z</time></trkpt><trkpt lat="39.7632474" lon="15.8331235"><ele>77.0</ele><time>2026-04-19T15:05:51.129Z</time></trkpt><trkpt lat="39.7633856" lon="15.8330597"><ele>77.0</ele><time>2026-04-19T15:05:52.129Z</time></trkpt><trkpt lat="39.7635112" lon="15.8329932"><ele>77.0</ele><time>2026-04-19T15:05:53.13Z</time></trkpt><trkpt lat="39.7636265" lon="15.8329158"><ele>77.0</ele><time>2026-04-19T15:05:54.129Z</time></trkpt><trkpt lat="39.7637293" lon="15.8328055"><ele>77.25</ele><time>2026-04-19T15:05:55.129Z</time></trkpt><trkpt lat="39.7638226" lon="15.832659"><ele>77.5</ele><time>2026-04-19T15:05:56.129Z</time></trkpt><trkpt lat="39.7639066" lon="15.8325139"><ele>77.75</ele><time>2026-04-19T15:05:57.129Z</time></trkpt><trkpt lat="39.7639827" lon="15.832388"><ele>78.0</ele><time>2026-04-19T15:05:58.129Z</time></trkpt><trkpt lat="39.7640678" lon="15.8322883"><ele>77.25</ele><time>2026-04-19T15:05:59.129Z</time></trkpt><trkpt lat="39.7641697" lon="15.8322082"><ele>76.5</ele><time>2026-04-19T15:06:00.129Z</time></trkpt><trkpt lat="39.7642918" lon="15.8321339"><ele>75.75</ele><time>2026-04-19T15:06:01.129Z</time></trkpt><trkpt lat="39.7644174" lon="15.8320524"><ele>75.0</ele><time>2026-04-19T15:06:02.13Z</time></trkpt><trkpt lat="39.7645325" lon="15.8319692"><ele>75.0</ele><time>2026-04-19T15:06:03.129Z</time></trkpt><trkpt lat="39.7646423" lon="15.8318824"><ele>75.0</ele><time>2026-04-19T15:06:04.129Z</time></trkpt><trkpt lat="39.7647489" lon="15.8317918"><ele>75.0</ele><time>2026-04-19T15:06:05.129Z</time></trkpt><trkpt lat="39.7648518" lon="15.8316993"><ele>75.0</ele><time>2026-04-19T15:06:06.129Z</time></trkpt><trkpt lat="39.7649592" lon="15.8315994"><ele>73.5</ele><time>2026-04-19T15:06:07.13Z</time></trkpt><trkpt lat="39.7650721" lon="15.8314976"><ele>72.0</ele><time>2026-04-19T15:06:08.13Z</time></trkpt><trkpt lat="39.7651831" lon="15.8313937"><ele>70.5</ele><time>2026-04-19T15:06:09.129Z</time></trkpt><trkpt lat="39.7652951" lon="15.8312888"><ele>69.0</ele><time>2026-04-19T15:06:10.129Z</time></trkpt><trkpt lat="39.7654009" lon="15.8311801"><ele>69.0</ele><time>2026-04-19T15:06:11.129Z</time></trkpt><trkpt lat="39.7655115" lon="15.8310697"><ele>69.0</ele><time>2026-04-19T15:06:12.129Z</time></trkpt><trkpt lat="39.7656259" lon="15.8309643"><ele>69.0</ele><time>2026-04-19T15:06:13.129Z</time></trkpt><trkpt lat="39.765734" lon="15.830859"><ele>69.0</ele><time>2026-04-19T15:06:14.129Z</time></trkpt><trkpt lat="39.7658429" lon="15.8307459"><ele>67.75</ele><time>2026-04-19T15:06:15.13Z</time></trkpt><trkpt lat="39.7659377" lon="15.8306328"><ele>66.5</ele><time>2026-04-19T15:06:16.129Z</time></trkpt><trkpt lat="39.7660316" lon="15.8305104"><ele>65.25</ele><time>2026-04-19T15:06:17.129Z</time></trkpt><trkpt lat="39.7661085" lon="15.830391"><ele>64.0</ele><time>2026-04-19T15:06:18.129Z</time></trkpt><trkpt lat="39.7661824" lon="15.830271"><ele>64.0</ele><time>2026-04-19T15:06:19.13Z</time></trkpt><trkpt lat="39.7662467" lon="15.8301522"><ele>64.0</ele><time>2026-04-19T15:06:20.129Z</time></trkpt><trkpt lat="39.766296" lon="15.8300266"><ele>64.0</ele><time>2026-04-19T15:06:21.129Z</time></trkpt><trkpt lat="39.7663217" lon="15.8298969"><ele>64.0</ele><time>2026-04-19T15:06:22.129Z</time></trkpt><trkpt lat="39.7663345" lon="15.8297549"><ele>64.0</ele><time>2026-04-19T15:06:23.13Z</time></trkpt><trkpt lat="39.7663322" lon="15.8296069"><ele>62.5</ele><time>2026-04-19T15:06:24.129Z</time></trkpt><trkpt lat="39.7663345" lon="15.8294483"><ele>61.0</ele><time>2026-04-19T15:06:25.129Z</time></trkpt><trkpt lat="39.7663377" lon="15.8292813"><ele>59.5</ele><time>2026-04-19T15:06:26.129Z</time></trkpt><trkpt lat="39.7663375" lon="15.829122"><ele>58.0</ele><time>2026-04-19T15:06:27.13Z</time></trkpt><trkpt lat="39.7663332" lon="15.8289754"><ele>57.0</ele><time>2026-04-19T15:06:28.129Z</time></trkpt><trkpt lat="39.7663317" lon="15.8288314"><ele>56.0</ele><time>2026-04-19T15:06:29.13Z</time></trkpt><trkpt lat="39.7663384" lon="15.82869"><ele>55.0</ele><time>2026-04-19T15:06:30.13Z</time></trkpt><trkpt lat="39.7663573" lon="15.8285488"><ele>54.0</ele><time>2026-04-19T15:06:31.13Z</time></trkpt><trkpt lat="39.7663982" lon="15.828426"><ele>53.0</ele><time>2026-04-19T15:06:32.129Z</time></trkpt><trkpt lat="39.7664614" lon="15.8283139"><ele>52.2</ele><time>2026-04-19T15:06:33.13Z</time></trkpt><trkpt lat="39.7665326" lon="15.8282028"><ele>51.4</ele><time>2026-04-19T15:06:34.13Z</time></trkpt><trkpt lat="39.7666064" lon="15.8280967"><ele>50.6</ele><time>2026-04-19T15:06:35.13Z</time></trkpt><trkpt lat="39.7666832" lon="15.8279937"><ele>49.800000000000004</ele><time>2026-04-19T15:06:36.129Z</time></trkpt><trkpt lat="39.766768" lon="15.8279011"><ele>49.0</ele><time>2026-04-19T15:06:37.129Z</time></trkpt><trkpt lat="39.7668684" lon="15.8278285"><ele>49.0</ele><time>2026-04-19T15:06:38.13Z</time></trkpt><trkpt lat="39.766989" lon="15.8277553"><ele>49.0</ele><time>2026-04-19T15:06:39.13Z</time></trkpt><trkpt lat="39.7671015" lon="15.8276813"><ele>49.0</ele><time>2026-04-19T15:06:40.129Z</time></trkpt><trkpt lat="39.7672135" lon="15.8276087"><ele>49.0</ele><time>2026-04-19T15:06:41.13Z</time></trkpt><trkpt lat="39.7673181" lon="15.8275478"><ele>47.6</ele><time>2026-04-19T15:06:42.129Z</time></trkpt><trkpt lat="39.7674129" lon="15.8274882"><ele>46.2</ele><time>2026-04-19T15:06:43.13Z</time></trkpt><trkpt lat="39.7674999" lon="15.8274383"><ele>44.800000000000004</ele><time>2026-04-19T15:06:44.13Z</time></trkpt><trkpt lat="39.7675872" lon="15.8273899"><ele>43.400000000000006</ele><time>2026-04-19T15:06:45.129Z</time></trkpt><trkpt lat="39.7676757" lon="15.8273526"><ele>42.0</ele><time>2026-04-19T15:06:46.13Z</time></trkpt><trkpt lat="39.7677764" lon="15.8273281"><ele>40.75</ele><time>2026-04-19T15:06:47.129Z</time></trkpt><trkpt lat="39.7678797" lon="15.8273186"><ele>39.5</ele><time>2026-04-19T15:06:48.13Z</time></trkpt><trkpt lat="39.7679948" lon="15.8273219"><ele>38.25</ele><time>2026-04-19T15:06:49.13Z</time></trkpt><trkpt lat="39.7681216" lon="15.8273347"><ele>37.0</ele><time>2026-04-19T15:06:50.13Z</time></trkpt><trkpt lat="39.7682496" lon="15.8273566"><ele>37.0</ele><time>2026-04-19T15:06:51.129Z</time></trkpt><trkpt lat="39.7683851" lon="15.8273784"><ele>37.0</ele><time>2026-04-19T15:06:52.129Z</time></trkpt><trkpt lat="39.7685241" lon="15.8273946"><ele>37.0</ele><time>2026-04-19T15:06:53.129Z</time></trkpt><trkpt lat="39.768658" lon="15.8274172"><ele>37.0</ele><time>2026-04-19T15:06:54.129Z</time></trkpt><trkpt lat="39.7687848" lon="15.8274312"><ele>35.5</ele><time>2026-04-19T15:06:55.13Z</time></trkpt><trkpt lat="39.7689081" lon="15.8274459"><ele>34.0</ele><time>2026-04-19T15:06:56.129Z</time></trkpt><trkpt lat="39.7690224" lon="15.8274577"><ele>32.5</ele><time>2026-04-19T15:06:57.13Z</time></trkpt><trkpt lat="39.7691302" lon="15.8274759"><ele>31.0</ele><time>2026-04-19T15:06:58.13Z</time></trkpt><trkpt lat="39.7692365" lon="15.8274872"><ele>31.0</ele><time>2026-04-19T15:06:59.129Z</time></trkpt><trkpt lat="39.7693429" lon="15.8275032"><ele>31.0</ele><time>2026-04-19T15:07:00.129Z</time></trkpt><trkpt lat="39.7694492" lon="15.8275235"><ele>31.0</ele><time>2026-04-19T15:07:01.13Z</time></trkpt><trkpt lat="39.7695447" lon="15.827564"><ele>31.0</ele><time>2026-04-19T15:07:02.129Z</time></trkpt><trkpt lat="39.7696206" lon="15.8276264"><ele>31.0</ele><time>2026-04-19T15:07:03.129Z</time></trkpt><trkpt lat="39.769668" lon="15.8277253"><ele>29.0</ele><time>2026-04-19T15:07:04.129Z</time></trkpt><trkpt lat="39.7696824" lon="15.8278394"><ele>27.0</ele><time>2026-04-19T15:07:05.13Z</time></trkpt><trkpt lat="39.7696599" lon="15.8279627"><ele>25.0</ele><time>2026-04-19T15:07:06.13Z</time></trkpt><trkpt lat="39.7696143" lon="15.8281008"><ele>23.0</ele><time>2026-04-19T15:07:07.129Z</time></trkpt><trkpt lat="39.7696023" lon="15.8282359"><ele>21.0</ele><time>2026-04-19T15:07:08.13Z</time></trkpt><trkpt lat="39.7696123" lon="15.8283621"><ele>21.75</ele><time>2026-04-19T15:07:09.129Z</time></trkpt><trkpt lat="39.7696541" lon="15.8284813"><ele>22.5</ele><time>2026-04-19T15:07:10.129Z</time></trkpt><trkpt lat="39.7697109" lon="15.8286053"><ele>23.25</ele><time>2026-04-19T15:07:11.129Z</time></trkpt><trkpt lat="39.7697496" lon="15.8287605"><ele>24.0</ele><time>2026-04-19T15:07:12.13Z</time></trkpt><trkpt lat="39.7697804" lon="15.8289342"><ele>24.0</ele><time>2026-04-19T15:07:13.13Z</time></trkpt><trkpt lat="39.7697966" lon="15.8291173"><ele>24.0</ele><time>2026-04-19T15:07:14.129Z</time></trkpt><trkpt lat="39.7698204" lon="15.8292902"><ele>24.0</ele><time>2026-04-19T15:07:15.13Z</time></trkpt><trkpt lat="39.7698283" lon="15.8294388"><ele>24.0</ele><time>2026-04-19T15:07:16.13Z</time></trkpt><trkpt lat="39.7698336" lon="15.8296003"><ele>26.333333333333336</ele><time>2026-04-19T15:07:17.129Z</time></trkpt><trkpt lat="39.7698644" lon="15.8297678"><ele>28.666666666666668</ele><time>2026-04-19T15:07:18.129Z</time></trkpt><trkpt lat="39.7699208" lon="15.8299701"><ele>31.0</ele><time>2026-04-19T15:07:19.13Z</time></trkpt><trkpt lat="39.7699828" lon="15.8302202"><ele>32.66666666666667</ele><time>2026-04-19T15:07:20.129Z</time></trkpt><trkpt lat="39.7700424" lon="15.8304664"><ele>34.333333333333336</ele><time>2026-04-19T15:07:21.129Z</time></trkpt><trkpt lat="39.770097" lon="15.8306896"><ele>36.0</ele><time>2026-04-19T15:07:22.13Z</time></trkpt><trkpt lat="39.770148" lon="15.8308866"><ele>35.0</ele><time>2026-04-19T15:07:23.13Z</time></trkpt><trkpt lat="39.7701905" lon="15.8310579"><ele>34.0</ele><time>2026-04-19T15:07:24.13Z</time></trkpt><trkpt lat="39.7702287" lon="15.8312089"><ele>33.0</ele><time>2026-04-19T15:07:25.13Z</time></trkpt><trkpt lat="39.7702636" lon="15.8313436"><ele>32.0</ele><time>2026-04-19T15:07:26.13Z</time></trkpt><trkpt lat="39.7702947" lon="15.8314681"><ele>29.400000000000002</ele><time>2026-04-19T15:07:27.13Z</time></trkpt><trkpt lat="39.7703207" lon="15.8315823"><ele>26.800000000000004</ele><time>2026-04-19T15:07:28.129Z</time></trkpt><trkpt lat="39.7703542" lon="15.8316983"><ele>24.2</ele><time>2026-04-19T15:07:29.13Z</time></trkpt><trkpt lat="39.7703985" lon="15.8318091"><ele>21.6</ele><time>2026-04-19T15:07:30.13Z</time></trkpt><trkpt lat="39.7704531" lon="15.8318939"><ele>19.0</ele><time>2026-04-19T15:07:31.129Z</time></trkpt><trkpt lat="39.7705316" lon="15.8319594"><ele>19.0</ele><time>2026-04-19T15:07:32.13Z</time></trkpt><trkpt lat="39.7706328" lon="15.8319923"><ele>19.0</ele><time>2026-04-19T15:07:33.13Z</time></trkpt><trkpt lat="39.7707495" lon="15.8319827"><ele>19.0</ele><time>2026-04-19T15:07:34.13Z</time></trkpt><trkpt lat="39.7708923" lon="15.8319528"><ele>19.0</ele><time>2026-04-19T15:07:35.13Z</time></trkpt><trkpt lat="39.7710658" lon="15.8319103"><ele>18.666666666666664</ele><time>2026-04-19T15:07:36.13Z</time></trkpt><trkpt lat="39.7712396" lon="15.8318756"><ele>18.333333333333332</ele><time>2026-04-19T15:07:37.129Z</time></trkpt><trkpt lat="39.7714131" lon="15.8318397"><ele>18.0</ele><time>2026-04-19T15:07:38.129Z</time></trkpt><trkpt lat="39.7716373" lon="15.8317813"><ele>18.0</ele><time>2026-04-19T15:07:39.13Z</time></trkpt><trkpt lat="39.7718392" lon="15.8317286"><ele>18.0</ele><time>2026-04-19T15:07:40.129Z</time></trkpt><trkpt lat="39.7720445" lon="15.8316733"><ele>18.0</ele><time>2026-04-19T15:07:41.129Z</time></trkpt><trkpt lat="39.7722511" lon="15.8316128"><ele>18.0</ele><time>2026-04-19T15:07:42.129Z</time></trkpt><trkpt lat="39.7724534" lon="15.8315584"><ele>18.0</ele><time>2026-04-19T15:07:43.129Z</time></trkpt><trkpt lat="39.7726465" lon="15.8315124"><ele>18.0</ele><time>2026-04-19T15:07:44.13Z</time></trkpt><trkpt lat="39.7728408" lon="15.8314665"><ele>17.0</ele><time>2026-04-19T15:07:45.129Z</time></trkpt><trkpt lat="39.7730294" lon="15.8314232"><ele>16.0</ele><time>2026-04-19T15:07:46.129Z</time></trkpt><trkpt lat="39.7732157" lon="15.8313803"><ele>15.0</ele><time>2026-04-19T15:07:47.129Z</time></trkpt><trkpt lat="39.7734138" lon="15.8313347"><ele>14.666666666666668</ele><time>2026-04-19T15:07:48.129Z</time></trkpt><trkpt lat="39.773605" lon="15.8312891"><ele>14.333333333333334</ele><time>2026-04-19T15:07:49.13Z</time></trkpt><trkpt lat="39.7738008" lon="15.8312427"><ele>14.0</ele><time>2026-04-19T15:07:50.129Z</time></trkpt><trkpt lat="39.7739946" lon="15.831192"><ele>14.0</ele><time>2026-04-19T15:07:51.129Z</time></trkpt><trkpt lat="39.7741845" lon="15.8311452"><ele>14.0</ele><time>2026-04-19T15:07:52.13Z</time></trkpt><trkpt lat="39.7743761" lon="15.8310998"><ele>14.0</ele><time>2026-04-19T15:07:53.13Z</time></trkpt><trkpt lat="39.7745731" lon="15.8310622"><ele>14.0</ele><time>2026-04-19T15:07:54.129Z</time></trkpt><trkpt lat="39.7747672" lon="15.8310151"><ele>14.0</ele><time>2026-04-19T15:07:55.129Z</time></trkpt><trkpt lat="39.7749572" lon="15.8309671"><ele>14.0</ele><time>2026-04-19T15:07:56.13Z</time></trkpt><trkpt lat="39.7751417" lon="15.8309233"><ele>14.333333333333334</ele><time>2026-04-19T15:07:57.129Z</time></trkpt><trkpt lat="39.7753258" lon="15.8308781"><ele>14.666666666666668</ele><time>2026-04-19T15:07:58.13Z</time></trkpt><trkpt lat="39.7755091" lon="15.8308343"><ele>15.0</ele><time>2026-04-19T15:07:59.129Z</time></trkpt><trkpt lat="39.7756876" lon="15.8307916"><ele>15.0</ele><time>2026-04-19T15:08:00.129Z</time></trkpt><trkpt lat="39.7758583" lon="15.830751"><ele>15.0</ele><time>2026-04-19T15:08:01.129Z</time></trkpt><trkpt lat="39.7760192" lon="15.8307141"><ele>15.0</ele><time>2026-04-19T15:08:02.129Z</time></trkpt><trkpt lat="39.776166" lon="15.8306813"><ele>15.0</ele><time>2026-04-19T15:08:03.13Z</time></trkpt><trkpt lat="39.7763148" lon="15.8306447"><ele>15.0</ele><time>2026-04-19T15:08:04.129Z</time></trkpt><trkpt lat="39.7764615" lon="15.8306074"><ele>15.0</ele><time>2026-04-19T15:08:05.13Z</time></trkpt><trkpt lat="39.7766092" lon="15.8305695"><ele>15.0</ele><time>2026-04-19T15:08:06.13Z</time></trkpt><trkpt lat="39.7767667" lon="15.8305355"><ele>15.0</ele><time>2026-04-19T15:08:07.129Z</time></trkpt><trkpt lat="39.7769299" lon="15.830496"><ele>15.0</ele><time>2026-04-19T15:08:08.129Z</time></trkpt><trkpt lat="39.7770983" lon="15.8304575"><ele>15.333333333333332</ele><time>2026-04-19T15:08:09.13Z</time></trkpt><trkpt lat="39.7772696" lon="15.8304156"><ele>15.666666666666666</ele><time>2026-04-19T15:08:10.129Z</time></trkpt><trkpt lat="39.7774469" lon="15.8303714"><ele>16.0</ele><time>2026-04-19T15:08:11.13Z</time></trkpt><trkpt lat="39.7776266" lon="15.8303268"><ele>16.0</ele><time>2026-04-19T15:08:12.129Z</time></trkpt><trkpt lat="39.7778069" lon="15.8302846"><ele>16.0</ele><time>2026-04-19T15:08:13.129Z</time></trkpt><trkpt lat="39.777984" lon="15.8302463"><ele>16.0</ele><time>2026-04-19T15:08:14.129Z</time></trkpt><trkpt lat="39.7781605" lon="15.8302032"><ele>16.0</ele><time>2026-04-19T15:08:15.13Z</time></trkpt><trkpt lat="39.7783424" lon="15.8301565"><ele>16.0</ele><time>2026-04-19T15:08:16.129Z</time></trkpt><trkpt lat="39.7785008" lon="15.8301102"><ele>16.0</ele><time>2026-04-19T15:08:17.13Z</time></trkpt><trkpt lat="39.7786661" lon="15.8300708"><ele>16.333333333333332</ele><time>2026-04-19T15:08:18.13Z</time></trkpt><trkpt lat="39.7788342" lon="15.8300263"><ele>16.666666666666668</ele><time>2026-04-19T15:08:19.13Z</time></trkpt><trkpt lat="39.7790129" lon="15.8299748"><ele>17.0</ele><time>2026-04-19T15:08:20.13Z</time></trkpt><trkpt lat="39.7791593" lon="15.8299448"><ele>17.0</ele><time>2026-04-19T15:08:21.13Z</time></trkpt><trkpt lat="39.7793137" lon="15.829904"><ele>17.0</ele><time>2026-04-19T15:08:22.13Z</time></trkpt><trkpt lat="39.7794662" lon="15.8298672"><ele>17.0</ele><time>2026-04-19T15:08:23.129Z</time></trkpt><trkpt lat="39.7796072" lon="15.8298332"><ele>17.0</ele><time>2026-04-19T15:08:24.13Z</time></trkpt><trkpt lat="39.7797413" lon="15.829799"><ele>17.0</ele><time>2026-04-19T15:08:25.129Z</time></trkpt><trkpt lat="39.7798759" lon="15.8297787"><ele>17.0</ele><time>2026-04-19T15:08:26.13Z</time></trkpt><trkpt lat="39.7799947" lon="15.8297553"><ele>17.0</ele><time>2026-04-19T15:08:27.13Z</time></trkpt><trkpt lat="39.7801071" lon="15.829735"><ele>17.0</ele><time>2026-04-19T15:08:28.13Z</time></trkpt><trkpt lat="39.7802094" lon="15.8297113"><ele>17.0</ele><time>2026-04-19T15:08:29.129Z</time></trkpt><trkpt lat="39.7803047" lon="15.8296922"><ele>17.0</ele><time>2026-04-19T15:08:30.13Z</time></trkpt><trkpt lat="39.7804" lon="15.8296651"><ele>17.0</ele><time>2026-04-19T15:08:31.13Z</time></trkpt><trkpt lat="39.780503" lon="15.82964"><ele>17.0</ele><time>2026-04-19T15:08:32.13Z</time></trkpt><trkpt lat="39.7806043" lon="15.8296146"><ele>17.0</ele><time>2026-04-19T15:08:33.129Z</time></trkpt><trkpt lat="39.7807073" lon="15.8295826"><ele>17.0</ele><time>2026-04-19T15:08:34.13Z</time></trkpt><trkpt lat="39.7808073" lon="15.8295558"><ele>17.0</ele><time>2026-04-19T15:08:35.13Z</time></trkpt><trkpt lat="39.7809102" lon="15.8295337"><ele>17.0</ele><time>2026-04-19T15:08:36.13Z</time></trkpt><trkpt lat="39.7810175" lon="15.829507"><ele>17.0</ele><time>2026-04-19T15:08:37.129Z</time></trkpt><trkpt lat="39.7811354" lon="15.8294682"><ele>17.25</ele><time>2026-04-19T15:08:38.129Z</time></trkpt><trkpt lat="39.7812518" lon="15.8294381"><ele>17.5</ele><time>2026-04-19T15:08:39.13Z</time></trkpt><trkpt lat="39.7813673" lon="15.8294103"><ele>17.75</ele><time>2026-04-19T15:08:40.129Z</time></trkpt><trkpt lat="39.7814745" lon="15.8293935"><ele>18.0</ele><time>2026-04-19T15:08:41.13Z</time></trkpt><trkpt lat="39.7816054" lon="15.8293632"><ele>18.0</ele><time>2026-04-19T15:08:42.129Z</time></trkpt><trkpt lat="39.7817349" lon="15.8293306"><ele>18.0</ele><time>2026-04-19T15:08:43.129Z</time></trkpt><trkpt lat="39.7818568" lon="15.8292977"><ele>18.0</ele><time>2026-04-19T15:08:44.13Z</time></trkpt><trkpt lat="39.7819762" lon="15.8292677"><ele>18.0</ele><time>2026-04-19T15:08:45.13Z</time></trkpt><trkpt lat="39.7820892" lon="15.8292441"><ele>18.2</ele><time>2026-04-19T15:08:46.129Z</time></trkpt><trkpt lat="39.7821937" lon="15.8292149"><ele>18.4</ele><time>2026-04-19T15:08:47.13Z</time></trkpt><trkpt lat="39.7822964" lon="15.8291927"><ele>18.599999999999998</ele><time>2026-04-19T15:08:48.13Z</time></trkpt><trkpt lat="39.7823982" lon="15.829171"><ele>18.8</ele><time>2026-04-19T15:08:49.129Z</time></trkpt><trkpt lat="39.7824993" lon="15.8291549"><ele>19.0</ele><time>2026-04-19T15:08:50.13Z</time></trkpt><trkpt lat="39.7825932" lon="15.8291387"><ele>21.799999999999997</ele><time>2026-04-19T15:08:51.129Z</time></trkpt><trkpt lat="39.7826825" lon="15.8291162"><ele>24.599999999999998</ele><time>2026-04-19T15:08:52.129Z</time></trkpt><trkpt lat="39.7827663" lon="15.8290757"><ele>27.4</ele><time>2026-04-19T15:08:53.129Z</time></trkpt><trkpt lat="39.7828433" lon="15.829016"><ele>30.2</ele><time>2026-04-19T15:08:54.13Z</time></trkpt><trkpt lat="39.7829136" lon="15.8289399"><ele>33.0</ele><time>2026-04-19T15:08:55.13Z</time></trkpt><trkpt lat="39.7829775" lon="15.8288433"><ele>33.0</ele><time>2026-04-19T15:08:56.13Z</time></trkpt><trkpt lat="39.7830241" lon="15.8287326"><ele>33.0</ele><time>2026-04-19T15:08:57.13Z</time></trkpt><trkpt lat="39.7830582" lon="15.8286066"><ele>33.0</ele><time>2026-04-19T15:08:58.129Z</time></trkpt><trkpt lat="39.7830747" lon="15.8284759"><ele>33.0</ele><time>2026-04-19T15:08:59.129Z</time></trkpt><trkpt lat="39.7830769" lon="15.8283461"><ele>33.0</ele><time>2026-04-19T15:09:00.129Z</time></trkpt><trkpt lat="39.7830606" lon="15.8282088"><ele>34.75</ele><time>2026-04-19T15:09:01.129Z</time></trkpt><trkpt lat="39.7830225" lon="15.8280785"><ele>36.5</ele><time>2026-04-19T15:09:02.129Z</time></trkpt><trkpt lat="39.7829621" lon="15.8279528"><ele>38.25</ele><time>2026-04-19T15:09:03.129Z</time></trkpt><trkpt lat="39.7828906" lon="15.8278278"><ele>40.0</ele><time>2026-04-19T15:09:04.129Z</time></trkpt><trkpt lat="39.7828076" lon="15.827711"><ele>42.25</ele><time>2026-04-19T15:09:05.129Z</time></trkpt><trkpt lat="39.7827118" lon="15.827606"><ele>44.5</ele><time>2026-04-19T15:09:06.13Z</time></trkpt><trkpt lat="39.7826074" lon="15.8275015"><ele>46.75</ele><time>2026-04-19T15:09:07.13Z</time></trkpt><trkpt lat="39.7825169" lon="15.8273876"><ele>49.0</ele><time>2026-04-19T15:09:08.129Z</time></trkpt><trkpt lat="39.7824346" lon="15.8272634"><ele>45.25</ele><time>2026-04-19T15:09:09.129Z</time></trkpt><trkpt lat="39.7823514" lon="15.8271315"><ele>41.5</ele><time>2026-04-19T15:09:10.129Z</time></trkpt><trkpt lat="39.7822699" lon="15.8270054"><ele>37.75</ele><time>2026-04-19T15:09:11.13Z</time></trkpt><trkpt lat="39.7821828" lon="15.826877"><ele>34.0</ele><time>2026-04-19T15:09:12.129Z</time></trkpt><trkpt lat="39.7821012" lon="15.8267546"><ele>34.0</ele><time>2026-04-19T15:09:13.129Z</time></trkpt><trkpt lat="39.7820128" lon="15.8266368"><ele>34.0</ele><time>2026-04-19T15:09:14.129Z</time></trkpt><trkpt lat="39.7819283" lon="15.826541"><ele>34.0</ele><time>2026-04-19T15:09:15.129Z</time></trkpt><trkpt lat="39.7818558" lon="15.8264456"><ele>34.0</ele><time>2026-04-19T15:09:16.13Z</time></trkpt><trkpt lat="39.781802" lon="15.8263498"><ele>34.0</ele><time>2026-04-19T15:09:17.129Z</time></trkpt><trkpt lat="39.781775" lon="15.8262505"><ele>33.0</ele><time>2026-04-19T15:09:18.129Z</time></trkpt><trkpt lat="39.7817784" lon="15.8261498"><ele>32.0</ele><time>2026-04-19T15:09:19.13Z</time></trkpt><trkpt lat="39.7817963" lon="15.8260403"><ele>31.0</ele><time>2026-04-19T15:09:20.13Z</time></trkpt><trkpt lat="39.7818156" lon="15.8259246"><ele>30.0</ele><time>2026-04-19T15:09:21.129Z</time></trkpt><trkpt lat="39.7818336" lon="15.8258128"><ele>29.000000000000004</ele><time>2026-04-19T15:09:22.13Z</time></trkpt><trkpt lat="39.7818293" lon="15.8256902"><ele>28.0</ele><time>2026-04-19T15:09:23.13Z</time></trkpt><trkpt lat="39.7818339" lon="15.8255889"><ele>29.599999999999998</ele><time>2026-04-19T15:09:24.13Z</time></trkpt><trkpt lat="39.7818647" lon="15.8254725"><ele>31.199999999999996</ele><time>2026-04-19T15:09:25.13Z</time></trkpt><trkpt lat="39.781908" lon="15.8253584"><ele>32.8</ele><time>2026-04-19T15:09:26.129Z</time></trkpt><trkpt lat="39.7819668" lon="15.8252524"><ele>34.4</ele><time>2026-04-19T15:09:27.129Z</time></trkpt><trkpt lat="39.7820301" lon="15.8251496"><ele>36.0</ele><time>2026-04-19T15:09:28.13Z</time></trkpt><trkpt lat="39.7821094" lon="15.8250586"><ele>36.0</ele><time>2026-04-19T15:09:29.129Z</time></trkpt><trkpt lat="39.7821959" lon="15.8249725"><ele>36.0</ele><time>2026-04-19T15:09:30.13Z</time></trkpt><trkpt lat="39.7822828" lon="15.8248841"><ele>36.0</ele><time>2026-04-19T15:09:31.13Z</time></trkpt><trkpt lat="39.7823776" lon="15.8248197"><ele>36.0</ele><time>2026-04-19T15:09:32.129Z</time></trkpt><trkpt lat="39.782467" lon="15.8247825"><ele>36.0</ele><time>2026-04-19T15:09:33.13Z</time></trkpt><trkpt lat="39.7825741" lon="15.8247719"><ele>36.0</ele><time>2026-04-19T15:09:34.13Z</time></trkpt><trkpt lat="39.7826728" lon="15.824803"><ele>36.0</ele><time>2026-04-19T15:09:35.129Z</time></trkpt><trkpt lat="39.7827653" lon="15.8248372"><ele>36.0</ele><time>2026-04-19T15:09:36.129Z</time></trkpt><trkpt lat="39.7828644" lon="15.8248746"><ele>36.0</ele><time>2026-04-19T15:09:37.13Z</time></trkpt><trkpt lat="39.7829511" lon="15.8248939"><ele>36.0</ele><time>2026-04-19T15:09:38.129Z</time></trkpt><trkpt lat="39.7830367" lon="15.8248864"><ele>36.333333333333336</ele><time>2026-04-19T15:09:39.129Z</time></trkpt><trkpt lat="39.7831149" lon="15.8248655"><ele>36.666666666666664</ele><time>2026-04-19T15:09:40.129Z</time></trkpt><trkpt lat="39.7831519" lon="15.8247621"><ele>37.0</ele><time>2026-04-19T15:09:41.129Z</time></trkpt><trkpt lat="39.7831913" lon="15.8246925"><ele>37.33333333333333</ele><time>2026-04-19T15:09:42.13Z</time></trkpt><trkpt lat="39.7832767" lon="15.824617"><ele>37.666666666666664</ele><time>2026-04-19T15:09:44.129Z</time></trkpt><trkpt lat="39.7833397" lon="15.8246381"><ele>38.0</ele><time>2026-04-19T15:09:46.129Z</time></trkpt><trkpt lat="39.7834023" lon="15.8247881"><ele>38.0</ele><time>2026-04-19T15:09:48.129Z</time></trkpt><trkpt lat="39.7834358" lon="15.8248932"><ele>38.0</ele><time>2026-04-19T15:09:49.129Z</time></trkpt><trkpt lat="39.7834683" lon="15.8250078"><ele>38.0</ele><time>2026-04-19T15:09:50.129Z</time></trkpt><trkpt lat="39.7835071" lon="15.8251442"><ele>38.0</ele><time>2026-04-19T15:09:51.129Z</time></trkpt><trkpt lat="39.7835541" lon="15.8253118"><ele>38.0</ele><time>2026-04-19T15:09:52.129Z</time></trkpt><trkpt lat="39.7836092" lon="15.8255131"><ele>39.666666666666664</ele><time>2026-04-19T15:09:53.129Z</time></trkpt><trkpt lat="39.7836762" lon="15.8257465"><ele>41.333333333333336</ele><time>2026-04-19T15:09:54.13Z</time></trkpt><trkpt lat="39.7837354" lon="15.825958"><ele>43.0</ele><time>2026-04-19T15:09:55.13Z</time></trkpt><trkpt lat="39.7837878" lon="15.8261528"><ele>46.0</ele><time>2026-04-19T15:09:56.129Z</time></trkpt><trkpt lat="39.7838471" lon="15.8263534"><ele>49.0</ele><time>2026-04-19T15:09:57.129Z</time></trkpt><trkpt lat="39.7838979" lon="15.8265468"><ele>52.0</ele><time>2026-04-19T15:09:58.13Z</time></trkpt><trkpt lat="39.7839512" lon="15.8267299"><ele>53.33333333333333</ele><time>2026-04-19T15:09:59.129Z</time></trkpt><trkpt lat="39.7840126" lon="15.8269048"><ele>54.66666666666667</ele><time>2026-04-19T15:10:00.129Z</time></trkpt><trkpt lat="39.7840903" lon="15.8270749"><ele>56.0</ele><time>2026-04-19T15:10:01.13Z</time></trkpt><trkpt lat="39.7841796" lon="15.8272414"><ele>56.0</ele><time>2026-04-19T15:10:02.129Z</time></trkpt><trkpt lat="39.784284" lon="15.8274015"><ele>56.0</ele><time>2026-04-19T15:10:03.13Z</time></trkpt><trkpt lat="39.7844189" lon="15.82756"><ele>56.0</ele><time>2026-04-19T15:10:04.129Z</time></trkpt><trkpt lat="39.7845407" lon="15.8277172"><ele>56.5</ele><time>2026-04-19T15:10:05.13Z</time></trkpt><trkpt lat="39.7846474" lon="15.8278512"><ele>57.0</ele><time>2026-04-19T15:10:06.129Z</time></trkpt><trkpt lat="39.7847522" lon="15.8279907"><ele>57.5</ele><time>2026-04-19T15:10:07.13Z</time></trkpt><trkpt lat="39.7848517" lon="15.8281141"><ele>58.0</ele><time>2026-04-19T15:10:08.13Z</time></trkpt><trkpt lat="39.7849312" lon="15.8282415"><ele>58.0</ele><time>2026-04-19T15:10:09.13Z</time></trkpt><trkpt lat="39.7850111" lon="15.828376"><ele>58.0</ele><time>2026-04-19T15:10:10.13Z</time></trkpt><trkpt lat="39.7850491" lon="15.8285237"><ele>58.0</ele><time>2026-04-19T15:10:11.13Z</time></trkpt><trkpt lat="39.7850702" lon="15.8286868"><ele>58.0</ele><time>2026-04-19T15:10:12.13Z</time></trkpt><trkpt lat="39.785077" lon="15.8288566"><ele>59.25</ele><time>2026-04-19T15:10:13.13Z</time></trkpt><trkpt lat="39.7850645" lon="15.8290216"><ele>60.5</ele><time>2026-04-19T15:10:14.129Z</time></trkpt><trkpt lat="39.785041" lon="15.8291795"><ele>61.75</ele><time>2026-04-19T15:10:15.129Z</time></trkpt><trkpt lat="39.785015" lon="15.829326"><ele>63.0</ele><time>2026-04-19T15:10:16.13Z</time></trkpt><trkpt lat="39.7849832" lon="15.8294636"><ele>63.333333333333336</ele><time>2026-04-19T15:10:17.13Z</time></trkpt><trkpt lat="39.7849558" lon="15.8295828"><ele>63.66666666666667</ele><time>2026-04-19T15:10:18.13Z</time></trkpt><trkpt lat="39.7849427" lon="15.8296695"><ele>64.0</ele><time>2026-04-19T15:10:19.129Z</time></trkpt><trkpt lat="39.7849306" lon="15.8297649"><ele>64.33333333333334</ele><time>2026-04-19T15:10:20.13Z</time></trkpt><trkpt lat="39.7848975" lon="15.8298765"><ele>64.66666666666667</ele><time>2026-04-19T15:10:21.129Z</time></trkpt><trkpt lat="39.7848586" lon="15.830005"><ele>65.0</ele><time>2026-04-19T15:10:22.13Z</time></trkpt><trkpt lat="39.7848219" lon="15.8301493"><ele>65.75</ele><time>2026-04-19T15:10:23.13Z</time></trkpt><trkpt lat="39.7847816" lon="15.8303062"><ele>66.5</ele><time>2026-04-19T15:10:24.129Z</time></trkpt><trkpt lat="39.7847407" lon="15.8304655"><ele>67.25</ele><time>2026-04-19T15:10:25.129Z</time></trkpt><trkpt lat="39.784706" lon="15.8306148"><ele>68.0</ele><time>2026-04-19T15:10:26.129Z</time></trkpt><trkpt lat="39.7846712" lon="15.8307644"><ele>68.0</ele><time>2026-04-19T15:10:27.13Z</time></trkpt><trkpt lat="39.7846393" lon="15.8309168"><ele>68.0</ele><time>2026-04-19T15:10:28.129Z</time></trkpt><trkpt lat="39.7846122" lon="15.8310656"><ele>68.0</ele><time>2026-04-19T15:10:29.13Z</time></trkpt><trkpt lat="39.784607" lon="15.8312138"><ele>68.0</ele><time>2026-04-19T15:10:30.13Z</time></trkpt><trkpt lat="39.784626" lon="15.8313661"><ele>68.5</ele><time>2026-04-19T15:10:31.129Z</time></trkpt><trkpt lat="39.7846683" lon="15.8315171"><ele>69.0</ele><time>2026-04-19T15:10:32.129Z</time></trkpt><trkpt lat="39.7847257" lon="15.8316789"><ele>69.5</ele><time>2026-04-19T15:10:33.13Z</time></trkpt><trkpt lat="39.7847911" lon="15.8318426"><ele>70.0</ele><time>2026-04-19T15:10:34.129Z</time></trkpt><trkpt lat="39.7848731" lon="15.8320034"><ele>68.0</ele><time>2026-04-19T15:10:35.129Z</time></trkpt><trkpt lat="39.7849813" lon="15.832189"><ele>66.0</ele><time>2026-04-19T15:10:36.129Z</time></trkpt><trkpt lat="39.7851071" lon="15.8323934"><ele>64.0</ele><time>2026-04-19T15:10:37.129Z</time></trkpt><trkpt lat="39.7852375" lon="15.8326023"><ele>67.33333333333333</ele><time>2026-04-19T15:10:38.13Z</time></trkpt><trkpt lat="39.7853648" lon="15.8328092"><ele>70.66666666666667</ele><time>2026-04-19T15:10:39.129Z</time></trkpt><trkpt lat="39.7854939" lon="15.8330225"><ele>74.0</ele><time>2026-04-19T15:10:40.129Z</time></trkpt><trkpt lat="39.7856201" lon="15.8332308"><ele>74.0</ele><time>2026-04-19T15:10:41.13Z</time></trkpt><trkpt lat="39.7857445" lon="15.8334331"><ele>74.0</ele><time>2026-04-19T15:10:42.13Z</time></trkpt><trkpt lat="39.7858638" lon="15.8336237"><ele>74.0</ele><time>2026-04-19T15:10:43.129Z</time></trkpt><trkpt lat="39.7859802" lon="15.833809"><ele>75.33333333333334</ele><time>2026-04-19T15:10:44.129Z</time></trkpt><trkpt lat="39.7860898" lon="15.8339955"><ele>76.66666666666667</ele><time>2026-04-19T15:10:45.129Z</time></trkpt><trkpt lat="39.7862005" lon="15.8341749"><ele>78.0</ele><time>2026-04-19T15:10:46.129Z</time></trkpt><trkpt lat="39.786314" lon="15.8343592"><ele>80.0</ele><time>2026-04-19T15:10:47.129Z</time></trkpt><trkpt lat="39.7864286" lon="15.8345399"><ele>82.0</ele><time>2026-04-19T15:10:48.13Z</time></trkpt><trkpt lat="39.7865424" lon="15.8347248"><ele>84.0</ele><time>2026-04-19T15:10:49.13Z</time></trkpt><trkpt lat="39.7866521" lon="15.8349031"><ele>84.0</ele><time>2026-04-19T15:10:50.13Z</time></trkpt><trkpt lat="39.7867552" lon="15.8350735"><ele>84.0</ele><time>2026-04-19T15:10:51.129Z</time></trkpt><trkpt lat="39.7868589" lon="15.8352433"><ele>84.0</ele><time>2026-04-19T15:10:52.129Z</time></trkpt><trkpt lat="39.7869579" lon="15.835406"><ele>85.66666666666667</ele><time>2026-04-19T15:10:53.129Z</time></trkpt><trkpt lat="39.7870552" lon="15.8355663"><ele>87.33333333333334</ele><time>2026-04-19T15:10:54.13Z</time></trkpt><trkpt lat="39.7871523" lon="15.8357261"><ele>89.0</ele><time>2026-04-19T15:10:55.13Z</time></trkpt><trkpt lat="39.7872415" lon="15.8358719"><ele>89.4</ele><time>2026-04-19T15:10:56.13Z</time></trkpt><trkpt lat="39.7873141" lon="15.8359867"><ele>89.80000000000001</ele><time>2026-04-19T15:10:57.129Z</time></trkpt><trkpt lat="39.7873709" lon="15.83608"><ele>90.19999999999999</ele><time>2026-04-19T15:10:58.129Z</time></trkpt><trkpt lat="39.7874237" lon="15.8361579"><ele>90.6</ele><time>2026-04-19T15:10:59.129Z</time></trkpt><trkpt lat="39.7874668" lon="15.8362239"><ele>91.0</ele><time>2026-04-19T15:11:00.13Z</time></trkpt><trkpt lat="39.78755" lon="15.836331"><ele>91.0</ele><time>2026-04-19T15:11:02.13Z</time></trkpt><trkpt lat="39.787606" lon="15.8363753"><ele>91.0</ele><time>2026-04-19T15:11:03.129Z</time></trkpt><trkpt lat="39.7876664" lon="15.8364091"><ele>91.0</ele><time>2026-04-19T15:11:04.129Z</time></trkpt><trkpt lat="39.7877342" lon="15.8364499"><ele>91.0</ele><time>2026-04-19T15:11:05.13Z</time></trkpt><trkpt lat="39.7878027" lon="15.8364781"><ele>91.0</ele><time>2026-04-19T15:11:06.129Z</time></trkpt><trkpt lat="39.7878771" lon="15.8364991"><ele>91.0</ele><time>2026-04-19T15:11:07.13Z</time></trkpt><trkpt lat="39.7879472" lon="15.8365089"><ele>91.0</ele><time>2026-04-19T15:11:08.129Z</time></trkpt><trkpt lat="39.7880225" lon="15.8365243"><ele>91.19999999999999</ele><time>2026-04-19T15:11:09.129Z</time></trkpt><trkpt lat="39.7881031" lon="15.8365359"><ele>91.39999999999999</ele><time>2026-04-19T15:11:10.13Z</time></trkpt><trkpt lat="39.788204" lon="15.8365456"><ele>91.6</ele><time>2026-04-19T15:11:11.129Z</time></trkpt><trkpt lat="39.7883159" lon="15.8365639"><ele>91.8</ele><time>2026-04-19T15:11:12.13Z</time></trkpt><trkpt lat="39.7884312" lon="15.8365814"><ele>92.0</ele><time>2026-04-19T15:11:13.129Z</time></trkpt><trkpt lat="39.7885419" lon="15.8365944"><ele>92.25</ele><time>2026-04-19T15:11:14.13Z</time></trkpt><trkpt lat="39.788659" lon="15.8366063"><ele>92.5</ele><time>2026-04-19T15:11:15.129Z</time></trkpt><trkpt lat="39.7887797" lon="15.8366195"><ele>92.75</ele><time>2026-04-19T15:11:16.13Z</time></trkpt><trkpt lat="39.7889024" lon="15.8366315"><ele>93.0</ele><time>2026-04-19T15:11:17.129Z</time></trkpt><trkpt lat="39.7890269" lon="15.8366459"><ele>93.0</ele><time>2026-04-19T15:11:18.13Z</time></trkpt><trkpt lat="39.7891519" lon="15.8366611"><ele>93.0</ele><time>2026-04-19T15:11:19.13Z</time></trkpt><trkpt lat="39.7892786" lon="15.8366803"><ele>93.0</ele><time>2026-04-19T15:11:20.129Z</time></trkpt><trkpt lat="39.7894069" lon="15.8367018"><ele>93.0</ele><time>2026-04-19T15:11:21.13Z</time></trkpt><trkpt lat="39.7895343" lon="15.8367162"><ele>93.0</ele><time>2026-04-19T15:11:22.13Z</time></trkpt><trkpt lat="39.7896645" lon="15.8367223"><ele>93.0</ele><time>2026-04-19T15:11:23.13Z</time></trkpt><trkpt lat="39.7897939" lon="15.8367327"><ele>93.0</ele><time>2026-04-19T15:11:24.13Z</time></trkpt><trkpt lat="39.789923" lon="15.8367447"><ele>93.0</ele><time>2026-04-19T15:11:25.13Z</time></trkpt><trkpt lat="39.790051" lon="15.8367557"><ele>93.0</ele><time>2026-04-19T15:11:26.129Z</time></trkpt><trkpt lat="39.7901739" lon="15.8367641"><ele>93.0</ele><time>2026-04-19T15:11:27.13Z</time></trkpt><trkpt lat="39.7902925" lon="15.8367678"><ele>93.0</ele><time>2026-04-19T15:11:28.129Z</time></trkpt><trkpt lat="39.7904122" lon="15.8367705"><ele>93.0</ele><time>2026-04-19T15:11:29.129Z</time></trkpt><trkpt lat="39.790526" lon="15.8367709"><ele>93.0</ele><time>2026-04-19T15:11:30.129Z</time></trkpt><trkpt lat="39.7906386" lon="15.8367724"><ele>93.0</ele><time>2026-04-19T15:11:31.129Z</time></trkpt><trkpt lat="39.7907512" lon="15.8367723"><ele>93.0</ele><time>2026-04-19T15:11:32.13Z</time></trkpt><trkpt lat="39.7908639" lon="15.8367791"><ele>93.0</ele><time>2026-04-19T15:11:33.129Z</time></trkpt><trkpt lat="39.7909713" lon="15.8368004"><ele>93.0</ele><time>2026-04-19T15:11:34.13Z</time></trkpt><trkpt lat="39.7910793" lon="15.8368292"><ele>93.4</ele><time>2026-04-19T15:11:35.13Z</time></trkpt><trkpt lat="39.7911875" lon="15.8368719"><ele>93.80000000000001</ele><time>2026-04-19T15:11:36.129Z</time></trkpt><trkpt lat="39.7912807" lon="15.8369177"><ele>94.2</ele><time>2026-04-19T15:11:37.129Z</time></trkpt><trkpt lat="39.791356" lon="15.8369791"><ele>94.6</ele><time>2026-04-19T15:11:38.129Z</time></trkpt><trkpt lat="39.791427" lon="15.8370435"><ele>95.0</ele><time>2026-04-19T15:11:39.13Z</time></trkpt><trkpt lat="39.7914944" lon="15.8371142"><ele>95.0</ele><time>2026-04-19T15:11:40.129Z</time></trkpt><trkpt lat="39.7915593" lon="15.8371954"><ele>95.0</ele><time>2026-04-19T15:11:41.129Z</time></trkpt><trkpt lat="39.7916214" lon="15.8372973"><ele>95.0</ele><time>2026-04-19T15:11:42.13Z</time></trkpt><trkpt lat="39.7916851" lon="15.8374192"><ele>95.0</ele><time>2026-04-19T15:11:43.13Z</time></trkpt><trkpt lat="39.7917497" lon="15.837552"><ele>95.0</ele><time>2026-04-19T15:11:44.129Z</time></trkpt><trkpt lat="39.7918187" lon="15.8376897"><ele>95.5</ele><time>2026-04-19T15:11:45.13Z</time></trkpt><trkpt lat="39.7918934" lon="15.8378213"><ele>96.0</ele><time>2026-04-19T15:11:46.13Z</time></trkpt><trkpt lat="39.7919623" lon="15.8379519"><ele>96.5</ele><time>2026-04-19T15:11:47.129Z</time></trkpt><trkpt lat="39.7920299" lon="15.8380842"><ele>97.0</ele><time>2026-04-19T15:11:48.13Z</time></trkpt><trkpt lat="39.7920987" lon="15.8382182"><ele>97.0</ele><time>2026-04-19T15:11:49.13Z</time></trkpt><trkpt lat="39.7921668" lon="15.838359"><ele>97.0</ele><time>2026-04-19T15:11:50.129Z</time></trkpt><trkpt lat="39.7922356" lon="15.8385017"><ele>97.0</ele><time>2026-04-19T15:11:51.129Z</time></trkpt><trkpt lat="39.7923061" lon="15.8386468"><ele>97.0</ele><time>2026-04-19T15:11:52.129Z</time></trkpt><trkpt lat="39.7923783" lon="15.8387959"><ele>97.75</ele><time>2026-04-19T15:11:53.13Z</time></trkpt><trkpt lat="39.7924537" lon="15.838948"><ele>98.5</ele><time>2026-04-19T15:11:54.13Z</time></trkpt><trkpt lat="39.7925299" lon="15.8391035"><ele>99.25</ele><time>2026-04-19T15:11:55.13Z</time></trkpt><trkpt lat="39.7926092" lon="15.8392569"><ele>100.0</ele><time>2026-04-19T15:11:56.129Z</time></trkpt><trkpt lat="39.7926906" lon="15.8394178"><ele>100.0</ele><time>2026-04-19T15:11:57.13Z</time></trkpt><trkpt lat="39.7927724" lon="15.8395803"><ele>100.0</ele><time>2026-04-19T15:11:58.129Z</time></trkpt><trkpt lat="39.7928563" lon="15.8397467"><ele>100.0</ele><time>2026-04-19T15:11:59.13Z</time></trkpt><trkpt lat="39.7929348" lon="15.8399191"><ele>100.0</ele><time>2026-04-19T15:12:00.129Z</time></trkpt><trkpt lat="39.7930125" lon="15.8400953"><ele>100.0</ele><time>2026-04-19T15:12:01.129Z</time></trkpt><trkpt lat="39.7930861" lon="15.8402711"><ele>100.0</ele><time>2026-04-19T15:12:02.129Z</time></trkpt><trkpt lat="39.7931577" lon="15.8404477"><ele>101.0</ele><time>2026-04-19T15:12:03.13Z</time></trkpt><trkpt lat="39.7932286" lon="15.8406235"><ele>102.0</ele><time>2026-04-19T15:12:04.129Z</time></trkpt><trkpt lat="39.7932987" lon="15.8407976"><ele>103.0</ele><time>2026-04-19T15:12:05.129Z</time></trkpt><trkpt lat="39.7933676" lon="15.8409702"><ele>103.5</ele><time>2026-04-19T15:12:06.13Z</time></trkpt><trkpt lat="39.793433" lon="15.8411369"><ele>104.0</ele><time>2026-04-19T15:12:07.13Z</time></trkpt><trkpt lat="39.7935021" lon="15.8413005"><ele>104.5</ele><time>2026-04-19T15:12:08.129Z</time></trkpt><trkpt lat="39.7935776" lon="15.8414748"><ele>105.0</ele><time>2026-04-19T15:12:09.13Z</time></trkpt><trkpt lat="39.7936594" lon="15.84165"><ele>106.0</ele><time>2026-04-19T15:12:10.13Z</time></trkpt><trkpt lat="39.793743" lon="15.8418214"><ele>107.0</ele><time>2026-04-19T15:12:11.13Z</time></trkpt><trkpt lat="39.7938271" lon="15.8419983"><ele>108.0</ele><time>2026-04-19T15:12:12.13Z</time></trkpt><trkpt lat="39.7939151" lon="15.8421733"><ele>108.0</ele><time>2026-04-19T15:12:13.13Z</time></trkpt><trkpt lat="39.794008" lon="15.8423497"><ele>108.0</ele><time>2026-04-19T15:12:14.13Z</time></trkpt><trkpt lat="39.7941069" lon="15.8425277"><ele>108.0</ele><time>2026-04-19T15:12:15.13Z</time></trkpt><trkpt lat="39.7942018" lon="15.842709"><ele>109.33333333333334</ele><time>2026-04-19T15:12:16.129Z</time></trkpt><trkpt lat="39.7942953" lon="15.8428925"><ele>110.66666666666667</ele><time>2026-04-19T15:12:17.129Z</time></trkpt><trkpt lat="39.7943874" lon="15.8430715"><ele>112.0</ele><time>2026-04-19T15:12:18.13Z</time></trkpt><trkpt lat="39.7944982" lon="15.8432776"><ele>113.0</ele><time>2026-04-19T15:12:19.13Z</time></trkpt><trkpt lat="39.7946153" lon="15.8435125"><ele>114.0</ele><time>2026-04-19T15:12:20.13Z</time></trkpt><trkpt lat="39.7947492" lon="15.843779"><ele>114.0</ele><time>2026-04-19T15:12:21.13Z</time></trkpt><trkpt lat="39.7948881" lon="15.8440509"><ele>114.0</ele><time>2026-04-19T15:12:22.129Z</time></trkpt><trkpt lat="39.7950324" lon="15.8443344"><ele>115.0</ele><time>2026-04-19T15:12:23.129Z</time></trkpt><trkpt lat="39.79518" lon="15.8446268"><ele>116.0</ele><time>2026-04-19T15:12:24.13Z</time></trkpt><trkpt lat="39.7953151" lon="15.8448951"><ele>116.66666666666666</ele><time>2026-04-19T15:12:25.129Z</time></trkpt><trkpt lat="39.7954391" lon="15.8451422"><ele>117.33333333333334</ele><time>2026-04-19T15:12:26.129Z</time></trkpt><trkpt lat="39.7955507" lon="15.8453751"><ele>118.0</ele><time>2026-04-19T15:12:27.129Z</time></trkpt><trkpt lat="39.7956667" lon="15.8456067"><ele>118.0</ele><time>2026-04-19T15:12:28.129Z</time></trkpt><trkpt lat="39.795786" lon="15.8458381"><ele>118.0</ele><time>2026-04-19T15:12:29.129Z</time></trkpt><trkpt lat="39.7959101" lon="15.846083"><ele>118.0</ele><time>2026-04-19T15:12:30.129Z</time></trkpt><trkpt lat="39.7960405" lon="15.8463352"><ele>119.5</ele><time>2026-04-19T15:12:31.13Z</time></trkpt><trkpt lat="39.7961783" lon="15.8465964"><ele>121.0</ele><time>2026-04-19T15:12:32.13Z</time></trkpt><trkpt lat="39.7963171" lon="15.8468697"><ele>124.0</ele><time>2026-04-19T15:12:33.129Z</time></trkpt><trkpt lat="39.7964547" lon="15.847148"><ele>127.0</ele><time>2026-04-19T15:12:34.13Z</time></trkpt><trkpt lat="39.7965956" lon="15.8474342"><ele>128.0</ele><time>2026-04-19T15:12:35.13Z</time></trkpt><trkpt lat="39.7967597" lon="15.8477571"><ele>129.0</ele><time>2026-04-19T15:12:36.129Z</time></trkpt><trkpt lat="39.7969089" lon="15.8480505"><ele>129.0</ele><time>2026-04-19T15:12:37.129Z</time></trkpt><trkpt lat="39.7970477" lon="15.8483279"><ele>129.0</ele><time>2026-04-19T15:12:38.129Z</time></trkpt><trkpt lat="39.7971747" lon="15.8485784"><ele>130.66666666666666</ele><time>2026-04-19T15:12:39.13Z</time></trkpt><trkpt lat="39.7972993" lon="15.8488183"><ele>132.33333333333331</ele><time>2026-04-19T15:12:40.129Z</time></trkpt><trkpt lat="39.7974214" lon="15.8490546"><ele>134.0</ele><time>2026-04-19T15:12:41.13Z</time></trkpt><trkpt lat="39.7975378" lon="15.8492861"><ele>134.66666666666666</ele><time>2026-04-19T15:12:42.129Z</time></trkpt><trkpt lat="39.7976538" lon="15.8495209"><ele>135.33333333333334</ele><time>2026-04-19T15:12:43.129Z</time></trkpt><trkpt lat="39.7977736" lon="15.8497605"><ele>136.0</ele><time>2026-04-19T15:12:44.129Z</time></trkpt><trkpt lat="39.7978916" lon="15.8500072"><ele>137.33333333333334</ele><time>2026-04-19T15:12:45.129Z</time></trkpt><trkpt lat="39.7980079" lon="15.8502475"><ele>138.66666666666666</ele><time>2026-04-19T15:12:46.129Z</time></trkpt><trkpt lat="39.7981127" lon="15.8504747"><ele>140.0</ele><time>2026-04-19T15:12:47.13Z</time></trkpt><trkpt lat="39.7982084" lon="15.8506843"><ele>140.0</ele><time>2026-04-19T15:12:48.13Z</time></trkpt><trkpt lat="39.7983064" lon="15.8508926"><ele>140.0</ele><time>2026-04-19T15:12:49.13Z</time></trkpt><trkpt lat="39.7984047" lon="15.8511021"><ele>140.0</ele><time>2026-04-19T15:12:50.129Z</time></trkpt><trkpt lat="39.7985012" lon="15.851306"><ele>143.0</ele><time>2026-04-19T15:12:51.13Z</time></trkpt><trkpt lat="39.7985956" lon="15.8514923"><ele>146.0</ele><time>2026-04-19T15:12:52.13Z</time></trkpt><trkpt lat="39.7986889" lon="15.851663"><ele>149.0</ele><time>2026-04-19T15:12:53.13Z</time></trkpt><trkpt lat="39.7987914" lon="15.8518142"><ele>151.33333333333331</ele><time>2026-04-19T15:12:54.129Z</time></trkpt><trkpt lat="39.7989128" lon="15.8519504"><ele>153.66666666666666</ele><time>2026-04-19T15:12:55.13Z</time></trkpt><trkpt lat="39.7990519" lon="15.8520624"><ele>156.0</ele><time>2026-04-19T15:12:56.13Z</time></trkpt><trkpt lat="39.799203" lon="15.8521528"><ele>157.0</ele><time>2026-04-19T15:12:57.129Z</time></trkpt><trkpt lat="39.7993715" lon="15.8522477"><ele>158.0</ele><time>2026-04-19T15:12:58.129Z</time></trkpt><trkpt lat="39.7995498" lon="15.8523425"><ele>159.0</ele><time>2026-04-19T15:12:59.129Z</time></trkpt><trkpt lat="39.7997444" lon="15.8524486"><ele>159.0</ele><time>2026-04-19T15:13:00.129Z</time></trkpt><trkpt lat="39.7999565" lon="15.8525574"><ele>159.0</ele><time>2026-04-19T15:13:01.13Z</time></trkpt><trkpt lat="39.8001565" lon="15.8526605"><ele>159.0</ele><time>2026-04-19T15:13:02.13Z</time></trkpt><trkpt lat="39.800342" lon="15.8527592"><ele>163.33333333333334</ele><time>2026-04-19T15:13:03.13Z</time></trkpt><trkpt lat="39.8005175" lon="15.8528457"><ele>167.66666666666669</ele><time>2026-04-19T15:13:04.13Z</time></trkpt><trkpt lat="39.8006679" lon="15.8529249"><ele>172.0</ele><time>2026-04-19T15:13:05.129Z</time></trkpt><trkpt lat="39.8008097" lon="15.8530037"><ele>172.0</ele><time>2026-04-19T15:13:06.13Z</time></trkpt><trkpt lat="39.8009555" lon="15.8530725"><ele>172.0</ele><time>2026-04-19T15:13:07.129Z</time></trkpt><trkpt lat="39.8011014" lon="15.8531482"><ele>172.0</ele><time>2026-04-19T15:13:08.13Z</time></trkpt><trkpt lat="39.801239" lon="15.853229"><ele>170.75</ele><time>2026-04-19T15:13:09.129Z</time></trkpt><trkpt lat="39.8013613" lon="15.8533239"><ele>169.5</ele><time>2026-04-19T15:13:10.129Z</time></trkpt><trkpt lat="39.8014659" lon="15.8534253"><ele>168.25</ele><time>2026-04-19T15:13:11.13Z</time></trkpt><trkpt lat="39.8015559" lon="15.8535505"><ele>167.0</ele><time>2026-04-19T15:13:12.13Z</time></trkpt><trkpt lat="39.80165" lon="15.8537009"><ele>168.0</ele><time>2026-04-19T15:13:13.13Z</time></trkpt><trkpt lat="39.8017397" lon="15.8538549"><ele>169.0</ele><time>2026-04-19T15:13:14.129Z</time></trkpt><trkpt lat="39.8018327" lon="15.8540224"><ele>170.0</ele><time>2026-04-19T15:13:15.129Z</time></trkpt><trkpt lat="39.8019285" lon="15.8541881"><ele>171.0</ele><time>2026-04-19T15:13:16.129Z</time></trkpt><trkpt lat="39.802021" lon="15.8543541"><ele>172.0</ele><time>2026-04-19T15:13:17.13Z</time></trkpt><trkpt lat="39.802112" lon="15.8545218"><ele>173.0</ele><time>2026-04-19T15:13:18.129Z</time></trkpt><trkpt lat="39.8021988" lon="15.8546827"><ele>173.0</ele><time>2026-04-19T15:13:19.13Z</time></trkpt><trkpt lat="39.8022883" lon="15.8548422"><ele>173.0</ele><time>2026-04-19T15:13:20.129Z</time></trkpt><trkpt lat="39.8023703" lon="15.8549799"><ele>173.0</ele><time>2026-04-19T15:13:21.13Z</time></trkpt><trkpt lat="39.8024436" lon="15.8551121"><ele>173.0</ele><time>2026-04-19T15:13:22.13Z</time></trkpt><trkpt lat="39.8025227" lon="15.8552425"><ele>172.25</ele><time>2026-04-19T15:13:23.13Z</time></trkpt><trkpt lat="39.8025843" lon="15.8553523"><ele>171.5</ele><time>2026-04-19T15:13:24.13Z</time></trkpt><trkpt lat="39.8026612" lon="15.8554589"><ele>170.75</ele><time>2026-04-19T15:13:25.13Z</time></trkpt><trkpt lat="39.8027546" lon="15.8555572"><ele>170.0</ele><time>2026-04-19T15:13:26.129Z</time></trkpt><trkpt lat="39.8028625" lon="15.8556484"><ele>171.75</ele><time>2026-04-19T15:13:27.13Z</time></trkpt><trkpt lat="39.8029711" lon="15.8557311"><ele>173.5</ele><time>2026-04-19T15:13:28.129Z</time></trkpt><trkpt lat="39.8030813" lon="15.8558078"><ele>175.25</ele><time>2026-04-19T15:13:29.13Z</time></trkpt><trkpt lat="39.8031923" lon="15.8558836"><ele>177.0</ele><time>2026-04-19T15:13:30.13Z</time></trkpt><trkpt lat="39.8033096" lon="15.855952"><ele>178.25</ele><time>2026-04-19T15:13:31.129Z</time></trkpt><trkpt lat="39.8034292" lon="15.8560141"><ele>179.5</ele><time>2026-04-19T15:13:32.129Z</time></trkpt><trkpt lat="39.803555" lon="15.8560698"><ele>180.75</ele><time>2026-04-19T15:13:33.13Z</time></trkpt><trkpt lat="39.8036835" lon="15.8561122"><ele>182.0</ele><time>2026-04-19T15:13:34.13Z</time></trkpt><trkpt lat="39.8038176" lon="15.8561448"><ele>182.0</ele><time>2026-04-19T15:13:35.13Z</time></trkpt><trkpt lat="39.8039576" lon="15.8561671"><ele>182.0</ele><time>2026-04-19T15:13:36.13Z</time></trkpt><trkpt lat="39.8041011" lon="15.8561677"><ele>182.0</ele><time>2026-04-19T15:13:37.13Z</time></trkpt><trkpt lat="39.8042452" lon="15.8561552"><ele>182.0</ele><time>2026-04-19T15:13:38.13Z</time></trkpt><trkpt lat="39.8043853" lon="15.8561332"><ele>184.25</ele><time>2026-04-19T15:13:39.13Z</time></trkpt><trkpt lat="39.8045263" lon="15.8561143"><ele>186.5</ele><time>2026-04-19T15:13:40.13Z</time></trkpt><trkpt lat="39.8046597" lon="15.8560962"><ele>188.75</ele><time>2026-04-19T15:13:41.13Z</time></trkpt><trkpt lat="39.8047854" lon="15.856087"><ele>191.0</ele><time>2026-04-19T15:13:42.129Z</time></trkpt><trkpt lat="39.8049082" lon="15.8560853"><ele>191.0</ele><time>2026-04-19T15:13:43.129Z</time></trkpt><trkpt lat="39.8050251" lon="15.8560981"><ele>191.0</ele><time>2026-04-19T15:13:44.13Z</time></trkpt><trkpt lat="39.805149" lon="15.8561412"><ele>191.0</ele><time>2026-04-19T15:13:45.129Z</time></trkpt><trkpt lat="39.8052743" lon="15.8562"><ele>191.0</ele><time>2026-04-19T15:13:46.13Z</time></trkpt><trkpt lat="39.8054063" lon="15.8562755"><ele>192.25</ele><time>2026-04-19T15:13:47.13Z</time></trkpt><trkpt lat="39.8055349" lon="15.8563626"><ele>193.5</ele><time>2026-04-19T15:13:48.13Z</time></trkpt><trkpt lat="39.8056724" lon="15.8564443"><ele>194.75</ele><time>2026-04-19T15:13:49.13Z</time></trkpt><trkpt lat="39.805802" lon="15.8565321"><ele>196.0</ele><time>2026-04-19T15:13:50.13Z</time></trkpt><trkpt lat="39.805931" lon="15.8566077"><ele>195.75</ele><time>2026-04-19T15:13:51.13Z</time></trkpt><trkpt lat="39.8060481" lon="15.856688"><ele>195.5</ele><time>2026-04-19T15:13:52.13Z</time></trkpt><trkpt lat="39.8061637" lon="15.8567659"><ele>195.25</ele><time>2026-04-19T15:13:53.13Z</time></trkpt><trkpt lat="39.8062745" lon="15.8568456"><ele>195.0</ele><time>2026-04-19T15:13:54.13Z</time></trkpt><trkpt lat="39.8063823" lon="15.8569302"><ele>196.75</ele><time>2026-04-19T15:13:55.129Z</time></trkpt><trkpt lat="39.8064853" lon="15.8570236"><ele>198.5</ele><time>2026-04-19T15:13:56.129Z</time></trkpt><trkpt lat="39.806581" lon="15.8571324"><ele>200.25</ele><time>2026-04-19T15:13:57.129Z</time></trkpt><trkpt lat="39.8066672" lon="15.8572512"><ele>202.0</ele><time>2026-04-19T15:13:58.13Z</time></trkpt><trkpt lat="39.8067393" lon="15.85738"><ele>202.0</ele><time>2026-04-19T15:13:59.13Z</time></trkpt><trkpt lat="39.8067927" lon="15.8575151"><ele>202.0</ele><time>2026-04-19T15:14:00.129Z</time></trkpt><trkpt lat="39.8068418" lon="15.857668"><ele>202.0</ele><time>2026-04-19T15:14:01.13Z</time></trkpt><trkpt lat="39.8068879" lon="15.8578386"><ele>202.0</ele><time>2026-04-19T15:14:02.129Z</time></trkpt><trkpt lat="39.8069314" lon="15.8580123"><ele>203.75</ele><time>2026-04-19T15:14:03.129Z</time></trkpt><trkpt lat="39.8069758" lon="15.8581764"><ele>205.5</ele><time>2026-04-19T15:14:04.129Z</time></trkpt><trkpt lat="39.8070264" lon="15.858326"><ele>207.25</ele><time>2026-04-19T15:14:05.129Z</time></trkpt><trkpt lat="39.8070854" lon="15.8584669"><ele>209.0</ele><time>2026-04-19T15:14:06.129Z</time></trkpt><trkpt lat="39.8071555" lon="15.8585936"><ele>209.75</ele><time>2026-04-19T15:14:07.13Z</time></trkpt><trkpt lat="39.8072374" lon="15.8587083"><ele>210.5</ele><time>2026-04-19T15:14:08.129Z</time></trkpt><trkpt lat="39.8073359" lon="15.8588075"><ele>211.25</ele><time>2026-04-19T15:14:09.129Z</time></trkpt><trkpt lat="39.8074413" lon="15.858884"><ele>212.0</ele><time>2026-04-19T15:14:10.129Z</time></trkpt><trkpt lat="39.8075414" lon="15.8589369"><ele>212.0</ele><time>2026-04-19T15:14:11.129Z</time></trkpt><trkpt lat="39.8076325" lon="15.8589862"><ele>212.0</ele><time>2026-04-19T15:14:12.129Z</time></trkpt><trkpt lat="39.8077155" lon="15.8590424"><ele>212.0</ele><time>2026-04-19T15:14:13.13Z</time></trkpt><trkpt lat="39.8077895" lon="15.8591097"><ele>212.0</ele><time>2026-04-19T15:14:14.129Z</time></trkpt><trkpt lat="39.8078592" lon="15.8591882"><ele>212.0</ele><time>2026-04-19T15:14:15.13Z</time></trkpt><trkpt lat="39.80792" lon="15.8592787"><ele>213.5</ele><time>2026-04-19T15:14:16.13Z</time></trkpt><trkpt lat="39.8079785" lon="15.8593908"><ele>215.0</ele><time>2026-04-19T15:14:17.129Z</time></trkpt><trkpt lat="39.8080362" lon="15.8595147"><ele>216.5</ele><time>2026-04-19T15:14:18.129Z</time></trkpt><trkpt lat="39.8080916" lon="15.8596553"><ele>218.0</ele><time>2026-04-19T15:14:19.129Z</time></trkpt><trkpt lat="39.8081518" lon="15.8598024"><ele>218.0</ele><time>2026-04-19T15:14:20.129Z</time></trkpt><trkpt lat="39.8082129" lon="15.8599625"><ele>218.0</ele><time>2026-04-19T15:14:21.129Z</time></trkpt><trkpt lat="39.8082696" lon="15.8601176"><ele>218.0</ele><time>2026-04-19T15:14:22.129Z</time></trkpt><trkpt lat="39.8083315" lon="15.8602785"><ele>218.0</ele><time>2026-04-19T15:14:23.129Z</time></trkpt><trkpt lat="39.8083997" lon="15.8604512"><ele>219.66666666666669</ele><time>2026-04-19T15:14:24.129Z</time></trkpt><trkpt lat="39.808467" lon="15.8606268"><ele>221.33333333333331</ele><time>2026-04-19T15:14:25.13Z</time></trkpt><trkpt lat="39.8085318" lon="15.8608159"><ele>223.0</ele><time>2026-04-19T15:14:26.13Z</time></trkpt><trkpt lat="39.8085987" lon="15.8610079"><ele>226.33333333333331</ele><time>2026-04-19T15:14:27.129Z</time></trkpt><trkpt lat="39.8086635" lon="15.8612022"><ele>229.66666666666669</ele><time>2026-04-19T15:14:28.13Z</time></trkpt><trkpt lat="39.8087206" lon="15.8613938"><ele>233.0</ele><time>2026-04-19T15:14:29.129Z</time></trkpt><trkpt lat="39.8087747" lon="15.8615806"><ele>233.0</ele><time>2026-04-19T15:14:30.129Z</time></trkpt><trkpt lat="39.8088423" lon="15.8617565"><ele>233.0</ele><time>2026-04-19T15:14:31.13Z</time></trkpt><trkpt lat="39.8089205" lon="15.861928"><ele>233.0</ele><time>2026-04-19T15:14:32.129Z</time></trkpt><trkpt lat="39.8090114" lon="15.8620988"><ele>232.33333333333334</ele><time>2026-04-19T15:14:33.13Z</time></trkpt><trkpt lat="39.8091145" lon="15.8622615"><ele>231.66666666666669</ele><time>2026-04-19T15:14:34.129Z</time></trkpt><trkpt lat="39.8092335" lon="15.8624285"><ele>231.0</ele><time>2026-04-19T15:14:35.13Z</time></trkpt><trkpt lat="39.8093529" lon="15.8625932"><ele>232.5</ele><time>2026-04-19T15:14:36.129Z</time></trkpt><trkpt lat="39.8094587" lon="15.8627464"><ele>234.0</ele><time>2026-04-19T15:14:37.129Z</time></trkpt><trkpt lat="39.8095541" lon="15.8628857"><ele>235.5</ele><time>2026-04-19T15:14:38.129Z</time></trkpt><trkpt lat="39.8096423" lon="15.8630221"><ele>237.0</ele><time>2026-04-19T15:14:39.129Z</time></trkpt><trkpt lat="39.8097168" lon="15.8631583"><ele>237.0</ele><time>2026-04-19T15:14:40.129Z</time></trkpt><trkpt lat="39.8097837" lon="15.8632939"><ele>237.0</ele><time>2026-04-19T15:14:41.129Z</time></trkpt><trkpt lat="39.8098407" lon="15.8634276"><ele>237.0</ele><time>2026-04-19T15:14:42.129Z</time></trkpt><trkpt lat="39.8098988" lon="15.8635651"><ele>237.0</ele><time>2026-04-19T15:14:43.129Z</time></trkpt><trkpt lat="39.8099577" lon="15.8637092"><ele>239.5</ele><time>2026-04-19T15:14:44.129Z</time></trkpt><trkpt lat="39.8100115" lon="15.8638622"><ele>242.0</ele><time>2026-04-19T15:14:45.13Z</time></trkpt><trkpt lat="39.8100667" lon="15.8640148"><ele>244.5</ele><time>2026-04-19T15:14:46.13Z</time></trkpt><trkpt lat="39.8101164" lon="15.864142"><ele>247.0</ele><time>2026-04-19T15:14:47.13Z</time></trkpt><trkpt lat="39.810156" lon="15.8642563"><ele>248.0</ele><time>2026-04-19T15:14:48.13Z</time></trkpt><trkpt lat="39.810187" lon="15.8643537"><ele>249.0</ele><time>2026-04-19T15:14:49.13Z</time></trkpt><trkpt lat="39.8102214" lon="15.8645032"><ele>250.0</ele><time>2026-04-19T15:14:51.13Z</time></trkpt><trkpt lat="39.8102678" lon="15.8646343"><ele>251.0</ele><time>2026-04-19T15:14:53.129Z</time></trkpt><trkpt lat="39.8103584" lon="15.8647553"><ele>252.0</ele><time>2026-04-19T15:14:55.129Z</time></trkpt><trkpt lat="39.8104185" lon="15.8648119"><ele>252.0</ele><time>2026-04-19T15:14:56.129Z</time></trkpt><trkpt lat="39.8104897" lon="15.8648719"><ele>252.0</ele><time>2026-04-19T15:14:57.129Z</time></trkpt><trkpt lat="39.8105756" lon="15.8649376"><ele>252.0</ele><time>2026-04-19T15:14:58.13Z</time></trkpt><trkpt lat="39.8106693" lon="15.8649988"><ele>252.0</ele><time>2026-04-19T15:14:59.129Z</time></trkpt><trkpt lat="39.8107735" lon="15.8650563"><ele>252.0</ele><time>2026-04-19T15:15:00.13Z</time></trkpt><trkpt lat="39.8108787" lon="15.8651119"><ele>252.8</ele><time>2026-04-19T15:15:01.13Z</time></trkpt><trkpt lat="39.810971" lon="15.8651541"><ele>253.6</ele><time>2026-04-19T15:15:02.129Z</time></trkpt><trkpt lat="39.8110559" lon="15.865175"><ele>254.40000000000003</ele><time>2026-04-19T15:15:03.13Z</time></trkpt><trkpt lat="39.811149" lon="15.8651765"><ele>255.20000000000002</ele><time>2026-04-19T15:15:04.13Z</time></trkpt><trkpt lat="39.8112401" lon="15.8651371"><ele>256.0</ele><time>2026-04-19T15:15:05.129Z</time></trkpt><trkpt lat="39.8113253" lon="15.8650575"><ele>256.0</ele><time>2026-04-19T15:15:06.13Z</time></trkpt><trkpt lat="39.811394" lon="15.8649412"><ele>256.0</ele><time>2026-04-19T15:15:07.13Z</time></trkpt><trkpt lat="39.8114578" lon="15.8648402"><ele>256.0</ele><time>2026-04-19T15:15:08.13Z</time></trkpt><trkpt lat="39.8115283" lon="15.8647722"><ele>256.0</ele><time>2026-04-19T15:15:09.129Z</time></trkpt><trkpt lat="39.8116101" lon="15.8647445"><ele>256.0</ele><time>2026-04-19T15:15:10.129Z</time></trkpt><trkpt lat="39.8116911" lon="15.8647257"><ele>255.99999999999997</ele><time>2026-04-19T15:15:11.13Z</time></trkpt><trkpt lat="39.8117796" lon="15.8648052"><ele>256.0</ele><time>2026-04-19T15:15:12.129Z</time></trkpt><trkpt lat="39.811855" lon="15.8648613"><ele>256.0</ele><time>2026-04-19T15:15:13.129Z</time></trkpt><trkpt lat="39.811938" lon="15.8648795"><ele>256.0</ele><time>2026-04-19T15:15:14.129Z</time></trkpt><trkpt lat="39.8120191" lon="15.8648602"><ele>255.99999999999997</ele><time>2026-04-19T15:15:15.129Z</time></trkpt><trkpt lat="39.8120821" lon="15.8647992"><ele>256.0</ele><time>2026-04-19T15:15:16.13Z</time></trkpt><trkpt lat="39.8121436" lon="15.8646961"><ele>258.2</ele><time>2026-04-19T15:15:17.129Z</time></trkpt><trkpt lat="39.812208" lon="15.8645999"><ele>260.40000000000003</ele><time>2026-04-19T15:15:18.129Z</time></trkpt><trkpt lat="39.812272" lon="15.8645531"><ele>262.6</ele><time>2026-04-19T15:15:19.13Z</time></trkpt><trkpt lat="39.8123783" lon="15.8645175"><ele>264.8</ele><time>2026-04-19T15:15:21.13Z</time></trkpt><trkpt lat="39.8124641" lon="15.8644878"><ele>267.0</ele><time>2026-04-19T15:15:23.13Z</time></trkpt><trkpt lat="39.8125562" lon="15.8644579"><ele>265.4</ele><time>2026-04-19T15:15:25.13Z</time></trkpt><trkpt lat="39.8126564" lon="15.8644608"><ele>263.79999999999995</ele><time>2026-04-19T15:15:27.129Z</time></trkpt><trkpt lat="39.8127508" lon="15.8645189"><ele>262.2</ele><time>2026-04-19T15:15:29.13Z</time></trkpt><trkpt lat="39.8128348" lon="15.8646479"><ele>260.59999999999997</ele><time>2026-04-19T15:15:31.13Z</time></trkpt><trkpt lat="39.8128777" lon="15.8647344"><ele>259.0</ele><time>2026-04-19T15:15:32.13Z</time></trkpt><trkpt lat="39.8129215" lon="15.864822"><ele>259.0</ele><time>2026-04-19T15:15:33.13Z</time></trkpt><trkpt lat="39.8129696" lon="15.8649159"><ele>259.0</ele><time>2026-04-19T15:15:34.13Z</time></trkpt><trkpt lat="39.8130162" lon="15.8650005"><ele>259.0</ele><time>2026-04-19T15:15:35.129Z</time></trkpt><trkpt lat="39.8130697" lon="15.8650687"><ele>259.0</ele><time>2026-04-19T15:15:36.129Z</time></trkpt><trkpt lat="39.813132" lon="15.8651367"><ele>259.0</ele><time>2026-04-19T15:15:37.129Z</time></trkpt><trkpt lat="39.813207" lon="15.8651984"><ele>259.0</ele><time>2026-04-19T15:15:38.13Z</time></trkpt><trkpt lat="39.8132892" lon="15.8652538"><ele>260.16666666666663</ele><time>2026-04-19T15:15:39.129Z</time></trkpt><trkpt lat="39.8133684" lon="15.8652978"><ele>261.3333333333333</ele><time>2026-04-19T15:15:40.129Z</time></trkpt><trkpt lat="39.8134404" lon="15.8653442"><ele>262.5</ele><time>2026-04-19T15:15:41.129Z</time></trkpt><trkpt lat="39.8135072" lon="15.8653833"><ele>263.6666666666667</ele><time>2026-04-19T15:15:42.129Z</time></trkpt><trkpt lat="39.8135647" lon="15.8654173"><ele>264.83333333333337</ele><time>2026-04-19T15:15:43.129Z</time></trkpt><trkpt lat="39.8136685" lon="15.8654657"><ele>266.0</ele><time>2026-04-19T15:15:45.13Z</time></trkpt><trkpt lat="39.8137799" lon="15.8655346"><ele>266.0</ele><time>2026-04-19T15:15:47.129Z</time></trkpt><trkpt lat="39.8138407" lon="15.8655743"><ele>266.0</ele><time>2026-04-19T15:15:48.129Z</time></trkpt><trkpt lat="39.8139044" lon="15.8656069"><ele>266.0</ele><time>2026-04-19T15:15:49.13Z</time></trkpt><trkpt lat="39.813973" lon="15.8656485"><ele>266.0</ele><time>2026-04-19T15:15:50.13Z</time></trkpt><trkpt lat="39.8140439" lon="15.865698"><ele>266.0</ele><time>2026-04-19T15:15:51.13Z</time></trkpt><trkpt lat="39.8141232" lon="15.8657637"><ele>266.0</ele><time>2026-04-19T15:15:52.129Z</time></trkpt><trkpt lat="39.8142103" lon="15.8658443"><ele>266.0</ele><time>2026-04-19T15:15:53.13Z</time></trkpt><trkpt lat="39.8143058" lon="15.8659273"><ele>266.0</ele><time>2026-04-19T15:15:54.13Z</time></trkpt><trkpt lat="39.8144035" lon="15.8660145"><ele>266.0</ele><time>2026-04-19T15:15:55.129Z</time></trkpt><trkpt lat="39.8145064" lon="15.8661025"><ele>266.0</ele><time>2026-04-19T15:15:56.13Z</time></trkpt><trkpt lat="39.8146141" lon="15.8661949"><ele>266.25</ele><time>2026-04-19T15:15:57.129Z</time></trkpt><trkpt lat="39.8147181" lon="15.8662868"><ele>266.5</ele><time>2026-04-19T15:15:58.13Z</time></trkpt><trkpt lat="39.8148286" lon="15.8663828"><ele>266.75</ele><time>2026-04-19T15:15:59.129Z</time></trkpt><trkpt lat="39.8149382" lon="15.8664818"><ele>267.0</ele><time>2026-04-19T15:16:00.129Z</time></trkpt><trkpt lat="39.8150499" lon="15.8665773"><ele>265.5</ele><time>2026-04-19T15:16:01.13Z</time></trkpt><trkpt lat="39.8151631" lon="15.8666762"><ele>264.0</ele><time>2026-04-19T15:16:02.129Z</time></trkpt><trkpt lat="39.8152743" lon="15.866779"><ele>262.5</ele><time>2026-04-19T15:16:03.129Z</time></trkpt><trkpt lat="39.8153776" lon="15.8668824"><ele>261.0</ele><time>2026-04-19T15:16:04.129Z</time></trkpt><trkpt lat="39.8154691" lon="15.8669738"><ele>263.8</ele><time>2026-04-19T15:16:05.129Z</time></trkpt><trkpt lat="39.8155539" lon="15.8670615"><ele>266.6</ele><time>2026-04-19T15:16:06.129Z</time></trkpt><trkpt lat="39.8156469" lon="15.8671506"><ele>269.4</ele><time>2026-04-19T15:16:07.129Z</time></trkpt><trkpt lat="39.8157384" lon="15.8672352"><ele>272.2</ele><time>2026-04-19T15:16:08.13Z</time></trkpt><trkpt lat="39.8158264" lon="15.8673027"><ele>275.0</ele><time>2026-04-19T15:16:09.13Z</time></trkpt><trkpt lat="39.8159063" lon="15.8673377"><ele>275.0</ele><time>2026-04-19T15:16:10.13Z</time></trkpt><trkpt lat="39.8159756" lon="15.8673551"><ele>275.0</ele><time>2026-04-19T15:16:11.13Z</time></trkpt><trkpt lat="39.8160457" lon="15.8673549"><ele>275.0</ele><time>2026-04-19T15:16:12.129Z</time></trkpt><trkpt lat="39.8161237" lon="15.8673354"><ele>275.0</ele><time>2026-04-19T15:16:13.129Z</time></trkpt><trkpt lat="39.8162089" lon="15.867303"><ele>275.0</ele><time>2026-04-19T15:16:14.13Z</time></trkpt><trkpt lat="39.8162993" lon="15.8672671"><ele>275.0</ele><time>2026-04-19T15:16:15.129Z</time></trkpt><trkpt lat="39.8163899" lon="15.8672327"><ele>275.4</ele><time>2026-04-19T15:16:16.129Z</time></trkpt><trkpt lat="39.8164806" lon="15.8671963"><ele>275.8</ele><time>2026-04-19T15:16:17.129Z</time></trkpt><trkpt lat="39.8165731" lon="15.8671605"><ele>276.2</ele><time>2026-04-19T15:16:18.129Z</time></trkpt><trkpt lat="39.816671" lon="15.8671173"><ele>276.6</ele><time>2026-04-19T15:16:19.13Z</time></trkpt><trkpt lat="39.8167602" lon="15.8670795"><ele>277.0</ele><time>2026-04-19T15:16:20.129Z</time></trkpt><trkpt lat="39.8168534" lon="15.8670431"><ele>278.4</ele><time>2026-04-19T15:16:21.129Z</time></trkpt><trkpt lat="39.816943" lon="15.8670071"><ele>279.79999999999995</ele><time>2026-04-19T15:16:22.13Z</time></trkpt><trkpt lat="39.817024" lon="15.8669739"><ele>281.2</ele><time>2026-04-19T15:16:23.129Z</time></trkpt><trkpt lat="39.8170938" lon="15.8669402"><ele>282.59999999999997</ele><time>2026-04-19T15:16:24.129Z</time></trkpt><trkpt lat="39.8171576" lon="15.8669117"><ele>284.0</ele><time>2026-04-19T15:16:25.13Z</time></trkpt><trkpt lat="39.8172816" lon="15.8668629"><ele>284.0</ele><time>2026-04-19T15:16:27.13Z</time></trkpt><trkpt lat="39.8173453" lon="15.8668371"><ele>284.0</ele><time>2026-04-19T15:16:28.13Z</time></trkpt><trkpt lat="39.817406" lon="15.8668147"><ele>284.0</ele><time>2026-04-19T15:16:29.129Z</time></trkpt><trkpt lat="39.8175083" lon="15.8667826"><ele>284.0</ele><time>2026-04-19T15:16:31.129Z</time></trkpt><trkpt lat="39.817602" lon="15.866736"><ele>284.0</ele><time>2026-04-19T15:16:33.129Z</time></trkpt><trkpt lat="39.8177016" lon="15.8667061"><ele>284.0</ele><time>2026-04-19T15:16:35.129Z</time></trkpt><trkpt lat="39.8178046" lon="15.8667138"><ele>284.83333333333337</ele><time>2026-04-19T15:16:37.129Z</time></trkpt><trkpt lat="39.8179251" lon="15.8667326"><ele>285.6666666666667</ele><time>2026-04-19T15:16:39.13Z</time></trkpt><trkpt lat="39.8179875" lon="15.8667438"><ele>286.5</ele><time>2026-04-19T15:16:40.129Z</time></trkpt><trkpt lat="39.8180509" lon="15.8667561"><ele>287.3333333333333</ele><time>2026-04-19T15:16:41.129Z</time></trkpt><trkpt lat="39.8181739" lon="15.8667833"><ele>288.16666666666663</ele><time>2026-04-19T15:16:43.13Z</time></trkpt><trkpt lat="39.8182376" lon="15.8667986"><ele>289.0</ele><time>2026-04-19T15:16:44.13Z</time></trkpt><trkpt lat="39.8183547" lon="15.8668263"><ele>289.0</ele><time>2026-04-19T15:16:46.129Z</time></trkpt><trkpt lat="39.8184564" lon="15.8668419"><ele>289.0</ele><time>2026-04-19T15:16:48.13Z</time></trkpt><trkpt lat="39.8185642" lon="15.8668564"><ele>289.0</ele><time>2026-04-19T15:16:50.129Z</time></trkpt><trkpt lat="39.8186582" lon="15.8668686"><ele>289.0</ele><time>2026-04-19T15:16:52.129Z</time></trkpt><trkpt lat="39.8187557" lon="15.8668776"><ele>289.0</ele><time>2026-04-19T15:16:54.13Z</time></trkpt><trkpt lat="39.8188772" lon="15.8668993"><ele>289.2</ele><time>2026-04-19T15:16:56.13Z</time></trkpt><trkpt lat="39.8189433" lon="15.8669105"><ele>289.4</ele><time>2026-04-19T15:16:57.13Z</time></trkpt><trkpt lat="39.8190659" lon="15.8669286"><ele>289.6</ele><time>2026-04-19T15:16:59.129Z</time></trkpt><trkpt lat="39.8191665" lon="15.8669365"><ele>289.8</ele><time>2026-04-19T15:17:01.13Z</time></trkpt><trkpt lat="39.8192845" lon="15.8669563"><ele>290.0</ele><time>2026-04-19T15:17:03.129Z</time></trkpt><trkpt lat="39.8193507" lon="15.866968"><ele>290.83333333333337</ele><time>2026-04-19T15:17:04.129Z</time></trkpt><trkpt lat="39.8194272" lon="15.8669681"><ele>291.6666666666667</ele><time>2026-04-19T15:17:05.129Z</time></trkpt><trkpt lat="39.8195052" lon="15.8669627"><ele>292.5</ele><time>2026-04-19T15:17:06.13Z</time></trkpt><trkpt lat="39.8195911" lon="15.8669435"><ele>293.3333333333333</ele><time>2026-04-19T15:17:07.129Z</time></trkpt><trkpt lat="39.819679" lon="15.8669175"><ele>294.16666666666663</ele><time>2026-04-19T15:17:08.13Z</time></trkpt><trkpt lat="39.8197617" lon="15.866888"><ele>295.0</ele><time>2026-04-19T15:17:09.129Z</time></trkpt><trkpt lat="39.8198432" lon="15.8668592"><ele>295.00000000000006</ele><time>2026-04-19T15:17:10.129Z</time></trkpt><trkpt lat="39.8199248" lon="15.866832"><ele>295.0</ele><time>2026-04-19T15:17:11.129Z</time></trkpt><trkpt lat="39.8200044" lon="15.8668061"><ele>295.0</ele><time>2026-04-19T15:17:12.129Z</time></trkpt><trkpt lat="39.8200749" lon="15.8667817"><ele>295.0</ele><time>2026-04-19T15:17:13.129Z</time></trkpt><trkpt lat="39.8201368" lon="15.8667604"><ele>295.0</ele><time>2026-04-19T15:17:14.13Z</time></trkpt><trkpt lat="39.8202069" lon="15.8667481"><ele>295.00000000000006</ele><time>2026-04-19T15:17:15.129Z</time></trkpt><trkpt lat="39.8202766" lon="15.8667429"><ele>295.0</ele><time>2026-04-19T15:17:16.129Z</time></trkpt><trkpt lat="39.8203471" lon="15.8667411"><ele>295.0</ele><time>2026-04-19T15:17:17.129Z</time></trkpt><trkpt lat="39.8204226" lon="15.8667396"><ele>295.0</ele><time>2026-04-19T15:17:18.13Z</time></trkpt><trkpt lat="39.8205168" lon="15.8667432"><ele>295.0</ele><time>2026-04-19T15:17:19.129Z</time></trkpt><trkpt lat="39.8206268" lon="15.8667604"><ele>295.0</ele><time>2026-04-19T15:17:20.13Z</time></trkpt><trkpt lat="39.8207445" lon="15.8667901"><ele>295.0</ele><time>2026-04-19T15:17:21.13Z</time></trkpt><trkpt lat="39.8208535" lon="15.8668222"><ele>295.0</ele><time>2026-04-19T15:17:22.13Z</time></trkpt><trkpt lat="39.8209514" lon="15.8668545"><ele>295.0</ele><time>2026-04-19T15:17:23.129Z</time></trkpt><trkpt lat="39.8210627" lon="15.8668898"><ele>295.0</ele><time>2026-04-19T15:17:24.13Z</time></trkpt><trkpt lat="39.8211654" lon="15.8669367"><ele>295.0</ele><time>2026-04-19T15:17:25.13Z</time></trkpt><trkpt lat="39.8212676" lon="15.8669947"><ele>295.0</ele><time>2026-04-19T15:17:26.13Z</time></trkpt><trkpt lat="39.8213651" lon="15.8670751"><ele>293.4</ele><time>2026-04-19T15:17:27.129Z</time></trkpt><trkpt lat="39.821453" lon="15.8671587"><ele>291.8</ele><time>2026-04-19T15:17:28.13Z</time></trkpt><trkpt lat="39.8215304" lon="15.8672399"><ele>290.2</ele><time>2026-04-19T15:17:29.13Z</time></trkpt><trkpt lat="39.8215915" lon="15.867304"><ele>288.6</ele><time>2026-04-19T15:17:30.13Z</time></trkpt><trkpt lat="39.8216583" lon="15.8673786"><ele>287.0</ele><time>2026-04-19T15:17:31.13Z</time></trkpt><trkpt lat="39.8217221" lon="15.8674503"><ele>287.0</ele><time>2026-04-19T15:17:32.13Z</time></trkpt><trkpt lat="39.8217829" lon="15.8675154"><ele>287.0</ele><time>2026-04-19T15:17:33.13Z</time></trkpt><trkpt lat="39.8218457" lon="15.8675745"><ele>287.0</ele><time>2026-04-19T15:17:34.13Z</time></trkpt><trkpt lat="39.8219086" lon="15.8676299"><ele>287.0</ele><time>2026-04-19T15:17:35.13Z</time></trkpt><trkpt lat="39.8219822" lon="15.8676739"><ele>287.0</ele><time>2026-04-19T15:17:36.13Z</time></trkpt><trkpt lat="39.8220621" lon="15.8676985"><ele>287.0</ele><time>2026-04-19T15:17:37.129Z</time></trkpt><trkpt lat="39.8221362" lon="15.8676991"><ele>287.5</ele><time>2026-04-19T15:17:38.129Z</time></trkpt><trkpt lat="39.8222099" lon="15.8676713"><ele>288.0</ele><time>2026-04-19T15:17:39.129Z</time></trkpt><trkpt lat="39.8222839" lon="15.8676242"><ele>288.5</ele><time>2026-04-19T15:17:40.13Z</time></trkpt><trkpt lat="39.822356" lon="15.8675653"><ele>289.0</ele><time>2026-04-19T15:17:41.13Z</time></trkpt><trkpt lat="39.8224278" lon="15.8674963"><ele>289.5</ele><time>2026-04-19T15:17:42.129Z</time></trkpt><trkpt lat="39.8224958" lon="15.8674234"><ele>290.0</ele><time>2026-04-19T15:17:43.13Z</time></trkpt><trkpt lat="39.8225596" lon="15.8673611"><ele>290.0</ele><time>2026-04-19T15:17:44.13Z</time></trkpt><trkpt lat="39.8226207" lon="15.8673174"><ele>290.0</ele><time>2026-04-19T15:17:45.129Z</time></trkpt><trkpt lat="39.8227018" lon="15.8672909"><ele>290.0</ele><time>2026-04-19T15:17:47.13Z</time></trkpt><trkpt lat="39.822769" lon="15.8673296"><ele>290.0</ele><time>2026-04-19T15:17:50.13Z</time></trkpt><trkpt lat="39.8227722" lon="15.8674497"><ele>290.0</ele><time>2026-04-19T15:17:52.129Z</time></trkpt><trkpt lat="39.8226894" lon="15.8675893"><ele>293.25</ele><time>2026-04-19T15:17:54.129Z</time></trkpt><trkpt lat="39.8226188" lon="15.8676694"><ele>296.5</ele><time>2026-04-19T15:17:55.129Z</time></trkpt><trkpt lat="39.8225206" lon="15.8677656"><ele>299.75</ele><time>2026-04-19T15:17:56.129Z</time></trkpt><trkpt lat="39.8224169" lon="15.8678608"><ele>303.0</ele><time>2026-04-19T15:17:57.129Z</time></trkpt><trkpt lat="39.8223171" lon="15.8679515"><ele>303.0</ele><time>2026-04-19T15:17:58.13Z</time></trkpt><trkpt lat="39.8222194" lon="15.8680497"><ele>303.0</ele><time>2026-04-19T15:17:59.13Z</time></trkpt><trkpt lat="39.8221228" lon="15.8681507"><ele>303.0</ele><time>2026-04-19T15:18:00.129Z</time></trkpt><trkpt lat="39.82203" lon="15.868258"><ele>303.0</ele><time>2026-04-19T15:18:01.13Z</time></trkpt><trkpt lat="39.8219355" lon="15.8683586"><ele>303.2</ele><time>2026-04-19T15:18:02.129Z</time></trkpt><trkpt lat="39.8218418" lon="15.868459"><ele>303.4</ele><time>2026-04-19T15:18:03.129Z</time></trkpt><trkpt lat="39.8217461" lon="15.868547"><ele>303.59999999999997</ele><time>2026-04-19T15:18:04.129Z</time></trkpt><trkpt lat="39.8216584" lon="15.8686197"><ele>303.8</ele><time>2026-04-19T15:18:05.13Z</time></trkpt><trkpt lat="39.8215936" lon="15.8686995"><ele>304.0</ele><time>2026-04-19T15:18:06.129Z</time></trkpt><trkpt lat="39.8215551" lon="15.8687894"><ele>304.0</ele><time>2026-04-19T15:18:07.13Z</time></trkpt><trkpt lat="39.8215509" lon="15.8688862"><ele>304.0</ele><time>2026-04-19T15:18:08.13Z</time></trkpt><trkpt lat="39.8215666" lon="15.8689778"><ele>304.0</ele><time>2026-04-19T15:18:09.13Z</time></trkpt><trkpt lat="39.8216028" lon="15.8690617"><ele>304.0</ele><time>2026-04-19T15:18:10.129Z</time></trkpt><trkpt lat="39.8216546" lon="15.8691297"><ele>304.0</ele><time>2026-04-19T15:18:11.13Z</time></trkpt><trkpt lat="39.8217098" lon="15.8692015"><ele>304.0</ele><time>2026-04-19T15:18:12.13Z</time></trkpt><trkpt lat="39.821769" lon="15.8692747"><ele>305.85714285714283</ele><time>2026-04-19T15:18:13.13Z</time></trkpt><trkpt lat="39.8218305" lon="15.8693441"><ele>307.7142857142857</ele><time>2026-04-19T15:18:14.13Z</time></trkpt><trkpt lat="39.8218854" lon="15.8694009"><ele>309.57142857142856</ele><time>2026-04-19T15:18:15.13Z</time></trkpt><trkpt lat="39.8219416" lon="15.8694538"><ele>311.42857142857144</ele><time>2026-04-19T15:18:16.129Z</time></trkpt><trkpt lat="39.821993" lon="15.8695073"><ele>313.2857142857143</ele><time>2026-04-19T15:18:17.129Z</time></trkpt><trkpt lat="39.8220443" lon="15.8695623"><ele>315.14285714285717</ele><time>2026-04-19T15:18:18.13Z</time></trkpt><trkpt lat="39.8220931" lon="15.8696141"><ele>317.0</ele><time>2026-04-19T15:18:19.13Z</time></trkpt><trkpt lat="39.8221787" lon="15.8697578"><ele>317.0</ele><time>2026-04-19T15:18:21.129Z</time></trkpt><trkpt lat="39.8222144" lon="15.8698378"><ele>317.0</ele><time>2026-04-19T15:18:22.13Z</time></trkpt><trkpt lat="39.8222521" lon="15.8699267"><ele>317.0</ele><time>2026-04-19T15:18:23.129Z</time></trkpt><trkpt lat="39.8222902" lon="15.8700176"><ele>317.0</ele><time>2026-04-19T15:18:24.13Z</time></trkpt><trkpt lat="39.822327" lon="15.870115"><ele>317.0</ele><time>2026-04-19T15:18:25.13Z</time></trkpt><trkpt lat="39.8223612" lon="15.8702108"><ele>317.0</ele><time>2026-04-19T15:18:26.13Z</time></trkpt><trkpt lat="39.8223953" lon="15.8703101"><ele>316.83333333333337</ele><time>2026-04-19T15:18:27.129Z</time></trkpt><trkpt lat="39.8224289" lon="15.8704123"><ele>316.6666666666667</ele><time>2026-04-19T15:18:28.13Z</time></trkpt><trkpt lat="39.8224628" lon="15.8705023"><ele>316.5</ele><time>2026-04-19T15:18:29.13Z</time></trkpt><trkpt lat="39.8225233" lon="15.8705794"><ele>316.3333333333333</ele><time>2026-04-19T15:18:30.13Z</time></trkpt><trkpt lat="39.8225954" lon="15.8706278"><ele>316.16666666666663</ele><time>2026-04-19T15:18:31.129Z</time></trkpt><trkpt lat="39.8226756" lon="15.8706559"><ele>316.0</ele><time>2026-04-19T15:18:32.129Z</time></trkpt><trkpt lat="39.8227628" lon="15.8706652"><ele>316.0</ele><time>2026-04-19T15:18:33.129Z</time></trkpt><trkpt lat="39.8228456" lon="15.8706554"><ele>316.0</ele><time>2026-04-19T15:18:34.129Z</time></trkpt><trkpt lat="39.8229352" lon="15.870646"><ele>316.0</ele><time>2026-04-19T15:18:35.129Z</time></trkpt><trkpt lat="39.823025" lon="15.8706422"><ele>316.0</ele><time>2026-04-19T15:18:36.129Z</time></trkpt><trkpt lat="39.8231197" lon="15.8706562"><ele>316.0</ele><time>2026-04-19T15:18:37.13Z</time></trkpt><trkpt lat="39.8232161" lon="15.8706826"><ele>316.0</ele><time>2026-04-19T15:18:38.13Z</time></trkpt><trkpt lat="39.8233167" lon="15.8707301"><ele>316.0</ele><time>2026-04-19T15:18:39.129Z</time></trkpt><trkpt lat="39.8234113" lon="15.8707812"><ele>316.0</ele><time>2026-04-19T15:18:40.129Z</time></trkpt><trkpt lat="39.8235084" lon="15.8708271"><ele>316.0</ele><time>2026-04-19T15:18:41.13Z</time></trkpt><trkpt lat="39.8235971" lon="15.8708674"><ele>316.0</ele><time>2026-04-19T15:18:42.129Z</time></trkpt><trkpt lat="39.8236731" lon="15.8709156"><ele>321.3333333333333</ele><time>2026-04-19T15:18:43.13Z</time></trkpt><trkpt lat="39.8237477" lon="15.8709728"><ele>326.66666666666663</ele><time>2026-04-19T15:18:44.129Z</time></trkpt><trkpt lat="39.8238027" lon="15.8710552"><ele>332.0</ele><time>2026-04-19T15:18:45.129Z</time></trkpt><trkpt lat="39.8238361" lon="15.8711515"><ele>337.3333333333333</ele><time>2026-04-19T15:18:46.13Z</time></trkpt><trkpt lat="39.8238472" lon="15.8712528"><ele>342.6666666666667</ele><time>2026-04-19T15:18:47.13Z</time></trkpt><trkpt lat="39.8238294" lon="15.8713543"><ele>348.0</ele><time>2026-04-19T15:18:48.129Z</time></trkpt><trkpt lat="39.8237814" lon="15.8714414"><ele>348.0</ele><time>2026-04-19T15:18:49.13Z</time></trkpt><trkpt lat="39.8237138" lon="15.8715225"><ele>348.0</ele><time>2026-04-19T15:18:50.129Z</time></trkpt><trkpt lat="39.8236368" lon="15.8716119"><ele>348.0</ele><time>2026-04-19T15:18:51.129Z</time></trkpt><trkpt lat="39.8235493" lon="15.8717149"><ele>348.0</ele><time>2026-04-19T15:18:52.129Z</time></trkpt><trkpt lat="39.8234543" lon="15.8718159"><ele>348.0</ele><time>2026-04-19T15:18:53.129Z</time></trkpt><trkpt lat="39.8233627" lon="15.8719123"><ele>344.79999999999995</ele><time>2026-04-19T15:18:54.129Z</time></trkpt><trkpt lat="39.823278" lon="15.8720088"><ele>341.6</ele><time>2026-04-19T15:18:55.129Z</time></trkpt><trkpt lat="39.8232153" lon="15.8721048"><ele>338.4</ele><time>2026-04-19T15:18:56.129Z</time></trkpt><trkpt lat="39.8231719" lon="15.8722008"><ele>335.20000000000005</ele><time>2026-04-19T15:18:57.13Z</time></trkpt><trkpt lat="39.823156" lon="15.8723036"><ele>332.0</ele><time>2026-04-19T15:18:58.129Z</time></trkpt><trkpt lat="39.8231741" lon="15.8724134"><ele>332.0</ele><time>2026-04-19T15:18:59.13Z</time></trkpt><trkpt lat="39.8232085" lon="15.8725175"><ele>332.0</ele><time>2026-04-19T15:19:00.13Z</time></trkpt><trkpt lat="39.8232361" lon="15.8726236"><ele>332.0</ele><time>2026-04-19T15:19:01.13Z</time></trkpt><trkpt lat="39.8232315" lon="15.8727424"><ele>332.0</ele><time>2026-04-19T15:19:02.129Z</time></trkpt><trkpt lat="39.823204" lon="15.8728574"><ele>332.0</ele><time>2026-04-19T15:19:03.129Z</time></trkpt><trkpt lat="39.8231435" lon="15.8729519"><ele>334.5</ele><time>2026-04-19T15:19:04.13Z</time></trkpt><trkpt lat="39.823084" lon="15.87307"><ele>337.0</ele><time>2026-04-19T15:19:05.13Z</time></trkpt><trkpt lat="39.8230413" lon="15.8732076"><ele>339.5</ele><time>2026-04-19T15:19:06.13Z</time></trkpt><trkpt lat="39.8230117" lon="15.8733713"><ele>342.0</ele><time>2026-04-19T15:19:07.13Z</time></trkpt><trkpt lat="39.823" lon="15.8735307"><ele>346.0</ele><time>2026-04-19T15:19:08.129Z</time></trkpt><trkpt lat="39.8229858" lon="15.8736942"><ele>350.0</ele><time>2026-04-19T15:19:09.129Z</time></trkpt><trkpt lat="39.8229475" lon="15.8738476"><ele>354.0</ele><time>2026-04-19T15:19:10.13Z</time></trkpt><trkpt lat="39.8228935" lon="15.8739976"><ele>358.0</ele><time>2026-04-19T15:19:11.129Z</time></trkpt><trkpt lat="39.82282" lon="15.8741351"><ele>358.0</ele><time>2026-04-19T15:19:12.13Z</time></trkpt><trkpt lat="39.8227191" lon="15.8742493"><ele>358.0</ele><time>2026-04-19T15:19:13.13Z</time></trkpt><trkpt lat="39.8226246" lon="15.8743665"><ele>358.0</ele><time>2026-04-19T15:19:14.13Z</time></trkpt><trkpt lat="39.8225384" lon="15.8745134"><ele>358.0</ele><time>2026-04-19T15:19:15.129Z</time></trkpt><trkpt lat="39.8224717" lon="15.8746873"><ele>352.75</ele><time>2026-04-19T15:19:16.13Z</time></trkpt><trkpt lat="39.8224073" lon="15.8748537"><ele>347.5</ele><time>2026-04-19T15:19:17.129Z</time></trkpt><trkpt lat="39.8223183" lon="15.874961"><ele>342.25</ele><time>2026-04-19T15:19:18.13Z</time></trkpt><trkpt lat="39.8222405" lon="15.8750642"><ele>337.0</ele><time>2026-04-19T15:19:19.129Z</time></trkpt><trkpt lat="39.8221924" lon="15.8751939"><ele>337.0</ele><time>2026-04-19T15:19:20.13Z</time></trkpt><trkpt lat="39.8221736" lon="15.8753496"><ele>337.0</ele><time>2026-04-19T15:19:21.129Z</time></trkpt><trkpt lat="39.8221588" lon="15.8755051"><ele>337.0</ele><time>2026-04-19T15:19:22.13Z</time></trkpt><trkpt lat="39.822156" lon="15.8756465"><ele>337.0</ele><time>2026-04-19T15:19:23.129Z</time></trkpt><trkpt lat="39.8221552" lon="15.8757742"><ele>337.0</ele><time>2026-04-19T15:19:24.13Z</time></trkpt><trkpt lat="39.8221743" lon="15.8758835"><ele>334.20000000000005</ele><time>2026-04-19T15:19:25.129Z</time></trkpt><trkpt lat="39.8222261" lon="15.8759761"><ele>331.4</ele><time>2026-04-19T15:19:26.13Z</time></trkpt><trkpt lat="39.8223094" lon="15.8760327"><ele>328.6</ele><time>2026-04-19T15:19:27.13Z</time></trkpt><trkpt lat="39.822417" lon="15.8760521"><ele>325.79999999999995</ele><time>2026-04-19T15:19:28.129Z</time></trkpt><trkpt lat="39.8225404" lon="15.8760644"><ele>323.0</ele><time>2026-04-19T15:19:29.13Z</time></trkpt><trkpt lat="39.8226503" lon="15.8760518"><ele>323.0</ele><time>2026-04-19T15:19:30.129Z</time></trkpt><trkpt lat="39.8227585" lon="15.8760053"><ele>323.0</ele><time>2026-04-19T15:19:31.129Z</time></trkpt><trkpt lat="39.8228622" lon="15.8759254"><ele>323.0</ele><time>2026-04-19T15:19:32.129Z</time></trkpt><trkpt lat="39.8229649" lon="15.8758357"><ele>323.0</ele><time>2026-04-19T15:19:33.129Z</time></trkpt><trkpt lat="39.8230646" lon="15.8757511"><ele>327.5</ele><time>2026-04-19T15:19:34.129Z</time></trkpt><trkpt lat="39.8231692" lon="15.8757001"><ele>332.0</ele><time>2026-04-19T15:19:35.129Z</time></trkpt><trkpt lat="39.8232854" lon="15.8756989"><ele>336.5</ele><time>2026-04-19T15:19:36.129Z</time></trkpt><trkpt lat="39.8234087" lon="15.8757224"><ele>341.0</ele><time>2026-04-19T15:19:37.129Z</time></trkpt><trkpt lat="39.823535" lon="15.8757415"><ele>343.25</ele><time>2026-04-19T15:19:38.13Z</time></trkpt><trkpt lat="39.8236683" lon="15.8757676"><ele>345.5</ele><time>2026-04-19T15:19:39.129Z</time></trkpt><trkpt lat="39.8238025" lon="15.8757917"><ele>347.75</ele><time>2026-04-19T15:19:40.129Z</time></trkpt><trkpt lat="39.8239419" lon="15.8758164"><ele>350.0</ele><time>2026-04-19T15:19:41.129Z</time></trkpt><trkpt lat="39.8240786" lon="15.8758334"><ele>350.0</ele><time>2026-04-19T15:19:42.13Z</time></trkpt><trkpt lat="39.8242001" lon="15.8758541"><ele>350.0</ele><time>2026-04-19T15:19:43.13Z</time></trkpt><trkpt lat="39.8242977" lon="15.8758856"><ele>350.0</ele><time>2026-04-19T15:19:44.13Z</time></trkpt><trkpt lat="39.8243879" lon="15.8759425"><ele>350.0</ele><time>2026-04-19T15:19:45.129Z</time></trkpt><trkpt lat="39.8244589" lon="15.8760325"><ele>350.0</ele><time>2026-04-19T15:19:46.129Z</time></trkpt><trkpt lat="39.8245006" lon="15.8761619"><ele>349.5</ele><time>2026-04-19T15:19:47.129Z</time></trkpt><trkpt lat="39.8245412" lon="15.8763134"><ele>349.0</ele><time>2026-04-19T15:19:48.13Z</time></trkpt><trkpt lat="39.8245812" lon="15.8764815"><ele>348.5</ele><time>2026-04-19T15:19:49.129Z</time></trkpt><trkpt lat="39.8246278" lon="15.8766508"><ele>348.0</ele><time>2026-04-19T15:19:50.13Z</time></trkpt><trkpt lat="39.8247005" lon="15.8768231"><ele>346.6666666666667</ele><time>2026-04-19T15:19:51.129Z</time></trkpt><trkpt lat="39.8247841" lon="15.8769875"><ele>345.33333333333337</ele><time>2026-04-19T15:19:52.129Z</time></trkpt><trkpt lat="39.8248825" lon="15.8771829"><ele>344.0</ele><time>2026-04-19T15:19:53.129Z</time></trkpt><trkpt lat="39.8249699" lon="15.8773621"><ele>344.0</ele><time>2026-04-19T15:19:54.129Z</time></trkpt><trkpt lat="39.8250565" lon="15.8775362"><ele>344.0</ele><time>2026-04-19T15:19:55.13Z</time></trkpt><trkpt lat="39.8251412" lon="15.8777014"><ele>344.0</ele><time>2026-04-19T15:19:56.13Z</time></trkpt><trkpt lat="39.8252299" lon="15.8778681"><ele>348.0</ele><time>2026-04-19T15:19:57.129Z</time></trkpt><trkpt lat="39.8253194" lon="15.8780337"><ele>352.0</ele><time>2026-04-19T15:19:58.13Z</time></trkpt><trkpt lat="39.8254132" lon="15.8781981"><ele>356.0</ele><time>2026-04-19T15:19:59.13Z</time></trkpt><trkpt lat="39.8255001" lon="15.8783644"><ele>354.0</ele><time>2026-04-19T15:20:00.129Z</time></trkpt><trkpt lat="39.8255847" lon="15.8785315"><ele>352.0</ele><time>2026-04-19T15:20:01.129Z</time></trkpt><trkpt lat="39.8256709" lon="15.8786988"><ele>350.0</ele><time>2026-04-19T15:20:02.13Z</time></trkpt><trkpt lat="39.8257599" lon="15.8788612"><ele>350.0</ele><time>2026-04-19T15:20:03.129Z</time></trkpt><trkpt lat="39.8258553" lon="15.8790081"><ele>350.0</ele><time>2026-04-19T15:20:04.13Z</time></trkpt><trkpt lat="39.8259541" lon="15.8791363"><ele>350.0</ele><time>2026-04-19T15:20:05.129Z</time></trkpt><trkpt lat="39.8260455" lon="15.8792417"><ele>350.0</ele><time>2026-04-19T15:20:06.13Z</time></trkpt><trkpt lat="39.8261341" lon="15.8793451"><ele>349.6666666666667</ele><time>2026-04-19T15:20:07.129Z</time></trkpt><trkpt lat="39.8262111" lon="15.8794203"><ele>349.33333333333337</ele><time>2026-04-19T15:20:08.129Z</time></trkpt><trkpt lat="39.8262853" lon="15.8794777"><ele>349.0</ele><time>2026-04-19T15:20:09.13Z</time></trkpt><trkpt lat="39.826368" lon="15.8795003"><ele>348.6666666666667</ele><time>2026-04-19T15:20:10.13Z</time></trkpt><trkpt lat="39.8264585" lon="15.879495"><ele>348.3333333333333</ele><time>2026-04-19T15:20:11.13Z</time></trkpt><trkpt lat="39.8265458" lon="15.8794604"><ele>348.0</ele><time>2026-04-19T15:20:12.129Z</time></trkpt><trkpt lat="39.8266419" lon="15.8794162"><ele>348.0</ele><time>2026-04-19T15:20:13.129Z</time></trkpt><trkpt lat="39.8267451" lon="15.8793693"><ele>348.0</ele><time>2026-04-19T15:20:14.13Z</time></trkpt><trkpt lat="39.8268534" lon="15.8793161"><ele>348.0</ele><time>2026-04-19T15:20:15.129Z</time></trkpt><trkpt lat="39.8269571" lon="15.8792675"><ele>348.0</ele><time>2026-04-19T15:20:16.13Z</time></trkpt><trkpt lat="39.8270636" lon="15.8792096"><ele>348.25</ele><time>2026-04-19T15:20:17.129Z</time></trkpt><trkpt lat="39.8271748" lon="15.8791549"><ele>348.5</ele><time>2026-04-19T15:20:18.13Z</time></trkpt><trkpt lat="39.8272931" lon="15.8791034"><ele>348.75</ele><time>2026-04-19T15:20:19.129Z</time></trkpt><trkpt lat="39.8274126" lon="15.8790479"><ele>349.0</ele><time>2026-04-19T15:20:20.13Z</time></trkpt><trkpt lat="39.8275273" lon="15.8790004"><ele>349.0</ele><time>2026-04-19T15:20:21.13Z</time></trkpt><trkpt lat="39.8276347" lon="15.8789497"><ele>349.0</ele><time>2026-04-19T15:20:22.13Z</time></trkpt><trkpt lat="39.8277302" lon="15.8789051"><ele>349.0</ele><time>2026-04-19T15:20:23.129Z</time></trkpt><trkpt lat="39.8278173" lon="15.8788702"><ele>349.0</ele><time>2026-04-19T15:20:24.129Z</time></trkpt><trkpt lat="39.8278962" lon="15.8788426"><ele>349.0</ele><time>2026-04-19T15:20:25.129Z</time></trkpt><trkpt lat="39.8279874" lon="15.878837"><ele>347.4</ele><time>2026-04-19T15:20:26.13Z</time></trkpt><trkpt lat="39.8280783" lon="15.8788542"><ele>345.79999999999995</ele><time>2026-04-19T15:20:27.129Z</time></trkpt><trkpt lat="39.8281747" lon="15.8788818"><ele>344.20000000000005</ele><time>2026-04-19T15:20:28.13Z</time></trkpt><trkpt lat="39.8282748" lon="15.878913"><ele>342.6</ele><time>2026-04-19T15:20:29.13Z</time></trkpt><trkpt lat="39.828378" lon="15.8789294"><ele>341.0</ele><time>2026-04-19T15:20:30.13Z</time></trkpt><trkpt lat="39.8284916" lon="15.8789254"><ele>340.20000000000005</ele><time>2026-04-19T15:20:31.129Z</time></trkpt><trkpt lat="39.8286002" lon="15.8789277"><ele>339.40000000000003</ele><time>2026-04-19T15:20:32.129Z</time></trkpt><trkpt lat="39.8287091" lon="15.8789443"><ele>338.6</ele><time>2026-04-19T15:20:33.129Z</time></trkpt><trkpt lat="39.8288045" lon="15.8789877"><ele>337.8</ele><time>2026-04-19T15:20:34.129Z</time></trkpt><trkpt lat="39.8289002" lon="15.8790195"><ele>337.0</ele><time>2026-04-19T15:20:35.13Z</time></trkpt><trkpt lat="39.8289967" lon="15.8790405"><ele>337.0</ele><time>2026-04-19T15:20:36.129Z</time></trkpt><trkpt lat="39.8290873" lon="15.879049"><ele>337.0</ele><time>2026-04-19T15:20:37.129Z</time></trkpt><trkpt lat="39.8291695" lon="15.8790437"><ele>337.0</ele><time>2026-04-19T15:20:38.13Z</time></trkpt><trkpt lat="39.8292436" lon="15.8790219"><ele>337.0</ele><time>2026-04-19T15:20:39.13Z</time></trkpt><trkpt lat="39.8293091" lon="15.8789821"><ele>337.0</ele><time>2026-04-19T15:20:40.129Z</time></trkpt><trkpt lat="39.8293714" lon="15.8789163"><ele>337.0</ele><time>2026-04-19T15:20:41.129Z</time></trkpt><trkpt lat="39.8294344" lon="15.8788435"><ele>336.5</ele><time>2026-04-19T15:20:42.129Z</time></trkpt><trkpt lat="39.8294956" lon="15.8787692"><ele>336.0</ele><time>2026-04-19T15:20:43.129Z</time></trkpt><trkpt lat="39.8295597" lon="15.8787057"><ele>335.5</ele><time>2026-04-19T15:20:44.129Z</time></trkpt><trkpt lat="39.8296276" lon="15.8786489"><ele>335.0</ele><time>2026-04-19T15:20:45.129Z</time></trkpt><trkpt lat="39.8297054" lon="15.8786173"><ele>334.5</ele><time>2026-04-19T15:20:46.13Z</time></trkpt><trkpt lat="39.829787" lon="15.8786047"><ele>334.0</ele><time>2026-04-19T15:20:47.129Z</time></trkpt><trkpt lat="39.8298684" lon="15.878603"><ele>334.0</ele><time>2026-04-19T15:20:48.13Z</time></trkpt><trkpt lat="39.8299554" lon="15.8786096"><ele>334.0</ele><time>2026-04-19T15:20:49.129Z</time></trkpt><trkpt lat="39.8300466" lon="15.8786279"><ele>334.0</ele><time>2026-04-19T15:20:50.13Z</time></trkpt><trkpt lat="39.8301398" lon="15.8786594"><ele>334.0</ele><time>2026-04-19T15:20:51.13Z</time></trkpt><trkpt lat="39.8302392" lon="15.8787032"><ele>334.0</ele><time>2026-04-19T15:20:52.13Z</time></trkpt><trkpt lat="39.8303391" lon="15.8787602"><ele>335.0</ele><time>2026-04-19T15:20:53.13Z</time></trkpt><trkpt lat="39.8304405" lon="15.8788292"><ele>336.0</ele><time>2026-04-19T15:20:54.129Z</time></trkpt><trkpt lat="39.8305355" lon="15.8789113"><ele>337.0</ele><time>2026-04-19T15:20:55.129Z</time></trkpt><trkpt lat="39.8306349" lon="15.8789812"><ele>338.0</ele><time>2026-04-19T15:20:56.13Z</time></trkpt><trkpt lat="39.8307391" lon="15.8790357"><ele>338.0</ele><time>2026-04-19T15:20:57.129Z</time></trkpt><trkpt lat="39.8308485" lon="15.879063"><ele>338.0</ele><time>2026-04-19T15:20:58.13Z</time></trkpt><trkpt lat="39.8309644" lon="15.8790608"><ele>338.0</ele><time>2026-04-19T15:20:59.129Z</time></trkpt><trkpt lat="39.8310807" lon="15.8790356"><ele>338.0</ele><time>2026-04-19T15:21:00.13Z</time></trkpt><trkpt lat="39.8311903" lon="15.8790079"><ele>340.0</ele><time>2026-04-19T15:21:01.13Z</time></trkpt><trkpt lat="39.8312907" lon="15.878993"><ele>342.0</ele><time>2026-04-19T15:21:02.129Z</time></trkpt><trkpt lat="39.8313793" lon="15.8790079"><ele>344.0</ele><time>2026-04-19T15:21:03.13Z</time></trkpt><trkpt lat="39.8314628" lon="15.8790401"><ele>346.0</ele><time>2026-04-19T15:21:04.13Z</time></trkpt><trkpt lat="39.8315365" lon="15.8791001"><ele>348.0</ele><time>2026-04-19T15:21:05.13Z</time></trkpt><trkpt lat="39.8315997" lon="15.879186"><ele>346.0</ele><time>2026-04-19T15:21:06.129Z</time></trkpt><trkpt lat="39.8316617" lon="15.8792855"><ele>344.0</ele><time>2026-04-19T15:21:07.13Z</time></trkpt><trkpt lat="39.831722" lon="15.8793953"><ele>342.0</ele><time>2026-04-19T15:21:08.13Z</time></trkpt><trkpt lat="39.831787" lon="15.8794996"><ele>340.0</ele><time>2026-04-19T15:21:09.13Z</time></trkpt><trkpt lat="39.8318493" lon="15.8796355"><ele>338.0</ele><time>2026-04-19T15:21:10.129Z</time></trkpt><trkpt lat="39.831916" lon="15.8797759"><ele>341.5</ele><time>2026-04-19T15:21:11.129Z</time></trkpt><trkpt lat="39.8319829" lon="15.8799155"><ele>345.0</ele><time>2026-04-19T15:21:12.129Z</time></trkpt><trkpt lat="39.8320457" lon="15.8800571"><ele>348.5</ele><time>2026-04-19T15:21:13.13Z</time></trkpt><trkpt lat="39.8321017" lon="15.8801987"><ele>352.0</ele><time>2026-04-19T15:21:14.129Z</time></trkpt><trkpt lat="39.8321291" lon="15.8803339"><ele>352.0</ele><time>2026-04-19T15:21:15.13Z</time></trkpt><trkpt lat="39.8321593" lon="15.880472"><ele>352.0</ele><time>2026-04-19T15:21:16.129Z</time></trkpt><trkpt lat="39.832183" lon="15.8806082"><ele>352.0</ele><time>2026-04-19T15:21:17.129Z</time></trkpt><trkpt lat="39.8322057" lon="15.8807269"><ele>352.0</ele><time>2026-04-19T15:21:18.129Z</time></trkpt><trkpt lat="39.8322352" lon="15.8808185"><ele>352.0</ele><time>2026-04-19T15:21:19.129Z</time></trkpt><trkpt lat="39.8323076" lon="15.8809386"><ele>350.5</ele><time>2026-04-19T15:21:21.13Z</time></trkpt><trkpt lat="39.8324497" lon="15.8809799"><ele>349.0</ele><time>2026-04-19T15:21:23.13Z</time></trkpt><trkpt lat="39.8325417" lon="15.8810005"><ele>347.5</ele><time>2026-04-19T15:21:24.13Z</time></trkpt><trkpt lat="39.8326559" lon="15.8810298"><ele>346.0</ele><time>2026-04-19T15:21:25.13Z</time></trkpt><trkpt lat="39.8327806" lon="15.8810623"><ele>345.75</ele><time>2026-04-19T15:21:26.13Z</time></trkpt><trkpt lat="39.8329091" lon="15.8810946"><ele>345.5</ele><time>2026-04-19T15:21:27.13Z</time></trkpt><trkpt lat="39.8330391" lon="15.8811311"><ele>345.25</ele><time>2026-04-19T15:21:28.129Z</time></trkpt><trkpt lat="39.8331707" lon="15.8811564"><ele>345.0</ele><time>2026-04-19T15:21:29.129Z</time></trkpt><trkpt lat="39.8333001" lon="15.8811863"><ele>345.0</ele><time>2026-04-19T15:21:30.13Z</time></trkpt><trkpt lat="39.8334288" lon="15.8812148"><ele>345.0</ele><time>2026-04-19T15:21:31.129Z</time></trkpt><trkpt lat="39.8335609" lon="15.8812443"><ele>345.0</ele><time>2026-04-19T15:21:32.129Z</time></trkpt><trkpt lat="39.8336919" lon="15.8812766"><ele>345.0</ele><time>2026-04-19T15:21:33.129Z</time></trkpt><trkpt lat="39.8338308" lon="15.8813081"><ele>345.75</ele><time>2026-04-19T15:21:34.129Z</time></trkpt><trkpt lat="39.8339722" lon="15.8813397"><ele>346.5</ele><time>2026-04-19T15:21:35.13Z</time></trkpt><trkpt lat="39.8341173" lon="15.8813769"><ele>347.25</ele><time>2026-04-19T15:21:36.13Z</time></trkpt><trkpt lat="39.8342628" lon="15.8814084"><ele>348.0</ele><time>2026-04-19T15:21:37.13Z</time></trkpt><trkpt lat="39.8344167" lon="15.8814464"><ele>349.3333333333333</ele><time>2026-04-19T15:21:38.13Z</time></trkpt><trkpt lat="39.8345651" lon="15.8814859"><ele>350.66666666666663</ele><time>2026-04-19T15:21:39.129Z</time></trkpt><trkpt lat="39.8347182" lon="15.8815272"><ele>352.0</ele><time>2026-04-19T15:21:40.13Z</time></trkpt><trkpt lat="39.8348713" lon="15.8815675"><ele>352.0</ele><time>2026-04-19T15:21:41.13Z</time></trkpt><trkpt lat="39.8350234" lon="15.8816029"><ele>352.0</ele><time>2026-04-19T15:21:42.129Z</time></trkpt><trkpt lat="39.8351748" lon="15.8816381"><ele>352.0</ele><time>2026-04-19T15:21:43.129Z</time></trkpt><trkpt lat="39.8353266" lon="15.8816731"><ele>350.66666666666663</ele><time>2026-04-19T15:21:44.13Z</time></trkpt><trkpt lat="39.8354786" lon="15.8817099"><ele>349.3333333333333</ele><time>2026-04-19T15:21:45.129Z</time></trkpt><trkpt lat="39.8356268" lon="15.8817458"><ele>348.0</ele><time>2026-04-19T15:21:46.13Z</time></trkpt><trkpt lat="39.8357741" lon="15.8817797"><ele>348.0</ele><time>2026-04-19T15:21:47.13Z</time></trkpt><trkpt lat="39.835917" lon="15.8818155"><ele>348.0</ele><time>2026-04-19T15:21:48.13Z</time></trkpt><trkpt lat="39.8360495" lon="15.8818478"><ele>348.0</ele><time>2026-04-19T15:21:49.13Z</time></trkpt><trkpt lat="39.8361671" lon="15.8818752"><ele>348.0</ele><time>2026-04-19T15:21:50.13Z</time></trkpt><trkpt lat="39.8362817" lon="15.8819051"><ele>349.25</ele><time>2026-04-19T15:21:51.129Z</time></trkpt><trkpt lat="39.8364069" lon="15.8819384"><ele>350.5</ele><time>2026-04-19T15:21:52.13Z</time></trkpt><trkpt lat="39.8365326" lon="15.8819715"><ele>351.75</ele><time>2026-04-19T15:21:53.129Z</time></trkpt><trkpt lat="39.8366523" lon="15.8820034"><ele>353.0</ele><time>2026-04-19T15:21:54.129Z</time></trkpt><trkpt lat="39.8367698" lon="15.8820343"><ele>353.0</ele><time>2026-04-19T15:21:55.13Z</time></trkpt><trkpt lat="39.8368811" lon="15.8820645"><ele>353.0</ele><time>2026-04-19T15:21:56.129Z</time></trkpt><trkpt lat="39.8369787" lon="15.8820898"><ele>353.0</ele><time>2026-04-19T15:21:57.129Z</time></trkpt><trkpt lat="39.8370662" lon="15.8821052"><ele>353.0</ele><time>2026-04-19T15:21:58.129Z</time></trkpt><trkpt lat="39.8371446" lon="15.8820942"><ele>353.0</ele><time>2026-04-19T15:21:59.13Z</time></trkpt><trkpt lat="39.8372139" lon="15.882062"><ele>353.0</ele><time>2026-04-19T15:22:00.129Z</time></trkpt><trkpt lat="39.8372741" lon="15.881996"><ele>353.0</ele><time>2026-04-19T15:22:01.13Z</time></trkpt><trkpt lat="39.8373092" lon="15.8818987"><ele>353.0</ele><time>2026-04-19T15:22:02.13Z</time></trkpt><trkpt lat="39.8373435" lon="15.8817833"><ele>353.0</ele><time>2026-04-19T15:22:03.129Z</time></trkpt><trkpt lat="39.8373862" lon="15.8816644"><ele>353.0</ele><time>2026-04-19T15:22:04.129Z</time></trkpt><trkpt lat="39.8374308" lon="15.8815473"><ele>353.4</ele><time>2026-04-19T15:22:05.13Z</time></trkpt><trkpt lat="39.83747" lon="15.8814369"><ele>353.79999999999995</ele><time>2026-04-19T15:22:06.13Z</time></trkpt><trkpt lat="39.837506" lon="15.8813243"><ele>354.2</ele><time>2026-04-19T15:22:07.129Z</time></trkpt><trkpt lat="39.837548" lon="15.8812075"><ele>354.6</ele><time>2026-04-19T15:22:08.129Z</time></trkpt><trkpt lat="39.8375916" lon="15.8810826"><ele>355.0</ele><time>2026-04-19T15:22:09.13Z</time></trkpt><trkpt lat="39.8376433" lon="15.8809543"><ele>351.4</ele><time>2026-04-19T15:22:10.13Z</time></trkpt><trkpt lat="39.8377042" lon="15.8808272"><ele>347.8</ele><time>2026-04-19T15:22:11.129Z</time></trkpt><trkpt lat="39.8377588" lon="15.8807063"><ele>344.20000000000005</ele><time>2026-04-19T15:22:12.129Z</time></trkpt><trkpt lat="39.8378061" lon="15.8805938"><ele>340.6</ele><time>2026-04-19T15:22:13.129Z</time></trkpt><trkpt lat="39.8378368" lon="15.8804764"><ele>337.0</ele><time>2026-04-19T15:22:14.129Z</time></trkpt><trkpt lat="39.8378437" lon="15.8803438"><ele>337.0</ele><time>2026-04-19T15:22:15.129Z</time></trkpt><trkpt lat="39.8378407" lon="15.8802045"><ele>337.0</ele><time>2026-04-19T15:22:16.129Z</time></trkpt><trkpt lat="39.8378503" lon="15.8800782"><ele>337.0</ele><time>2026-04-19T15:22:17.13Z</time></trkpt><trkpt lat="39.8378766" lon="15.8799698"><ele>337.0</ele><time>2026-04-19T15:22:18.129Z</time></trkpt><trkpt lat="39.8379137" lon="15.8798767"><ele>337.0</ele><time>2026-04-19T15:22:19.13Z</time></trkpt><trkpt lat="39.8379683" lon="15.8797973"><ele>338.8</ele><time>2026-04-19T15:22:20.129Z</time></trkpt><trkpt lat="39.8380411" lon="15.8797323"><ele>340.6</ele><time>2026-04-19T15:22:21.129Z</time></trkpt><trkpt lat="39.8381286" lon="15.8796704"><ele>342.40000000000003</ele><time>2026-04-19T15:22:22.129Z</time></trkpt><trkpt lat="39.8382237" lon="15.8796011"><ele>344.20000000000005</ele><time>2026-04-19T15:22:23.13Z</time></trkpt><trkpt lat="39.8383162" lon="15.8795162"><ele>346.0</ele><time>2026-04-19T15:22:24.13Z</time></trkpt><trkpt lat="39.8383955" lon="15.8794083"><ele>346.0</ele><time>2026-04-19T15:22:25.129Z</time></trkpt><trkpt lat="39.8384651" lon="15.8792835"><ele>346.0</ele><time>2026-04-19T15:22:26.13Z</time></trkpt><trkpt lat="39.8385247" lon="15.8791445"><ele>346.0</ele><time>2026-04-19T15:22:27.129Z</time></trkpt><trkpt lat="39.8385736" lon="15.8790027"><ele>346.0</ele><time>2026-04-19T15:22:28.129Z</time></trkpt><trkpt lat="39.8386134" lon="15.8788618"><ele>345.20000000000005</ele><time>2026-04-19T15:22:29.129Z</time></trkpt><trkpt lat="39.8386498" lon="15.8787276"><ele>344.40000000000003</ele><time>2026-04-19T15:22:30.129Z</time></trkpt><trkpt lat="39.8386877" lon="15.8786037"><ele>343.6</ele><time>2026-04-19T15:22:31.129Z</time></trkpt><trkpt lat="39.8387246" lon="15.878482"><ele>342.8</ele><time>2026-04-19T15:22:32.13Z</time></trkpt><trkpt lat="39.8387701" lon="15.8783739"><ele>342.0</ele><time>2026-04-19T15:22:33.13Z</time></trkpt><trkpt lat="39.8388263" lon="15.8782861"><ele>342.0</ele><time>2026-04-19T15:22:34.129Z</time></trkpt><trkpt lat="39.838912" lon="15.878226"><ele>342.0</ele><time>2026-04-19T15:22:35.13Z</time></trkpt><trkpt lat="39.8390026" lon="15.8781718"><ele>342.0</ele><time>2026-04-19T15:22:36.129Z</time></trkpt><trkpt lat="39.8390896" lon="15.8781048"><ele>342.0</ele><time>2026-04-19T15:22:37.13Z</time></trkpt><trkpt lat="39.8391462" lon="15.87803"><ele>342.0</ele><time>2026-04-19T15:22:38.13Z</time></trkpt><trkpt lat="39.839173" lon="15.877935"><ele>342.0</ele><time>2026-04-19T15:22:39.129Z</time></trkpt><trkpt lat="39.8391687" lon="15.8778242"><ele>342.0</ele><time>2026-04-19T15:22:40.129Z</time></trkpt><trkpt lat="39.8391511" lon="15.8777013"><ele>342.0</ele><time>2026-04-19T15:22:41.129Z</time></trkpt><trkpt lat="39.8391311" lon="15.8775583"><ele>342.0</ele><time>2026-04-19T15:22:42.129Z</time></trkpt><trkpt lat="39.8391041" lon="15.8774249"><ele>342.0</ele><time>2026-04-19T15:22:43.129Z</time></trkpt><trkpt lat="39.8390759" lon="15.8772921"><ele>342.0</ele><time>2026-04-19T15:22:44.13Z</time></trkpt><trkpt lat="39.8390465" lon="15.8771568"><ele>342.0</ele><time>2026-04-19T15:22:45.129Z</time></trkpt><trkpt lat="39.8390151" lon="15.8770246"><ele>342.0</ele><time>2026-04-19T15:22:46.13Z</time></trkpt><trkpt lat="39.8389881" lon="15.8769007"><ele>342.0</ele><time>2026-04-19T15:22:47.13Z</time></trkpt><trkpt lat="39.8389709" lon="15.8767863"><ele>342.0</ele><time>2026-04-19T15:22:48.129Z</time></trkpt><trkpt lat="39.8389598" lon="15.8766855"><ele>341.6666666666667</ele><time>2026-04-19T15:22:49.129Z</time></trkpt><trkpt lat="39.8389664" lon="15.8765984"><ele>341.3333333333333</ele><time>2026-04-19T15:22:50.129Z</time></trkpt><trkpt lat="39.8389981" lon="15.8765229"><ele>341.0</ele><time>2026-04-19T15:22:51.13Z</time></trkpt><trkpt lat="39.8390634" lon="15.8764402"><ele>340.66666666666663</ele><time>2026-04-19T15:22:52.129Z</time></trkpt><trkpt lat="39.8391408" lon="15.8763593"><ele>340.3333333333333</ele><time>2026-04-19T15:22:53.13Z</time></trkpt><trkpt lat="39.8392339" lon="15.8762893"><ele>340.0</ele><time>2026-04-19T15:22:54.13Z</time></trkpt><trkpt lat="39.8393378" lon="15.8762273"><ele>337.0</ele><time>2026-04-19T15:22:55.13Z</time></trkpt><trkpt lat="39.8394455" lon="15.876164"><ele>334.0</ele><time>2026-04-19T15:22:56.13Z</time></trkpt><trkpt lat="39.8395532" lon="15.8761032"><ele>331.0</ele><time>2026-04-19T15:22:57.13Z</time></trkpt><trkpt lat="39.8396561" lon="15.8760421"><ele>328.0</ele><time>2026-04-19T15:22:58.13Z</time></trkpt><trkpt lat="39.8397516" lon="15.8759805"><ele>329.5</ele><time>2026-04-19T15:22:59.129Z</time></trkpt><trkpt lat="39.8398391" lon="15.8759185"><ele>331.0</ele><time>2026-04-19T15:23:00.13Z</time></trkpt><trkpt lat="39.8399222" lon="15.8758516"><ele>332.5</ele><time>2026-04-19T15:23:01.129Z</time></trkpt><trkpt lat="39.8399896" lon="15.8757775"><ele>334.0</ele><time>2026-04-19T15:23:02.129Z</time></trkpt><trkpt lat="39.8400371" lon="15.8756904"><ele>335.5</ele><time>2026-04-19T15:23:03.129Z</time></trkpt><trkpt lat="39.8400688" lon="15.8755965"><ele>337.0</ele><time>2026-04-19T15:23:04.129Z</time></trkpt><trkpt lat="39.8400869" lon="15.8755039"><ele>337.0</ele><time>2026-04-19T15:23:05.13Z</time></trkpt><trkpt lat="39.8400935" lon="15.8753992"><ele>337.0</ele><time>2026-04-19T15:23:06.13Z</time></trkpt><trkpt lat="39.8400913" lon="15.8752914"><ele>337.0</ele><time>2026-04-19T15:23:07.13Z</time></trkpt><trkpt lat="39.8400816" lon="15.8751898"><ele>337.0</ele><time>2026-04-19T15:23:08.129Z</time></trkpt><trkpt lat="39.8400831" lon="15.8750927"><ele>337.0</ele><time>2026-04-19T15:23:09.13Z</time></trkpt><trkpt lat="39.8400983" lon="15.8750017"><ele>337.0</ele><time>2026-04-19T15:23:10.129Z</time></trkpt><trkpt lat="39.8401313" lon="15.874915"><ele>334.0</ele><time>2026-04-19T15:23:11.13Z</time></trkpt><trkpt lat="39.8401863" lon="15.8748224"><ele>331.0</ele><time>2026-04-19T15:23:12.129Z</time></trkpt><trkpt lat="39.8402572" lon="15.874739"><ele>328.0</ele><time>2026-04-19T15:23:13.129Z</time></trkpt><trkpt lat="39.8403382" lon="15.8746502"><ele>325.0</ele><time>2026-04-19T15:23:14.13Z</time></trkpt><trkpt lat="39.840427" lon="15.8745609"><ele>322.0</ele><time>2026-04-19T15:23:15.13Z</time></trkpt><trkpt lat="39.8405158" lon="15.8744781"><ele>322.0</ele><time>2026-04-19T15:23:16.129Z</time></trkpt><trkpt lat="39.8406016" lon="15.8743934"><ele>322.0</ele><time>2026-04-19T15:23:17.129Z</time></trkpt><trkpt lat="39.8406865" lon="15.8743029"><ele>322.0</ele><time>2026-04-19T15:23:18.129Z</time></trkpt><trkpt lat="39.8407689" lon="15.8742204"><ele>322.0</ele><time>2026-04-19T15:23:19.13Z</time></trkpt><trkpt lat="39.840858" lon="15.8741476"><ele>322.0</ele><time>2026-04-19T15:23:20.129Z</time></trkpt><trkpt lat="39.8409561" lon="15.8740869"><ele>321.75</ele><time>2026-04-19T15:23:21.129Z</time></trkpt><trkpt lat="39.8410594" lon="15.8740402"><ele>321.5</ele><time>2026-04-19T15:23:22.13Z</time></trkpt><trkpt lat="39.8411711" lon="15.8739994"><ele>321.25</ele><time>2026-04-19T15:23:23.13Z</time></trkpt><trkpt lat="39.8412776" lon="15.8739557"><ele>321.0</ele><time>2026-04-19T15:23:24.129Z</time></trkpt><trkpt lat="39.8413833" lon="15.8738941"><ele>321.0</ele><time>2026-04-19T15:23:25.13Z</time></trkpt><trkpt lat="39.8414693" lon="15.8738351"><ele>321.0</ele><time>2026-04-19T15:23:26.13Z</time></trkpt><trkpt lat="39.8415492" lon="15.8737814"><ele>321.0</ele><time>2026-04-19T15:23:27.129Z</time></trkpt><trkpt lat="39.8416262" lon="15.8737316"><ele>321.0</ele><time>2026-04-19T15:23:28.129Z</time></trkpt><trkpt lat="39.8417061" lon="15.8736887"><ele>321.0</ele><time>2026-04-19T15:23:29.129Z</time></trkpt><trkpt lat="39.8417949" lon="15.8736664"><ele>318.6</ele><time>2026-04-19T15:23:30.13Z</time></trkpt><trkpt lat="39.8418932" lon="15.8736532"><ele>316.20000000000005</ele><time>2026-04-19T15:23:31.13Z</time></trkpt><trkpt lat="39.8420019" lon="15.8736365"><ele>313.79999999999995</ele><time>2026-04-19T15:23:32.129Z</time></trkpt><trkpt lat="39.8421155" lon="15.873613"><ele>311.4</ele><time>2026-04-19T15:23:33.129Z</time></trkpt><trkpt lat="39.8422326" lon="15.8735927"><ele>309.0</ele><time>2026-04-19T15:23:34.13Z</time></trkpt><trkpt lat="39.8423519" lon="15.8735789"><ele>309.0</ele><time>2026-04-19T15:23:35.13Z</time></trkpt><trkpt lat="39.8424699" lon="15.873559"><ele>309.0</ele><time>2026-04-19T15:23:36.13Z</time></trkpt><trkpt lat="39.8425816" lon="15.8735362"><ele>309.0</ele><time>2026-04-19T15:23:37.129Z</time></trkpt><trkpt lat="39.8426848" lon="15.873513"><ele>309.0</ele><time>2026-04-19T15:23:38.129Z</time></trkpt><trkpt lat="39.8427932" lon="15.8734897"><ele>309.0</ele><time>2026-04-19T15:23:39.129Z</time></trkpt><trkpt lat="39.8429101" lon="15.8734673"><ele>307.75</ele><time>2026-04-19T15:23:40.13Z</time></trkpt><trkpt lat="39.8430302" lon="15.8734465"><ele>306.5</ele><time>2026-04-19T15:23:41.129Z</time></trkpt><trkpt lat="39.8431514" lon="15.8734267"><ele>305.25</ele><time>2026-04-19T15:23:42.129Z</time></trkpt><trkpt lat="39.8432777" lon="15.8734051"><ele>304.0</ele><time>2026-04-19T15:23:43.129Z</time></trkpt><trkpt lat="39.8433999" lon="15.8733815"><ele>311.0</ele><time>2026-04-19T15:23:44.13Z</time></trkpt><trkpt lat="39.8435202" lon="15.8733584"><ele>318.0</ele><time>2026-04-19T15:23:45.129Z</time></trkpt><trkpt lat="39.8436385" lon="15.8733362"><ele>325.0</ele><time>2026-04-19T15:23:46.129Z</time></trkpt><trkpt lat="39.8437565" lon="15.8733177"><ele>332.0</ele><time>2026-04-19T15:23:47.13Z</time></trkpt><trkpt lat="39.84386" lon="15.873299"><ele>332.0</ele><time>2026-04-19T15:23:48.13Z</time></trkpt><trkpt lat="39.8439611" lon="15.873282"><ele>332.0</ele><time>2026-04-19T15:23:49.13Z</time></trkpt><trkpt lat="39.8440531" lon="15.8732731"><ele>332.0</ele><time>2026-04-19T15:23:50.13Z</time></trkpt><trkpt lat="39.8441353" lon="15.8732755"><ele>332.0</ele><time>2026-04-19T15:23:51.129Z</time></trkpt><trkpt lat="39.8442028" lon="15.873298"><ele>332.0</ele><time>2026-04-19T15:23:52.13Z</time></trkpt><trkpt lat="39.8442612" lon="15.8733561"><ele>332.0</ele><time>2026-04-19T15:23:53.13Z</time></trkpt><trkpt lat="39.8443096" lon="15.8734432"><ele>330.20000000000005</ele><time>2026-04-19T15:23:54.13Z</time></trkpt><trkpt lat="39.8443627" lon="15.8735432"><ele>328.4</ele><time>2026-04-19T15:23:55.129Z</time></trkpt><trkpt lat="39.8444346" lon="15.873642"><ele>326.6</ele><time>2026-04-19T15:23:56.13Z</time></trkpt><trkpt lat="39.844517" lon="15.8737184"><ele>324.79999999999995</ele><time>2026-04-19T15:23:57.13Z</time></trkpt><trkpt lat="39.8446194" lon="15.873766"><ele>323.0</ele><time>2026-04-19T15:23:58.13Z</time></trkpt><trkpt lat="39.8447351" lon="15.8737916"><ele>323.0</ele><time>2026-04-19T15:23:59.129Z</time></trkpt><trkpt lat="39.8448563" lon="15.8738102"><ele>323.0</ele><time>2026-04-19T15:24:00.13Z</time></trkpt><trkpt lat="39.8449774" lon="15.8738304"><ele>323.0</ele><time>2026-04-19T15:24:01.129Z</time></trkpt><trkpt lat="39.8450945" lon="15.8738495"><ele>323.0</ele><time>2026-04-19T15:24:02.13Z</time></trkpt><trkpt lat="39.8452095" lon="15.8738623"><ele>325.0</ele><time>2026-04-19T15:24:03.129Z</time></trkpt><trkpt lat="39.8453157" lon="15.873874"><ele>327.0</ele><time>2026-04-19T15:24:04.129Z</time></trkpt><trkpt lat="39.8454126" lon="15.8738916"><ele>329.0</ele><time>2026-04-19T15:24:05.129Z</time></trkpt><trkpt lat="39.8454946" lon="15.8739285"><ele>331.0</ele><time>2026-04-19T15:24:06.13Z</time></trkpt><trkpt lat="39.8455788" lon="15.8739809"><ele>333.0</ele><time>2026-04-19T15:24:07.129Z</time></trkpt><trkpt lat="39.845644" lon="15.8740733"><ele>333.0</ele><time>2026-04-19T15:24:08.13Z</time></trkpt><trkpt lat="39.8457095" lon="15.874181"><ele>333.0</ele><time>2026-04-19T15:24:09.13Z</time></trkpt><trkpt lat="39.8457842" lon="15.8742836"><ele>333.0</ele><time>2026-04-19T15:24:10.129Z</time></trkpt><trkpt lat="39.8458832" lon="15.8743703"><ele>333.0</ele><time>2026-04-19T15:24:11.13Z</time></trkpt><trkpt lat="39.8459962" lon="15.874439"><ele>332.25</ele><time>2026-04-19T15:24:12.13Z</time></trkpt><trkpt lat="39.8461185" lon="15.8745064"><ele>331.5</ele><time>2026-04-19T15:24:13.129Z</time></trkpt><trkpt lat="39.8462452" lon="15.8745851"><ele>330.75</ele><time>2026-04-19T15:24:14.13Z</time></trkpt><trkpt lat="39.846378" lon="15.8746694"><ele>330.0</ele><time>2026-04-19T15:24:15.13Z</time></trkpt><trkpt lat="39.8465022" lon="15.8747416"><ele>330.0</ele><time>2026-04-19T15:24:16.129Z</time></trkpt><trkpt lat="39.8466125" lon="15.8748149"><ele>330.0</ele><time>2026-04-19T15:24:17.129Z</time></trkpt><trkpt lat="39.8467142" lon="15.8748877"><ele>330.0</ele><time>2026-04-19T15:24:18.13Z</time></trkpt><trkpt lat="39.8467978" lon="15.8749618"><ele>330.0</ele><time>2026-04-19T15:24:19.13Z</time></trkpt><trkpt lat="39.8468672" lon="15.875047"><ele>330.0</ele><time>2026-04-19T15:24:20.129Z</time></trkpt><trkpt lat="39.8469206" lon="15.8751357"><ele>331.8</ele><time>2026-04-19T15:24:21.13Z</time></trkpt><trkpt lat="39.8469482" lon="15.8752301"><ele>333.6</ele><time>2026-04-19T15:24:22.13Z</time></trkpt><trkpt lat="39.846946" lon="15.8753425"><ele>335.4</ele><time>2026-04-19T15:24:23.129Z</time></trkpt><trkpt lat="39.84692" lon="15.87546"><ele>337.2</ele><time>2026-04-19T15:24:24.13Z</time></trkpt><trkpt lat="39.8468771" lon="15.8755876"><ele>339.0</ele><time>2026-04-19T15:24:25.13Z</time></trkpt><trkpt lat="39.8468331" lon="15.8757372"><ele>335.0</ele><time>2026-04-19T15:24:26.13Z</time></trkpt><trkpt lat="39.8467888" lon="15.8758942"><ele>331.0</ele><time>2026-04-19T15:24:27.13Z</time></trkpt><trkpt lat="39.8467463" lon="15.8760548"><ele>327.0</ele><time>2026-04-19T15:24:28.129Z</time></trkpt><trkpt lat="39.8467021" lon="15.876212"><ele>323.0</ele><time>2026-04-19T15:24:29.129Z</time></trkpt><trkpt lat="39.8466589" lon="15.8763597"><ele>323.0</ele><time>2026-04-19T15:24:30.129Z</time></trkpt><trkpt lat="39.8466276" lon="15.8764914"><ele>323.0</ele><time>2026-04-19T15:24:31.13Z</time></trkpt><trkpt lat="39.8466216" lon="15.8766188"><ele>323.0</ele><time>2026-04-19T15:24:32.13Z</time></trkpt><trkpt lat="39.846634" lon="15.876743"><ele>323.0</ele><time>2026-04-19T15:24:33.13Z</time></trkpt><trkpt lat="39.8466823" lon="15.8768519"><ele>323.0</ele><time>2026-04-19T15:24:34.13Z</time></trkpt><trkpt lat="39.8467602" lon="15.8769434"><ele>324.5</ele><time>2026-04-19T15:24:35.13Z</time></trkpt><trkpt lat="39.8468647" lon="15.8770251"><ele>326.0</ele><time>2026-04-19T15:24:36.129Z</time></trkpt><trkpt lat="39.8469841" lon="15.8771039"><ele>327.5</ele><time>2026-04-19T15:24:37.13Z</time></trkpt><trkpt lat="39.8470981" lon="15.8771821"><ele>329.0</ele><time>2026-04-19T15:24:38.129Z</time></trkpt><trkpt lat="39.8472058" lon="15.8772475"><ele>329.0</ele><time>2026-04-19T15:24:39.129Z</time></trkpt><trkpt lat="39.8473034" lon="15.8773105"><ele>329.0</ele><time>2026-04-19T15:24:40.129Z</time></trkpt><trkpt lat="39.8473831" lon="15.8773666"><ele>329.0</ele><time>2026-04-19T15:24:41.129Z</time></trkpt><trkpt lat="39.8474432" lon="15.8774265"><ele>329.0</ele><time>2026-04-19T15:24:42.13Z</time></trkpt><trkpt lat="39.8474743" lon="15.8775178"><ele>329.0</ele><time>2026-04-19T15:24:43.13Z</time></trkpt><trkpt lat="39.8474668" lon="15.8776307"><ele>329.0</ele><time>2026-04-19T15:24:44.129Z</time></trkpt><trkpt lat="39.847436" lon="15.8777531"><ele>328.4</ele><time>2026-04-19T15:24:45.13Z</time></trkpt><trkpt lat="39.8474038" lon="15.8778846"><ele>327.79999999999995</ele><time>2026-04-19T15:24:46.13Z</time></trkpt><trkpt lat="39.8473862" lon="15.87802"><ele>327.20000000000005</ele><time>2026-04-19T15:24:47.129Z</time></trkpt><trkpt lat="39.8473947" lon="15.8781596"><ele>326.6</ele><time>2026-04-19T15:24:48.13Z</time></trkpt><trkpt lat="39.8474168" lon="15.8782994"><ele>326.0</ele><time>2026-04-19T15:24:49.13Z</time></trkpt><trkpt lat="39.8474349" lon="15.8784344"><ele>325.6</ele><time>2026-04-19T15:24:50.129Z</time></trkpt><trkpt lat="39.847442" lon="15.8785561"><ele>325.20000000000005</ele><time>2026-04-19T15:24:51.13Z</time></trkpt><trkpt lat="39.8474298" lon="15.8786814"><ele>324.79999999999995</ele><time>2026-04-19T15:24:52.13Z</time></trkpt><trkpt lat="39.8473864" lon="15.8787984"><ele>324.4</ele><time>2026-04-19T15:24:53.13Z</time></trkpt><trkpt lat="39.8473258" lon="15.8789109"><ele>324.0</ele><time>2026-04-19T15:24:54.13Z</time></trkpt><trkpt lat="39.8472667" lon="15.8790156"><ele>324.0</ele><time>2026-04-19T15:24:55.129Z</time></trkpt><trkpt lat="39.8472227" lon="15.8791201"><ele>324.0</ele><time>2026-04-19T15:24:56.13Z</time></trkpt><trkpt lat="39.847203" lon="15.879219"><ele>324.0</ele><time>2026-04-19T15:24:57.13Z</time></trkpt><trkpt lat="39.8472169" lon="15.8793215"><ele>324.0</ele><time>2026-04-19T15:24:58.129Z</time></trkpt><trkpt lat="39.8472583" lon="15.8794201"><ele>324.0</ele><time>2026-04-19T15:24:59.129Z</time></trkpt><trkpt lat="39.84734" lon="15.8795161"><ele>324.0</ele><time>2026-04-19T15:25:00.129Z</time></trkpt><trkpt lat="39.8474486" lon="15.8796007"><ele>322.0</ele><time>2026-04-19T15:25:01.129Z</time></trkpt><trkpt lat="39.8475465" lon="15.8796685"><ele>320.0</ele><time>2026-04-19T15:25:02.13Z</time></trkpt><trkpt lat="39.8476629" lon="15.8797137"><ele>318.0</ele><time>2026-04-19T15:25:03.129Z</time></trkpt><trkpt lat="39.8478171" lon="15.8797483"><ele>316.0</ele><time>2026-04-19T15:25:04.129Z</time></trkpt><trkpt lat="39.8479778" lon="15.8797875"><ele>314.0</ele><time>2026-04-19T15:25:05.129Z</time></trkpt><trkpt lat="39.84816" lon="15.8798181"><ele>312.0</ele><time>2026-04-19T15:25:06.129Z</time></trkpt><trkpt lat="39.84833" lon="15.8798558"><ele>310.0</ele><time>2026-04-19T15:25:07.13Z</time></trkpt><trkpt lat="39.848489" lon="15.879891"><ele>309.66666666666663</ele><time>2026-04-19T15:25:08.13Z</time></trkpt><trkpt lat="39.8486484" lon="15.8799278"><ele>309.3333333333333</ele><time>2026-04-19T15:25:09.129Z</time></trkpt><trkpt lat="39.8487988" lon="15.879959"><ele>309.0</ele><time>2026-04-19T15:25:10.129Z</time></trkpt><trkpt lat="39.8489417" lon="15.8799801"><ele>309.0</ele><time>2026-04-19T15:25:11.129Z</time></trkpt><trkpt lat="39.8490706" lon="15.8799923"><ele>309.0</ele><time>2026-04-19T15:25:12.129Z</time></trkpt><trkpt lat="39.8491815" lon="15.8799965"><ele>309.0</ele><time>2026-04-19T15:25:13.129Z</time></trkpt><trkpt lat="39.8492792" lon="15.8799973"><ele>309.0</ele><time>2026-04-19T15:25:14.129Z</time></trkpt><trkpt lat="39.8493686" lon="15.8799897"><ele>309.0</ele><time>2026-04-19T15:25:15.13Z</time></trkpt><trkpt lat="39.849447" lon="15.8799697"><ele>307.6666666666667</ele><time>2026-04-19T15:25:16.129Z</time></trkpt><trkpt lat="39.8495146" lon="15.8799196"><ele>306.3333333333333</ele><time>2026-04-19T15:25:17.13Z</time></trkpt><trkpt lat="39.8495746" lon="15.8798578"><ele>305.0</ele><time>2026-04-19T15:25:18.13Z</time></trkpt><trkpt lat="39.8496393" lon="15.8797845"><ele>303.66666666666663</ele><time>2026-04-19T15:25:19.13Z</time></trkpt><trkpt lat="39.8497086" lon="15.8797045"><ele>302.3333333333333</ele><time>2026-04-19T15:25:20.129Z</time></trkpt><trkpt lat="39.8497788" lon="15.8796265"><ele>301.0</ele><time>2026-04-19T15:25:21.13Z</time></trkpt><trkpt lat="39.8498446" lon="15.8795519"><ele>301.0</ele><time>2026-04-19T15:25:22.13Z</time></trkpt><trkpt lat="39.8499077" lon="15.8794803"><ele>301.0</ele><time>2026-04-19T15:25:23.129Z</time></trkpt><trkpt lat="39.8499696" lon="15.8794085"><ele>301.0</ele><time>2026-04-19T15:25:24.13Z</time></trkpt><trkpt lat="39.850028" lon="15.8793335"><ele>301.0</ele><time>2026-04-19T15:25:25.129Z</time></trkpt><trkpt lat="39.8500951" lon="15.8792573"><ele>301.0</ele><time>2026-04-19T15:25:26.129Z</time></trkpt><trkpt lat="39.8501608" lon="15.8791804"><ele>301.0</ele><time>2026-04-19T15:25:27.129Z</time></trkpt><trkpt lat="39.8502264" lon="15.8791092"><ele>296.3333333333333</ele><time>2026-04-19T15:25:28.13Z</time></trkpt><trkpt lat="39.8502825" lon="15.8790434"><ele>291.66666666666663</ele><time>2026-04-19T15:25:29.13Z</time></trkpt><trkpt lat="39.8503363" lon="15.8789722"><ele>287.0</ele><time>2026-04-19T15:25:30.13Z</time></trkpt><trkpt lat="39.8503865" lon="15.8788873"><ele>282.3333333333333</ele><time>2026-04-19T15:25:31.13Z</time></trkpt><trkpt lat="39.8504153" lon="15.8787959"><ele>277.6666666666667</ele><time>2026-04-19T15:25:32.13Z</time></trkpt><trkpt lat="39.8504465" lon="15.8787005"><ele>273.0</ele><time>2026-04-19T15:25:33.129Z</time></trkpt><trkpt lat="39.8504559" lon="15.8785932"><ele>273.0</ele><time>2026-04-19T15:25:34.13Z</time></trkpt><trkpt lat="39.8504329" lon="15.8784789"><ele>273.0</ele><time>2026-04-19T15:25:35.129Z</time></trkpt><trkpt lat="39.850384" lon="15.8783725"><ele>273.0</ele><time>2026-04-19T15:25:36.129Z</time></trkpt><trkpt lat="39.8503205" lon="15.8782712"><ele>273.0</ele><time>2026-04-19T15:25:37.129Z</time></trkpt><trkpt lat="39.8502611" lon="15.8781846"><ele>273.0</ele><time>2026-04-19T15:25:38.13Z</time></trkpt><trkpt lat="39.8502175" lon="15.8781011"><ele>274.0</ele><time>2026-04-19T15:25:39.129Z</time></trkpt><trkpt lat="39.8501949" lon="15.8780214"><ele>275.0</ele><time>2026-04-19T15:25:40.129Z</time></trkpt><trkpt lat="39.8502037" lon="15.8778796"><ele>276.0</ele><time>2026-04-19T15:25:42.13Z</time></trkpt><trkpt lat="39.8502756" lon="15.8778389"><ele>277.0</ele><time>2026-04-19T15:25:43.13Z</time></trkpt><trkpt lat="39.8504267" lon="15.8778021"><ele>278.0</ele><time>2026-04-19T15:25:45.13Z</time></trkpt><trkpt lat="39.8505204" lon="15.8778127"><ele>278.0</ele><time>2026-04-19T15:25:46.129Z</time></trkpt><trkpt lat="39.8506165" lon="15.8778184"><ele>278.0</ele><time>2026-04-19T15:25:47.13Z</time></trkpt><trkpt lat="39.8507095" lon="15.8778112"><ele>278.0</ele><time>2026-04-19T15:25:48.129Z</time></trkpt><trkpt lat="39.8508072" lon="15.8777843"><ele>278.0</ele><time>2026-04-19T15:25:49.13Z</time></trkpt><trkpt lat="39.8509087" lon="15.8777251"><ele>278.0</ele><time>2026-04-19T15:25:50.13Z</time></trkpt><trkpt lat="39.8510088" lon="15.8776225"><ele>283.2</ele><time>2026-04-19T15:25:51.129Z</time></trkpt><trkpt lat="39.8510957" lon="15.8775121"><ele>288.4</ele><time>2026-04-19T15:25:52.129Z</time></trkpt><trkpt lat="39.8511758" lon="15.8774104"><ele>293.59999999999997</ele><time>2026-04-19T15:25:53.129Z</time></trkpt><trkpt lat="39.8512456" lon="15.8773162"><ele>298.8</ele><time>2026-04-19T15:25:54.129Z</time></trkpt><trkpt lat="39.8513021" lon="15.8772461"><ele>304.0</ele><time>2026-04-19T15:25:55.129Z</time></trkpt><trkpt lat="39.8513591" lon="15.8771975"><ele>304.0</ele><time>2026-04-19T15:25:56.13Z</time></trkpt><trkpt lat="39.8514812" lon="15.8772146"><ele>304.0</ele><time>2026-04-19T15:25:58.129Z</time></trkpt><trkpt lat="39.8515422" lon="15.8772735"><ele>304.0</ele><time>2026-04-19T15:25:59.13Z</time></trkpt><trkpt lat="39.8515973" lon="15.8773477"><ele>304.0</ele><time>2026-04-19T15:26:00.129Z</time></trkpt><trkpt lat="39.851639" lon="15.8774304"><ele>304.0</ele><time>2026-04-19T15:26:01.129Z</time></trkpt><trkpt lat="39.8516662" lon="15.8775256"><ele>304.0</ele><time>2026-04-19T15:26:02.13Z</time></trkpt><trkpt lat="39.8516864" lon="15.877638"><ele>306.66666666666663</ele><time>2026-04-19T15:26:03.129Z</time></trkpt><trkpt lat="39.8517029" lon="15.8777603"><ele>309.3333333333333</ele><time>2026-04-19T15:26:04.13Z</time></trkpt><trkpt lat="39.851723" lon="15.8778804"><ele>312.0</ele><time>2026-04-19T15:26:05.13Z</time></trkpt><trkpt lat="39.8517458" lon="15.8779994"><ele>314.6666666666667</ele><time>2026-04-19T15:26:06.13Z</time></trkpt><trkpt lat="39.8517715" lon="15.8781052"><ele>317.33333333333337</ele><time>2026-04-19T15:26:07.13Z</time></trkpt><trkpt lat="39.8517892" lon="15.8781922"><ele>320.0</ele><time>2026-04-19T15:26:08.13Z</time></trkpt><trkpt lat="39.8518262" lon="15.8782972"><ele>320.0</ele><time>2026-04-19T15:26:09.129Z</time></trkpt><trkpt lat="39.8518538" lon="15.8784033"><ele>320.0</ele><time>2026-04-19T15:26:10.13Z</time></trkpt><trkpt lat="39.8518791" lon="15.8785006"><ele>320.0</ele><time>2026-04-19T15:26:11.13Z</time></trkpt><trkpt lat="39.8519098" lon="15.8786108"><ele>320.0</ele><time>2026-04-19T15:26:12.129Z</time></trkpt><trkpt lat="39.8519394" lon="15.8787187"><ele>320.0</ele><time>2026-04-19T15:26:13.13Z</time></trkpt><trkpt lat="39.8519706" lon="15.8788191"><ele>320.0</ele><time>2026-04-19T15:26:14.129Z</time></trkpt><trkpt lat="39.8520147" lon="15.8789015"><ele>313.4</ele><time>2026-04-19T15:26:15.13Z</time></trkpt><trkpt lat="39.8520833" lon="15.8789697"><ele>306.8</ele><time>2026-04-19T15:26:16.13Z</time></trkpt><trkpt lat="39.8521555" lon="15.8790187"><ele>300.2</ele><time>2026-04-19T15:26:17.129Z</time></trkpt><trkpt lat="39.8522627" lon="15.8791021"><ele>293.6</ele><time>2026-04-19T15:26:19.13Z</time></trkpt><trkpt lat="39.8523192" lon="15.8792003"><ele>287.0</ele><time>2026-04-19T15:26:21.129Z</time></trkpt><trkpt lat="39.8523332" lon="15.879284"><ele>283.0</ele><time>2026-04-19T15:26:23.13Z</time></trkpt><trkpt lat="39.8523269" lon="15.8793987"><ele>279.0</ele><time>2026-04-19T15:26:26.13Z</time></trkpt><trkpt lat="39.8523071" lon="15.8795003"><ele>275.0</ele><time>2026-04-19T15:26:28.13Z</time></trkpt><trkpt lat="39.8522635" lon="15.8796247"><ele>271.0</ele><time>2026-04-19T15:26:30.129Z</time></trkpt><trkpt lat="39.852258" lon="15.8797576"><ele>267.0</ele><time>2026-04-19T15:26:32.129Z</time></trkpt><trkpt lat="39.8522986" lon="15.8798758"><ele>267.0</ele><time>2026-04-19T15:26:34.129Z</time></trkpt><trkpt lat="39.8523878" lon="15.8799551"><ele>267.0</ele><time>2026-04-19T15:26:36.13Z</time></trkpt><trkpt lat="39.8524866" lon="15.8799934"><ele>267.0</ele><time>2026-04-19T15:26:38.129Z</time></trkpt><trkpt lat="39.8525875" lon="15.8800203"><ele>267.0</ele><time>2026-04-19T15:26:40.13Z</time></trkpt><trkpt lat="39.8526998" lon="15.8800346"><ele>267.0</ele><time>2026-04-19T15:26:42.129Z</time></trkpt><trkpt lat="39.8527949" lon="15.880073"><ele>265.1666666666667</ele><time>2026-04-19T15:26:44.13Z</time></trkpt><trkpt lat="39.852878" lon="15.8801533"><ele>263.3333333333333</ele><time>2026-04-19T15:26:46.129Z</time></trkpt><trkpt lat="39.8529279" lon="15.8802488"><ele>261.5</ele><time>2026-04-19T15:26:48.129Z</time></trkpt><trkpt lat="39.8529797" lon="15.8803243"><ele>259.66666666666663</ele><time>2026-04-19T15:26:50.129Z</time></trkpt><trkpt lat="39.8530379" lon="15.8803899"><ele>257.8333333333333</ele><time>2026-04-19T15:26:52.13Z</time></trkpt><trkpt lat="39.853094" lon="15.8804466"><ele>256.0</ele><time>2026-04-19T15:26:55.129Z</time></trkpt><trkpt lat="39.8531707" lon="15.8805199"><ele>256.0</ele><time>2026-04-19T15:28:10.13Z</time></trkpt><trkpt lat="39.8532174" lon="15.880576"><ele>255.99999999999997</ele><time>2026-04-19T15:28:12.129Z</time></trkpt><trkpt lat="39.8532652" lon="15.8806351"><ele>256.0</ele><time>2026-04-19T15:28:14.129Z</time></trkpt><trkpt lat="39.8533129" lon="15.88069"><ele>256.0</ele><time>2026-04-19T15:28:16.129Z</time></trkpt><trkpt lat="39.8533857" lon="15.8807619"><ele>255.99999999999997</ele><time>2026-04-19T15:28:19.129Z</time></trkpt><trkpt lat="39.8534335" lon="15.8808159"><ele>256.0</ele><time>2026-04-19T15:28:21.129Z</time></trkpt><trkpt lat="39.8535062" lon="15.8808893"><ele>256.0</ele><time>2026-04-19T15:28:24.13Z</time></trkpt><trkpt lat="39.8535662" lon="15.8809535"><ele>255.49999999999997</ele><time>2026-04-19T15:28:26.128Z</time></trkpt><trkpt lat="39.8536411" lon="15.8810082"><ele>255.0</ele><time>2026-04-19T15:28:28.13Z</time></trkpt><trkpt lat="39.8537119" lon="15.8810512"><ele>254.5</ele><time>2026-04-19T15:28:30.129Z</time></trkpt><trkpt lat="39.8537781" lon="15.8811084"><ele>254.0</ele><time>2026-04-19T15:28:32.13Z</time></trkpt><trkpt lat="39.8538405" lon="15.8811851"><ele>253.49999999999997</ele><time>2026-04-19T15:28:34.13Z</time></trkpt><trkpt lat="39.8539028" lon="15.8812731"><ele>253.0</ele><time>2026-04-19T15:28:36.13Z</time></trkpt><trkpt lat="39.8539515" lon="15.8813847"><ele>253.0</ele><time>2026-04-19T15:28:38.13Z</time></trkpt><trkpt lat="39.8540023" lon="15.8814916"><ele>253.0</ele><time>2026-04-19T15:28:40.13Z</time></trkpt><trkpt lat="39.8540466" lon="15.8816079"><ele>253.0</ele><time>2026-04-19T15:28:42.13Z</time></trkpt><trkpt lat="39.8540966" lon="15.8817203"><ele>253.0</ele><time>2026-04-19T15:28:44.129Z</time></trkpt><trkpt lat="39.8541496" lon="15.8818359"><ele>253.0</ele><time>2026-04-19T15:28:46.13Z</time></trkpt><trkpt lat="39.8542246" lon="15.881907"><ele>251.0</ele><time>2026-04-19T15:28:48.13Z</time></trkpt><trkpt lat="39.854331" lon="15.881934"><ele>249.0</ele><time>2026-04-19T15:28:50.129Z</time></trkpt><trkpt lat="39.8544325" lon="15.8819502"><ele>247.0</ele><time>2026-04-19T15:28:52.129Z</time></trkpt><trkpt lat="39.8545405" lon="15.8819584"><ele>245.0</ele><time>2026-04-19T15:28:54.129Z</time></trkpt><trkpt lat="39.8546404" lon="15.8820049"><ele>243.0</ele><time>2026-04-19T15:28:56.13Z</time></trkpt><trkpt lat="39.8547391" lon="15.8820619"><ele>243.0</ele><time>2026-04-19T15:28:58.13Z</time></trkpt><trkpt lat="39.8548198" lon="15.8821381"><ele>243.0</ele><time>2026-04-19T15:29:00.129Z</time></trkpt><trkpt lat="39.8549033" lon="15.8822145"><ele>243.0</ele><time>2026-04-19T15:29:02.129Z</time></trkpt><trkpt lat="39.854975" lon="15.8822764"><ele>243.0</ele><time>2026-04-19T15:29:04.129Z</time></trkpt><trkpt lat="39.8550509" lon="15.8823393"><ele>243.0</ele><time>2026-04-19T15:29:06.13Z</time></trkpt><trkpt lat="39.8551234" lon="15.8823926"><ele>245.16666666666666</ele><time>2026-04-19T15:29:08.129Z</time></trkpt><trkpt lat="39.855184" lon="15.882462"><ele>247.33333333333331</ele><time>2026-04-19T15:29:10.13Z</time></trkpt><trkpt lat="39.8552578" lon="15.8825098"><ele>249.5</ele><time>2026-04-19T15:29:12.13Z</time></trkpt><trkpt lat="39.8553339" lon="15.882546"><ele>251.66666666666666</ele><time>2026-04-19T15:29:14.13Z</time></trkpt><trkpt lat="39.8554089" lon="15.8825604"><ele>253.83333333333331</ele><time>2026-04-19T15:29:16.13Z</time></trkpt><trkpt lat="39.8554874" lon="15.8825654"><ele>256.0</ele><time>2026-04-19T15:29:18.13Z</time></trkpt><trkpt lat="39.8555507" lon="15.8825804"><ele>251.5</ele><time>2026-04-19T15:29:20.13Z</time></trkpt><trkpt lat="39.8556024" lon="15.8826317"><ele>247.0</ele><time>2026-04-19T15:30:09.13Z</time></trkpt><trkpt lat="39.855761" lon="15.882829"><ele>242.5</ele><time>2026-04-19T15:30:12.13Z</time></trkpt><trkpt lat="39.8558159" lon="15.8829305"><ele>238.0</ele><time>2026-04-19T15:30:13.129Z</time></trkpt><trkpt lat="39.8558756" lon="15.8830367"><ele>238.0</ele><time>2026-04-19T15:30:14.129Z</time></trkpt><trkpt lat="39.8558904" lon="15.8831559"><ele>238.0</ele><time>2026-04-19T15:30:15.13Z</time></trkpt><trkpt lat="39.8559204" lon="15.8832784"><ele>238.0</ele><time>2026-04-19T15:30:16.129Z</time></trkpt><trkpt lat="39.8559284" lon="15.8833788"><ele>238.0</ele><time>2026-04-19T15:30:17.13Z</time></trkpt><trkpt lat="39.8559318" lon="15.8834953"><ele>238.0</ele><time>2026-04-19T15:30:18.13Z</time></trkpt><trkpt lat="39.8559169" lon="15.8836186"><ele>236.99999999999997</ele><time>2026-04-19T15:30:19.13Z</time></trkpt><trkpt lat="39.8558882" lon="15.8837255"><ele>236.0</ele><time>2026-04-19T15:30:20.13Z</time></trkpt><trkpt lat="39.8558446" lon="15.8838156"><ele>235.0</ele><time>2026-04-19T15:30:21.129Z</time></trkpt><trkpt lat="39.8557928" lon="15.8838833"><ele>234.0</ele><time>2026-04-19T15:30:22.129Z</time></trkpt><trkpt lat="39.8557363" lon="15.8839524"><ele>232.99999999999997</ele><time>2026-04-19T15:30:23.129Z</time></trkpt><trkpt lat="39.8556836" lon="15.884015"><ele>232.0</ele><time>2026-04-19T15:30:24.129Z</time></trkpt><trkpt lat="39.855637" lon="15.8840832"><ele>232.0</ele><time>2026-04-19T15:30:25.13Z</time></trkpt><trkpt lat="39.8556108" lon="15.8842436"><ele>232.0</ele><time>2026-04-19T15:30:27.13Z</time></trkpt><trkpt lat="39.8556414" lon="15.8843394"><ele>232.0</ele><time>2026-04-19T15:30:28.13Z</time></trkpt><trkpt lat="39.8556891" lon="15.8844395"><ele>232.0</ele><time>2026-04-19T15:30:29.13Z</time></trkpt><trkpt lat="39.8557558" lon="15.8845312"><ele>232.0</ele><time>2026-04-19T15:30:30.13Z</time></trkpt><trkpt lat="39.8558508" lon="15.8846123"><ele>232.25</ele><time>2026-04-19T15:30:31.13Z</time></trkpt><trkpt lat="39.8559581" lon="15.8846863"><ele>232.5</ele><time>2026-04-19T15:30:32.13Z</time></trkpt><trkpt lat="39.8560594" lon="15.8847636"><ele>232.75</ele><time>2026-04-19T15:30:33.129Z</time></trkpt><trkpt lat="39.8561515" lon="15.8848535"><ele>233.0</ele><time>2026-04-19T15:30:34.13Z</time></trkpt><trkpt lat="39.85624" lon="15.8849474"><ele>233.0</ele><time>2026-04-19T15:30:35.13Z</time></trkpt><trkpt lat="39.8563294" lon="15.8850492"><ele>233.0</ele><time>2026-04-19T15:30:36.13Z</time></trkpt><trkpt lat="39.8564166" lon="15.8851568"><ele>233.0</ele><time>2026-04-19T15:30:37.129Z</time></trkpt><trkpt lat="39.8565051" lon="15.8852772"><ele>233.0</ele><time>2026-04-19T15:30:38.129Z</time></trkpt><trkpt lat="39.8565831" lon="15.8853973"><ele>233.60000000000002</ele><time>2026-04-19T15:30:39.129Z</time></trkpt><trkpt lat="39.8566581" lon="15.8855164"><ele>234.20000000000002</ele><time>2026-04-19T15:30:40.129Z</time></trkpt><trkpt lat="39.8567256" lon="15.8856349"><ele>234.8</ele><time>2026-04-19T15:30:41.129Z</time></trkpt><trkpt lat="39.8567769" lon="15.8857416"><ele>235.4</ele><time>2026-04-19T15:30:42.129Z</time></trkpt><trkpt lat="39.8568193" lon="15.8858452"><ele>236.0</ele><time>2026-04-19T15:30:43.13Z</time></trkpt><trkpt lat="39.8568505" lon="15.8859444"><ele>232.50000000000003</ele><time>2026-04-19T15:30:44.13Z</time></trkpt><trkpt lat="39.8568752" lon="15.8860459"><ele>229.0</ele><time>2026-04-19T15:30:45.129Z</time></trkpt><trkpt lat="39.8568995" lon="15.8861512"><ele>225.5</ele><time>2026-04-19T15:30:46.13Z</time></trkpt><trkpt lat="39.8569391" lon="15.8862468"><ele>222.0</ele><time>2026-04-19T15:30:47.13Z</time></trkpt><trkpt lat="39.8570075" lon="15.8863143"><ele>218.50000000000003</ele><time>2026-04-19T15:30:48.129Z</time></trkpt><trkpt lat="39.8570961" lon="15.8863575"><ele>215.0</ele><time>2026-04-19T15:30:49.129Z</time></trkpt><trkpt lat="39.8571879" lon="15.886393"><ele>215.0</ele><time>2026-04-19T15:30:50.13Z</time></trkpt><trkpt lat="39.8572589" lon="15.8864361"><ele>215.0</ele><time>2026-04-19T15:30:51.129Z</time></trkpt><trkpt lat="39.8573098" lon="15.8864954"><ele>215.0</ele><time>2026-04-19T15:30:52.13Z</time></trkpt><trkpt lat="39.8573394" lon="15.8865691"><ele>215.0</ele><time>2026-04-19T15:30:53.13Z</time></trkpt><trkpt lat="39.8573534" lon="15.8866591"><ele>215.0</ele><time>2026-04-19T15:30:54.13Z</time></trkpt><trkpt lat="39.8573861" lon="15.8867479"><ele>215.0</ele><time>2026-04-19T15:30:55.13Z</time></trkpt><trkpt lat="39.8574495" lon="15.8868233"><ele>215.0</ele><time>2026-04-19T15:30:56.129Z</time></trkpt><trkpt lat="39.8575355" lon="15.8868841"><ele>208.8</ele><time>2026-04-19T15:30:57.129Z</time></trkpt><trkpt lat="39.8576272" lon="15.8869329"><ele>202.6</ele><time>2026-04-19T15:30:58.129Z</time></trkpt><trkpt lat="39.8577132" lon="15.8869794"><ele>196.39999999999998</ele><time>2026-04-19T15:30:59.13Z</time></trkpt><trkpt lat="39.8578013" lon="15.8870067"><ele>190.2</ele><time>2026-04-19T15:31:00.13Z</time></trkpt><trkpt lat="39.8578989" lon="15.8869953"><ele>184.0</ele><time>2026-04-19T15:31:01.129Z</time></trkpt><trkpt lat="39.8580204" lon="15.8869487"><ele>184.0</ele><time>2026-04-19T15:31:02.13Z</time></trkpt><trkpt lat="39.8581306" lon="15.8868883"><ele>184.0</ele><time>2026-04-19T15:31:03.129Z</time></trkpt><trkpt lat="39.8582306" lon="15.8868311"><ele>184.0</ele><time>2026-04-19T15:31:04.13Z</time></trkpt><trkpt lat="39.8583244" lon="15.8867807"><ele>184.0</ele><time>2026-04-19T15:31:05.129Z</time></trkpt><trkpt lat="39.8584137" lon="15.8867436"><ele>184.0</ele><time>2026-04-19T15:31:06.13Z</time></trkpt><trkpt lat="39.8585046" lon="15.8867249"><ele>185.25</ele><time>2026-04-19T15:31:07.13Z</time></trkpt><trkpt lat="39.8586041" lon="15.8867393"><ele>186.5</ele><time>2026-04-19T15:31:08.13Z</time></trkpt><trkpt lat="39.8587091" lon="15.8867917"><ele>187.75</ele><time>2026-04-19T15:31:09.129Z</time></trkpt><trkpt lat="39.8588239" lon="15.8868582"><ele>189.0</ele><time>2026-04-19T15:31:10.13Z</time></trkpt><trkpt lat="39.8589413" lon="15.8869321"><ele>189.0</ele><time>2026-04-19T15:31:11.129Z</time></trkpt><trkpt lat="39.8590534" lon="15.8870149"><ele>189.0</ele><time>2026-04-19T15:31:12.13Z</time></trkpt><trkpt lat="39.859161" lon="15.8871112"><ele>189.0</ele><time>2026-04-19T15:31:13.13Z</time></trkpt><trkpt lat="39.8592654" lon="15.8872105"><ele>189.0</ele><time>2026-04-19T15:31:14.13Z</time></trkpt><trkpt lat="39.8593635" lon="15.887307"><ele>190.2</ele><time>2026-04-19T15:31:15.129Z</time></trkpt><trkpt lat="39.8594621" lon="15.8873975"><ele>191.39999999999998</ele><time>2026-04-19T15:31:16.13Z</time></trkpt><trkpt lat="39.8595553" lon="15.8874859"><ele>192.6</ele><time>2026-04-19T15:31:17.129Z</time></trkpt><trkpt lat="39.8596466" lon="15.887559"><ele>193.8</ele><time>2026-04-19T15:31:18.13Z</time></trkpt><trkpt lat="39.8597352" lon="15.8876293"><ele>195.0</ele><time>2026-04-19T15:31:19.129Z</time></trkpt><trkpt lat="39.8598197" lon="15.8876726"><ele>195.0</ele><time>2026-04-19T15:31:20.129Z</time></trkpt><trkpt lat="39.8599003" lon="15.8876937"><ele>195.0</ele><time>2026-04-19T15:31:21.129Z</time></trkpt><trkpt lat="39.859981" lon="15.8876722"><ele>195.0</ele><time>2026-04-19T15:31:22.13Z</time></trkpt><trkpt lat="39.8600538" lon="15.8876063"><ele>195.0</ele><time>2026-04-19T15:31:23.129Z</time></trkpt><trkpt lat="39.8601139" lon="15.8875131"><ele>195.0</ele><time>2026-04-19T15:31:24.129Z</time></trkpt><trkpt lat="39.8601769" lon="15.8874276"><ele>195.0</ele><time>2026-04-19T15:31:25.13Z</time></trkpt><trkpt lat="39.8602517" lon="15.8873839"><ele>193.0</ele><time>2026-04-19T15:31:26.129Z</time></trkpt><trkpt lat="39.8603323" lon="15.8873809"><ele>191.0</ele><time>2026-04-19T15:31:27.13Z</time></trkpt><trkpt lat="39.8604178" lon="15.8874129"><ele>189.0</ele><time>2026-04-19T15:31:28.129Z</time></trkpt><trkpt lat="39.8605069" lon="15.8874363"><ele>187.0</ele><time>2026-04-19T15:31:29.129Z</time></trkpt><trkpt lat="39.8606058" lon="15.8874182"><ele>185.0</ele><time>2026-04-19T15:31:30.129Z</time></trkpt><trkpt lat="39.8607046" lon="15.8873568"><ele>185.0</ele><time>2026-04-19T15:31:31.129Z</time></trkpt><trkpt lat="39.8608009" lon="15.887282"><ele>185.0</ele><time>2026-04-19T15:31:32.129Z</time></trkpt><trkpt lat="39.8608851" lon="15.8871977"><ele>185.0</ele><time>2026-04-19T15:31:33.129Z</time></trkpt><trkpt lat="39.86095" lon="15.8870941"><ele>185.0</ele><time>2026-04-19T15:31:34.129Z</time></trkpt><trkpt lat="39.8610126" lon="15.8869949"><ele>185.0</ele><time>2026-04-19T15:31:35.13Z</time></trkpt><trkpt lat="39.8610613" lon="15.8869214"><ele>180.8</ele><time>2026-04-19T15:31:36.13Z</time></trkpt><trkpt lat="39.8611193" lon="15.8868741"><ele>176.6</ele><time>2026-04-19T15:31:37.13Z</time></trkpt><trkpt lat="39.8612349" lon="15.886889"><ele>172.39999999999998</ele><time>2026-04-19T15:31:39.129Z</time></trkpt><trkpt lat="39.8612922" lon="15.8870423"><ele>168.2</ele><time>2026-04-19T15:31:41.13Z</time></trkpt><trkpt lat="39.8613234" lon="15.8871346"><ele>164.0</ele><time>2026-04-19T15:31:42.129Z</time></trkpt><trkpt lat="39.8613783" lon="15.8871979"><ele>164.0</ele><time>2026-04-19T15:31:43.13Z</time></trkpt><trkpt lat="39.8614576" lon="15.8872153"><ele>164.0</ele><time>2026-04-19T15:31:44.129Z</time></trkpt><trkpt lat="39.8615396" lon="15.8871834"><ele>164.0</ele><time>2026-04-19T15:31:45.13Z</time></trkpt><trkpt lat="39.8616187" lon="15.8871145"><ele>164.0</ele><time>2026-04-19T15:31:46.13Z</time></trkpt><trkpt lat="39.861697" lon="15.8870422"><ele>164.0</ele><time>2026-04-19T15:31:47.13Z</time></trkpt><trkpt lat="39.8617811" lon="15.8869817"><ele>164.6</ele><time>2026-04-19T15:31:48.13Z</time></trkpt><trkpt lat="39.861868" lon="15.8869294"><ele>165.2</ele><time>2026-04-19T15:31:49.129Z</time></trkpt><trkpt lat="39.8619622" lon="15.8868988"><ele>165.79999999999998</ele><time>2026-04-19T15:31:50.129Z</time></trkpt><trkpt lat="39.8620593" lon="15.8868699"><ele>166.39999999999998</ele><time>2026-04-19T15:31:51.13Z</time></trkpt><trkpt lat="39.8621639" lon="15.8868632"><ele>167.0</ele><time>2026-04-19T15:31:52.129Z</time></trkpt><trkpt lat="39.8622593" lon="15.8868625"><ele>167.0</ele><time>2026-04-19T15:31:53.13Z</time></trkpt><trkpt lat="39.8623424" lon="15.8868734"><ele>167.0</ele><time>2026-04-19T15:31:54.13Z</time></trkpt><trkpt lat="39.8624188" lon="15.8868939"><ele>167.0</ele><time>2026-04-19T15:31:55.13Z</time></trkpt><trkpt lat="39.8624868" lon="15.8869415"><ele>167.0</ele><time>2026-04-19T15:31:56.13Z</time></trkpt><trkpt lat="39.8625386" lon="15.8869956"><ele>167.0</ele><time>2026-04-19T15:31:57.13Z</time></trkpt><trkpt lat="39.8625826" lon="15.8870576"><ele>167.0</ele><time>2026-04-19T15:31:58.13Z</time></trkpt><trkpt lat="39.8626485" lon="15.8871717"><ele>174.16666666666666</ele><time>2026-04-19T15:32:00.129Z</time></trkpt><trkpt lat="39.8627033" lon="15.887265"><ele>181.33333333333331</ele><time>2026-04-19T15:32:02.13Z</time></trkpt><trkpt lat="39.8627649" lon="15.8873727"><ele>188.5</ele><time>2026-04-19T15:32:04.129Z</time></trkpt><trkpt lat="39.8627984" lon="15.8875177"><ele>195.66666666666666</ele><time>2026-04-19T15:32:06.129Z</time></trkpt><trkpt lat="39.8627802" lon="15.8875995"><ele>202.83333333333334</ele><time>2026-04-19T15:32:07.129Z</time></trkpt><trkpt lat="39.8627387" lon="15.8876779"><ele>210.0</ele><time>2026-04-19T15:32:08.129Z</time></trkpt><trkpt lat="39.8626855" lon="15.8877634"><ele>206.6</ele><time>2026-04-19T15:32:09.13Z</time></trkpt><trkpt lat="39.8626198" lon="15.8878513"><ele>203.2</ele><time>2026-04-19T15:32:10.129Z</time></trkpt><trkpt lat="39.8625408" lon="15.8879384"><ele>199.8</ele><time>2026-04-19T15:32:11.129Z</time></trkpt><trkpt lat="39.8624528" lon="15.8880258"><ele>196.4</ele><time>2026-04-19T15:32:12.129Z</time></trkpt><trkpt lat="39.8623634" lon="15.8881136"><ele>193.0</ele><time>2026-04-19T15:32:13.129Z</time></trkpt><trkpt lat="39.8622714" lon="15.8881927"><ele>193.0</ele><time>2026-04-19T15:32:14.129Z</time></trkpt><trkpt lat="39.8621897" lon="15.8882679"><ele>193.0</ele><time>2026-04-19T15:32:15.129Z</time></trkpt><trkpt lat="39.8621172" lon="15.8883481"><ele>193.0</ele><time>2026-04-19T15:32:16.129Z</time></trkpt><trkpt lat="39.862055" lon="15.8884396"><ele>193.0</ele><time>2026-04-19T15:32:17.129Z</time></trkpt><trkpt lat="39.8620101" lon="15.888542"><ele>193.0</ele><time>2026-04-19T15:32:18.13Z</time></trkpt><trkpt lat="39.8619904" lon="15.888662"><ele>197.8</ele><time>2026-04-19T15:32:19.129Z</time></trkpt><trkpt lat="39.8619889" lon="15.8888013"><ele>202.60000000000002</ele><time>2026-04-19T15:32:20.13Z</time></trkpt><trkpt lat="39.8619875" lon="15.8889479"><ele>207.39999999999998</ele><time>2026-04-19T15:32:21.129Z</time></trkpt><trkpt lat="39.8619629" lon="15.8890953"><ele>212.2</ele><time>2026-04-19T15:32:22.129Z</time></trkpt><trkpt lat="39.8619325" lon="15.8892382"><ele>217.0</ele><time>2026-04-19T15:32:23.13Z</time></trkpt><trkpt lat="39.8618974" lon="15.8893783"><ele>218.8</ele><time>2026-04-19T15:32:24.13Z</time></trkpt><trkpt lat="39.8618571" lon="15.8895183"><ele>220.6</ele><time>2026-04-19T15:32:25.129Z</time></trkpt><trkpt lat="39.861814" lon="15.8896396"><ele>222.40000000000003</ele><time>2026-04-19T15:32:26.129Z</time></trkpt><trkpt lat="39.8617735" lon="15.8897452"><ele>224.20000000000002</ele><time>2026-04-19T15:32:27.13Z</time></trkpt><trkpt lat="39.8617281" lon="15.8898425"><ele>226.0</ele><time>2026-04-19T15:32:28.13Z</time></trkpt><trkpt lat="39.8616724" lon="15.8899255"><ele>214.8</ele><time>2026-04-19T15:32:29.13Z</time></trkpt><trkpt lat="39.8615988" lon="15.8900024"><ele>203.60000000000002</ele><time>2026-04-19T15:32:30.13Z</time></trkpt><trkpt lat="39.8615098" lon="15.8900654"><ele>192.4</ele><time>2026-04-19T15:32:31.13Z</time></trkpt><trkpt lat="39.8614176" lon="15.8901264"><ele>181.2</ele><time>2026-04-19T15:32:32.129Z</time></trkpt><trkpt lat="39.8613344" lon="15.8901934"><ele>170.0</ele><time>2026-04-19T15:32:33.13Z</time></trkpt><trkpt lat="39.8612643" lon="15.8902629"><ele>168.25</ele><time>2026-04-19T15:32:34.129Z</time></trkpt><trkpt lat="39.8611889" lon="15.8903266"><ele>166.5</ele><time>2026-04-19T15:32:35.13Z</time></trkpt><trkpt lat="39.8611381" lon="15.8904058"><ele>164.75</ele><time>2026-04-19T15:32:36.13Z</time></trkpt><trkpt lat="39.8611419" lon="15.8905492"><ele>163.0</ele><time>2026-04-19T15:32:38.129Z</time></trkpt><trkpt lat="39.8612701" lon="15.8907467"><ele>163.0</ele><time>2026-04-19T15:32:40.13Z</time></trkpt><trkpt lat="39.8613442" lon="15.8908401"><ele>163.0</ele><time>2026-04-19T15:32:41.129Z</time></trkpt><trkpt lat="39.8614205" lon="15.8909337"><ele>163.0</ele><time>2026-04-19T15:32:42.13Z</time></trkpt><trkpt lat="39.8615046" lon="15.8910122"><ele>163.0</ele><time>2026-04-19T15:32:43.13Z</time></trkpt><trkpt lat="39.861634" lon="15.8909997"><ele>163.0</ele><time>2026-04-19T15:32:44.129Z</time></trkpt><trkpt lat="39.8617456" lon="15.8910192"><ele>159.0</ele><time>2026-04-19T15:32:45.13Z</time></trkpt><trkpt lat="39.8618572" lon="15.8910579"><ele>155.0</ele><time>2026-04-19T15:32:46.129Z</time></trkpt><trkpt lat="39.861976" lon="15.8911395"><ele>151.0</ele><time>2026-04-19T15:32:47.129Z</time></trkpt><trkpt lat="39.8620997" lon="15.8912223"><ele>147.0</ele><time>2026-04-19T15:32:48.13Z</time></trkpt><trkpt lat="39.8622191" lon="15.8912922"><ele>147.0</ele><time>2026-04-19T15:32:49.129Z</time></trkpt><trkpt lat="39.8623376" lon="15.8913848"><ele>147.0</ele><time>2026-04-19T15:32:50.13Z</time></trkpt><trkpt lat="39.8624561" lon="15.8914779"><ele>147.0</ele><time>2026-04-19T15:32:51.13Z</time></trkpt><trkpt lat="39.8625676" lon="15.8915594"><ele>147.0</ele><time>2026-04-19T15:32:52.129Z</time></trkpt><trkpt lat="39.8626716" lon="15.8916329"><ele>150.33333333333334</ele><time>2026-04-19T15:32:53.13Z</time></trkpt><trkpt lat="39.8627556" lon="15.8916982"><ele>153.66666666666666</ele><time>2026-04-19T15:32:54.129Z</time></trkpt><trkpt lat="39.8628322" lon="15.8917542"><ele>157.0</ele><time>2026-04-19T15:32:55.13Z</time></trkpt><trkpt lat="39.8629096" lon="15.8918204"><ele>160.33333333333331</ele><time>2026-04-19T15:32:57.13Z</time></trkpt><trkpt lat="39.8629754" lon="15.891865"><ele>163.66666666666666</ele><time>2026-04-19T15:37:12.13Z</time></trkpt><trkpt lat="39.863041" lon="15.891915"><ele>167.0</ele><time>2026-04-19T15:37:14.129Z</time></trkpt><trkpt lat="39.8631146" lon="15.89197"><ele>163.79999999999998</ele><time>2026-04-19T15:37:16.129Z</time></trkpt><trkpt lat="39.8632009" lon="15.8920319"><ele>160.6</ele><time>2026-04-19T15:37:18.13Z</time></trkpt><trkpt lat="39.8632942" lon="15.892095"><ele>157.39999999999998</ele><time>2026-04-19T15:37:20.129Z</time></trkpt><trkpt lat="39.8633988" lon="15.8921443"><ele>154.2</ele><time>2026-04-19T15:37:22.129Z</time></trkpt><trkpt lat="39.8635126" lon="15.8921693"><ele>151.0</ele><time>2026-04-19T15:37:24.129Z</time></trkpt><trkpt lat="39.8635763" lon="15.8921697"><ele>151.0</ele><time>2026-04-19T15:37:25.13Z</time></trkpt><trkpt lat="39.8636968" lon="15.8921827"><ele>151.0</ele><time>2026-04-19T15:37:27.129Z</time></trkpt><trkpt lat="39.863816" lon="15.8922328"><ele>151.0</ele><time>2026-04-19T15:37:29.13Z</time></trkpt><trkpt lat="39.8639135" lon="15.8922935"><ele>151.0</ele><time>2026-04-19T15:37:31.13Z</time></trkpt><trkpt lat="39.8640064" lon="15.8923822"><ele>151.0</ele><time>2026-04-19T15:37:33.129Z</time></trkpt><trkpt lat="39.8640868" lon="15.8924671"><ele>151.0</ele><time>2026-04-19T15:37:35.13Z</time></trkpt><trkpt lat="39.8641445" lon="15.8925397"><ele>151.0</ele><time>2026-04-19T15:37:37.129Z</time></trkpt><trkpt lat="39.8642072" lon="15.892623"><ele>151.0</ele><time>2026-04-19T15:37:39.13Z</time></trkpt><trkpt lat="39.8642573" lon="15.8926867"><ele>151.0</ele><time>2026-04-19T15:37:40.13Z</time></trkpt><trkpt lat="39.8643136" lon="15.8927639"><ele>151.0</ele><time>2026-04-19T15:37:41.129Z</time></trkpt><trkpt lat="39.8643695" lon="15.8928231"><ele>152.33333333333334</ele><time>2026-04-19T15:37:42.13Z</time></trkpt><trkpt lat="39.8644209" lon="15.8928804"><ele>153.66666666666669</ele><time>2026-04-19T15:37:43.129Z</time></trkpt><trkpt lat="39.8644738" lon="15.8929494"><ele>155.0</ele><time>2026-04-19T15:37:44.129Z</time></trkpt><trkpt lat="39.8645293" lon="15.8930297"><ele>156.33333333333334</ele><time>2026-04-19T15:37:45.129Z</time></trkpt><trkpt lat="39.8645777" lon="15.893105"><ele>157.66666666666666</ele><time>2026-04-19T15:37:46.129Z</time></trkpt><trkpt lat="39.8646134" lon="15.8931726"><ele>159.0</ele><time>2026-04-19T15:37:47.129Z</time></trkpt><trkpt lat="39.8646649" lon="15.8933245"><ele>159.0</ele><time>2026-04-19T15:37:49.13Z</time></trkpt><trkpt lat="39.8646895" lon="15.893418"><ele>159.0</ele><time>2026-04-19T15:37:50.13Z</time></trkpt><trkpt lat="39.8647063" lon="15.8935087"><ele>159.0</ele><time>2026-04-19T15:37:51.13Z</time></trkpt><trkpt lat="39.8647215" lon="15.8935923"><ele>159.0</ele><time>2026-04-19T15:37:52.129Z</time></trkpt><trkpt lat="39.8647491" lon="15.8937475"><ele>159.0</ele><time>2026-04-19T15:37:54.13Z</time></trkpt><trkpt lat="39.8647715" lon="15.8938318"><ele>159.0</ele><time>2026-04-19T15:37:55.13Z</time></trkpt><trkpt lat="39.8648111" lon="15.8939195"><ele>155.33333333333334</ele><time>2026-04-19T15:37:56.129Z</time></trkpt><trkpt lat="39.8648649" lon="15.8939948"><ele>151.66666666666666</ele><time>2026-04-19T15:37:57.13Z</time></trkpt><trkpt lat="39.8649179" lon="15.8940666"><ele>148.0</ele><time>2026-04-19T15:37:58.129Z</time></trkpt><trkpt lat="39.8649919" lon="15.8941437"><ele>144.33333333333331</ele><time>2026-04-19T15:37:59.129Z</time></trkpt><trkpt lat="39.8650626" lon="15.8942266"><ele>140.66666666666666</ele><time>2026-04-19T15:38:00.13Z</time></trkpt><trkpt lat="39.8651159" lon="15.8942897"><ele>137.0</ele><time>2026-04-19T15:38:01.13Z</time></trkpt><trkpt lat="39.8651681" lon="15.8943566"><ele>147.5</ele><time>2026-04-19T15:38:02.129Z</time></trkpt><trkpt lat="39.8652018" lon="15.8944266"><ele>158.0</ele><time>2026-04-19T15:38:03.13Z</time></trkpt><trkpt lat="39.8652191" lon="15.8945137"><ele>168.5</ele><time>2026-04-19T15:38:04.13Z</time></trkpt><trkpt lat="39.8652157" lon="15.8946206"><ele>179.0</ele><time>2026-04-19T15:38:05.13Z</time></trkpt><trkpt lat="39.8651931" lon="15.8947253"><ele>189.50000000000003</ele><time>2026-04-19T15:38:06.129Z</time></trkpt><trkpt lat="39.8651834" lon="15.8948283"><ele>200.0</ele><time>2026-04-19T15:38:07.129Z</time></trkpt><trkpt lat="39.8651935" lon="15.8949515"><ele>198.4</ele><time>2026-04-19T15:38:08.129Z</time></trkpt><trkpt lat="39.8652215" lon="15.8951062"><ele>196.8</ele><time>2026-04-19T15:38:09.129Z</time></trkpt><trkpt lat="39.8652541" lon="15.8952521"><ele>195.2</ele><time>2026-04-19T15:38:10.13Z</time></trkpt><trkpt lat="39.8652896" lon="15.8953848"><ele>193.6</ele><time>2026-04-19T15:38:11.129Z</time></trkpt><trkpt lat="39.8653331" lon="15.8955011"><ele>192.0</ele><time>2026-04-19T15:38:12.13Z</time></trkpt><trkpt lat="39.865391" lon="15.8956082"><ele>192.0</ele><time>2026-04-19T15:38:13.129Z</time></trkpt><trkpt lat="39.8654552" lon="15.895715"><ele>192.0</ele><time>2026-04-19T15:38:14.13Z</time></trkpt><trkpt lat="39.8654998" lon="15.8958307"><ele>192.0</ele><time>2026-04-19T15:38:15.13Z</time></trkpt><trkpt lat="39.8655317" lon="15.8959425"><ele>192.0</ele><time>2026-04-19T15:38:16.129Z</time></trkpt><trkpt lat="39.8655674" lon="15.8960969"><ele>192.0</ele><time>2026-04-19T15:38:17.129Z</time></trkpt><trkpt lat="39.8656028" lon="15.896244"><ele>188.0</ele><time>2026-04-19T15:38:18.129Z</time></trkpt><trkpt lat="39.8656389" lon="15.8963902"><ele>184.0</ele><time>2026-04-19T15:38:19.129Z</time></trkpt><trkpt lat="39.8656802" lon="15.8965336"><ele>180.0</ele><time>2026-04-19T15:38:20.13Z</time></trkpt><trkpt lat="39.8657078" lon="15.8966771"><ele>176.0</ele><time>2026-04-19T15:38:21.13Z</time></trkpt><trkpt lat="39.8657377" lon="15.8968249"><ele>170.0</ele><time>2026-04-19T15:38:22.13Z</time></trkpt><trkpt lat="39.8657594" lon="15.8969753"><ele>164.0</ele><time>2026-04-19T15:38:23.129Z</time></trkpt><trkpt lat="39.8657899" lon="15.8971564"><ele>158.0</ele><time>2026-04-19T15:38:24.129Z</time></trkpt><trkpt lat="39.8658159" lon="15.8973238"><ele>152.0</ele><time>2026-04-19T15:38:25.129Z</time></trkpt><trkpt lat="39.8658405" lon="15.8974838"><ele>145.5</ele><time>2026-04-19T15:38:26.129Z</time></trkpt><trkpt lat="39.8658764" lon="15.8976499"><ele>139.0</ele><time>2026-04-19T15:38:27.129Z</time></trkpt><trkpt lat="39.8659296" lon="15.8978164"><ele>132.5</ele><time>2026-04-19T15:38:28.129Z</time></trkpt><trkpt lat="39.8659789" lon="15.8979944"><ele>126.0</ele><time>2026-04-19T15:38:29.13Z</time></trkpt><trkpt lat="39.8660288" lon="15.8981817"><ele>134.25</ele><time>2026-04-19T15:38:30.129Z</time></trkpt><trkpt lat="39.8660768" lon="15.8983691"><ele>142.5</ele><time>2026-04-19T15:38:31.129Z</time></trkpt><trkpt lat="39.8661307" lon="15.8985524"><ele>150.75</ele><time>2026-04-19T15:38:32.13Z</time></trkpt><trkpt lat="39.8661917" lon="15.8987161"><ele>159.0</ele><time>2026-04-19T15:38:33.129Z</time></trkpt><trkpt lat="39.8662351" lon="15.8988738"><ele>159.0</ele><time>2026-04-19T15:38:34.13Z</time></trkpt><trkpt lat="39.8662767" lon="15.8990221"><ele>159.0</ele><time>2026-04-19T15:38:35.13Z</time></trkpt><trkpt lat="39.8663139" lon="15.8991649"><ele>159.0</ele><time>2026-04-19T15:38:36.13Z</time></trkpt><trkpt lat="39.8663475" lon="15.899303"><ele>159.0</ele><time>2026-04-19T15:38:37.13Z</time></trkpt><trkpt lat="39.8663764" lon="15.8994457"><ele>153.66666666666666</ele><time>2026-04-19T15:38:38.13Z</time></trkpt><trkpt lat="39.8664037" lon="15.8995768"><ele>148.33333333333334</ele><time>2026-04-19T15:38:39.129Z</time></trkpt><trkpt lat="39.8664322" lon="15.8996979"><ele>143.0</ele><time>2026-04-19T15:38:40.129Z</time></trkpt><trkpt lat="39.8664438" lon="15.8998147"><ele>137.66666666666669</ele><time>2026-04-19T15:38:41.13Z</time></trkpt><trkpt lat="39.8664509" lon="15.8999038"><ele>132.33333333333334</ele><time>2026-04-19T15:38:42.129Z</time></trkpt><trkpt lat="39.8664557" lon="15.8999857"><ele>127.0</ele><time>2026-04-19T15:38:43.129Z</time></trkpt><trkpt lat="39.8664385" lon="15.9000703"><ele>128.5</ele><time>2026-04-19T15:38:44.13Z</time></trkpt><trkpt lat="39.8664153" lon="15.9001614"><ele>130.0</ele><time>2026-04-19T15:38:45.13Z</time></trkpt><trkpt lat="39.8663888" lon="15.9002435"><ele>131.5</ele><time>2026-04-19T15:38:46.129Z</time></trkpt><trkpt lat="39.8663685" lon="15.9003238"><ele>133.0</ele><time>2026-04-19T15:38:47.129Z</time></trkpt><trkpt lat="39.8663654" lon="15.9004156"><ele>134.5</ele><time>2026-04-19T15:38:48.13Z</time></trkpt><trkpt lat="39.8663994" lon="15.9005721"><ele>136.0</ele><time>2026-04-19T15:38:50.129Z</time></trkpt><trkpt lat="39.8664444" lon="15.9006592"><ele>136.0</ele><time>2026-04-19T15:38:51.13Z</time></trkpt><trkpt lat="39.8664926" lon="15.9007412"><ele>136.0</ele><time>2026-04-19T15:38:52.129Z</time></trkpt><trkpt lat="39.8665508" lon="15.9008284"><ele>136.0</ele><time>2026-04-19T15:38:53.129Z</time></trkpt><trkpt lat="39.8666062" lon="15.9009173"><ele>136.0</ele><time>2026-04-19T15:38:54.129Z</time></trkpt><trkpt lat="39.8666659" lon="15.9010064"><ele>136.0</ele><time>2026-04-19T15:38:55.129Z</time></trkpt><trkpt lat="39.8667397" lon="15.9010925"><ele>136.0</ele><time>2026-04-19T15:38:56.129Z</time></trkpt><trkpt lat="39.8668191" lon="15.901178"><ele>137.2</ele><time>2026-04-19T15:38:57.13Z</time></trkpt><trkpt lat="39.8669008" lon="15.9012708"><ele>138.39999999999998</ele><time>2026-04-19T15:38:58.13Z</time></trkpt><trkpt lat="39.8669839" lon="15.9013618"><ele>139.6</ele><time>2026-04-19T15:38:59.129Z</time></trkpt><trkpt lat="39.8670737" lon="15.9014428"><ele>140.79999999999998</ele><time>2026-04-19T15:39:00.13Z</time></trkpt><trkpt lat="39.8671696" lon="15.9015114"><ele>142.0</ele><time>2026-04-19T15:39:01.129Z</time></trkpt><trkpt lat="39.8672761" lon="15.9015743"><ele>142.0</ele><time>2026-04-19T15:39:02.129Z</time></trkpt><trkpt lat="39.8673845" lon="15.9016372"><ele>142.0</ele><time>2026-04-19T15:39:03.13Z</time></trkpt><trkpt lat="39.8675028" lon="15.9016719"><ele>142.0</ele><time>2026-04-19T15:39:04.129Z</time></trkpt><trkpt lat="39.86762" lon="15.9016909"><ele>142.0</ele><time>2026-04-19T15:39:05.13Z</time></trkpt><trkpt lat="39.8677329" lon="15.9016859"><ele>142.75</ele><time>2026-04-19T15:39:06.129Z</time></trkpt><trkpt lat="39.8678478" lon="15.9016741"><ele>143.5</ele><time>2026-04-19T15:39:07.13Z</time></trkpt><trkpt lat="39.8679627" lon="15.9016477"><ele>144.25</ele><time>2026-04-19T15:39:08.13Z</time></trkpt><trkpt lat="39.8680807" lon="15.9016129"><ele>145.0</ele><time>2026-04-19T15:39:09.129Z</time></trkpt><trkpt lat="39.8681889" lon="15.9015641"><ele>145.0</ele><time>2026-04-19T15:39:10.13Z</time></trkpt><trkpt lat="39.8682949" lon="15.9015242"><ele>145.0</ele><time>2026-04-19T15:39:11.13Z</time></trkpt><trkpt lat="39.8683959" lon="15.901481"><ele>145.0</ele><time>2026-04-19T15:39:12.13Z</time></trkpt><trkpt lat="39.8684941" lon="15.9014525"><ele>145.0</ele><time>2026-04-19T15:39:13.13Z</time></trkpt><trkpt lat="39.8685835" lon="15.9014345"><ele>145.0</ele><time>2026-04-19T15:39:14.13Z</time></trkpt><trkpt lat="39.8686656" lon="15.9014379"><ele>147.0</ele><time>2026-04-19T15:39:15.129Z</time></trkpt><trkpt lat="39.8687444" lon="15.9014683"><ele>149.0</ele><time>2026-04-19T15:39:16.13Z</time></trkpt><trkpt lat="39.8688146" lon="15.9015216"><ele>151.0</ele><time>2026-04-19T15:39:17.129Z</time></trkpt><trkpt lat="39.8688765" lon="15.9016049"><ele>153.0</ele><time>2026-04-19T15:39:18.129Z</time></trkpt><trkpt lat="39.8689319" lon="15.9017065"><ele>155.0</ele><time>2026-04-19T15:39:19.13Z</time></trkpt><trkpt lat="39.8689913" lon="15.9018234"><ele>155.0</ele><time>2026-04-19T15:39:20.13Z</time></trkpt><trkpt lat="39.8690488" lon="15.90195"><ele>155.0</ele><time>2026-04-19T15:39:21.13Z</time></trkpt><trkpt lat="39.8691091" lon="15.902081"><ele>155.0</ele><time>2026-04-19T15:39:22.129Z</time></trkpt><trkpt lat="39.869175" lon="15.902211"><ele>155.0</ele><time>2026-04-19T15:39:23.13Z</time></trkpt><trkpt lat="39.8692443" lon="15.9023448"><ele>150.0</ele><time>2026-04-19T15:39:24.129Z</time></trkpt><trkpt lat="39.8693182" lon="15.9024851"><ele>145.0</ele><time>2026-04-19T15:39:25.13Z</time></trkpt><trkpt lat="39.8693907" lon="15.9026315"><ele>140.0</ele><time>2026-04-19T15:39:26.13Z</time></trkpt><trkpt lat="39.8694595" lon="15.9027812"><ele>135.0</ele><time>2026-04-19T15:39:27.13Z</time></trkpt><trkpt lat="39.869532" lon="15.9029253"><ele>135.0</ele><time>2026-04-19T15:39:28.129Z</time></trkpt><trkpt lat="39.8695817" lon="15.9030567"><ele>135.0</ele><time>2026-04-19T15:39:29.13Z</time></trkpt><trkpt lat="39.8696257" lon="15.9031818"><ele>135.0</ele><time>2026-04-19T15:39:30.13Z</time></trkpt><trkpt lat="39.8696622" lon="15.9033016"><ele>135.0</ele><time>2026-04-19T15:39:31.13Z</time></trkpt><trkpt lat="39.8696941" lon="15.9034334"><ele>135.0</ele><time>2026-04-19T15:39:32.129Z</time></trkpt><trkpt lat="39.8697241" lon="15.9035763"><ele>138.6</ele><time>2026-04-19T15:39:33.129Z</time></trkpt><trkpt lat="39.8697548" lon="15.9037158"><ele>142.2</ele><time>2026-04-19T15:39:34.13Z</time></trkpt><trkpt lat="39.8697902" lon="15.9038429"><ele>145.8</ele><time>2026-04-19T15:39:35.13Z</time></trkpt><trkpt lat="39.8698385" lon="15.9039617"><ele>149.4</ele><time>2026-04-19T15:39:36.129Z</time></trkpt><trkpt lat="39.8698984" lon="15.9040519"><ele>153.0</ele><time>2026-04-19T15:39:37.129Z</time></trkpt><trkpt lat="39.8699657" lon="15.9041401"><ele>153.0</ele><time>2026-04-19T15:39:38.129Z</time></trkpt><trkpt lat="39.8700373" lon="15.9042128"><ele>153.0</ele><time>2026-04-19T15:39:39.13Z</time></trkpt><trkpt lat="39.8701054" lon="15.9042589"><ele>153.0</ele><time>2026-04-19T15:39:40.129Z</time></trkpt><trkpt lat="39.870174" lon="15.9043"><ele>153.0</ele><time>2026-04-19T15:39:41.13Z</time></trkpt><trkpt lat="39.8702463" lon="15.9043356"><ele>153.0</ele><time>2026-04-19T15:39:42.13Z</time></trkpt><trkpt lat="39.870321" lon="15.9043795"><ele>153.0</ele><time>2026-04-19T15:39:43.129Z</time></trkpt><trkpt lat="39.870397" lon="15.9044227"><ele>152.4</ele><time>2026-04-19T15:39:44.13Z</time></trkpt><trkpt lat="39.8704653" lon="15.9044612"><ele>151.8</ele><time>2026-04-19T15:39:45.13Z</time></trkpt><trkpt lat="39.8705262" lon="15.9044951"><ele>151.2</ele><time>2026-04-19T15:39:46.129Z</time></trkpt><trkpt lat="39.8706302" lon="15.904543"><ele>150.6</ele><time>2026-04-19T15:39:48.129Z</time></trkpt><trkpt lat="39.8707288" lon="15.904595"><ele>150.0</ele><time>2026-04-19T15:39:50.129Z</time></trkpt><trkpt lat="39.8708421" lon="15.9046646"><ele>153.25</ele><time>2026-04-19T15:39:52.129Z</time></trkpt><trkpt lat="39.8709568" lon="15.9047388"><ele>156.5</ele><time>2026-04-19T15:39:54.13Z</time></trkpt><trkpt lat="39.8710605" lon="15.9048124"><ele>159.75</ele><time>2026-04-19T15:39:56.129Z</time></trkpt><trkpt lat="39.8711579" lon="15.9048954"><ele>163.0</ele><time>2026-04-19T15:39:58.13Z</time></trkpt><trkpt lat="39.8712273" lon="15.9050118"><ele>163.8</ele><time>2026-04-19T15:40:00.13Z</time></trkpt><trkpt lat="39.8712801" lon="15.90515"><ele>164.60000000000002</ele><time>2026-04-19T15:40:02.129Z</time></trkpt><trkpt lat="39.8713055" lon="15.905228"><ele>165.39999999999998</ele><time>2026-04-19T15:40:03.13Z</time></trkpt><trkpt lat="39.8713506" lon="15.9053772"><ele>166.2</ele><time>2026-04-19T15:40:05.129Z</time></trkpt><trkpt lat="39.8714125" lon="15.9055183"><ele>167.0</ele><time>2026-04-19T15:40:07.129Z</time></trkpt><trkpt lat="39.8714855" lon="15.9056409"><ele>167.0</ele><time>2026-04-19T15:40:09.13Z</time></trkpt><trkpt lat="39.8715151" lon="15.9057759"><ele>167.0</ele><time>2026-04-19T15:40:11.13Z</time></trkpt><trkpt lat="39.8715299" lon="15.9059453"><ele>167.0</ele><time>2026-04-19T15:40:13.13Z</time></trkpt><trkpt lat="39.8715397" lon="15.9060426"><ele>167.0</ele><time>2026-04-19T15:40:14.13Z</time></trkpt><trkpt lat="39.871542" lon="15.9061436"><ele>167.0</ele><time>2026-04-19T15:40:15.13Z</time></trkpt><trkpt lat="39.8715414" lon="15.9062469"><ele>168.0</ele><time>2026-04-19T15:40:16.13Z</time></trkpt><trkpt lat="39.8715455" lon="15.906351"><ele>168.0</ele><time>2026-04-19T15:40:17.13Z</time></trkpt><trkpt lat="39.8715492" lon="15.906449"><ele>168.0</ele><time>2026-04-19T15:40:18.129Z</time></trkpt><trkpt lat="39.8715615" lon="15.9065658"><ele>168.0</ele><time>2026-04-19T15:40:20.129Z</time></trkpt><trkpt lat="39.8715833" lon="15.9066449"><ele>168.0</ele><time>2026-04-19T15:40:22.13Z</time></trkpt></trkseg></trk></gpx>